<?xml version="1.0" encoding="UTF-8" standalone="no" ?>
<gpx xmlns="http://www.topografix.com/GPX/1/1" xmlns:xsi="http://www.w3.org/2001/XMLSchema-instance" xsi:schemaLocation="http://www.topografix.com/GPX/1/1 http://www.topografix.com/GPX/1/1/gpx.xsd" version="1.1" creator="VisuGPX - https://www.visugpx.com">
  <metadata>
    <name>Jura 2018 - 1ère journée</name>
    <desc><![CDATA[Randonnée Lamoura-Les Rousses
]]></desc>
  </metadata>
  <trk>
    <name><![CDATA[ONmove 200 - 03/09/2018]]></name>
    <trkseg>
      <trkpt lat="46.39491" lon="5.96691">
        <ele>1154</ele>
        <time>2018-09-03T15:34:10Z</time>
      </trkpt>
      <trkpt lat="46.39491" lon="5.96691">
        <ele>1154</ele>
        <time>2018-09-03T15:34:15Z</time>
      </trkpt>
      <trkpt lat="46.39493" lon="5.96692">
        <ele>1154</ele>
        <time>2018-09-03T15:34:25Z</time>
      </trkpt>
      <trkpt lat="46.39495" lon="5.96693">
        <ele>1155</ele>
        <time>2018-09-03T15:34:30Z</time>
      </trkpt>
      <trkpt lat="46.39505" lon="5.96691">
        <ele>1156</ele>
        <time>2018-09-03T15:34:40Z</time>
      </trkpt>
      <trkpt lat="46.3951" lon="5.96687">
        <ele>1156</ele>
        <time>2018-09-03T15:34:45Z</time>
      </trkpt>
      <trkpt lat="46.39519" lon="5.9668">
        <ele>1156</ele>
        <time>2018-09-03T15:34:55Z</time>
      </trkpt>
      <trkpt lat="46.39523" lon="5.96678">
        <ele>1156</ele>
        <time>2018-09-03T15:35:00Z</time>
      </trkpt>
      <trkpt lat="46.39528" lon="5.96675">
        <ele>1157</ele>
        <time>2018-09-03T15:35:05Z</time>
      </trkpt>
      <trkpt lat="46.39536" lon="5.96671">
        <ele>1157</ele>
        <time>2018-09-03T15:35:15Z</time>
      </trkpt>
      <trkpt lat="46.3954" lon="5.96669">
        <ele>1157</ele>
        <time>2018-09-03T15:35:20Z</time>
      </trkpt>
      <trkpt lat="46.39547" lon="5.9667">
        <ele>1157</ele>
        <time>2018-09-03T15:35:30Z</time>
      </trkpt>
      <trkpt lat="46.39551" lon="5.96668">
        <ele>1158</ele>
        <time>2018-09-03T15:35:35Z</time>
      </trkpt>
      <trkpt lat="46.39556" lon="5.96664">
        <ele>1158</ele>
        <time>2018-09-03T15:35:45Z</time>
      </trkpt>
      <trkpt lat="46.3956" lon="5.96661">
        <ele>1157</ele>
        <time>2018-09-03T15:35:50Z</time>
      </trkpt>
      <trkpt lat="46.39563" lon="5.96657">
        <ele>1157</ele>
        <time>2018-09-03T15:35:55Z</time>
      </trkpt>
      <trkpt lat="46.3957" lon="5.96652">
        <ele>1157</ele>
        <time>2018-09-03T15:36:05Z</time>
      </trkpt>
      <trkpt lat="46.39572" lon="5.96655">
        <ele>1158</ele>
        <time>2018-09-03T15:36:10Z</time>
      </trkpt>
      <trkpt lat="46.39579" lon="5.96652">
        <ele>1158</ele>
        <time>2018-09-03T15:36:20Z</time>
      </trkpt>
      <trkpt lat="46.39583" lon="5.96647">
        <ele>1158</ele>
        <time>2018-09-03T15:36:25Z</time>
      </trkpt>
      <trkpt lat="46.3959" lon="5.96636">
        <ele>1157</ele>
        <time>2018-09-03T15:36:35Z</time>
      </trkpt>
      <trkpt lat="46.39593" lon="5.96628">
        <ele>1156</ele>
        <time>2018-09-03T15:36:40Z</time>
      </trkpt>
      <trkpt lat="46.39596" lon="5.96621">
        <ele>1156</ele>
        <time>2018-09-03T15:36:45Z</time>
      </trkpt>
      <trkpt lat="46.39603" lon="5.96619">
        <ele>1156</ele>
        <time>2018-09-03T15:36:55Z</time>
      </trkpt>
      <trkpt lat="46.39607" lon="5.96617">
        <ele>1156</ele>
        <time>2018-09-03T15:37:00Z</time>
      </trkpt>
      <trkpt lat="46.39616" lon="5.96609">
        <ele>1156</ele>
        <time>2018-09-03T15:37:10Z</time>
      </trkpt>
      <trkpt lat="46.39619" lon="5.96607">
        <ele>1156</ele>
        <time>2018-09-03T15:37:15Z</time>
      </trkpt>
      <trkpt lat="46.39627" lon="5.96603">
        <ele>1156</ele>
        <time>2018-09-03T15:37:25Z</time>
      </trkpt>
      <trkpt lat="46.39629" lon="5.96601">
        <ele>1156</ele>
        <time>2018-09-03T15:37:30Z</time>
      </trkpt>
      <trkpt lat="46.3963" lon="5.96601">
        <ele>1156</ele>
        <time>2018-09-03T15:37:35Z</time>
      </trkpt>
      <trkpt lat="46.39636" lon="5.96596">
        <ele>1156</ele>
        <time>2018-09-03T15:37:45Z</time>
      </trkpt>
      <trkpt lat="46.39642" lon="5.96597">
        <ele>1156</ele>
        <time>2018-09-03T15:37:50Z</time>
      </trkpt>
      <trkpt lat="46.39648" lon="5.96605">
        <ele>1157</ele>
        <time>2018-09-03T15:38:00Z</time>
      </trkpt>
      <trkpt lat="46.39651" lon="5.96608">
        <ele>1157</ele>
        <time>2018-09-03T15:38:05Z</time>
      </trkpt>
      <trkpt lat="46.39654" lon="5.96615">
        <ele>1157</ele>
        <time>2018-09-03T15:38:15Z</time>
      </trkpt>
      <trkpt lat="46.39653" lon="5.96619">
        <ele>1157</ele>
        <time>2018-09-03T15:38:20Z</time>
      </trkpt>
      <trkpt lat="46.39653" lon="5.96633">
        <ele>1158</ele>
        <time>2018-09-03T15:38:30Z</time>
      </trkpt>
      <trkpt lat="46.39652" lon="5.96638">
        <ele>1159</ele>
        <time>2018-09-03T15:38:35Z</time>
      </trkpt>
      <trkpt lat="46.3965" lon="5.96645">
        <ele>1159</ele>
        <time>2018-09-03T15:38:40Z</time>
      </trkpt>
      <trkpt lat="46.39646" lon="5.96657">
        <ele>1160</ele>
        <time>2018-09-03T15:38:50Z</time>
      </trkpt>
      <trkpt lat="46.39644" lon="5.96664">
        <ele>1161</ele>
        <time>2018-09-03T15:38:55Z</time>
      </trkpt>
      <trkpt lat="46.39644" lon="5.96678">
        <ele>1162</ele>
        <time>2018-09-03T15:39:05Z</time>
      </trkpt>
      <trkpt lat="46.39647" lon="5.96684">
        <ele>1163</ele>
        <time>2018-09-03T15:39:10Z</time>
      </trkpt>
      <trkpt lat="46.3965" lon="5.96699">
        <ele>1164</ele>
        <time>2018-09-03T15:39:20Z</time>
      </trkpt>
      <trkpt lat="46.39652" lon="5.96704">
        <ele>1165</ele>
        <time>2018-09-03T15:39:25Z</time>
      </trkpt>
      <trkpt lat="46.39656" lon="5.96709">
        <ele>1166</ele>
        <time>2018-09-03T15:39:30Z</time>
      </trkpt>
      <trkpt lat="46.39661" lon="5.96722">
        <ele>1168</ele>
        <time>2018-09-03T15:39:40Z</time>
      </trkpt>
      <trkpt lat="46.39664" lon="5.96728">
        <ele>1168</ele>
        <time>2018-09-03T15:39:45Z</time>
      </trkpt>
      <trkpt lat="46.39668" lon="5.96739">
        <ele>1170</ele>
        <time>2018-09-03T15:39:55Z</time>
      </trkpt>
      <trkpt lat="46.39672" lon="5.96745">
        <ele>1171</ele>
        <time>2018-09-03T15:40:00Z</time>
      </trkpt>
      <trkpt lat="46.39678" lon="5.96753">
        <ele>1172</ele>
        <time>2018-09-03T15:40:10Z</time>
      </trkpt>
      <trkpt lat="46.39681" lon="5.9676">
        <ele>1173</ele>
        <time>2018-09-03T15:40:15Z</time>
      </trkpt>
      <trkpt lat="46.39682" lon="5.96767">
        <ele>1174</ele>
        <time>2018-09-03T15:40:20Z</time>
      </trkpt>
      <trkpt lat="46.39682" lon="5.9678">
        <ele>1176</ele>
        <time>2018-09-03T15:40:30Z</time>
      </trkpt>
      <trkpt lat="46.3968" lon="5.96787">
        <ele>1177</ele>
        <time>2018-09-03T15:40:35Z</time>
      </trkpt>
      <trkpt lat="46.39677" lon="5.96802">
        <ele>1179</ele>
        <time>2018-09-03T15:40:45Z</time>
      </trkpt>
      <trkpt lat="46.39675" lon="5.96811">
        <ele>1181</ele>
        <time>2018-09-03T15:40:50Z</time>
      </trkpt>
      <trkpt lat="46.3967" lon="5.96825">
        <ele>1182</ele>
        <time>2018-09-03T15:41:00Z</time>
      </trkpt>
      <trkpt lat="46.39668" lon="5.96832">
        <ele>1183</ele>
        <time>2018-09-03T15:41:05Z</time>
      </trkpt>
      <trkpt lat="46.39666" lon="5.96838">
        <ele>1184</ele>
        <time>2018-09-03T15:41:10Z</time>
      </trkpt>
      <trkpt lat="46.39663" lon="5.96847">
        <ele>1185</ele>
        <time>2018-09-03T15:41:20Z</time>
      </trkpt>
      <trkpt lat="46.39661" lon="5.96852">
        <ele>1186</ele>
        <time>2018-09-03T15:41:25Z</time>
      </trkpt>
      <trkpt lat="46.39659" lon="5.96864">
        <ele>1188</ele>
        <time>2018-09-03T15:41:35Z</time>
      </trkpt>
      <trkpt lat="46.39659" lon="5.96871">
        <ele>1189</ele>
        <time>2018-09-03T15:41:40Z</time>
      </trkpt>
      <trkpt lat="46.39657" lon="5.96876">
        <ele>1190</ele>
        <time>2018-09-03T15:41:50Z</time>
      </trkpt>
      <trkpt lat="46.39658" lon="5.96877">
        <ele>1190</ele>
        <time>2018-09-03T15:41:55Z</time>
      </trkpt>
      <trkpt lat="46.39658" lon="5.96882">
        <ele>1191</ele>
        <time>2018-09-03T15:42:00Z</time>
      </trkpt>
      <trkpt lat="46.39658" lon="5.96887">
        <ele>1191</ele>
        <time>2018-09-03T15:42:10Z</time>
      </trkpt>
      <trkpt lat="46.39657" lon="5.96889">
        <ele>1192</ele>
        <time>2018-09-03T15:42:15Z</time>
      </trkpt>
      <trkpt lat="46.39661" lon="5.96889">
        <ele>1191</ele>
        <time>2018-09-03T15:42:25Z</time>
      </trkpt>
      <trkpt lat="46.39665" lon="5.96891">
        <ele>1192</ele>
        <time>2018-09-03T15:42:30Z</time>
      </trkpt>
      <trkpt lat="46.39667" lon="5.96897">
        <ele>1193</ele>
        <time>2018-09-03T15:42:40Z</time>
      </trkpt>
      <trkpt lat="46.39669" lon="5.96899">
        <ele>1193</ele>
        <time>2018-09-03T15:42:45Z</time>
      </trkpt>
      <trkpt lat="46.39673" lon="5.96911">
        <ele>1194</ele>
        <time>2018-09-03T15:42:55Z</time>
      </trkpt>
      <trkpt lat="46.39682" lon="5.96908">
        <ele>1194</ele>
        <time>2018-09-03T15:43:00Z</time>
      </trkpt>
      <trkpt lat="46.39686" lon="5.96909">
        <ele>1195</ele>
        <time>2018-09-03T15:43:05Z</time>
      </trkpt>
      <trkpt lat="46.39691" lon="5.96921">
        <ele>1196</ele>
        <time>2018-09-03T15:43:15Z</time>
      </trkpt>
      <trkpt lat="46.39692" lon="5.9693">
        <ele>1197</ele>
        <time>2018-09-03T15:43:20Z</time>
      </trkpt>
      <trkpt lat="46.39697" lon="5.96943">
        <ele>1198</ele>
        <time>2018-09-03T15:43:30Z</time>
      </trkpt>
      <trkpt lat="46.39701" lon="5.96948">
        <ele>1198</ele>
        <time>2018-09-03T15:43:35Z</time>
      </trkpt>
      <trkpt lat="46.39707" lon="5.9696">
        <ele>1199</ele>
        <time>2018-09-03T15:43:45Z</time>
      </trkpt>
      <trkpt lat="46.3971" lon="5.96966">
        <ele>1200</ele>
        <time>2018-09-03T15:43:50Z</time>
      </trkpt>
      <trkpt lat="46.39714" lon="5.9697">
        <ele>1200</ele>
        <time>2018-09-03T15:43:55Z</time>
      </trkpt>
      <trkpt lat="46.39721" lon="5.96979">
        <ele>1201</ele>
        <time>2018-09-03T15:44:05Z</time>
      </trkpt>
      <trkpt lat="46.39724" lon="5.96982">
        <ele>1201</ele>
        <time>2018-09-03T15:44:10Z</time>
      </trkpt>
      <trkpt lat="46.39723" lon="5.96983">
        <ele>1201</ele>
        <time>2018-09-03T15:44:20Z</time>
      </trkpt>
      <trkpt lat="46.39717" lon="5.96982">
        <ele>1201</ele>
        <time>2018-09-03T15:44:25Z</time>
      </trkpt>
      <trkpt lat="46.3971" lon="5.96976">
        <ele>1200</ele>
        <time>2018-09-03T15:44:35Z</time>
      </trkpt>
      <trkpt lat="46.39704" lon="5.96966">
        <ele>1200</ele>
        <time>2018-09-03T15:44:40Z</time>
      </trkpt>
      <trkpt lat="46.39699" lon="5.96958">
        <ele>1199</ele>
        <time>2018-09-03T15:44:45Z</time>
      </trkpt>
      <trkpt lat="46.3969" lon="5.96936">
        <ele>1197</ele>
        <time>2018-09-03T15:44:55Z</time>
      </trkpt>
      <trkpt lat="46.39686" lon="5.96927">
        <ele>1196</ele>
        <time>2018-09-03T15:45:00Z</time>
      </trkpt>
      <trkpt lat="46.39677" lon="5.96909">
        <ele>1194</ele>
        <time>2018-09-03T15:45:10Z</time>
      </trkpt>
      <trkpt lat="46.39671" lon="5.96901">
        <ele>1193</ele>
        <time>2018-09-03T15:45:15Z</time>
      </trkpt>
      <trkpt lat="46.39662" lon="5.96885">
        <ele>1191</ele>
        <time>2018-09-03T15:45:25Z</time>
      </trkpt>
      <trkpt lat="46.3966" lon="5.96873">
        <ele>1189</ele>
        <time>2018-09-03T15:45:30Z</time>
      </trkpt>
      <trkpt lat="46.39662" lon="5.96864">
        <ele>1188</ele>
        <time>2018-09-03T15:45:35Z</time>
      </trkpt>
      <trkpt lat="46.39667" lon="5.96847">
        <ele>1185</ele>
        <time>2018-09-03T15:45:45Z</time>
      </trkpt>
      <trkpt lat="46.3967" lon="5.96837">
        <ele>1184</ele>
        <time>2018-09-03T15:45:50Z</time>
      </trkpt>
      <trkpt lat="46.39673" lon="5.96815">
        <ele>1181</ele>
        <time>2018-09-03T15:46:00Z</time>
      </trkpt>
      <trkpt lat="46.39674" lon="5.96804">
        <ele>1179</ele>
        <time>2018-09-03T15:46:05Z</time>
      </trkpt>
      <trkpt lat="46.39677" lon="5.96783">
        <ele>1176</ele>
        <time>2018-09-03T15:46:15Z</time>
      </trkpt>
      <trkpt lat="46.39677" lon="5.96773">
        <ele>1175</ele>
        <time>2018-09-03T15:46:20Z</time>
      </trkpt>
      <trkpt lat="46.39676" lon="5.96761">
        <ele>1173</ele>
        <time>2018-09-03T15:46:25Z</time>
      </trkpt>
      <trkpt lat="46.39668" lon="5.96743">
        <ele>1170</ele>
        <time>2018-09-03T15:46:35Z</time>
      </trkpt>
      <trkpt lat="46.39662" lon="5.96735">
        <ele>1169</ele>
        <time>2018-09-03T15:46:40Z</time>
      </trkpt>
      <trkpt lat="46.39652" lon="5.96721">
        <ele>1167</ele>
        <time>2018-09-03T15:46:50Z</time>
      </trkpt>
      <trkpt lat="46.39648" lon="5.96712">
        <ele>1166</ele>
        <time>2018-09-03T15:46:55Z</time>
      </trkpt>
      <trkpt lat="46.39642" lon="5.96693">
        <ele>1164</ele>
        <time>2018-09-03T15:47:05Z</time>
      </trkpt>
      <trkpt lat="46.39641" lon="5.96684">
        <ele>1163</ele>
        <time>2018-09-03T15:47:10Z</time>
      </trkpt>
      <trkpt lat="46.39646" lon="5.96661">
        <ele>1161</ele>
        <time>2018-09-03T15:47:20Z</time>
      </trkpt>
      <trkpt lat="46.3965" lon="5.96651">
        <ele>1160</ele>
        <time>2018-09-03T15:47:25Z</time>
      </trkpt>
      <trkpt lat="46.39653" lon="5.96642">
        <ele>1159</ele>
        <time>2018-09-03T15:47:30Z</time>
      </trkpt>
      <trkpt lat="46.39649" lon="5.96622">
        <ele>1157</ele>
        <time>2018-09-03T15:47:40Z</time>
      </trkpt>
      <trkpt lat="46.39646" lon="5.96614">
        <ele>1157</ele>
        <time>2018-09-03T15:47:45Z</time>
      </trkpt>
      <trkpt lat="46.39637" lon="5.966">
        <ele>1156</ele>
        <time>2018-09-03T15:47:55Z</time>
      </trkpt>
      <trkpt lat="46.39632" lon="5.96604">
        <ele>1156</ele>
        <time>2018-09-03T15:48:00Z</time>
      </trkpt>
      <trkpt lat="46.3962" lon="5.96612">
        <ele>1156</ele>
        <time>2018-09-03T15:48:10Z</time>
      </trkpt>
      <trkpt lat="46.39615" lon="5.96616">
        <ele>1156</ele>
        <time>2018-09-03T15:48:15Z</time>
      </trkpt>
      <trkpt lat="46.39609" lon="5.96617">
        <ele>1156</ele>
        <time>2018-09-03T15:48:20Z</time>
      </trkpt>
      <trkpt lat="46.39596" lon="5.9663">
        <ele>1156</ele>
        <time>2018-09-03T15:48:30Z</time>
      </trkpt>
      <trkpt lat="46.3959" lon="5.96639">
        <ele>1157</ele>
        <time>2018-09-03T15:48:35Z</time>
      </trkpt>
      <trkpt lat="46.39576" lon="5.96648">
        <ele>1157</ele>
        <time>2018-09-03T15:48:45Z</time>
      </trkpt>
      <trkpt lat="46.3957" lon="5.96651">
        <ele>1157</ele>
        <time>2018-09-03T15:48:50Z</time>
      </trkpt>
      <trkpt lat="46.39558" lon="5.96659">
        <ele>1157</ele>
        <time>2018-09-03T15:49:00Z</time>
      </trkpt>
      <trkpt lat="46.39552" lon="5.96664">
        <ele>1157</ele>
        <time>2018-09-03T15:49:05Z</time>
      </trkpt>
      <trkpt lat="46.39544" lon="5.96668">
        <ele>1157</ele>
        <time>2018-09-03T15:49:10Z</time>
      </trkpt>
      <trkpt lat="46.39533" lon="5.96679">
        <ele>1157</ele>
        <time>2018-09-03T15:49:20Z</time>
      </trkpt>
      <trkpt lat="46.39526" lon="5.96687">
        <ele>1157</ele>
        <time>2018-09-03T15:49:25Z</time>
      </trkpt>
      <trkpt lat="46.39513" lon="5.96693">
        <ele>1157</ele>
        <time>2018-09-03T15:49:35Z</time>
      </trkpt>
      <trkpt lat="46.39507" lon="5.96695">
        <ele>1156</ele>
        <time>2018-09-03T15:49:40Z</time>
      </trkpt>
      <trkpt lat="46.39495" lon="5.96707">
        <ele>1156</ele>
        <time>2018-09-03T15:49:50Z</time>
      </trkpt>
      <trkpt lat="46.39491" lon="5.96715">
        <ele>1156</ele>
        <time>2018-09-03T15:49:55Z</time>
      </trkpt>
      <trkpt lat="46.39487" lon="5.96724">
        <ele>1156</ele>
        <time>2018-09-03T15:50:00Z</time>
      </trkpt>
      <trkpt lat="46.39485" lon="5.9672">
        <ele>1156</ele>
        <time>2018-09-03T15:50:10Z</time>
      </trkpt>
      <trkpt lat="46.39486" lon="5.96718">
        <ele>1156</ele>
        <time>2018-09-03T15:50:15Z</time>
      </trkpt>
      <trkpt lat="46.39494" lon="5.96739">
        <ele>1158</ele>
        <time>2018-09-03T15:50:25Z</time>
      </trkpt>
      <trkpt lat="46.39507" lon="5.96728">
        <ele>1159</ele>
        <time>2018-09-03T15:50:30Z</time>
      </trkpt>
      <trkpt lat="46.39514" lon="5.96711">
        <ele>1158</ele>
        <time>2018-09-03T15:50:40Z</time>
      </trkpt>
      <trkpt lat="46.39513" lon="5.96703">
        <ele>1157</ele>
        <time>2018-09-03T15:50:45Z</time>
      </trkpt>
      <trkpt lat="46.39517" lon="5.96697">
        <ele>1157</ele>
        <time>2018-09-03T15:50:50Z</time>
      </trkpt>
      <trkpt lat="46.39526" lon="5.96686">
        <ele>1157</ele>
        <time>2018-09-03T15:51:00Z</time>
      </trkpt>
      <trkpt lat="46.39529" lon="5.9668">
        <ele>1157</ele>
        <time>2018-09-03T15:51:05Z</time>
      </trkpt>
      <trkpt lat="46.39538" lon="5.96676">
        <ele>1157</ele>
        <time>2018-09-03T15:51:15Z</time>
      </trkpt>
      <trkpt lat="46.39544" lon="5.96672">
        <ele>1157</ele>
        <time>2018-09-03T15:51:20Z</time>
      </trkpt>
      <trkpt lat="46.39556" lon="5.9666">
        <ele>1157</ele>
        <time>2018-09-03T15:51:30Z</time>
      </trkpt>
      <trkpt lat="46.39559" lon="5.96656">
        <ele>1157</ele>
        <time>2018-09-03T15:51:35Z</time>
      </trkpt>
      <trkpt lat="46.39567" lon="5.9665">
        <ele>1157</ele>
        <time>2018-09-03T15:51:45Z</time>
      </trkpt>
      <trkpt lat="46.3957" lon="5.9665">
        <ele>1157</ele>
        <time>2018-09-03T15:51:50Z</time>
      </trkpt>
      <trkpt lat="46.39581" lon="5.96646">
        <ele>1157</ele>
        <time>2018-09-03T15:51:55Z</time>
      </trkpt>
      <trkpt lat="46.39596" lon="5.96631">
        <ele>1157</ele>
        <time>2018-09-03T15:52:05Z</time>
      </trkpt>
      <trkpt lat="46.39599" lon="5.96627">
        <ele>1156</ele>
        <time>2018-09-03T15:52:10Z</time>
      </trkpt>
      <trkpt lat="46.39615" lon="5.96615">
        <ele>1156</ele>
        <time>2018-09-03T15:52:20Z</time>
      </trkpt>
      <trkpt lat="46.3962" lon="5.9661">
        <ele>1156</ele>
        <time>2018-09-03T15:52:25Z</time>
      </trkpt>
      <trkpt lat="46.39633" lon="5.96599">
        <ele>1156</ele>
        <time>2018-09-03T15:52:35Z</time>
      </trkpt>
      <trkpt lat="46.39639" lon="5.96601">
        <ele>1156</ele>
        <time>2018-09-03T15:52:40Z</time>
      </trkpt>
      <trkpt lat="46.39643" lon="5.96606">
        <ele>1157</ele>
        <time>2018-09-03T15:52:45Z</time>
      </trkpt>
      <trkpt lat="46.3965" lon="5.96622">
        <ele>1157</ele>
        <time>2018-09-03T15:52:55Z</time>
      </trkpt>
      <trkpt lat="46.39652" lon="5.9663">
        <ele>1158</ele>
        <time>2018-09-03T15:53:00Z</time>
      </trkpt>
      <trkpt lat="46.39649" lon="5.96647">
        <ele>1159</ele>
        <time>2018-09-03T15:53:10Z</time>
      </trkpt>
      <trkpt lat="46.39646" lon="5.96655">
        <ele>1160</ele>
        <time>2018-09-03T15:53:15Z</time>
      </trkpt>
      <trkpt lat="46.39643" lon="5.96674">
        <ele>1162</ele>
        <time>2018-09-03T15:53:25Z</time>
      </trkpt>
      <trkpt lat="46.39643" lon="5.96684">
        <ele>1163</ele>
        <time>2018-09-03T15:53:30Z</time>
      </trkpt>
      <trkpt lat="46.39645" lon="5.96691">
        <ele>1163</ele>
        <time>2018-09-03T15:53:35Z</time>
      </trkpt>
      <trkpt lat="46.3965" lon="5.9671">
        <ele>1166</ele>
        <time>2018-09-03T15:53:45Z</time>
      </trkpt>
      <trkpt lat="46.39653" lon="5.96718">
        <ele>1167</ele>
        <time>2018-09-03T15:53:50Z</time>
      </trkpt>
      <trkpt lat="46.39661" lon="5.9673">
        <ele>1169</ele>
        <time>2018-09-03T15:54:00Z</time>
      </trkpt>
      <trkpt lat="46.39664" lon="5.96736">
        <ele>1169</ele>
        <time>2018-09-03T15:54:05Z</time>
      </trkpt>
      <trkpt lat="46.39671" lon="5.96747">
        <ele>1171</ele>
        <time>2018-09-03T15:54:15Z</time>
      </trkpt>
      <trkpt lat="46.39673" lon="5.96757">
        <ele>1172</ele>
        <time>2018-09-03T15:54:20Z</time>
      </trkpt>
      <trkpt lat="46.39674" lon="5.96766">
        <ele>1174</ele>
        <time>2018-09-03T15:54:25Z</time>
      </trkpt>
      <trkpt lat="46.39672" lon="5.96786">
        <ele>1177</ele>
        <time>2018-09-03T15:54:35Z</time>
      </trkpt>
      <trkpt lat="46.39672" lon="5.96793">
        <ele>1178</ele>
        <time>2018-09-03T15:54:40Z</time>
      </trkpt>
      <trkpt lat="46.3967" lon="5.96808">
        <ele>1180</ele>
        <time>2018-09-03T15:54:50Z</time>
      </trkpt>
      <trkpt lat="46.39667" lon="5.96816">
        <ele>1181</ele>
        <time>2018-09-03T15:54:55Z</time>
      </trkpt>
      <trkpt lat="46.39663" lon="5.96829">
        <ele>1183</ele>
        <time>2018-09-03T15:55:05Z</time>
      </trkpt>
      <trkpt lat="46.3966" lon="5.96838">
        <ele>1184</ele>
        <time>2018-09-03T15:55:10Z</time>
      </trkpt>
      <trkpt lat="46.39661" lon="5.96845">
        <ele>1185</ele>
        <time>2018-09-03T15:55:15Z</time>
      </trkpt>
      <trkpt lat="46.39659" lon="5.96861">
        <ele>1187</ele>
        <time>2018-09-03T15:55:25Z</time>
      </trkpt>
      <trkpt lat="46.39658" lon="5.96868">
        <ele>1189</ele>
        <time>2018-09-03T15:55:30Z</time>
      </trkpt>
      <trkpt lat="46.39664" lon="5.96883">
        <ele>1190</ele>
        <time>2018-09-03T15:55:40Z</time>
      </trkpt>
      <trkpt lat="46.39668" lon="5.96885">
        <ele>1191</ele>
        <time>2018-09-03T15:55:45Z</time>
      </trkpt>
      <trkpt lat="46.39675" lon="5.96887">
        <ele>1192</ele>
        <time>2018-09-03T15:55:55Z</time>
      </trkpt>
      <trkpt lat="46.39679" lon="5.9689">
        <ele>1192</ele>
        <time>2018-09-03T15:56:00Z</time>
      </trkpt>
      <trkpt lat="46.39687" lon="5.96906">
        <ele>1194</ele>
        <time>2018-09-03T15:56:10Z</time>
      </trkpt>
      <trkpt lat="46.3969" lon="5.96913">
        <ele>1195</ele>
        <time>2018-09-03T15:56:15Z</time>
      </trkpt>
      <trkpt lat="46.39693" lon="5.96918">
        <ele>1196</ele>
        <time>2018-09-03T15:56:20Z</time>
      </trkpt>
      <trkpt lat="46.397" lon="5.96926">
        <ele>1197</ele>
        <time>2018-09-03T15:56:30Z</time>
      </trkpt>
      <trkpt lat="46.39704" lon="5.96932">
        <ele>1197</ele>
        <time>2018-09-03T15:56:35Z</time>
      </trkpt>
      <trkpt lat="46.39711" lon="5.96943">
        <ele>1198</ele>
        <time>2018-09-03T15:56:45Z</time>
      </trkpt>
      <trkpt lat="46.39716" lon="5.96947">
        <ele>1198</ele>
        <time>2018-09-03T15:56:50Z</time>
      </trkpt>
      <trkpt lat="46.39725" lon="5.96955">
        <ele>1199</ele>
        <time>2018-09-03T15:57:00Z</time>
      </trkpt>
      <trkpt lat="46.39729" lon="5.9696">
        <ele>1199</ele>
        <time>2018-09-03T15:57:05Z</time>
      </trkpt>
      <trkpt lat="46.39735" lon="5.96965">
        <ele>1200</ele>
        <time>2018-09-03T15:57:10Z</time>
      </trkpt>
      <trkpt lat="46.39746" lon="5.96981">
        <ele>1201</ele>
        <time>2018-09-03T15:57:20Z</time>
      </trkpt>
      <trkpt lat="46.39751" lon="5.9699">
        <ele>1202</ele>
        <time>2018-09-03T15:57:25Z</time>
      </trkpt>
      <trkpt lat="46.39761" lon="5.97">
        <ele>1203</ele>
        <time>2018-09-03T15:57:35Z</time>
      </trkpt>
      <trkpt lat="46.39767" lon="5.97006">
        <ele>1203</ele>
        <time>2018-09-03T15:57:40Z</time>
      </trkpt>
      <trkpt lat="46.39777" lon="5.97019">
        <ele>1204</ele>
        <time>2018-09-03T15:57:50Z</time>
      </trkpt>
      <trkpt lat="46.39783" lon="5.9705">
        <ele>1205</ele>
        <time>2018-09-03T15:57:55Z</time>
      </trkpt>
      <trkpt lat="46.39791" lon="5.97066">
        <ele>1206</ele>
        <time>2018-09-03T15:58:00Z</time>
      </trkpt>
      <trkpt lat="46.39802" lon="5.97087">
        <ele>1206</ele>
        <time>2018-09-03T15:58:10Z</time>
      </trkpt>
      <trkpt lat="46.39806" lon="5.97095">
        <ele>1207</ele>
        <time>2018-09-03T15:58:15Z</time>
      </trkpt>
      <trkpt lat="46.39813" lon="5.9711">
        <ele>1207</ele>
        <time>2018-09-03T15:58:25Z</time>
      </trkpt>
      <trkpt lat="46.39817" lon="5.97116">
        <ele>1207</ele>
        <time>2018-09-03T15:58:30Z</time>
      </trkpt>
      <trkpt lat="46.39829" lon="5.97126">
        <ele>1207</ele>
        <time>2018-09-03T15:58:40Z</time>
      </trkpt>
      <trkpt lat="46.39834" lon="5.97134">
        <ele>1207</ele>
        <time>2018-09-03T15:58:45Z</time>
      </trkpt>
      <trkpt lat="46.39838" lon="5.97142">
        <ele>1207</ele>
        <time>2018-09-03T15:58:50Z</time>
      </trkpt>
      <trkpt lat="46.3985" lon="5.97156">
        <ele>1207</ele>
        <time>2018-09-03T15:59:00Z</time>
      </trkpt>
      <trkpt lat="46.39852" lon="5.97166">
        <ele>1207</ele>
        <time>2018-09-03T15:59:05Z</time>
      </trkpt>
      <trkpt lat="46.39858" lon="5.97192">
        <ele>1206</ele>
        <time>2018-09-03T15:59:15Z</time>
      </trkpt>
      <trkpt lat="46.39861" lon="5.97205">
        <ele>1206</ele>
        <time>2018-09-03T15:59:20Z</time>
      </trkpt>
      <trkpt lat="46.39867" lon="5.97225">
        <ele>1205</ele>
        <time>2018-09-03T15:59:30Z</time>
      </trkpt>
      <trkpt lat="46.3987" lon="5.97233">
        <ele>1205</ele>
        <time>2018-09-03T15:59:35Z</time>
      </trkpt>
      <trkpt lat="46.39874" lon="5.97241">
        <ele>1205</ele>
        <time>2018-09-03T15:59:40Z</time>
      </trkpt>
      <trkpt lat="46.39884" lon="5.97257">
        <ele>1204</ele>
        <time>2018-09-03T15:59:50Z</time>
      </trkpt>
      <trkpt lat="46.39887" lon="5.97266">
        <ele>1204</ele>
        <time>2018-09-03T15:59:55Z</time>
      </trkpt>
      <trkpt lat="46.39896" lon="5.97284">
        <ele>1204</ele>
        <time>2018-09-03T16:00:05Z</time>
      </trkpt>
      <trkpt lat="46.399" lon="5.97292">
        <ele>1204</ele>
        <time>2018-09-03T16:00:10Z</time>
      </trkpt>
      <trkpt lat="46.3991" lon="5.97305">
        <ele>1203</ele>
        <time>2018-09-03T16:00:20Z</time>
      </trkpt>
      <trkpt lat="46.39916" lon="5.97312">
        <ele>1203</ele>
        <time>2018-09-03T16:00:25Z</time>
      </trkpt>
      <trkpt lat="46.39926" lon="5.97327">
        <ele>1203</ele>
        <time>2018-09-03T16:00:35Z</time>
      </trkpt>
      <trkpt lat="46.39932" lon="5.97334">
        <ele>1203</ele>
        <time>2018-09-03T16:00:40Z</time>
      </trkpt>
      <trkpt lat="46.39936" lon="5.97343">
        <ele>1203</ele>
        <time>2018-09-03T16:00:45Z</time>
      </trkpt>
      <trkpt lat="46.39947" lon="5.97354">
        <ele>1204</ele>
        <time>2018-09-03T16:00:55Z</time>
      </trkpt>
      <trkpt lat="46.39952" lon="5.97361">
        <ele>1204</ele>
        <time>2018-09-03T16:01:00Z</time>
      </trkpt>
      <trkpt lat="46.39963" lon="5.97374">
        <ele>1204</ele>
        <time>2018-09-03T16:01:10Z</time>
      </trkpt>
      <trkpt lat="46.39969" lon="5.97378">
        <ele>1204</ele>
        <time>2018-09-03T16:01:15Z</time>
      </trkpt>
      <trkpt lat="46.39976" lon="5.97393">
        <ele>1205</ele>
        <time>2018-09-03T16:01:25Z</time>
      </trkpt>
      <trkpt lat="46.39983" lon="5.97399">
        <ele>1205</ele>
        <time>2018-09-03T16:01:30Z</time>
      </trkpt>
      <trkpt lat="46.39989" lon="5.97406">
        <ele>1205</ele>
        <time>2018-09-03T16:01:35Z</time>
      </trkpt>
      <trkpt lat="46.4" lon="5.97414">
        <ele>1206</ele>
        <time>2018-09-03T16:01:45Z</time>
      </trkpt>
      <trkpt lat="46.40008" lon="5.97418">
        <ele>1206</ele>
        <time>2018-09-03T16:01:50Z</time>
      </trkpt>
      <trkpt lat="46.40017" lon="5.9743">
        <ele>1207</ele>
        <time>2018-09-03T16:02:00Z</time>
      </trkpt>
      <trkpt lat="46.40021" lon="5.97439">
        <ele>1207</ele>
        <time>2018-09-03T16:02:05Z</time>
      </trkpt>
      <trkpt lat="46.40028" lon="5.97457">
        <ele>1208</ele>
        <time>2018-09-03T16:02:15Z</time>
      </trkpt>
      <trkpt lat="46.40035" lon="5.97462">
        <ele>1209</ele>
        <time>2018-09-03T16:02:20Z</time>
      </trkpt>
      <trkpt lat="46.4004" lon="5.97468">
        <ele>1209</ele>
        <time>2018-09-03T16:02:25Z</time>
      </trkpt>
      <trkpt lat="46.4005" lon="5.97481">
        <ele>1210</ele>
        <time>2018-09-03T16:02:35Z</time>
      </trkpt>
      <trkpt lat="46.40056" lon="5.97485">
        <ele>1210</ele>
        <time>2018-09-03T16:02:40Z</time>
      </trkpt>
      <trkpt lat="46.40067" lon="5.97496">
        <ele>1210</ele>
        <time>2018-09-03T16:02:50Z</time>
      </trkpt>
      <trkpt lat="46.40071" lon="5.97502">
        <ele>1210</ele>
        <time>2018-09-03T16:02:55Z</time>
      </trkpt>
      <trkpt lat="46.4008" lon="5.97513">
        <ele>1211</ele>
        <time>2018-09-03T16:03:05Z</time>
      </trkpt>
      <trkpt lat="46.40085" lon="5.97517">
        <ele>1211</ele>
        <time>2018-09-03T16:03:10Z</time>
      </trkpt>
      <trkpt lat="46.4009" lon="5.97521">
        <ele>1212</ele>
        <time>2018-09-03T16:03:15Z</time>
      </trkpt>
      <trkpt lat="46.40099" lon="5.97531">
        <ele>1213</ele>
        <time>2018-09-03T16:03:25Z</time>
      </trkpt>
      <trkpt lat="46.40103" lon="5.97537">
        <ele>1214</ele>
        <time>2018-09-03T16:03:30Z</time>
      </trkpt>
      <trkpt lat="46.40109" lon="5.97552">
        <ele>1215</ele>
        <time>2018-09-03T16:03:40Z</time>
      </trkpt>
      <trkpt lat="46.40115" lon="5.97558">
        <ele>1215</ele>
        <time>2018-09-03T16:03:45Z</time>
      </trkpt>
      <trkpt lat="46.40123" lon="5.97571">
        <ele>1216</ele>
        <time>2018-09-03T16:03:55Z</time>
      </trkpt>
      <trkpt lat="46.40127" lon="5.97579">
        <ele>1216</ele>
        <time>2018-09-03T16:04:00Z</time>
      </trkpt>
      <trkpt lat="46.40134" lon="5.97585">
        <ele>1217</ele>
        <time>2018-09-03T16:04:05Z</time>
      </trkpt>
      <trkpt lat="46.40146" lon="5.97599">
        <ele>1217</ele>
        <time>2018-09-03T16:04:15Z</time>
      </trkpt>
      <trkpt lat="46.40148" lon="5.97609">
        <ele>1217</ele>
        <time>2018-09-03T16:04:20Z</time>
      </trkpt>
      <trkpt lat="46.40151" lon="5.97629">
        <ele>1217</ele>
        <time>2018-09-03T16:04:30Z</time>
      </trkpt>
      <trkpt lat="46.40154" lon="5.97637">
        <ele>1217</ele>
        <time>2018-09-03T16:04:35Z</time>
      </trkpt>
      <trkpt lat="46.40161" lon="5.97646">
        <ele>1218</ele>
        <time>2018-09-03T16:04:45Z</time>
      </trkpt>
      <trkpt lat="46.40167" lon="5.97652">
        <ele>1218</ele>
        <time>2018-09-03T16:04:50Z</time>
      </trkpt>
      <trkpt lat="46.40175" lon="5.97663">
        <ele>1218</ele>
        <time>2018-09-03T16:05:00Z</time>
      </trkpt>
      <trkpt lat="46.40181" lon="5.97668">
        <ele>1218</ele>
        <time>2018-09-03T16:05:05Z</time>
      </trkpt>
      <trkpt lat="46.40188" lon="5.97676">
        <ele>1218</ele>
        <time>2018-09-03T16:05:10Z</time>
      </trkpt>
      <trkpt lat="46.40201" lon="5.97689">
        <ele>1219</ele>
        <time>2018-09-03T16:05:20Z</time>
      </trkpt>
      <trkpt lat="46.40206" lon="5.97692">
        <ele>1219</ele>
        <time>2018-09-03T16:05:25Z</time>
      </trkpt>
      <trkpt lat="46.40214" lon="5.97696">
        <ele>1219</ele>
        <time>2018-09-03T16:05:35Z</time>
      </trkpt>
      <trkpt lat="46.40216" lon="5.97696">
        <ele>1220</ele>
        <time>2018-09-03T16:05:40Z</time>
      </trkpt>
      <trkpt lat="46.40224" lon="5.97698">
        <ele>1221</ele>
        <time>2018-09-03T16:05:50Z</time>
      </trkpt>
      <trkpt lat="46.40229" lon="5.977">
        <ele>1221</ele>
        <time>2018-09-03T16:05:55Z</time>
      </trkpt>
      <trkpt lat="46.40232" lon="5.97704">
        <ele>1221</ele>
        <time>2018-09-03T16:06:00Z</time>
      </trkpt>
      <trkpt lat="46.40237" lon="5.97723">
        <ele>1221</ele>
        <time>2018-09-03T16:06:10Z</time>
      </trkpt>
      <trkpt lat="46.40238" lon="5.97732">
        <ele>1221</ele>
        <time>2018-09-03T16:06:15Z</time>
      </trkpt>
      <trkpt lat="46.40247" lon="5.97749">
        <ele>1222</ele>
        <time>2018-09-03T16:06:25Z</time>
      </trkpt>
      <trkpt lat="46.40252" lon="5.97753">
        <ele>1222</ele>
        <time>2018-09-03T16:06:30Z</time>
      </trkpt>
      <trkpt lat="46.40261" lon="5.97769">
        <ele>1223</ele>
        <time>2018-09-03T16:06:40Z</time>
      </trkpt>
      <trkpt lat="46.40263" lon="5.97776">
        <ele>1223</ele>
        <time>2018-09-03T16:06:45Z</time>
      </trkpt>
      <trkpt lat="46.40266" lon="5.97791">
        <ele>1222</ele>
        <time>2018-09-03T16:06:50Z</time>
      </trkpt>
      <trkpt lat="46.40272" lon="5.978">
        <ele>1223</ele>
        <time>2018-09-03T16:07:00Z</time>
      </trkpt>
      <trkpt lat="46.40273" lon="5.97801">
        <ele>1223</ele>
        <time>2018-09-03T16:07:05Z</time>
      </trkpt>
      <trkpt lat="46.40273" lon="5.97801">
        <ele>1223</ele>
        <time>2018-09-03T16:07:15Z</time>
      </trkpt>
      <trkpt lat="46.40273" lon="5.97801">
        <ele>1223</ele>
        <time>2018-09-03T16:07:20Z</time>
      </trkpt>
      <trkpt lat="46.40275" lon="5.97803">
        <ele>1223</ele>
        <time>2018-09-03T16:07:30Z</time>
      </trkpt>
      <trkpt lat="46.40276" lon="5.97803">
        <ele>1223</ele>
        <time>2018-09-03T16:07:35Z</time>
      </trkpt>
      <trkpt lat="46.40277" lon="5.97803">
        <ele>1223</ele>
        <time>2018-09-03T16:07:40Z</time>
      </trkpt>
      <trkpt lat="46.40277" lon="5.97804">
        <ele>1223</ele>
        <time>2018-09-03T16:07:50Z</time>
      </trkpt>
      <trkpt lat="46.40277" lon="5.97805">
        <ele>1223</ele>
        <time>2018-09-03T16:07:55Z</time>
      </trkpt>
      <trkpt lat="46.4028" lon="5.9781">
        <ele>1223</ele>
        <time>2018-09-03T16:08:05Z</time>
      </trkpt>
      <trkpt lat="46.40286" lon="5.97814">
        <ele>1224</ele>
        <time>2018-09-03T16:08:10Z</time>
      </trkpt>
      <trkpt lat="46.40298" lon="5.97821">
        <ele>1225</ele>
        <time>2018-09-03T16:08:20Z</time>
      </trkpt>
      <trkpt lat="46.40304" lon="5.97825">
        <ele>1225</ele>
        <time>2018-09-03T16:08:25Z</time>
      </trkpt>
      <trkpt lat="46.40311" lon="5.97829">
        <ele>1226</ele>
        <time>2018-09-03T16:08:30Z</time>
      </trkpt>
      <trkpt lat="46.4032" lon="5.97833">
        <ele>1227</ele>
        <time>2018-09-03T16:08:40Z</time>
      </trkpt>
      <trkpt lat="46.40326" lon="5.97835">
        <ele>1227</ele>
        <time>2018-09-03T16:08:45Z</time>
      </trkpt>
      <trkpt lat="46.4034" lon="5.97844">
        <ele>1229</ele>
        <time>2018-09-03T16:08:55Z</time>
      </trkpt>
      <trkpt lat="46.40346" lon="5.97847">
        <ele>1229</ele>
        <time>2018-09-03T16:09:00Z</time>
      </trkpt>
      <trkpt lat="46.40358" lon="5.97857">
        <ele>1230</ele>
        <time>2018-09-03T16:09:10Z</time>
      </trkpt>
      <trkpt lat="46.40364" lon="5.97863">
        <ele>1230</ele>
        <time>2018-09-03T16:09:15Z</time>
      </trkpt>
      <trkpt lat="46.40375" lon="5.97876">
        <ele>1230</ele>
        <time>2018-09-03T16:09:25Z</time>
      </trkpt>
      <trkpt lat="46.4038" lon="5.97882">
        <ele>1230</ele>
        <time>2018-09-03T16:09:30Z</time>
      </trkpt>
      <trkpt lat="46.40384" lon="5.97889">
        <ele>1230</ele>
        <time>2018-09-03T16:09:35Z</time>
      </trkpt>
      <trkpt lat="46.40395" lon="5.97902">
        <ele>1230</ele>
        <time>2018-09-03T16:09:45Z</time>
      </trkpt>
      <trkpt lat="46.40397" lon="5.9791">
        <ele>1230</ele>
        <time>2018-09-03T16:09:50Z</time>
      </trkpt>
      <trkpt lat="46.40405" lon="5.97921">
        <ele>1230</ele>
        <time>2018-09-03T16:10:00Z</time>
      </trkpt>
      <trkpt lat="46.40409" lon="5.97926">
        <ele>1230</ele>
        <time>2018-09-03T16:10:05Z</time>
      </trkpt>
      <trkpt lat="46.40416" lon="5.97934">
        <ele>1230</ele>
        <time>2018-09-03T16:10:15Z</time>
      </trkpt>
      <trkpt lat="46.40419" lon="5.97942">
        <ele>1230</ele>
        <time>2018-09-03T16:10:20Z</time>
      </trkpt>
      <trkpt lat="46.40423" lon="5.9795">
        <ele>1229</ele>
        <time>2018-09-03T16:10:25Z</time>
      </trkpt>
      <trkpt lat="46.40431" lon="5.97968">
        <ele>1228</ele>
        <time>2018-09-03T16:10:35Z</time>
      </trkpt>
      <trkpt lat="46.40434" lon="5.97974">
        <ele>1228</ele>
        <time>2018-09-03T16:10:40Z</time>
      </trkpt>
      <trkpt lat="46.40439" lon="5.97988">
        <ele>1227</ele>
        <time>2018-09-03T16:10:50Z</time>
      </trkpt>
      <trkpt lat="46.40443" lon="5.97999">
        <ele>1226</ele>
        <time>2018-09-03T16:10:55Z</time>
      </trkpt>
      <trkpt lat="46.40448" lon="5.98018">
        <ele>1225</ele>
        <time>2018-09-03T16:11:05Z</time>
      </trkpt>
      <trkpt lat="46.40451" lon="5.98026">
        <ele>1224</ele>
        <time>2018-09-03T16:11:10Z</time>
      </trkpt>
      <trkpt lat="46.40455" lon="5.98034">
        <ele>1223</ele>
        <time>2018-09-03T16:11:15Z</time>
      </trkpt>
      <trkpt lat="46.40461" lon="5.98054">
        <ele>1222</ele>
        <time>2018-09-03T16:11:25Z</time>
      </trkpt>
      <trkpt lat="46.40464" lon="5.9806">
        <ele>1222</ele>
        <time>2018-09-03T16:11:30Z</time>
      </trkpt>
      <trkpt lat="46.4047" lon="5.98073">
        <ele>1221</ele>
        <time>2018-09-03T16:11:40Z</time>
      </trkpt>
      <trkpt lat="46.40475" lon="5.98078">
        <ele>1221</ele>
        <time>2018-09-03T16:11:45Z</time>
      </trkpt>
      <trkpt lat="46.4049" lon="5.98088">
        <ele>1221</ele>
        <time>2018-09-03T16:11:55Z</time>
      </trkpt>
      <trkpt lat="46.40498" lon="5.98096">
        <ele>1222</ele>
        <time>2018-09-03T16:12:00Z</time>
      </trkpt>
      <trkpt lat="46.40505" lon="5.98104">
        <ele>1223</ele>
        <time>2018-09-03T16:12:05Z</time>
      </trkpt>
      <trkpt lat="46.40515" lon="5.98117">
        <ele>1224</ele>
        <time>2018-09-03T16:12:15Z</time>
      </trkpt>
      <trkpt lat="46.4052" lon="5.9812">
        <ele>1224</ele>
        <time>2018-09-03T16:12:20Z</time>
      </trkpt>
      <trkpt lat="46.40533" lon="5.98131">
        <ele>1226</ele>
        <time>2018-09-03T16:12:30Z</time>
      </trkpt>
      <trkpt lat="46.40536" lon="5.98134">
        <ele>1226</ele>
        <time>2018-09-03T16:12:35Z</time>
      </trkpt>
      <trkpt lat="46.40537" lon="5.98143">
        <ele>1226</ele>
        <time>2018-09-03T16:12:45Z</time>
      </trkpt>
      <trkpt lat="46.40543" lon="5.98148">
        <ele>1227</ele>
        <time>2018-09-03T16:12:50Z</time>
      </trkpt>
      <trkpt lat="46.4055" lon="5.98156">
        <ele>1227</ele>
        <time>2018-09-03T16:12:55Z</time>
      </trkpt>
      <trkpt lat="46.40562" lon="5.98175">
        <ele>1229</ele>
        <time>2018-09-03T16:13:05Z</time>
      </trkpt>
      <trkpt lat="46.40564" lon="5.98182">
        <ele>1229</ele>
        <time>2018-09-03T16:13:10Z</time>
      </trkpt>
      <trkpt lat="46.40573" lon="5.982">
        <ele>1230</ele>
        <time>2018-09-03T16:13:20Z</time>
      </trkpt>
      <trkpt lat="46.40575" lon="5.98208">
        <ele>1230</ele>
        <time>2018-09-03T16:13:25Z</time>
      </trkpt>
      <trkpt lat="46.40576" lon="5.98224">
        <ele>1230</ele>
        <time>2018-09-03T16:13:35Z</time>
      </trkpt>
      <trkpt lat="46.40576" lon="5.98235">
        <ele>1230</ele>
        <time>2018-09-03T16:13:40Z</time>
      </trkpt>
      <trkpt lat="46.40577" lon="5.98255">
        <ele>1230</ele>
        <time>2018-09-03T16:13:50Z</time>
      </trkpt>
      <trkpt lat="46.40579" lon="5.98262">
        <ele>1230</ele>
        <time>2018-09-03T16:13:55Z</time>
      </trkpt>
      <trkpt lat="46.4058" lon="5.98271">
        <ele>1229</ele>
        <time>2018-09-03T16:14:00Z</time>
      </trkpt>
      <trkpt lat="46.40586" lon="5.98287">
        <ele>1230</ele>
        <time>2018-09-03T16:14:10Z</time>
      </trkpt>
      <trkpt lat="46.4059" lon="5.98294">
        <ele>1230</ele>
        <time>2018-09-03T16:14:15Z</time>
      </trkpt>
      <trkpt lat="46.40603" lon="5.98308">
        <ele>1231</ele>
        <time>2018-09-03T16:14:25Z</time>
      </trkpt>
      <trkpt lat="46.40609" lon="5.98314">
        <ele>1232</ele>
        <time>2018-09-03T16:14:30Z</time>
      </trkpt>
      <trkpt lat="46.40621" lon="5.98323">
        <ele>1233</ele>
        <time>2018-09-03T16:14:40Z</time>
      </trkpt>
      <trkpt lat="46.40626" lon="5.98327">
        <ele>1233</ele>
        <time>2018-09-03T16:14:45Z</time>
      </trkpt>
      <trkpt lat="46.40631" lon="5.98332">
        <ele>1233</ele>
        <time>2018-09-03T16:14:50Z</time>
      </trkpt>
      <trkpt lat="46.40639" lon="5.98341">
        <ele>1233</ele>
        <time>2018-09-03T16:15:00Z</time>
      </trkpt>
      <trkpt lat="46.40642" lon="5.98349">
        <ele>1233</ele>
        <time>2018-09-03T16:15:05Z</time>
      </trkpt>
      <trkpt lat="46.40651" lon="5.98366">
        <ele>1233</ele>
        <time>2018-09-03T16:15:15Z</time>
      </trkpt>
      <trkpt lat="46.40654" lon="5.98373">
        <ele>1233</ele>
        <time>2018-09-03T16:15:20Z</time>
      </trkpt>
      <trkpt lat="46.40665" lon="5.98389">
        <ele>1232</ele>
        <time>2018-09-03T16:15:30Z</time>
      </trkpt>
      <trkpt lat="46.4067" lon="5.98397">
        <ele>1232</ele>
        <time>2018-09-03T16:15:35Z</time>
      </trkpt>
      <trkpt lat="46.40674" lon="5.98407">
        <ele>1232</ele>
        <time>2018-09-03T16:15:40Z</time>
      </trkpt>
      <trkpt lat="46.40683" lon="5.98425">
        <ele>1231</ele>
        <time>2018-09-03T16:15:50Z</time>
      </trkpt>
      <trkpt lat="46.40685" lon="5.98436">
        <ele>1230</ele>
        <time>2018-09-03T16:15:55Z</time>
      </trkpt>
      <trkpt lat="46.40693" lon="5.98456">
        <ele>1229</ele>
        <time>2018-09-03T16:16:05Z</time>
      </trkpt>
      <trkpt lat="46.40697" lon="5.98465">
        <ele>1229</ele>
        <time>2018-09-03T16:16:10Z</time>
      </trkpt>
      <trkpt lat="46.40707" lon="5.98488">
        <ele>1227</ele>
        <time>2018-09-03T16:16:20Z</time>
      </trkpt>
      <trkpt lat="46.40711" lon="5.98496">
        <ele>1227</ele>
        <time>2018-09-03T16:16:25Z</time>
      </trkpt>
      <trkpt lat="46.40716" lon="5.98503">
        <ele>1227</ele>
        <time>2018-09-03T16:16:30Z</time>
      </trkpt>
      <trkpt lat="46.40721" lon="5.98518">
        <ele>1226</ele>
        <time>2018-09-03T16:16:40Z</time>
      </trkpt>
      <trkpt lat="46.40725" lon="5.98521">
        <ele>1226</ele>
        <time>2018-09-03T16:16:45Z</time>
      </trkpt>
      <trkpt lat="46.4073" lon="5.98532">
        <ele>1225</ele>
        <time>2018-09-03T16:16:55Z</time>
      </trkpt>
      <trkpt lat="46.40735" lon="5.98538">
        <ele>1225</ele>
        <time>2018-09-03T16:17:00Z</time>
      </trkpt>
      <trkpt lat="46.40744" lon="5.98548">
        <ele>1225</ele>
        <time>2018-09-03T16:17:10Z</time>
      </trkpt>
      <trkpt lat="46.4075" lon="5.98553">
        <ele>1225</ele>
        <time>2018-09-03T16:17:15Z</time>
      </trkpt>
      <trkpt lat="46.40753" lon="5.98557">
        <ele>1225</ele>
        <time>2018-09-03T16:17:20Z</time>
      </trkpt>
      <trkpt lat="46.4076" lon="5.98568">
        <ele>1225</ele>
        <time>2018-09-03T16:17:30Z</time>
      </trkpt>
      <trkpt lat="46.40765" lon="5.98572">
        <ele>1225</ele>
        <time>2018-09-03T16:17:35Z</time>
      </trkpt>
      <trkpt lat="46.40773" lon="5.98582">
        <ele>1225</ele>
        <time>2018-09-03T16:17:45Z</time>
      </trkpt>
      <trkpt lat="46.40773" lon="5.98583">
        <ele>1225</ele>
        <time>2018-09-03T16:17:50Z</time>
      </trkpt>
      <trkpt lat="46.40774" lon="5.98585">
        <ele>1225</ele>
        <time>2018-09-03T16:18:00Z</time>
      </trkpt>
      <trkpt lat="46.40774" lon="5.98585">
        <ele>1225</ele>
        <time>2018-09-03T16:18:05Z</time>
      </trkpt>
      <trkpt lat="46.40775" lon="5.98586">
        <ele>1225</ele>
        <time>2018-09-03T16:18:15Z</time>
      </trkpt>
      <trkpt lat="46.40776" lon="5.98586">
        <ele>1225</ele>
        <time>2018-09-03T16:18:20Z</time>
      </trkpt>
      <trkpt lat="46.40776" lon="5.98586">
        <ele>1225</ele>
        <time>2018-09-03T16:18:25Z</time>
      </trkpt>
      <trkpt lat="46.40779" lon="5.98585">
        <ele>1225</ele>
        <time>2018-09-03T16:18:35Z</time>
      </trkpt>
      <trkpt lat="46.40779" lon="5.98585">
        <ele>1225</ele>
        <time>2018-09-03T16:18:40Z</time>
      </trkpt>
      <trkpt lat="46.4078" lon="5.98587">
        <ele>1225</ele>
        <time>2018-09-03T16:18:50Z</time>
      </trkpt>
      <trkpt lat="46.4078" lon="5.98588">
        <ele>1225</ele>
        <time>2018-09-03T16:18:55Z</time>
      </trkpt>
      <trkpt lat="46.4078" lon="5.98588">
        <ele>1225</ele>
        <time>2018-09-03T16:19:05Z</time>
      </trkpt>
      <trkpt lat="46.4078" lon="5.98588">
        <ele>1225</ele>
        <time>2018-09-03T16:19:10Z</time>
      </trkpt>
      <trkpt lat="46.4078" lon="5.98588">
        <ele>1225</ele>
        <time>2018-09-03T16:19:15Z</time>
      </trkpt>
      <trkpt lat="46.4078" lon="5.9859">
        <ele>1225</ele>
        <time>2018-09-03T16:19:25Z</time>
      </trkpt>
      <trkpt lat="46.40781" lon="5.98595">
        <ele>1225</ele>
        <time>2018-09-03T16:19:30Z</time>
      </trkpt>
      <trkpt lat="46.40783" lon="5.98607">
        <ele>1225</ele>
        <time>2018-09-03T16:19:40Z</time>
      </trkpt>
      <trkpt lat="46.40786" lon="5.98611">
        <ele>1225</ele>
        <time>2018-09-03T16:19:45Z</time>
      </trkpt>
      <trkpt lat="46.40789" lon="5.98616">
        <ele>1224</ele>
        <time>2018-09-03T16:19:55Z</time>
      </trkpt>
      <trkpt lat="46.4079" lon="5.98617">
        <ele>1224</ele>
        <time>2018-09-03T16:20:00Z</time>
      </trkpt>
      <trkpt lat="46.40791" lon="5.98621">
        <ele>1224</ele>
        <time>2018-09-03T16:20:05Z</time>
      </trkpt>
      <trkpt lat="46.40798" lon="5.98629">
        <ele>1224</ele>
        <time>2018-09-03T16:20:15Z</time>
      </trkpt>
      <trkpt lat="46.40802" lon="5.98635">
        <ele>1224</ele>
        <time>2018-09-03T16:20:20Z</time>
      </trkpt>
      <trkpt lat="46.40809" lon="5.98646">
        <ele>1224</ele>
        <time>2018-09-03T16:20:30Z</time>
      </trkpt>
      <trkpt lat="46.40814" lon="5.98653">
        <ele>1224</ele>
        <time>2018-09-03T16:20:35Z</time>
      </trkpt>
      <trkpt lat="46.40823" lon="5.98665">
        <ele>1225</ele>
        <time>2018-09-03T16:20:45Z</time>
      </trkpt>
      <trkpt lat="46.40831" lon="5.98667">
        <ele>1225</ele>
        <time>2018-09-03T16:20:50Z</time>
      </trkpt>
      <trkpt lat="46.40838" lon="5.98667">
        <ele>1225</ele>
        <time>2018-09-03T16:20:55Z</time>
      </trkpt>
      <trkpt lat="46.4085" lon="5.98672">
        <ele>1224</ele>
        <time>2018-09-03T16:21:05Z</time>
      </trkpt>
      <trkpt lat="46.40857" lon="5.98675">
        <ele>1223</ele>
        <time>2018-09-03T16:21:10Z</time>
      </trkpt>
      <trkpt lat="46.40863" lon="5.98679">
        <ele>1223</ele>
        <time>2018-09-03T16:21:20Z</time>
      </trkpt>
      <trkpt lat="46.40863" lon="5.98679">
        <ele>1223</ele>
        <time>2018-09-03T16:21:25Z</time>
      </trkpt>
      <trkpt lat="46.40868" lon="5.98686">
        <ele>1222</ele>
        <time>2018-09-03T16:21:35Z</time>
      </trkpt>
      <trkpt lat="46.40873" lon="5.98689">
        <ele>1222</ele>
        <time>2018-09-03T16:21:40Z</time>
      </trkpt>
      <trkpt lat="46.40879" lon="5.98695">
        <ele>1221</ele>
        <time>2018-09-03T16:21:45Z</time>
      </trkpt>
      <trkpt lat="46.40886" lon="5.98704">
        <ele>1220</ele>
        <time>2018-09-03T16:21:55Z</time>
      </trkpt>
      <trkpt lat="46.4089" lon="5.9871">
        <ele>1220</ele>
        <time>2018-09-03T16:22:00Z</time>
      </trkpt>
      <trkpt lat="46.40899" lon="5.98721">
        <ele>1219</ele>
        <time>2018-09-03T16:22:10Z</time>
      </trkpt>
      <trkpt lat="46.40903" lon="5.98726">
        <ele>1218</ele>
        <time>2018-09-03T16:22:15Z</time>
      </trkpt>
      <trkpt lat="46.40914" lon="5.98734">
        <ele>1217</ele>
        <time>2018-09-03T16:22:25Z</time>
      </trkpt>
      <trkpt lat="46.4092" lon="5.98738">
        <ele>1216</ele>
        <time>2018-09-03T16:22:30Z</time>
      </trkpt>
      <trkpt lat="46.40929" lon="5.98744">
        <ele>1215</ele>
        <time>2018-09-03T16:22:40Z</time>
      </trkpt>
      <trkpt lat="46.40934" lon="5.9875">
        <ele>1214</ele>
        <time>2018-09-03T16:22:45Z</time>
      </trkpt>
      <trkpt lat="46.40939" lon="5.98755">
        <ele>1213</ele>
        <time>2018-09-03T16:22:50Z</time>
      </trkpt>
      <trkpt lat="46.40947" lon="5.98767">
        <ele>1211</ele>
        <time>2018-09-03T16:23:00Z</time>
      </trkpt>
      <trkpt lat="46.40952" lon="5.98773">
        <ele>1210</ele>
        <time>2018-09-03T16:23:05Z</time>
      </trkpt>
      <trkpt lat="46.40958" lon="5.98779">
        <ele>1209</ele>
        <time>2018-09-03T16:23:15Z</time>
      </trkpt>
      <trkpt lat="46.40958" lon="5.98779">
        <ele>1209</ele>
        <time>2018-09-03T16:23:20Z</time>
      </trkpt>
      <trkpt lat="46.40959" lon="5.98778">
        <ele>1208</ele>
        <time>2018-09-03T16:23:30Z</time>
      </trkpt>
      <trkpt lat="46.40959" lon="5.98779">
        <ele>1208</ele>
        <time>2018-09-03T16:23:35Z</time>
      </trkpt>
      <trkpt lat="46.40958" lon="5.9878">
        <ele>1208</ele>
        <time>2018-09-03T16:23:40Z</time>
      </trkpt>
      <trkpt lat="46.40958" lon="5.98782">
        <ele>1208</ele>
        <time>2018-09-03T16:23:50Z</time>
      </trkpt>
      <trkpt lat="46.40958" lon="5.98782">
        <ele>1208</ele>
        <time>2018-09-03T16:23:55Z</time>
      </trkpt>
      <trkpt lat="46.40959" lon="5.98784">
        <ele>1208</ele>
        <time>2018-09-03T16:24:05Z</time>
      </trkpt>
      <trkpt lat="46.4096" lon="5.98785">
        <ele>1208</ele>
        <time>2018-09-03T16:24:10Z</time>
      </trkpt>
      <trkpt lat="46.40966" lon="5.98789">
        <ele>1207</ele>
        <time>2018-09-03T16:24:20Z</time>
      </trkpt>
      <trkpt lat="46.40969" lon="5.98794">
        <ele>1206</ele>
        <time>2018-09-03T16:24:25Z</time>
      </trkpt>
      <trkpt lat="46.40973" lon="5.98799">
        <ele>1205</ele>
        <time>2018-09-03T16:24:30Z</time>
      </trkpt>
      <trkpt lat="46.4098" lon="5.9881">
        <ele>1203</ele>
        <time>2018-09-03T16:24:40Z</time>
      </trkpt>
      <trkpt lat="46.40984" lon="5.98816">
        <ele>1202</ele>
        <time>2018-09-03T16:24:45Z</time>
      </trkpt>
      <trkpt lat="46.40988" lon="5.98827">
        <ele>1201</ele>
        <time>2018-09-03T16:24:55Z</time>
      </trkpt>
      <trkpt lat="46.40989" lon="5.98832">
        <ele>1200</ele>
        <time>2018-09-03T16:25:00Z</time>
      </trkpt>
      <trkpt lat="46.40993" lon="5.98838">
        <ele>1199</ele>
        <time>2018-09-03T16:25:10Z</time>
      </trkpt>
      <trkpt lat="46.40995" lon="5.98844">
        <ele>1198</ele>
        <time>2018-09-03T16:25:15Z</time>
      </trkpt>
      <trkpt lat="46.40996" lon="5.98849">
        <ele>1197</ele>
        <time>2018-09-03T16:25:20Z</time>
      </trkpt>
      <trkpt lat="46.40999" lon="5.98865">
        <ele>1195</ele>
        <time>2018-09-03T16:25:30Z</time>
      </trkpt>
      <trkpt lat="46.41001" lon="5.98872">
        <ele>1194</ele>
        <time>2018-09-03T16:25:35Z</time>
      </trkpt>
      <trkpt lat="46.41007" lon="5.98881">
        <ele>1192</ele>
        <time>2018-09-03T16:25:45Z</time>
      </trkpt>
      <trkpt lat="46.4101" lon="5.98884">
        <ele>1192</ele>
        <time>2018-09-03T16:25:50Z</time>
      </trkpt>
      <trkpt lat="46.4102" lon="5.98889">
        <ele>1190</ele>
        <time>2018-09-03T16:26:00Z</time>
      </trkpt>
      <trkpt lat="46.41024" lon="5.98891">
        <ele>1190</ele>
        <time>2018-09-03T16:26:05Z</time>
      </trkpt>
      <trkpt lat="46.41031" lon="5.98898">
        <ele>1189</ele>
        <time>2018-09-03T16:26:15Z</time>
      </trkpt>
      <trkpt lat="46.41034" lon="5.98903">
        <ele>1188</ele>
        <time>2018-09-03T16:26:20Z</time>
      </trkpt>
      <trkpt lat="46.41038" lon="5.98907">
        <ele>1188</ele>
        <time>2018-09-03T16:26:25Z</time>
      </trkpt>
      <trkpt lat="46.41049" lon="5.98919">
        <ele>1187</ele>
        <time>2018-09-03T16:26:35Z</time>
      </trkpt>
      <trkpt lat="46.41054" lon="5.98925">
        <ele>1187</ele>
        <time>2018-09-03T16:26:40Z</time>
      </trkpt>
      <trkpt lat="46.41067" lon="5.98937">
        <ele>1186</ele>
        <time>2018-09-03T16:26:50Z</time>
      </trkpt>
      <trkpt lat="46.41071" lon="5.98942">
        <ele>1185</ele>
        <time>2018-09-03T16:26:55Z</time>
      </trkpt>
      <trkpt lat="46.41075" lon="5.98942">
        <ele>1186</ele>
        <time>2018-09-03T16:27:05Z</time>
      </trkpt>
      <trkpt lat="46.41075" lon="5.98942">
        <ele>1186</ele>
        <time>2018-09-03T16:27:10Z</time>
      </trkpt>
      <trkpt lat="46.41076" lon="5.98945">
        <ele>1185</ele>
        <time>2018-09-03T16:27:15Z</time>
      </trkpt>
      <trkpt lat="46.41072" lon="5.98943">
        <ele>1185</ele>
        <time>2018-09-03T16:27:25Z</time>
      </trkpt>
      <trkpt lat="46.41075" lon="5.98942">
        <ele>1186</ele>
        <time>2018-09-03T16:27:30Z</time>
      </trkpt>
      <trkpt lat="46.41073" lon="5.98947">
        <ele>1185</ele>
        <time>2018-09-03T16:27:40Z</time>
      </trkpt>
      <trkpt lat="46.41072" lon="5.98953">
        <ele>1185</ele>
        <time>2018-09-03T16:27:45Z</time>
      </trkpt>
      <trkpt lat="46.4107" lon="5.98967">
        <ele>1184</ele>
        <time>2018-09-03T16:27:55Z</time>
      </trkpt>
      <trkpt lat="46.4107" lon="5.98975">
        <ele>1183</ele>
        <time>2018-09-03T16:28:00Z</time>
      </trkpt>
      <trkpt lat="46.41071" lon="5.98982">
        <ele>1183</ele>
        <time>2018-09-03T16:28:05Z</time>
      </trkpt>
      <trkpt lat="46.41072" lon="5.98996">
        <ele>1182</ele>
        <time>2018-09-03T16:28:15Z</time>
      </trkpt>
      <trkpt lat="46.41073" lon="5.99003">
        <ele>1182</ele>
        <time>2018-09-03T16:28:20Z</time>
      </trkpt>
      <trkpt lat="46.41073" lon="5.99018">
        <ele>1181</ele>
        <time>2018-09-03T16:28:30Z</time>
      </trkpt>
      <trkpt lat="46.41074" lon="5.99026">
        <ele>1180</ele>
        <time>2018-09-03T16:28:35Z</time>
      </trkpt>
      <trkpt lat="46.41076" lon="5.9904">
        <ele>1180</ele>
        <time>2018-09-03T16:28:45Z</time>
      </trkpt>
      <trkpt lat="46.41076" lon="5.99048">
        <ele>1180</ele>
        <time>2018-09-03T16:28:50Z</time>
      </trkpt>
      <trkpt lat="46.41075" lon="5.99055">
        <ele>1180</ele>
        <time>2018-09-03T16:28:55Z</time>
      </trkpt>
      <trkpt lat="46.41075" lon="5.99073">
        <ele>1179</ele>
        <time>2018-09-03T16:29:05Z</time>
      </trkpt>
      <trkpt lat="46.41075" lon="5.99082">
        <ele>1179</ele>
        <time>2018-09-03T16:29:10Z</time>
      </trkpt>
      <trkpt lat="46.41075" lon="5.99098">
        <ele>1179</ele>
        <time>2018-09-03T16:29:20Z</time>
      </trkpt>
      <trkpt lat="46.41075" lon="5.99106">
        <ele>1179</ele>
        <time>2018-09-03T16:29:25Z</time>
      </trkpt>
      <trkpt lat="46.41075" lon="5.99122">
        <ele>1179</ele>
        <time>2018-09-03T16:29:35Z</time>
      </trkpt>
      <trkpt lat="46.41076" lon="5.99129">
        <ele>1179</ele>
        <time>2018-09-03T16:29:40Z</time>
      </trkpt>
      <trkpt lat="46.41074" lon="5.99135">
        <ele>1179</ele>
        <time>2018-09-03T16:29:45Z</time>
      </trkpt>
      <trkpt lat="46.41076" lon="5.99144">
        <ele>1180</ele>
        <time>2018-09-03T16:29:55Z</time>
      </trkpt>
      <trkpt lat="46.41082" lon="5.99148">
        <ele>1180</ele>
        <time>2018-09-03T16:30:00Z</time>
      </trkpt>
      <trkpt lat="46.41089" lon="5.99156">
        <ele>1181</ele>
        <time>2018-09-03T16:30:10Z</time>
      </trkpt>
      <trkpt lat="46.41091" lon="5.99158">
        <ele>1181</ele>
        <time>2018-09-03T16:30:15Z</time>
      </trkpt>
      <trkpt lat="46.41103" lon="5.99167">
        <ele>1182</ele>
        <time>2018-09-03T16:30:25Z</time>
      </trkpt>
      <trkpt lat="46.41106" lon="5.99169">
        <ele>1182</ele>
        <time>2018-09-03T16:30:30Z</time>
      </trkpt>
      <trkpt lat="46.41115" lon="5.99179">
        <ele>1183</ele>
        <time>2018-09-03T16:30:40Z</time>
      </trkpt>
      <trkpt lat="46.41119" lon="5.99184">
        <ele>1183</ele>
        <time>2018-09-03T16:30:45Z</time>
      </trkpt>
      <trkpt lat="46.41124" lon="5.99189">
        <ele>1183</ele>
        <time>2018-09-03T16:30:50Z</time>
      </trkpt>
      <trkpt lat="46.41133" lon="5.99198">
        <ele>1184</ele>
        <time>2018-09-03T16:31:00Z</time>
      </trkpt>
      <trkpt lat="46.41138" lon="5.99203">
        <ele>1184</ele>
        <time>2018-09-03T16:31:05Z</time>
      </trkpt>
      <trkpt lat="46.41145" lon="5.99212">
        <ele>1185</ele>
        <time>2018-09-03T16:31:15Z</time>
      </trkpt>
      <trkpt lat="46.4115" lon="5.9922">
        <ele>1185</ele>
        <time>2018-09-03T16:31:20Z</time>
      </trkpt>
      <trkpt lat="46.41154" lon="5.99234">
        <ele>1186</ele>
        <time>2018-09-03T16:31:30Z</time>
      </trkpt>
      <trkpt lat="46.41155" lon="5.99242">
        <ele>1186</ele>
        <time>2018-09-03T16:31:35Z</time>
      </trkpt>
      <trkpt lat="46.41155" lon="5.99249">
        <ele>1186</ele>
        <time>2018-09-03T16:31:40Z</time>
      </trkpt>
      <trkpt lat="46.41155" lon="5.99267">
        <ele>1186</ele>
        <time>2018-09-03T16:31:50Z</time>
      </trkpt>
      <trkpt lat="46.41155" lon="5.99275">
        <ele>1186</ele>
        <time>2018-09-03T16:31:55Z</time>
      </trkpt>
      <trkpt lat="46.41154" lon="5.99292">
        <ele>1186</ele>
        <time>2018-09-03T16:32:05Z</time>
      </trkpt>
      <trkpt lat="46.41153" lon="5.99299">
        <ele>1186</ele>
        <time>2018-09-03T16:32:10Z</time>
      </trkpt>
      <trkpt lat="46.41154" lon="5.99315">
        <ele>1185</ele>
        <time>2018-09-03T16:32:20Z</time>
      </trkpt>
      <trkpt lat="46.41157" lon="5.99321">
        <ele>1185</ele>
        <time>2018-09-03T16:32:25Z</time>
      </trkpt>
      <trkpt lat="46.41159" lon="5.99327">
        <ele>1185</ele>
        <time>2018-09-03T16:32:30Z</time>
      </trkpt>
      <trkpt lat="46.41165" lon="5.99337">
        <ele>1185</ele>
        <time>2018-09-03T16:32:40Z</time>
      </trkpt>
      <trkpt lat="46.41168" lon="5.99341">
        <ele>1185</ele>
        <time>2018-09-03T16:32:45Z</time>
      </trkpt>
      <trkpt lat="46.41175" lon="5.99346">
        <ele>1186</ele>
        <time>2018-09-03T16:32:55Z</time>
      </trkpt>
      <trkpt lat="46.41179" lon="5.99348">
        <ele>1186</ele>
        <time>2018-09-03T16:33:00Z</time>
      </trkpt>
      <trkpt lat="46.41188" lon="5.99351">
        <ele>1187</ele>
        <time>2018-09-03T16:33:10Z</time>
      </trkpt>
      <trkpt lat="46.41193" lon="5.99353">
        <ele>1188</ele>
        <time>2018-09-03T16:33:15Z</time>
      </trkpt>
      <trkpt lat="46.41194" lon="5.99352">
        <ele>1188</ele>
        <time>2018-09-03T16:33:20Z</time>
      </trkpt>
      <trkpt lat="46.412" lon="5.99355">
        <ele>1189</ele>
        <time>2018-09-03T16:33:30Z</time>
      </trkpt>
      <trkpt lat="46.41204" lon="5.99358">
        <ele>1189</ele>
        <time>2018-09-03T16:33:35Z</time>
      </trkpt>
      <trkpt lat="46.4121" lon="5.99362">
        <ele>1190</ele>
        <time>2018-09-03T16:33:45Z</time>
      </trkpt>
      <trkpt lat="46.41214" lon="5.99365">
        <ele>1191</ele>
        <time>2018-09-03T16:33:50Z</time>
      </trkpt>
      <trkpt lat="46.41222" lon="5.99372">
        <ele>1192</ele>
        <time>2018-09-03T16:34:00Z</time>
      </trkpt>
      <trkpt lat="46.41227" lon="5.99375">
        <ele>1192</ele>
        <time>2018-09-03T16:34:05Z</time>
      </trkpt>
      <trkpt lat="46.41231" lon="5.9938">
        <ele>1193</ele>
        <time>2018-09-03T16:34:10Z</time>
      </trkpt>
      <trkpt lat="46.4124" lon="5.99386">
        <ele>1194</ele>
        <time>2018-09-03T16:34:20Z</time>
      </trkpt>
      <trkpt lat="46.41245" lon="5.99386">
        <ele>1194</ele>
        <time>2018-09-03T16:34:25Z</time>
      </trkpt>
      <trkpt lat="46.41256" lon="5.9939">
        <ele>1194</ele>
        <time>2018-09-03T16:34:35Z</time>
      </trkpt>
      <trkpt lat="46.41261" lon="5.99394">
        <ele>1194</ele>
        <time>2018-09-03T16:34:40Z</time>
      </trkpt>
      <trkpt lat="46.41268" lon="5.99399">
        <ele>1195</ele>
        <time>2018-09-03T16:34:50Z</time>
      </trkpt>
      <trkpt lat="46.41273" lon="5.99401">
        <ele>1195</ele>
        <time>2018-09-03T16:34:55Z</time>
      </trkpt>
      <trkpt lat="46.41281" lon="5.99409">
        <ele>1195</ele>
        <time>2018-09-03T16:35:05Z</time>
      </trkpt>
      <trkpt lat="46.41285" lon="5.99415">
        <ele>1195</ele>
        <time>2018-09-03T16:35:10Z</time>
      </trkpt>
      <trkpt lat="46.41288" lon="5.99421">
        <ele>1195</ele>
        <time>2018-09-03T16:35:15Z</time>
      </trkpt>
      <trkpt lat="46.41295" lon="5.99434">
        <ele>1195</ele>
        <time>2018-09-03T16:35:25Z</time>
      </trkpt>
      <trkpt lat="46.41298" lon="5.99439">
        <ele>1196</ele>
        <time>2018-09-03T16:35:30Z</time>
      </trkpt>
      <trkpt lat="46.41305" lon="5.99455">
        <ele>1196</ele>
        <time>2018-09-03T16:35:40Z</time>
      </trkpt>
      <trkpt lat="46.41308" lon="5.99461">
        <ele>1196</ele>
        <time>2018-09-03T16:35:45Z</time>
      </trkpt>
      <trkpt lat="46.41315" lon="5.99468">
        <ele>1196</ele>
        <time>2018-09-03T16:35:55Z</time>
      </trkpt>
      <trkpt lat="46.41318" lon="5.99472">
        <ele>1196</ele>
        <time>2018-09-03T16:36:00Z</time>
      </trkpt>
      <trkpt lat="46.4132" lon="5.99474">
        <ele>1196</ele>
        <time>2018-09-03T16:36:05Z</time>
      </trkpt>
      <trkpt lat="46.41327" lon="5.9948">
        <ele>1196</ele>
        <time>2018-09-03T16:36:15Z</time>
      </trkpt>
      <trkpt lat="46.4133" lon="5.99484">
        <ele>1196</ele>
        <time>2018-09-03T16:36:20Z</time>
      </trkpt>
      <trkpt lat="46.41336" lon="5.99494">
        <ele>1196</ele>
        <time>2018-09-03T16:36:30Z</time>
      </trkpt>
      <trkpt lat="46.41339" lon="5.99501">
        <ele>1196</ele>
        <time>2018-09-03T16:36:35Z</time>
      </trkpt>
      <trkpt lat="46.41343" lon="5.99516">
        <ele>1196</ele>
        <time>2018-09-03T16:36:45Z</time>
      </trkpt>
      <trkpt lat="46.41345" lon="5.99525">
        <ele>1195</ele>
        <time>2018-09-03T16:36:50Z</time>
      </trkpt>
      <trkpt lat="46.41346" lon="5.99532">
        <ele>1195</ele>
        <time>2018-09-03T16:36:55Z</time>
      </trkpt>
      <trkpt lat="46.41352" lon="5.99547">
        <ele>1194</ele>
        <time>2018-09-03T16:37:05Z</time>
      </trkpt>
      <trkpt lat="46.41354" lon="5.99554">
        <ele>1194</ele>
        <time>2018-09-03T16:37:10Z</time>
      </trkpt>
      <trkpt lat="46.41362" lon="5.99566">
        <ele>1194</ele>
        <time>2018-09-03T16:37:20Z</time>
      </trkpt>
      <trkpt lat="46.41366" lon="5.99572">
        <ele>1194</ele>
        <time>2018-09-03T16:37:25Z</time>
      </trkpt>
      <trkpt lat="46.41374" lon="5.99583">
        <ele>1194</ele>
        <time>2018-09-03T16:37:35Z</time>
      </trkpt>
      <trkpt lat="46.41378" lon="5.99588">
        <ele>1194</ele>
        <time>2018-09-03T16:37:40Z</time>
      </trkpt>
      <trkpt lat="46.41381" lon="5.99592">
        <ele>1195</ele>
        <time>2018-09-03T16:37:45Z</time>
      </trkpt>
      <trkpt lat="46.41388" lon="5.99601">
        <ele>1195</ele>
        <time>2018-09-03T16:37:55Z</time>
      </trkpt>
      <trkpt lat="46.41391" lon="5.99607">
        <ele>1195</ele>
        <time>2018-09-03T16:38:00Z</time>
      </trkpt>
      <trkpt lat="46.41399" lon="5.99618">
        <ele>1196</ele>
        <time>2018-09-03T16:38:10Z</time>
      </trkpt>
      <trkpt lat="46.41402" lon="5.99622">
        <ele>1196</ele>
        <time>2018-09-03T16:38:15Z</time>
      </trkpt>
      <trkpt lat="46.41408" lon="5.99633">
        <ele>1196</ele>
        <time>2018-09-03T16:38:25Z</time>
      </trkpt>
      <trkpt lat="46.41412" lon="5.99636">
        <ele>1197</ele>
        <time>2018-09-03T16:38:30Z</time>
      </trkpt>
      <trkpt lat="46.41415" lon="5.99641">
        <ele>1197</ele>
        <time>2018-09-03T16:38:35Z</time>
      </trkpt>
      <trkpt lat="46.41423" lon="5.99649">
        <ele>1197</ele>
        <time>2018-09-03T16:38:45Z</time>
      </trkpt>
      <trkpt lat="46.41428" lon="5.99656">
        <ele>1198</ele>
        <time>2018-09-03T16:38:50Z</time>
      </trkpt>
      <trkpt lat="46.41438" lon="5.99671">
        <ele>1198</ele>
        <time>2018-09-03T16:39:00Z</time>
      </trkpt>
      <trkpt lat="46.41442" lon="5.99676">
        <ele>1198</ele>
        <time>2018-09-03T16:39:05Z</time>
      </trkpt>
      <trkpt lat="46.4145" lon="5.99686">
        <ele>1198</ele>
        <time>2018-09-03T16:39:15Z</time>
      </trkpt>
      <trkpt lat="46.41454" lon="5.99691">
        <ele>1198</ele>
        <time>2018-09-03T16:39:20Z</time>
      </trkpt>
      <trkpt lat="46.41462" lon="5.99702">
        <ele>1199</ele>
        <time>2018-09-03T16:39:30Z</time>
      </trkpt>
      <trkpt lat="46.41466" lon="5.99707">
        <ele>1199</ele>
        <time>2018-09-03T16:39:35Z</time>
      </trkpt>
      <trkpt lat="46.41471" lon="5.99713">
        <ele>1199</ele>
        <time>2018-09-03T16:39:40Z</time>
      </trkpt>
      <trkpt lat="46.41483" lon="5.99724">
        <ele>1200</ele>
        <time>2018-09-03T16:39:50Z</time>
      </trkpt>
      <trkpt lat="46.41487" lon="5.9973">
        <ele>1200</ele>
        <time>2018-09-03T16:39:55Z</time>
      </trkpt>
      <trkpt lat="46.41493" lon="5.99744">
        <ele>1199</ele>
        <time>2018-09-03T16:40:05Z</time>
      </trkpt>
      <trkpt lat="46.41497" lon="5.9975">
        <ele>1199</ele>
        <time>2018-09-03T16:40:10Z</time>
      </trkpt>
      <trkpt lat="46.41501" lon="5.99754">
        <ele>1200</ele>
        <time>2018-09-03T16:40:20Z</time>
      </trkpt>
      <trkpt lat="46.41502" lon="5.99755">
        <ele>1200</ele>
        <time>2018-09-03T16:40:25Z</time>
      </trkpt>
      <trkpt lat="46.41506" lon="5.99761">
        <ele>1200</ele>
        <time>2018-09-03T16:40:30Z</time>
      </trkpt>
      <trkpt lat="46.41514" lon="5.99775">
        <ele>1199</ele>
        <time>2018-09-03T16:40:40Z</time>
      </trkpt>
      <trkpt lat="46.41519" lon="5.99781">
        <ele>1199</ele>
        <time>2018-09-03T16:40:45Z</time>
      </trkpt>
      <trkpt lat="46.41529" lon="5.99794">
        <ele>1199</ele>
        <time>2018-09-03T16:40:55Z</time>
      </trkpt>
      <trkpt lat="46.41535" lon="5.998">
        <ele>1199</ele>
        <time>2018-09-03T16:41:00Z</time>
      </trkpt>
      <trkpt lat="46.41546" lon="5.99811">
        <ele>1199</ele>
        <time>2018-09-03T16:41:10Z</time>
      </trkpt>
      <trkpt lat="46.41551" lon="5.99816">
        <ele>1199</ele>
        <time>2018-09-03T16:41:15Z</time>
      </trkpt>
      <trkpt lat="46.41555" lon="5.9982">
        <ele>1199</ele>
        <time>2018-09-03T16:41:20Z</time>
      </trkpt>
      <trkpt lat="46.41563" lon="5.9983">
        <ele>1199</ele>
        <time>2018-09-03T16:41:30Z</time>
      </trkpt>
      <trkpt lat="46.41567" lon="5.99836">
        <ele>1198</ele>
        <time>2018-09-03T16:41:35Z</time>
      </trkpt>
      <trkpt lat="46.41575" lon="5.9985">
        <ele>1198</ele>
        <time>2018-09-03T16:41:45Z</time>
      </trkpt>
      <trkpt lat="46.41578" lon="5.99855">
        <ele>1197</ele>
        <time>2018-09-03T16:41:50Z</time>
      </trkpt>
      <trkpt lat="46.41586" lon="5.99868">
        <ele>1197</ele>
        <time>2018-09-03T16:42:00Z</time>
      </trkpt>
      <trkpt lat="46.41588" lon="5.99873">
        <ele>1197</ele>
        <time>2018-09-03T16:42:05Z</time>
      </trkpt>
      <trkpt lat="46.41592" lon="5.99881">
        <ele>1198</ele>
        <time>2018-09-03T16:42:10Z</time>
      </trkpt>
      <trkpt lat="46.41598" lon="5.99897">
        <ele>1199</ele>
        <time>2018-09-03T16:42:20Z</time>
      </trkpt>
      <trkpt lat="46.416" lon="5.99903">
        <ele>1199</ele>
        <time>2018-09-03T16:42:25Z</time>
      </trkpt>
      <trkpt lat="46.41604" lon="5.99912">
        <ele>1199</ele>
        <time>2018-09-03T16:42:35Z</time>
      </trkpt>
      <trkpt lat="46.41607" lon="5.99919">
        <ele>1199</ele>
        <time>2018-09-03T16:42:40Z</time>
      </trkpt>
      <trkpt lat="46.4161" lon="5.99924">
        <ele>1199</ele>
        <time>2018-09-03T16:42:50Z</time>
      </trkpt>
      <trkpt lat="46.4161" lon="5.99926">
        <ele>1199</ele>
        <time>2018-09-03T16:42:55Z</time>
      </trkpt>
      <trkpt lat="46.41613" lon="5.99931">
        <ele>1200</ele>
        <time>2018-09-03T16:43:00Z</time>
      </trkpt>
      <trkpt lat="46.41616" lon="5.99939">
        <ele>1200</ele>
        <time>2018-09-03T16:43:10Z</time>
      </trkpt>
      <trkpt lat="46.41616" lon="5.99942">
        <ele>1200</ele>
        <time>2018-09-03T16:43:15Z</time>
      </trkpt>
      <trkpt lat="46.41617" lon="5.99944">
        <ele>1200</ele>
        <time>2018-09-03T16:43:25Z</time>
      </trkpt>
      <trkpt lat="46.41618" lon="5.99945">
        <ele>1201</ele>
        <time>2018-09-03T16:43:30Z</time>
      </trkpt>
      <trkpt lat="46.41621" lon="5.99951">
        <ele>1201</ele>
        <time>2018-09-03T16:43:40Z</time>
      </trkpt>
      <trkpt lat="46.41621" lon="5.99951">
        <ele>1201</ele>
        <time>2018-09-03T16:43:45Z</time>
      </trkpt>
      <trkpt lat="46.41623" lon="5.99964">
        <ele>1201</ele>
        <time>2018-09-03T16:43:55Z</time>
      </trkpt>
      <trkpt lat="46.41624" lon="5.99965">
        <ele>1201</ele>
        <time>2018-09-03T16:44:00Z</time>
      </trkpt>
      <trkpt lat="46.41626" lon="5.99972">
        <ele>1201</ele>
        <time>2018-09-03T16:44:05Z</time>
      </trkpt>
      <trkpt lat="46.41631" lon="5.99987">
        <ele>1202</ele>
        <time>2018-09-03T16:44:15Z</time>
      </trkpt>
      <trkpt lat="46.41636" lon="5.99992">
        <ele>1203</ele>
        <time>2018-09-03T16:44:20Z</time>
      </trkpt>
      <trkpt lat="46.41644" lon="6.00002">
        <ele>1203</ele>
        <time>2018-09-03T16:44:30Z</time>
      </trkpt>
      <trkpt lat="46.41649" lon="6.00008">
        <ele>1204</ele>
        <time>2018-09-03T16:44:35Z</time>
      </trkpt>
      <trkpt lat="46.41659" lon="6.00017">
        <ele>1205</ele>
        <time>2018-09-03T16:44:45Z</time>
      </trkpt>
      <trkpt lat="46.41665" lon="6.00021">
        <ele>1205</ele>
        <time>2018-09-03T16:44:50Z</time>
      </trkpt>
      <trkpt lat="46.4167" lon="6.00024">
        <ele>1206</ele>
        <time>2018-09-03T16:44:55Z</time>
      </trkpt>
      <trkpt lat="46.4168" lon="6.00034">
        <ele>1207</ele>
        <time>2018-09-03T16:45:05Z</time>
      </trkpt>
      <trkpt lat="46.41683" lon="6.00041">
        <ele>1207</ele>
        <time>2018-09-03T16:45:10Z</time>
      </trkpt>
      <trkpt lat="46.41691" lon="6.00054">
        <ele>1207</ele>
        <time>2018-09-03T16:45:20Z</time>
      </trkpt>
      <trkpt lat="46.41696" lon="6.00058">
        <ele>1208</ele>
        <time>2018-09-03T16:45:25Z</time>
      </trkpt>
      <trkpt lat="46.41704" lon="6.00066">
        <ele>1208</ele>
        <time>2018-09-03T16:45:35Z</time>
      </trkpt>
      <trkpt lat="46.41709" lon="6.0007">
        <ele>1209</ele>
        <time>2018-09-03T16:45:40Z</time>
      </trkpt>
      <trkpt lat="46.41714" lon="6.00075">
        <ele>1209</ele>
        <time>2018-09-03T16:45:45Z</time>
      </trkpt>
      <trkpt lat="46.41724" lon="6.00084">
        <ele>1210</ele>
        <time>2018-09-03T16:45:55Z</time>
      </trkpt>
      <trkpt lat="46.41729" lon="6.00088">
        <ele>1210</ele>
        <time>2018-09-03T16:46:00Z</time>
      </trkpt>
      <trkpt lat="46.4174" lon="6.00099">
        <ele>1209</ele>
        <time>2018-09-03T16:46:10Z</time>
      </trkpt>
      <trkpt lat="46.41746" lon="6.00104">
        <ele>1209</ele>
        <time>2018-09-03T16:46:15Z</time>
      </trkpt>
      <trkpt lat="46.41756" lon="6.00112">
        <ele>1209</ele>
        <time>2018-09-03T16:46:25Z</time>
      </trkpt>
      <trkpt lat="46.41762" lon="6.00117">
        <ele>1209</ele>
        <time>2018-09-03T16:46:30Z</time>
      </trkpt>
      <trkpt lat="46.41767" lon="6.00121">
        <ele>1209</ele>
        <time>2018-09-03T16:46:35Z</time>
      </trkpt>
      <trkpt lat="46.41772" lon="6.00131">
        <ele>1209</ele>
        <time>2018-09-03T16:46:45Z</time>
      </trkpt>
      <trkpt lat="46.41771" lon="6.00138">
        <ele>1208</ele>
        <time>2018-09-03T16:46:50Z</time>
      </trkpt>
      <trkpt lat="46.41774" lon="6.00144">
        <ele>1208</ele>
        <time>2018-09-03T16:47:00Z</time>
      </trkpt>
      <trkpt lat="46.41775" lon="6.00145">
        <ele>1208</ele>
        <time>2018-09-03T16:47:05Z</time>
      </trkpt>
      <trkpt lat="46.41776" lon="6.00146">
        <ele>1208</ele>
        <time>2018-09-03T16:47:15Z</time>
      </trkpt>
      <trkpt lat="46.41776" lon="6.00147">
        <ele>1207</ele>
        <time>2018-09-03T16:47:20Z</time>
      </trkpt>
      <trkpt lat="46.41776" lon="6.00148">
        <ele>1207</ele>
        <time>2018-09-03T16:47:25Z</time>
      </trkpt>
      <trkpt lat="46.41776" lon="6.00149">
        <ele>1207</ele>
        <time>2018-09-03T16:47:35Z</time>
      </trkpt>
      <trkpt lat="46.41777" lon="6.0015">
        <ele>1207</ele>
        <time>2018-09-03T16:47:40Z</time>
      </trkpt>
      <trkpt lat="46.41777" lon="6.00158">
        <ele>1207</ele>
        <time>2018-09-03T16:47:50Z</time>
      </trkpt>
      <trkpt lat="46.41776" lon="6.00166">
        <ele>1206</ele>
        <time>2018-09-03T16:47:55Z</time>
      </trkpt>
      <trkpt lat="46.41772" lon="6.0018">
        <ele>1205</ele>
        <time>2018-09-03T16:48:05Z</time>
      </trkpt>
      <trkpt lat="46.4177" lon="6.00186">
        <ele>1204</ele>
        <time>2018-09-03T16:48:10Z</time>
      </trkpt>
      <trkpt lat="46.41768" lon="6.00195">
        <ele>1203</ele>
        <time>2018-09-03T16:48:20Z</time>
      </trkpt>
      <trkpt lat="46.41767" lon="6.00195">
        <ele>1203</ele>
        <time>2018-09-03T16:48:25Z</time>
      </trkpt>
      <trkpt lat="46.41767" lon="6.00198">
        <ele>1203</ele>
        <time>2018-09-03T16:48:30Z</time>
      </trkpt>
      <trkpt lat="46.41764" lon="6.00214">
        <ele>1202</ele>
        <time>2018-09-03T16:48:40Z</time>
      </trkpt>
      <trkpt lat="46.41761" lon="6.00219">
        <ele>1202</ele>
        <time>2018-09-03T16:48:45Z</time>
      </trkpt>
      <trkpt lat="46.41758" lon="6.00235">
        <ele>1201</ele>
        <time>2018-09-03T16:48:55Z</time>
      </trkpt>
      <trkpt lat="46.41757" lon="6.00244">
        <ele>1201</ele>
        <time>2018-09-03T16:49:00Z</time>
      </trkpt>
      <trkpt lat="46.41754" lon="6.00262">
        <ele>1201</ele>
        <time>2018-09-03T16:49:10Z</time>
      </trkpt>
      <trkpt lat="46.41753" lon="6.00271">
        <ele>1200</ele>
        <time>2018-09-03T16:49:15Z</time>
      </trkpt>
      <trkpt lat="46.41752" lon="6.0028">
        <ele>1200</ele>
        <time>2018-09-03T16:49:20Z</time>
      </trkpt>
      <trkpt lat="46.41752" lon="6.00295">
        <ele>1200</ele>
        <time>2018-09-03T16:49:30Z</time>
      </trkpt>
      <trkpt lat="46.41754" lon="6.00298">
        <ele>1200</ele>
        <time>2018-09-03T16:49:35Z</time>
      </trkpt>
      <trkpt lat="46.41759" lon="6.00312">
        <ele>1200</ele>
        <time>2018-09-03T16:49:45Z</time>
      </trkpt>
      <trkpt lat="46.4176" lon="6.0032">
        <ele>1200</ele>
        <time>2018-09-03T16:49:50Z</time>
      </trkpt>
      <trkpt lat="46.41763" lon="6.00336">
        <ele>1200</ele>
        <time>2018-09-03T16:50:00Z</time>
      </trkpt>
      <trkpt lat="46.41765" lon="6.00346">
        <ele>1200</ele>
        <time>2018-09-03T16:50:05Z</time>
      </trkpt>
      <trkpt lat="46.41768" lon="6.00352">
        <ele>1200</ele>
        <time>2018-09-03T16:50:10Z</time>
      </trkpt>
      <trkpt lat="46.41773" lon="6.00366">
        <ele>1200</ele>
        <time>2018-09-03T16:50:20Z</time>
      </trkpt>
      <trkpt lat="46.41775" lon="6.00376">
        <ele>1200</ele>
        <time>2018-09-03T16:50:25Z</time>
      </trkpt>
      <trkpt lat="46.41779" lon="6.00393">
        <ele>1200</ele>
        <time>2018-09-03T16:50:35Z</time>
      </trkpt>
      <trkpt lat="46.41782" lon="6.00401">
        <ele>1200</ele>
        <time>2018-09-03T16:50:40Z</time>
      </trkpt>
      <trkpt lat="46.41786" lon="6.00416">
        <ele>1200</ele>
        <time>2018-09-03T16:50:50Z</time>
      </trkpt>
      <trkpt lat="46.41788" lon="6.00423">
        <ele>1200</ele>
        <time>2018-09-03T16:50:55Z</time>
      </trkpt>
      <trkpt lat="46.4179" lon="6.0043">
        <ele>1200</ele>
        <time>2018-09-03T16:51:00Z</time>
      </trkpt>
      <trkpt lat="46.41794" lon="6.00441">
        <ele>1200</ele>
        <time>2018-09-03T16:51:10Z</time>
      </trkpt>
      <trkpt lat="46.41796" lon="6.00445">
        <ele>1200</ele>
        <time>2018-09-03T16:51:15Z</time>
      </trkpt>
      <trkpt lat="46.41799" lon="6.00455">
        <ele>1200</ele>
        <time>2018-09-03T16:51:25Z</time>
      </trkpt>
      <trkpt lat="46.41802" lon="6.00462">
        <ele>1200</ele>
        <time>2018-09-03T16:51:30Z</time>
      </trkpt>
      <trkpt lat="46.41808" lon="6.00473">
        <ele>1200</ele>
        <time>2018-09-03T16:51:40Z</time>
      </trkpt>
      <trkpt lat="46.41812" lon="6.00481">
        <ele>1200</ele>
        <time>2018-09-03T16:51:45Z</time>
      </trkpt>
      <trkpt lat="46.41815" lon="6.00488">
        <ele>1200</ele>
        <time>2018-09-03T16:51:50Z</time>
      </trkpt>
      <trkpt lat="46.41823" lon="6.00502">
        <ele>1200</ele>
        <time>2018-09-03T16:52:00Z</time>
      </trkpt>
      <trkpt lat="46.41828" lon="6.0051">
        <ele>1200</ele>
        <time>2018-09-03T16:52:05Z</time>
      </trkpt>
      <trkpt lat="46.41838" lon="6.00524">
        <ele>1200</ele>
        <time>2018-09-03T16:52:15Z</time>
      </trkpt>
      <trkpt lat="46.41843" lon="6.0053">
        <ele>1200</ele>
        <time>2018-09-03T16:52:20Z</time>
      </trkpt>
      <trkpt lat="46.41851" lon="6.00539">
        <ele>1200</ele>
        <time>2018-09-03T16:52:30Z</time>
      </trkpt>
      <trkpt lat="46.41855" lon="6.00542">
        <ele>1200</ele>
        <time>2018-09-03T16:52:35Z</time>
      </trkpt>
      <trkpt lat="46.41864" lon="6.00555">
        <ele>1200</ele>
        <time>2018-09-03T16:52:45Z</time>
      </trkpt>
      <trkpt lat="46.41866" lon="6.00559">
        <ele>1200</ele>
        <time>2018-09-03T16:52:50Z</time>
      </trkpt>
      <trkpt lat="46.4187" lon="6.00568">
        <ele>1200</ele>
        <time>2018-09-03T16:52:55Z</time>
      </trkpt>
      <trkpt lat="46.41881" lon="6.00587">
        <ele>1200</ele>
        <time>2018-09-03T16:53:05Z</time>
      </trkpt>
      <trkpt lat="46.41881" lon="6.0059">
        <ele>1200</ele>
        <time>2018-09-03T16:53:10Z</time>
      </trkpt>
      <trkpt lat="46.41885" lon="6.00604">
        <ele>1200</ele>
        <time>2018-09-03T16:53:20Z</time>
      </trkpt>
      <trkpt lat="46.41887" lon="6.00605">
        <ele>1200</ele>
        <time>2018-09-03T16:53:25Z</time>
      </trkpt>
      <trkpt lat="46.41892" lon="6.00614">
        <ele>1200</ele>
        <time>2018-09-03T16:53:35Z</time>
      </trkpt>
      <trkpt lat="46.41892" lon="6.00616">
        <ele>1200</ele>
        <time>2018-09-03T16:53:40Z</time>
      </trkpt>
      <trkpt lat="46.41893" lon="6.00621">
        <ele>1200</ele>
        <time>2018-09-03T16:53:45Z</time>
      </trkpt>
      <trkpt lat="46.419" lon="6.00635">
        <ele>1201</ele>
        <time>2018-09-03T16:53:55Z</time>
      </trkpt>
      <trkpt lat="46.41902" lon="6.00642">
        <ele>1201</ele>
        <time>2018-09-03T16:54:00Z</time>
      </trkpt>
      <trkpt lat="46.41906" lon="6.00655">
        <ele>1201</ele>
        <time>2018-09-03T16:54:10Z</time>
      </trkpt>
      <trkpt lat="46.41908" lon="6.00661">
        <ele>1201</ele>
        <time>2018-09-03T16:54:15Z</time>
      </trkpt>
      <trkpt lat="46.41911" lon="6.0067">
        <ele>1201</ele>
        <time>2018-09-03T16:54:25Z</time>
      </trkpt>
      <trkpt lat="46.41913" lon="6.00679">
        <ele>1201</ele>
        <time>2018-09-03T16:54:30Z</time>
      </trkpt>
      <trkpt lat="46.41915" lon="6.00685">
        <ele>1201</ele>
        <time>2018-09-03T16:54:35Z</time>
      </trkpt>
      <trkpt lat="46.41922" lon="6.00703">
        <ele>1202</ele>
        <time>2018-09-03T16:54:45Z</time>
      </trkpt>
      <trkpt lat="46.41923" lon="6.00711">
        <ele>1202</ele>
        <time>2018-09-03T16:54:50Z</time>
      </trkpt>
      <trkpt lat="46.41924" lon="6.00735">
        <ele>1202</ele>
        <time>2018-09-03T16:55:00Z</time>
      </trkpt>
      <trkpt lat="46.41925" lon="6.00743">
        <ele>1203</ele>
        <time>2018-09-03T16:55:05Z</time>
      </trkpt>
      <trkpt lat="46.41929" lon="6.00758">
        <ele>1203</ele>
        <time>2018-09-03T16:55:15Z</time>
      </trkpt>
      <trkpt lat="46.41929" lon="6.00764">
        <ele>1203</ele>
        <time>2018-09-03T16:55:20Z</time>
      </trkpt>
      <trkpt lat="46.41929" lon="6.00771">
        <ele>1204</ele>
        <time>2018-09-03T16:55:25Z</time>
      </trkpt>
      <trkpt lat="46.41931" lon="6.00786">
        <ele>1204</ele>
        <time>2018-09-03T16:55:35Z</time>
      </trkpt>
      <trkpt lat="46.41932" lon="6.00795">
        <ele>1205</ele>
        <time>2018-09-03T16:55:40Z</time>
      </trkpt>
      <trkpt lat="46.41932" lon="6.00811">
        <ele>1206</ele>
        <time>2018-09-03T16:55:50Z</time>
      </trkpt>
      <trkpt lat="46.41934" lon="6.00818">
        <ele>1206</ele>
        <time>2018-09-03T16:55:55Z</time>
      </trkpt>
      <trkpt lat="46.4194" lon="6.00833">
        <ele>1208</ele>
        <time>2018-09-03T16:56:05Z</time>
      </trkpt>
      <trkpt lat="46.4194" lon="6.00836">
        <ele>1208</ele>
        <time>2018-09-03T16:56:10Z</time>
      </trkpt>
      <trkpt lat="46.41942" lon="6.0084">
        <ele>1209</ele>
        <time>2018-09-03T16:56:15Z</time>
      </trkpt>
      <trkpt lat="46.41946" lon="6.0085">
        <ele>1210</ele>
        <time>2018-09-03T16:56:25Z</time>
      </trkpt>
      <trkpt lat="46.41949" lon="6.00858">
        <ele>1211</ele>
        <time>2018-09-03T16:56:30Z</time>
      </trkpt>
      <trkpt lat="46.41954" lon="6.0087">
        <ele>1213</ele>
        <time>2018-09-03T16:56:40Z</time>
      </trkpt>
      <trkpt lat="46.41958" lon="6.00877">
        <ele>1214</ele>
        <time>2018-09-03T16:56:45Z</time>
      </trkpt>
      <trkpt lat="46.41965" lon="6.00888">
        <ele>1216</ele>
        <time>2018-09-03T16:56:55Z</time>
      </trkpt>
      <trkpt lat="46.41968" lon="6.00894">
        <ele>1217</ele>
        <time>2018-09-03T16:57:00Z</time>
      </trkpt>
      <trkpt lat="46.41974" lon="6.00905">
        <ele>1218</ele>
        <time>2018-09-03T16:57:10Z</time>
      </trkpt>
      <trkpt lat="46.41978" lon="6.00911">
        <ele>1219</ele>
        <time>2018-09-03T16:57:15Z</time>
      </trkpt>
      <trkpt lat="46.41982" lon="6.00918">
        <ele>1220</ele>
        <time>2018-09-03T16:57:20Z</time>
      </trkpt>
      <trkpt lat="46.41991" lon="6.0093">
        <ele>1222</ele>
        <time>2018-09-03T16:57:30Z</time>
      </trkpt>
      <trkpt lat="46.41995" lon="6.00937">
        <ele>1223</ele>
        <time>2018-09-03T16:57:35Z</time>
      </trkpt>
      <trkpt lat="46.42003" lon="6.00954">
        <ele>1223</ele>
        <time>2018-09-03T16:57:45Z</time>
      </trkpt>
      <trkpt lat="46.42007" lon="6.00961">
        <ele>1223</ele>
        <time>2018-09-03T16:57:50Z</time>
      </trkpt>
      <trkpt lat="46.42018" lon="6.00971">
        <ele>1223</ele>
        <time>2018-09-03T16:58:00Z</time>
      </trkpt>
      <trkpt lat="46.42023" lon="6.00977">
        <ele>1223</ele>
        <time>2018-09-03T16:58:05Z</time>
      </trkpt>
      <trkpt lat="46.42029" lon="6.00981">
        <ele>1223</ele>
        <time>2018-09-03T16:58:10Z</time>
      </trkpt>
      <trkpt lat="46.42042" lon="6.00995">
        <ele>1223</ele>
        <time>2018-09-03T16:58:20Z</time>
      </trkpt>
      <trkpt lat="46.42049" lon="6.01002">
        <ele>1224</ele>
        <time>2018-09-03T16:58:25Z</time>
      </trkpt>
      <trkpt lat="46.42059" lon="6.01012">
        <ele>1224</ele>
        <time>2018-09-03T16:58:35Z</time>
      </trkpt>
      <trkpt lat="46.42062" lon="6.01016">
        <ele>1225</ele>
        <time>2018-09-03T16:58:40Z</time>
      </trkpt>
      <trkpt lat="46.42077" lon="6.01039">
        <ele>1223</ele>
        <time>2018-09-03T16:58:50Z</time>
      </trkpt>
      <trkpt lat="46.42081" lon="6.01046">
        <ele>1222</ele>
        <time>2018-09-03T16:58:55Z</time>
      </trkpt>
      <trkpt lat="46.42085" lon="6.01051">
        <ele>1221</ele>
        <time>2018-09-03T16:59:00Z</time>
      </trkpt>
      <trkpt lat="46.42095" lon="6.01061">
        <ele>1220</ele>
        <time>2018-09-03T16:59:10Z</time>
      </trkpt>
      <trkpt lat="46.42099" lon="6.01066">
        <ele>1219</ele>
        <time>2018-09-03T16:59:15Z</time>
      </trkpt>
      <trkpt lat="46.42109" lon="6.01075">
        <ele>1218</ele>
        <time>2018-09-03T16:59:25Z</time>
      </trkpt>
      <trkpt lat="46.42115" lon="6.01078">
        <ele>1218</ele>
        <time>2018-09-03T16:59:30Z</time>
      </trkpt>
      <trkpt lat="46.42126" lon="6.01088">
        <ele>1217</ele>
        <time>2018-09-03T16:59:40Z</time>
      </trkpt>
      <trkpt lat="46.42132" lon="6.01089">
        <ele>1217</ele>
        <time>2018-09-03T16:59:45Z</time>
      </trkpt>
      <trkpt lat="46.42137" lon="6.01094">
        <ele>1216</ele>
        <time>2018-09-03T16:59:50Z</time>
      </trkpt>
      <trkpt lat="46.42151" lon="6.01103">
        <ele>1215</ele>
        <time>2018-09-03T17:00:00Z</time>
      </trkpt>
      <trkpt lat="46.42157" lon="6.01106">
        <ele>1214</ele>
        <time>2018-09-03T17:00:05Z</time>
      </trkpt>
      <trkpt lat="46.42168" lon="6.01113">
        <ele>1213</ele>
        <time>2018-09-03T17:00:15Z</time>
      </trkpt>
      <trkpt lat="46.42173" lon="6.01116">
        <ele>1212</ele>
        <time>2018-09-03T17:00:20Z</time>
      </trkpt>
      <trkpt lat="46.42186" lon="6.01122">
        <ele>1211</ele>
        <time>2018-09-03T17:00:30Z</time>
      </trkpt>
      <trkpt lat="46.42194" lon="6.01125">
        <ele>1211</ele>
        <time>2018-09-03T17:00:35Z</time>
      </trkpt>
      <trkpt lat="46.42197" lon="6.01131">
        <ele>1210</ele>
        <time>2018-09-03T17:00:40Z</time>
      </trkpt>
      <trkpt lat="46.42208" lon="6.0114">
        <ele>1209</ele>
        <time>2018-09-03T17:00:50Z</time>
      </trkpt>
      <trkpt lat="46.42211" lon="6.01144">
        <ele>1209</ele>
        <time>2018-09-03T17:00:55Z</time>
      </trkpt>
      <trkpt lat="46.42215" lon="6.01154">
        <ele>1209</ele>
        <time>2018-09-03T17:01:05Z</time>
      </trkpt>
      <trkpt lat="46.42215" lon="6.01155">
        <ele>1209</ele>
        <time>2018-09-03T17:01:10Z</time>
      </trkpt>
      <trkpt lat="46.42217" lon="6.01159">
        <ele>1209</ele>
        <time>2018-09-03T17:01:20Z</time>
      </trkpt>
      <trkpt lat="46.42217" lon="6.01159">
        <ele>1209</ele>
        <time>2018-09-03T17:01:25Z</time>
      </trkpt>
      <trkpt lat="46.42217" lon="6.01159">
        <ele>1209</ele>
        <time>2018-09-03T17:01:35Z</time>
      </trkpt>
      <trkpt lat="46.42217" lon="6.0116">
        <ele>1209</ele>
        <time>2018-09-03T17:01:40Z</time>
      </trkpt>
      <trkpt lat="46.42218" lon="6.01168">
        <ele>1208</ele>
        <time>2018-09-03T17:01:45Z</time>
      </trkpt>
      <trkpt lat="46.42219" lon="6.01185">
        <ele>1207</ele>
        <time>2018-09-03T17:01:55Z</time>
      </trkpt>
      <trkpt lat="46.4222" lon="6.01192">
        <ele>1206</ele>
        <time>2018-09-03T17:02:00Z</time>
      </trkpt>
      <trkpt lat="46.42222" lon="6.01208">
        <ele>1205</ele>
        <time>2018-09-03T17:02:10Z</time>
      </trkpt>
      <trkpt lat="46.42225" lon="6.01215">
        <ele>1205</ele>
        <time>2018-09-03T17:02:15Z</time>
      </trkpt>
      <trkpt lat="46.42226" lon="6.01224">
        <ele>1204</ele>
        <time>2018-09-03T17:02:25Z</time>
      </trkpt>
      <trkpt lat="46.42226" lon="6.01225">
        <ele>1204</ele>
        <time>2018-09-03T17:02:30Z</time>
      </trkpt>
      <trkpt lat="46.42226" lon="6.01226">
        <ele>1204</ele>
        <time>2018-09-03T17:02:35Z</time>
      </trkpt>
      <trkpt lat="46.42226" lon="6.01225">
        <ele>1204</ele>
        <time>2018-09-03T17:02:45Z</time>
      </trkpt>
      <trkpt lat="46.42226" lon="6.01225">
        <ele>1204</ele>
        <time>2018-09-03T17:02:50Z</time>
      </trkpt>
      <trkpt lat="46.42226" lon="6.01225">
        <ele>1204</ele>
        <time>2018-09-03T17:03:00Z</time>
      </trkpt>
      <trkpt lat="46.42226" lon="6.01225">
        <ele>1204</ele>
        <time>2018-09-03T17:03:05Z</time>
      </trkpt>
      <trkpt lat="46.42226" lon="6.01225">
        <ele>1204</ele>
        <time>2018-09-03T17:03:15Z</time>
      </trkpt>
      <trkpt lat="46.42226" lon="6.01225">
        <ele>1204</ele>
        <time>2018-09-03T17:03:20Z</time>
      </trkpt>
      <trkpt lat="46.42225" lon="6.01219">
        <ele>1204</ele>
        <time>2018-09-03T17:03:25Z</time>
      </trkpt>
      <trkpt lat="46.42223" lon="6.01202">
        <ele>1206</ele>
        <time>2018-09-03T17:03:35Z</time>
      </trkpt>
      <trkpt lat="46.42223" lon="6.01193">
        <ele>1206</ele>
        <time>2018-09-03T17:03:40Z</time>
      </trkpt>
      <trkpt lat="46.42221" lon="6.0118">
        <ele>1207</ele>
        <time>2018-09-03T17:03:50Z</time>
      </trkpt>
      <trkpt lat="46.4222" lon="6.01174">
        <ele>1207</ele>
        <time>2018-09-03T17:03:55Z</time>
      </trkpt>
      <trkpt lat="46.4222" lon="6.01163">
        <ele>1208</ele>
        <time>2018-09-03T17:04:05Z</time>
      </trkpt>
      <trkpt lat="46.42218" lon="6.01158">
        <ele>1209</ele>
        <time>2018-09-03T17:04:10Z</time>
      </trkpt>
      <trkpt lat="46.42216" lon="6.0115">
        <ele>1209</ele>
        <time>2018-09-03T17:04:15Z</time>
      </trkpt>
      <trkpt lat="46.42222" lon="6.01145">
        <ele>1209</ele>
        <time>2018-09-03T17:04:25Z</time>
      </trkpt>
      <trkpt lat="46.42227" lon="6.01148">
        <ele>1209</ele>
        <time>2018-09-03T17:04:30Z</time>
      </trkpt>
      <trkpt lat="46.42232" lon="6.01153">
        <ele>1208</ele>
        <time>2018-09-03T17:04:40Z</time>
      </trkpt>
      <trkpt lat="46.42236" lon="6.01156">
        <ele>1208</ele>
        <time>2018-09-03T17:04:45Z</time>
      </trkpt>
      <trkpt lat="46.42239" lon="6.01159">
        <ele>1208</ele>
        <time>2018-09-03T17:04:55Z</time>
      </trkpt>
      <trkpt lat="46.42241" lon="6.01159">
        <ele>1208</ele>
        <time>2018-09-03T17:05:00Z</time>
      </trkpt>
      <trkpt lat="46.42245" lon="6.01161">
        <ele>1208</ele>
        <time>2018-09-03T17:05:05Z</time>
      </trkpt>
      <trkpt lat="46.42256" lon="6.01161">
        <ele>1207</ele>
        <time>2018-09-03T17:05:15Z</time>
      </trkpt>
      <trkpt lat="46.42261" lon="6.0116">
        <ele>1207</ele>
        <time>2018-09-03T17:05:20Z</time>
      </trkpt>
      <trkpt lat="46.4227" lon="6.01157">
        <ele>1207</ele>
        <time>2018-09-03T17:05:30Z</time>
      </trkpt>
      <trkpt lat="46.42276" lon="6.01155">
        <ele>1207</ele>
        <time>2018-09-03T17:05:35Z</time>
      </trkpt>
      <trkpt lat="46.42283" lon="6.01148">
        <ele>1208</ele>
        <time>2018-09-03T17:05:45Z</time>
      </trkpt>
      <trkpt lat="46.42288" lon="6.01145">
        <ele>1208</ele>
        <time>2018-09-03T17:05:50Z</time>
      </trkpt>
      <trkpt lat="46.42298" lon="6.01134">
        <ele>1209</ele>
        <time>2018-09-03T17:06:00Z</time>
      </trkpt>
      <trkpt lat="46.423" lon="6.01129">
        <ele>1209</ele>
        <time>2018-09-03T17:06:05Z</time>
      </trkpt>
      <trkpt lat="46.42301" lon="6.01127">
        <ele>1209</ele>
        <time>2018-09-03T17:06:10Z</time>
      </trkpt>
      <trkpt lat="46.42302" lon="6.01123">
        <ele>1209</ele>
        <time>2018-09-03T17:06:20Z</time>
      </trkpt>
      <trkpt lat="46.42301" lon="6.01123">
        <ele>1209</ele>
        <time>2018-09-03T17:06:25Z</time>
      </trkpt>
      <trkpt lat="46.42303" lon="6.01114">
        <ele>1210</ele>
        <time>2018-09-03T17:06:35Z</time>
      </trkpt>
      <trkpt lat="46.42305" lon="6.01106">
        <ele>1210</ele>
        <time>2018-09-03T17:06:40Z</time>
      </trkpt>
      <trkpt lat="46.42305" lon="6.01093">
        <ele>1210</ele>
        <time>2018-09-03T17:06:50Z</time>
      </trkpt>
      <trkpt lat="46.42306" lon="6.01085">
        <ele>1211</ele>
        <time>2018-09-03T17:06:55Z</time>
      </trkpt>
      <trkpt lat="46.42306" lon="6.0108">
        <ele>1211</ele>
        <time>2018-09-03T17:07:00Z</time>
      </trkpt>
      <trkpt lat="46.42303" lon="6.01067">
        <ele>1211</ele>
        <time>2018-09-03T17:07:10Z</time>
      </trkpt>
      <trkpt lat="46.42301" lon="6.0106">
        <ele>1211</ele>
        <time>2018-09-03T17:07:15Z</time>
      </trkpt>
      <trkpt lat="46.423" lon="6.01048">
        <ele>1211</ele>
        <time>2018-09-03T17:07:25Z</time>
      </trkpt>
      <trkpt lat="46.42294" lon="6.01037">
        <ele>1211</ele>
        <time>2018-09-03T17:07:30Z</time>
      </trkpt>
      <trkpt lat="46.42297" lon="6.01025">
        <ele>1212</ele>
        <time>2018-09-03T17:07:40Z</time>
      </trkpt>
      <trkpt lat="46.42299" lon="6.01024">
        <ele>1212</ele>
        <time>2018-09-03T17:07:45Z</time>
      </trkpt>
      <trkpt lat="46.423" lon="6.0102">
        <ele>1212</ele>
        <time>2018-09-03T17:07:50Z</time>
      </trkpt>
      <trkpt lat="46.42303" lon="6.01009">
        <ele>1213</ele>
        <time>2018-09-03T17:08:00Z</time>
      </trkpt>
      <trkpt lat="46.42305" lon="6.01004">
        <ele>1213</ele>
        <time>2018-09-03T17:08:05Z</time>
      </trkpt>
      <trkpt lat="46.42314" lon="6.00994">
        <ele>1214</ele>
        <time>2018-09-03T17:08:15Z</time>
      </trkpt>
      <trkpt lat="46.42317" lon="6.0099">
        <ele>1214</ele>
        <time>2018-09-03T17:08:20Z</time>
      </trkpt>
      <trkpt lat="46.42324" lon="6.00982">
        <ele>1215</ele>
        <time>2018-09-03T17:08:30Z</time>
      </trkpt>
      <trkpt lat="46.42328" lon="6.00976">
        <ele>1215</ele>
        <time>2018-09-03T17:08:35Z</time>
      </trkpt>
      <trkpt lat="46.42335" lon="6.00971">
        <ele>1216</ele>
        <time>2018-09-03T17:08:40Z</time>
      </trkpt>
      <trkpt lat="46.42346" lon="6.00961">
        <ele>1217</ele>
        <time>2018-09-03T17:08:50Z</time>
      </trkpt>
      <trkpt lat="46.42351" lon="6.00956">
        <ele>1218</ele>
        <time>2018-09-03T17:08:55Z</time>
      </trkpt>
      <trkpt lat="46.42359" lon="6.00951">
        <ele>1220</ele>
        <time>2018-09-03T17:09:05Z</time>
      </trkpt>
      <trkpt lat="46.42362" lon="6.00949">
        <ele>1220</ele>
        <time>2018-09-03T17:09:10Z</time>
      </trkpt>
      <trkpt lat="46.42361" lon="6.00943">
        <ele>1220</ele>
        <time>2018-09-03T17:09:20Z</time>
      </trkpt>
      <trkpt lat="46.42366" lon="6.00934">
        <ele>1222</ele>
        <time>2018-09-03T17:09:25Z</time>
      </trkpt>
      <trkpt lat="46.4237" lon="6.00928">
        <ele>1222</ele>
        <time>2018-09-03T17:09:30Z</time>
      </trkpt>
      <trkpt lat="46.42374" lon="6.0091">
        <ele>1224</ele>
        <time>2018-09-03T17:09:40Z</time>
      </trkpt>
      <trkpt lat="46.42374" lon="6.00903">
        <ele>1225</ele>
        <time>2018-09-03T17:09:45Z</time>
      </trkpt>
      <trkpt lat="46.42372" lon="6.0089">
        <ele>1225</ele>
        <time>2018-09-03T17:09:55Z</time>
      </trkpt>
      <trkpt lat="46.42371" lon="6.00886">
        <ele>1225</ele>
        <time>2018-09-03T17:10:00Z</time>
      </trkpt>
      <trkpt lat="46.42367" lon="6.00874">
        <ele>1225</ele>
        <time>2018-09-03T17:10:10Z</time>
      </trkpt>
      <trkpt lat="46.42365" lon="6.00869">
        <ele>1225</ele>
        <time>2018-09-03T17:10:15Z</time>
      </trkpt>
      <trkpt lat="46.4236" lon="6.00858">
        <ele>1225</ele>
        <time>2018-09-03T17:10:25Z</time>
      </trkpt>
      <trkpt lat="46.42358" lon="6.00852">
        <ele>1224</ele>
        <time>2018-09-03T17:10:30Z</time>
      </trkpt>
      <trkpt lat="46.42357" lon="6.00848">
        <ele>1224</ele>
        <time>2018-09-03T17:10:35Z</time>
      </trkpt>
      <trkpt lat="46.42352" lon="6.00835">
        <ele>1224</ele>
        <time>2018-09-03T17:10:45Z</time>
      </trkpt>
      <trkpt lat="46.42351" lon="6.00829">
        <ele>1224</ele>
        <time>2018-09-03T17:10:50Z</time>
      </trkpt>
      <trkpt lat="46.42345" lon="6.00816">
        <ele>1224</ele>
        <time>2018-09-03T17:11:00Z</time>
      </trkpt>
      <trkpt lat="46.42344" lon="6.00805">
        <ele>1224</ele>
        <time>2018-09-03T17:11:05Z</time>
      </trkpt>
      <trkpt lat="46.42349" lon="6.0079">
        <ele>1226</ele>
        <time>2018-09-03T17:11:15Z</time>
      </trkpt>
      <trkpt lat="46.42349" lon="6.00785">
        <ele>1226</ele>
        <time>2018-09-03T17:11:20Z</time>
      </trkpt>
      <trkpt lat="46.42351" lon="6.00778">
        <ele>1227</ele>
        <time>2018-09-03T17:11:25Z</time>
      </trkpt>
      <trkpt lat="46.42352" lon="6.00762">
        <ele>1228</ele>
        <time>2018-09-03T17:11:35Z</time>
      </trkpt>
      <trkpt lat="46.42352" lon="6.00755">
        <ele>1229</ele>
        <time>2018-09-03T17:11:40Z</time>
      </trkpt>
      <trkpt lat="46.42351" lon="6.00741">
        <ele>1230</ele>
        <time>2018-09-03T17:11:50Z</time>
      </trkpt>
      <trkpt lat="46.42351" lon="6.00732">
        <ele>1231</ele>
        <time>2018-09-03T17:11:55Z</time>
      </trkpt>
      <trkpt lat="46.42351" lon="6.00718">
        <ele>1232</ele>
        <time>2018-09-03T17:12:05Z</time>
      </trkpt>
      <trkpt lat="46.42349" lon="6.00709">
        <ele>1233</ele>
        <time>2018-09-03T17:12:10Z</time>
      </trkpt>
      <trkpt lat="46.42348" lon="6.00701">
        <ele>1234</ele>
        <time>2018-09-03T17:12:15Z</time>
      </trkpt>
      <trkpt lat="46.42348" lon="6.00685">
        <ele>1236</ele>
        <time>2018-09-03T17:12:25Z</time>
      </trkpt>
      <trkpt lat="46.42348" lon="6.00676">
        <ele>1237</ele>
        <time>2018-09-03T17:12:30Z</time>
      </trkpt>
      <trkpt lat="46.42345" lon="6.00658">
        <ele>1238</ele>
        <time>2018-09-03T17:12:40Z</time>
      </trkpt>
      <trkpt lat="46.42345" lon="6.0065">
        <ele>1239</ele>
        <time>2018-09-03T17:12:45Z</time>
      </trkpt>
      <trkpt lat="46.42343" lon="6.00637">
        <ele>1240</ele>
        <time>2018-09-03T17:12:55Z</time>
      </trkpt>
      <trkpt lat="46.42342" lon="6.00632">
        <ele>1240</ele>
        <time>2018-09-03T17:13:00Z</time>
      </trkpt>
      <trkpt lat="46.42342" lon="6.00629">
        <ele>1241</ele>
        <time>2018-09-03T17:13:05Z</time>
      </trkpt>
      <trkpt lat="46.42343" lon="6.00619">
        <ele>1242</ele>
        <time>2018-09-03T17:13:15Z</time>
      </trkpt>
      <trkpt lat="46.42338" lon="6.00612">
        <ele>1242</ele>
        <time>2018-09-03T17:13:20Z</time>
      </trkpt>
      <trkpt lat="46.4233" lon="6.00605">
        <ele>1241</ele>
        <time>2018-09-03T17:13:30Z</time>
      </trkpt>
      <trkpt lat="46.42328" lon="6.00603">
        <ele>1241</ele>
        <time>2018-09-03T17:13:35Z</time>
      </trkpt>
      <trkpt lat="46.42318" lon="6.00592">
        <ele>1240</ele>
        <time>2018-09-03T17:13:45Z</time>
      </trkpt>
      <trkpt lat="46.42314" lon="6.00586">
        <ele>1240</ele>
        <time>2018-09-03T17:13:50Z</time>
      </trkpt>
      <trkpt lat="46.42303" lon="6.00571">
        <ele>1239</ele>
        <time>2018-09-03T17:14:00Z</time>
      </trkpt>
      <trkpt lat="46.42296" lon="6.00559">
        <ele>1239</ele>
        <time>2018-09-03T17:14:05Z</time>
      </trkpt>
      <trkpt lat="46.42292" lon="6.00551">
        <ele>1239</ele>
        <time>2018-09-03T17:14:10Z</time>
      </trkpt>
      <trkpt lat="46.42287" lon="6.00536">
        <ele>1240</ele>
        <time>2018-09-03T17:14:20Z</time>
      </trkpt>
      <trkpt lat="46.42285" lon="6.00528">
        <ele>1240</ele>
        <time>2018-09-03T17:14:25Z</time>
      </trkpt>
      <trkpt lat="46.42286" lon="6.00521">
        <ele>1241</ele>
        <time>2018-09-03T17:14:35Z</time>
      </trkpt>
      <trkpt lat="46.42284" lon="6.00517">
        <ele>1241</ele>
        <time>2018-09-03T17:14:40Z</time>
      </trkpt>
      <trkpt lat="46.42283" lon="6.00507">
        <ele>1242</ele>
        <time>2018-09-03T17:14:50Z</time>
      </trkpt>
      <trkpt lat="46.42283" lon="6.005">
        <ele>1243</ele>
        <time>2018-09-03T17:14:55Z</time>
      </trkpt>
      <trkpt lat="46.42284" lon="6.00494">
        <ele>1244</ele>
        <time>2018-09-03T17:15:00Z</time>
      </trkpt>
      <trkpt lat="46.42289" lon="6.00484">
        <ele>1246</ele>
        <time>2018-09-03T17:15:10Z</time>
      </trkpt>
      <trkpt lat="46.42293" lon="6.0048">
        <ele>1247</ele>
        <time>2018-09-03T17:15:15Z</time>
      </trkpt>
      <trkpt lat="46.42302" lon="6.00477">
        <ele>1249</ele>
        <time>2018-09-03T17:15:25Z</time>
      </trkpt>
      <trkpt lat="46.42308" lon="6.00476">
        <ele>1250</ele>
        <time>2018-09-03T17:15:30Z</time>
      </trkpt>
      <trkpt lat="46.42317" lon="6.00482">
        <ele>1251</ele>
        <time>2018-09-03T17:15:40Z</time>
      </trkpt>
      <trkpt lat="46.42322" lon="6.00486">
        <ele>1252</ele>
        <time>2018-09-03T17:15:45Z</time>
      </trkpt>
      <trkpt lat="46.42327" lon="6.00492">
        <ele>1252</ele>
        <time>2018-09-03T17:15:50Z</time>
      </trkpt>
      <trkpt lat="46.42334" lon="6.005">
        <ele>1253</ele>
        <time>2018-09-03T17:16:00Z</time>
      </trkpt>
      <trkpt lat="46.42337" lon="6.00503">
        <ele>1253</ele>
        <time>2018-09-03T17:16:05Z</time>
      </trkpt>
      <trkpt lat="46.42343" lon="6.0051">
        <ele>1254</ele>
        <time>2018-09-03T17:16:15Z</time>
      </trkpt>
      <trkpt lat="46.42345" lon="6.00512">
        <ele>1254</ele>
        <time>2018-09-03T17:16:20Z</time>
      </trkpt>
      <trkpt lat="46.42351" lon="6.0052">
        <ele>1254</ele>
        <time>2018-09-03T17:16:30Z</time>
      </trkpt>
      <trkpt lat="46.42354" lon="6.00525">
        <ele>1254</ele>
        <time>2018-09-03T17:16:35Z</time>
      </trkpt>
      <trkpt lat="46.42357" lon="6.00528">
        <ele>1254</ele>
        <time>2018-09-03T17:16:40Z</time>
      </trkpt>
      <trkpt lat="46.42365" lon="6.00537">
        <ele>1255</ele>
        <time>2018-09-03T17:16:50Z</time>
      </trkpt>
      <trkpt lat="46.42369" lon="6.00541">
        <ele>1255</ele>
        <time>2018-09-03T17:16:55Z</time>
      </trkpt>
      <trkpt lat="46.42376" lon="6.00551">
        <ele>1255</ele>
        <time>2018-09-03T17:17:05Z</time>
      </trkpt>
      <trkpt lat="46.4238" lon="6.00555">
        <ele>1255</ele>
        <time>2018-09-03T17:17:10Z</time>
      </trkpt>
      <trkpt lat="46.42386" lon="6.00561">
        <ele>1256</ele>
        <time>2018-09-03T17:17:20Z</time>
      </trkpt>
      <trkpt lat="46.42391" lon="6.00566">
        <ele>1256</ele>
        <time>2018-09-03T17:17:25Z</time>
      </trkpt>
      <trkpt lat="46.42394" lon="6.00568">
        <ele>1256</ele>
        <time>2018-09-03T17:17:30Z</time>
      </trkpt>
      <trkpt lat="46.424" lon="6.00575">
        <ele>1257</ele>
        <time>2018-09-03T17:17:40Z</time>
      </trkpt>
      <trkpt lat="46.42405" lon="6.00578">
        <ele>1257</ele>
        <time>2018-09-03T17:17:45Z</time>
      </trkpt>
      <trkpt lat="46.42413" lon="6.00587">
        <ele>1258</ele>
        <time>2018-09-03T17:17:55Z</time>
      </trkpt>
      <trkpt lat="46.42417" lon="6.0059">
        <ele>1258</ele>
        <time>2018-09-03T17:18:00Z</time>
      </trkpt>
      <trkpt lat="46.42426" lon="6.00596">
        <ele>1258</ele>
        <time>2018-09-03T17:18:10Z</time>
      </trkpt>
      <trkpt lat="46.42428" lon="6.00599">
        <ele>1258</ele>
        <time>2018-09-03T17:18:15Z</time>
      </trkpt>
      <trkpt lat="46.42437" lon="6.00606">
        <ele>1259</ele>
        <time>2018-09-03T17:18:25Z</time>
      </trkpt>
      <trkpt lat="46.42441" lon="6.00611">
        <ele>1259</ele>
        <time>2018-09-03T17:18:30Z</time>
      </trkpt>
      <trkpt lat="46.42445" lon="6.00616">
        <ele>1259</ele>
        <time>2018-09-03T17:18:35Z</time>
      </trkpt>
      <trkpt lat="46.42453" lon="6.00625">
        <ele>1260</ele>
        <time>2018-09-03T17:18:45Z</time>
      </trkpt>
      <trkpt lat="46.42456" lon="6.00631">
        <ele>1260</ele>
        <time>2018-09-03T17:18:50Z</time>
      </trkpt>
      <trkpt lat="46.42464" lon="6.00635">
        <ele>1260</ele>
        <time>2018-09-03T17:19:00Z</time>
      </trkpt>
      <trkpt lat="46.4247" lon="6.00638">
        <ele>1261</ele>
        <time>2018-09-03T17:19:05Z</time>
      </trkpt>
      <trkpt lat="46.42477" lon="6.00646">
        <ele>1262</ele>
        <time>2018-09-03T17:19:15Z</time>
      </trkpt>
      <trkpt lat="46.4248" lon="6.00651">
        <ele>1262</ele>
        <time>2018-09-03T17:19:20Z</time>
      </trkpt>
      <trkpt lat="46.42484" lon="6.00655">
        <ele>1262</ele>
        <time>2018-09-03T17:19:25Z</time>
      </trkpt>
      <trkpt lat="46.42492" lon="6.00663">
        <ele>1263</ele>
        <time>2018-09-03T17:19:35Z</time>
      </trkpt>
      <trkpt lat="46.42497" lon="6.00667">
        <ele>1263</ele>
        <time>2018-09-03T17:19:40Z</time>
      </trkpt>
      <trkpt lat="46.42505" lon="6.00676">
        <ele>1264</ele>
        <time>2018-09-03T17:19:50Z</time>
      </trkpt>
      <trkpt lat="46.42509" lon="6.0068">
        <ele>1264</ele>
        <time>2018-09-03T17:19:55Z</time>
      </trkpt>
      <trkpt lat="46.42519" lon="6.00693">
        <ele>1265</ele>
        <time>2018-09-03T17:20:05Z</time>
      </trkpt>
      <trkpt lat="46.42522" lon="6.00699">
        <ele>1265</ele>
        <time>2018-09-03T17:20:10Z</time>
      </trkpt>
      <trkpt lat="46.42526" lon="6.00705">
        <ele>1265</ele>
        <time>2018-09-03T17:20:15Z</time>
      </trkpt>
      <trkpt lat="46.42533" lon="6.00715">
        <ele>1266</ele>
        <time>2018-09-03T17:20:25Z</time>
      </trkpt>
      <trkpt lat="46.42535" lon="6.0072">
        <ele>1266</ele>
        <time>2018-09-03T17:20:30Z</time>
      </trkpt>
      <trkpt lat="46.42545" lon="6.00731">
        <ele>1267</ele>
        <time>2018-09-03T17:20:40Z</time>
      </trkpt>
      <trkpt lat="46.42551" lon="6.00734">
        <ele>1268</ele>
        <time>2018-09-03T17:20:45Z</time>
      </trkpt>
      <trkpt lat="46.4256" lon="6.00736">
        <ele>1269</ele>
        <time>2018-09-03T17:20:55Z</time>
      </trkpt>
      <trkpt lat="46.42565" lon="6.00734">
        <ele>1269</ele>
        <time>2018-09-03T17:21:00Z</time>
      </trkpt>
      <trkpt lat="46.4257" lon="6.00727">
        <ele>1270</ele>
        <time>2018-09-03T17:21:05Z</time>
      </trkpt>
      <trkpt lat="46.42574" lon="6.00711">
        <ele>1271</ele>
        <time>2018-09-03T17:21:15Z</time>
      </trkpt>
      <trkpt lat="46.42575" lon="6.00702">
        <ele>1271</ele>
        <time>2018-09-03T17:21:20Z</time>
      </trkpt>
      <trkpt lat="46.42579" lon="6.00687">
        <ele>1272</ele>
        <time>2018-09-03T17:21:30Z</time>
      </trkpt>
      <trkpt lat="46.4258" lon="6.00679">
        <ele>1272</ele>
        <time>2018-09-03T17:21:35Z</time>
      </trkpt>
      <trkpt lat="46.42583" lon="6.00664">
        <ele>1272</ele>
        <time>2018-09-03T17:21:45Z</time>
      </trkpt>
      <trkpt lat="46.42587" lon="6.00655">
        <ele>1273</ele>
        <time>2018-09-03T17:21:50Z</time>
      </trkpt>
      <trkpt lat="46.42589" lon="6.00648">
        <ele>1273</ele>
        <time>2018-09-03T17:21:55Z</time>
      </trkpt>
      <trkpt lat="46.42595" lon="6.00635">
        <ele>1274</ele>
        <time>2018-09-03T17:22:05Z</time>
      </trkpt>
      <trkpt lat="46.42599" lon="6.00626">
        <ele>1274</ele>
        <time>2018-09-03T17:22:10Z</time>
      </trkpt>
      <trkpt lat="46.42605" lon="6.00612">
        <ele>1275</ele>
        <time>2018-09-03T17:22:20Z</time>
      </trkpt>
      <trkpt lat="46.42609" lon="6.00606">
        <ele>1275</ele>
        <time>2018-09-03T17:22:25Z</time>
      </trkpt>
      <trkpt lat="46.42612" lon="6.0059">
        <ele>1276</ele>
        <time>2018-09-03T17:22:35Z</time>
      </trkpt>
      <trkpt lat="46.42615" lon="6.00582">
        <ele>1276</ele>
        <time>2018-09-03T17:22:40Z</time>
      </trkpt>
      <trkpt lat="46.42618" lon="6.00568">
        <ele>1277</ele>
        <time>2018-09-03T17:22:50Z</time>
      </trkpt>
      <trkpt lat="46.4262" lon="6.00562">
        <ele>1277</ele>
        <time>2018-09-03T17:22:55Z</time>
      </trkpt>
      <trkpt lat="46.42622" lon="6.00556">
        <ele>1278</ele>
        <time>2018-09-03T17:23:00Z</time>
      </trkpt>
      <trkpt lat="46.42623" lon="6.00544">
        <ele>1278</ele>
        <time>2018-09-03T17:23:10Z</time>
      </trkpt>
      <trkpt lat="46.42624" lon="6.00538">
        <ele>1278</ele>
        <time>2018-09-03T17:23:15Z</time>
      </trkpt>
      <trkpt lat="46.42626" lon="6.00532">
        <ele>1278</ele>
        <time>2018-09-03T17:23:25Z</time>
      </trkpt>
      <trkpt lat="46.42625" lon="6.00533">
        <ele>1278</ele>
        <time>2018-09-03T17:23:30Z</time>
      </trkpt>
      <trkpt lat="46.42625" lon="6.00532">
        <ele>1278</ele>
        <time>2018-09-03T17:23:40Z</time>
      </trkpt>
      <trkpt lat="46.42627" lon="6.00532">
        <ele>1278</ele>
        <time>2018-09-03T17:23:45Z</time>
      </trkpt>
      <trkpt lat="46.42627" lon="6.00531">
        <ele>1278</ele>
        <time>2018-09-03T17:23:50Z</time>
      </trkpt>
      <trkpt lat="46.42626" lon="6.00531">
        <ele>1278</ele>
        <time>2018-09-03T17:24:00Z</time>
      </trkpt>
      <trkpt lat="46.42625" lon="6.0053">
        <ele>1278</ele>
        <time>2018-09-03T17:24:05Z</time>
      </trkpt>
      <trkpt lat="46.42625" lon="6.0053">
        <ele>1278</ele>
        <time>2018-09-03T17:24:15Z</time>
      </trkpt>
      <trkpt lat="46.42625" lon="6.0053">
        <ele>1278</ele>
        <time>2018-09-03T17:24:20Z</time>
      </trkpt>
      <trkpt lat="46.42626" lon="6.0053">
        <ele>1278</ele>
        <time>2018-09-03T17:24:30Z</time>
      </trkpt>
      <trkpt lat="46.42626" lon="6.0053">
        <ele>1278</ele>
        <time>2018-09-03T17:24:35Z</time>
      </trkpt>
      <trkpt lat="46.42626" lon="6.0053">
        <ele>1278</ele>
        <time>2018-09-03T17:24:40Z</time>
      </trkpt>
      <trkpt lat="46.42627" lon="6.00532">
        <ele>1278</ele>
        <time>2018-09-03T17:24:50Z</time>
      </trkpt>
      <trkpt lat="46.42628" lon="6.00532">
        <ele>1279</ele>
        <time>2018-09-03T17:24:55Z</time>
      </trkpt>
      <trkpt lat="46.42628" lon="6.00533">
        <ele>1279</ele>
        <time>2018-09-03T17:25:05Z</time>
      </trkpt>
      <trkpt lat="46.42628" lon="6.00533">
        <ele>1279</ele>
        <time>2018-09-03T17:25:10Z</time>
      </trkpt>
      <trkpt lat="46.42629" lon="6.00535">
        <ele>1279</ele>
        <time>2018-09-03T17:25:20Z</time>
      </trkpt>
      <trkpt lat="46.42628" lon="6.00535">
        <ele>1279</ele>
        <time>2018-09-03T17:25:25Z</time>
      </trkpt>
      <trkpt lat="46.42628" lon="6.00535">
        <ele>1279</ele>
        <time>2018-09-03T17:25:30Z</time>
      </trkpt>
      <trkpt lat="46.42628" lon="6.00535">
        <ele>1279</ele>
        <time>2018-09-03T17:25:40Z</time>
      </trkpt>
      <trkpt lat="46.42628" lon="6.00535">
        <ele>1279</ele>
        <time>2018-09-03T17:25:45Z</time>
      </trkpt>
      <trkpt lat="46.4263" lon="6.00532">
        <ele>1279</ele>
        <time>2018-09-03T17:25:55Z</time>
      </trkpt>
      <trkpt lat="46.42631" lon="6.00532">
        <ele>1279</ele>
        <time>2018-09-03T17:26:00Z</time>
      </trkpt>
      <trkpt lat="46.42633" lon="6.00529">
        <ele>1279</ele>
        <time>2018-09-03T17:26:10Z</time>
      </trkpt>
      <trkpt lat="46.42634" lon="6.00527">
        <ele>1279</ele>
        <time>2018-09-03T17:26:15Z</time>
      </trkpt>
      <trkpt lat="46.42635" lon="6.00527">
        <ele>1279</ele>
        <time>2018-09-03T17:26:20Z</time>
      </trkpt>
      <trkpt lat="46.42634" lon="6.00526">
        <ele>1279</ele>
        <time>2018-09-03T17:26:30Z</time>
      </trkpt>
      <trkpt lat="46.42634" lon="6.00525">
        <ele>1279</ele>
        <time>2018-09-03T17:26:35Z</time>
      </trkpt>
      <trkpt lat="46.42633" lon="6.00514">
        <ele>1279</ele>
        <time>2018-09-03T17:26:45Z</time>
      </trkpt>
      <trkpt lat="46.42633" lon="6.00509">
        <ele>1279</ele>
        <time>2018-09-03T17:26:50Z</time>
      </trkpt>
      <trkpt lat="46.42636" lon="6.00501">
        <ele>1280</ele>
        <time>2018-09-03T17:27:00Z</time>
      </trkpt>
      <trkpt lat="46.42639" lon="6.00495">
        <ele>1280</ele>
        <time>2018-09-03T17:27:05Z</time>
      </trkpt>
      <trkpt lat="46.42643" lon="6.00488">
        <ele>1281</ele>
        <time>2018-09-03T17:27:15Z</time>
      </trkpt>
      <trkpt lat="46.42643" lon="6.00482">
        <ele>1281</ele>
        <time>2018-09-03T17:27:20Z</time>
      </trkpt>
      <trkpt lat="46.42642" lon="6.00475">
        <ele>1280</ele>
        <time>2018-09-03T17:27:25Z</time>
      </trkpt>
      <trkpt lat="46.42645" lon="6.00463">
        <ele>1281</ele>
        <time>2018-09-03T17:27:35Z</time>
      </trkpt>
      <trkpt lat="46.42645" lon="6.00457">
        <ele>1281</ele>
        <time>2018-09-03T17:27:40Z</time>
      </trkpt>
      <trkpt lat="46.42647" lon="6.00444">
        <ele>1281</ele>
        <time>2018-09-03T17:27:50Z</time>
      </trkpt>
      <trkpt lat="46.42648" lon="6.00439">
        <ele>1281</ele>
        <time>2018-09-03T17:27:55Z</time>
      </trkpt>
      <trkpt lat="46.42648" lon="6.00425">
        <ele>1281</ele>
        <time>2018-09-03T17:28:05Z</time>
      </trkpt>
      <trkpt lat="46.42646" lon="6.00417">
        <ele>1280</ele>
        <time>2018-09-03T17:28:10Z</time>
      </trkpt>
      <trkpt lat="46.42646" lon="6.00411">
        <ele>1280</ele>
        <time>2018-09-03T17:28:15Z</time>
      </trkpt>
      <trkpt lat="46.42645" lon="6.00397">
        <ele>1280</ele>
        <time>2018-09-03T17:28:25Z</time>
      </trkpt>
      <trkpt lat="46.42645" lon="6.00393">
        <ele>1280</ele>
        <time>2018-09-03T17:28:30Z</time>
      </trkpt>
      <trkpt lat="46.42649" lon="6.00386">
        <ele>1280</ele>
        <time>2018-09-03T17:28:40Z</time>
      </trkpt>
      <trkpt lat="46.4265" lon="6.00382">
        <ele>1280</ele>
        <time>2018-09-03T17:28:45Z</time>
      </trkpt>
      <trkpt lat="46.42651" lon="6.00377">
        <ele>1280</ele>
        <time>2018-09-03T17:28:55Z</time>
      </trkpt>
      <trkpt lat="46.42655" lon="6.00372">
        <ele>1280</ele>
        <time>2018-09-03T17:29:00Z</time>
      </trkpt>
      <trkpt lat="46.42656" lon="6.00369">
        <ele>1280</ele>
        <time>2018-09-03T17:29:05Z</time>
      </trkpt>
      <trkpt lat="46.4266" lon="6.00359">
        <ele>1281</ele>
        <time>2018-09-03T17:29:15Z</time>
      </trkpt>
      <trkpt lat="46.42661" lon="6.00354">
        <ele>1281</ele>
        <time>2018-09-03T17:29:20Z</time>
      </trkpt>
      <trkpt lat="46.42663" lon="6.00342">
        <ele>1281</ele>
        <time>2018-09-03T17:29:30Z</time>
      </trkpt>
      <trkpt lat="46.42664" lon="6.00336">
        <ele>1281</ele>
        <time>2018-09-03T17:29:35Z</time>
      </trkpt>
      <trkpt lat="46.42666" lon="6.00327">
        <ele>1280</ele>
        <time>2018-09-03T17:29:45Z</time>
      </trkpt>
      <trkpt lat="46.42668" lon="6.00325">
        <ele>1281</ele>
        <time>2018-09-03T17:29:50Z</time>
      </trkpt>
      <trkpt lat="46.42669" lon="6.00321">
        <ele>1281</ele>
        <time>2018-09-03T17:29:55Z</time>
      </trkpt>
      <trkpt lat="46.42672" lon="6.00313">
        <ele>1281</ele>
        <time>2018-09-03T17:30:05Z</time>
      </trkpt>
      <trkpt lat="46.42673" lon="6.00306">
        <ele>1280</ele>
        <time>2018-09-03T17:30:10Z</time>
      </trkpt>
      <trkpt lat="46.42672" lon="6.00286">
        <ele>1279</ele>
        <time>2018-09-03T17:30:20Z</time>
      </trkpt>
      <trkpt lat="46.42673" lon="6.00279">
        <ele>1279</ele>
        <time>2018-09-03T17:30:25Z</time>
      </trkpt>
      <trkpt lat="46.42672" lon="6.00265">
        <ele>1278</ele>
        <time>2018-09-03T17:30:35Z</time>
      </trkpt>
      <trkpt lat="46.42672" lon="6.00258">
        <ele>1278</ele>
        <time>2018-09-03T17:30:40Z</time>
      </trkpt>
      <trkpt lat="46.42673" lon="6.00248">
        <ele>1278</ele>
        <time>2018-09-03T17:30:45Z</time>
      </trkpt>
      <trkpt lat="46.42674" lon="6.00232">
        <ele>1278</ele>
        <time>2018-09-03T17:30:55Z</time>
      </trkpt>
      <trkpt lat="46.42675" lon="6.00225">
        <ele>1277</ele>
        <time>2018-09-03T17:31:00Z</time>
      </trkpt>
      <trkpt lat="46.42678" lon="6.00214">
        <ele>1278</ele>
        <time>2018-09-03T17:31:10Z</time>
      </trkpt>
      <trkpt lat="46.42679" lon="6.00206">
        <ele>1277</ele>
        <time>2018-09-03T17:31:15Z</time>
      </trkpt>
      <trkpt lat="46.42681" lon="6.0019">
        <ele>1277</ele>
        <time>2018-09-03T17:31:25Z</time>
      </trkpt>
      <trkpt lat="46.42681" lon="6.00181">
        <ele>1277</ele>
        <time>2018-09-03T17:31:30Z</time>
      </trkpt>
      <trkpt lat="46.42688" lon="6.00167">
        <ele>1278</ele>
        <time>2018-09-03T17:31:40Z</time>
      </trkpt>
      <trkpt lat="46.4269" lon="6.00162">
        <ele>1278</ele>
        <time>2018-09-03T17:31:45Z</time>
      </trkpt>
      <trkpt lat="46.42693" lon="6.00155">
        <ele>1278</ele>
        <time>2018-09-03T17:31:50Z</time>
      </trkpt>
      <trkpt lat="46.427" lon="6.00151">
        <ele>1280</ele>
        <time>2018-09-03T17:32:00Z</time>
      </trkpt>
      <trkpt lat="46.42703" lon="6.00148">
        <ele>1280</ele>
        <time>2018-09-03T17:32:05Z</time>
      </trkpt>
      <trkpt lat="46.4271" lon="6.00138">
        <ele>1282</ele>
        <time>2018-09-03T17:32:15Z</time>
      </trkpt>
      <trkpt lat="46.42713" lon="6.00134">
        <ele>1282</ele>
        <time>2018-09-03T17:32:20Z</time>
      </trkpt>
      <trkpt lat="46.42716" lon="6.00121">
        <ele>1282</ele>
        <time>2018-09-03T17:32:30Z</time>
      </trkpt>
      <trkpt lat="46.42719" lon="6.00115">
        <ele>1283</ele>
        <time>2018-09-03T17:32:35Z</time>
      </trkpt>
      <trkpt lat="46.42722" lon="6.0011">
        <ele>1283</ele>
        <time>2018-09-03T17:32:40Z</time>
      </trkpt>
      <trkpt lat="46.42729" lon="6.00105">
        <ele>1285</ele>
        <time>2018-09-03T17:32:50Z</time>
      </trkpt>
      <trkpt lat="46.42732" lon="6.00103">
        <ele>1285</ele>
        <time>2018-09-03T17:32:55Z</time>
      </trkpt>
      <trkpt lat="46.42739" lon="6.00101">
        <ele>1287</ele>
        <time>2018-09-03T17:33:05Z</time>
      </trkpt>
      <trkpt lat="46.42741" lon="6.00103">
        <ele>1287</ele>
        <time>2018-09-03T17:33:10Z</time>
      </trkpt>
      <trkpt lat="46.42748" lon="6.00111">
        <ele>1289</ele>
        <time>2018-09-03T17:33:20Z</time>
      </trkpt>
      <trkpt lat="46.42751" lon="6.00116">
        <ele>1289</ele>
        <time>2018-09-03T17:33:25Z</time>
      </trkpt>
      <trkpt lat="46.4275" lon="6.00126">
        <ele>1289</ele>
        <time>2018-09-03T17:33:30Z</time>
      </trkpt>
      <trkpt lat="46.4275" lon="6.00139">
        <ele>1289</ele>
        <time>2018-09-03T17:33:40Z</time>
      </trkpt>
      <trkpt lat="46.4275" lon="6.00143">
        <ele>1289</ele>
        <time>2018-09-03T17:33:45Z</time>
      </trkpt>
      <trkpt lat="46.4275" lon="6.00155">
        <ele>1290</ele>
        <time>2018-09-03T17:33:55Z</time>
      </trkpt>
      <trkpt lat="46.42752" lon="6.00163">
        <ele>1290</ele>
        <time>2018-09-03T17:34:00Z</time>
      </trkpt>
      <trkpt lat="46.42757" lon="6.00169">
        <ele>1291</ele>
        <time>2018-09-03T17:34:10Z</time>
      </trkpt>
      <trkpt lat="46.42758" lon="6.00173">
        <ele>1291</ele>
        <time>2018-09-03T17:34:15Z</time>
      </trkpt>
      <trkpt lat="46.4276" lon="6.0018">
        <ele>1292</ele>
        <time>2018-09-03T17:34:20Z</time>
      </trkpt>
      <trkpt lat="46.42765" lon="6.00183">
        <ele>1292</ele>
        <time>2018-09-03T17:34:30Z</time>
      </trkpt>
      <trkpt lat="46.42768" lon="6.00188">
        <ele>1293</ele>
        <time>2018-09-03T17:34:35Z</time>
      </trkpt>
      <trkpt lat="46.42773" lon="6.00186">
        <ele>1293</ele>
        <time>2018-09-03T17:34:45Z</time>
      </trkpt>
      <trkpt lat="46.42777" lon="6.00179">
        <ele>1294</ele>
        <time>2018-09-03T17:34:50Z</time>
      </trkpt>
      <trkpt lat="46.4278" lon="6.00166">
        <ele>1294</ele>
        <time>2018-09-03T17:35:00Z</time>
      </trkpt>
      <trkpt lat="46.42782" lon="6.00158">
        <ele>1294</ele>
        <time>2018-09-03T17:35:05Z</time>
      </trkpt>
      <trkpt lat="46.42785" lon="6.00152">
        <ele>1294</ele>
        <time>2018-09-03T17:35:10Z</time>
      </trkpt>
      <trkpt lat="46.42788" lon="6.00143">
        <ele>1295</ele>
        <time>2018-09-03T17:35:20Z</time>
      </trkpt>
      <trkpt lat="46.42791" lon="6.0014">
        <ele>1295</ele>
        <time>2018-09-03T17:35:25Z</time>
      </trkpt>
      <trkpt lat="46.428" lon="6.00131">
        <ele>1296</ele>
        <time>2018-09-03T17:35:35Z</time>
      </trkpt>
      <trkpt lat="46.42802" lon="6.00131">
        <ele>1296</ele>
        <time>2018-09-03T17:35:40Z</time>
      </trkpt>
      <trkpt lat="46.42805" lon="6.00128">
        <ele>1297</ele>
        <time>2018-09-03T17:35:50Z</time>
      </trkpt>
      <trkpt lat="46.42805" lon="6.00128">
        <ele>1297</ele>
        <time>2018-09-03T17:35:55Z</time>
      </trkpt>
      <trkpt lat="46.42805" lon="6.00127">
        <ele>1297</ele>
        <time>2018-09-03T17:36:05Z</time>
      </trkpt>
      <trkpt lat="46.42806" lon="6.00128">
        <ele>1297</ele>
        <time>2018-09-03T17:36:10Z</time>
      </trkpt>
      <trkpt lat="46.42806" lon="6.00127">
        <ele>1297</ele>
        <time>2018-09-03T17:36:15Z</time>
      </trkpt>
      <trkpt lat="46.42806" lon="6.0012">
        <ele>1297</ele>
        <time>2018-09-03T17:36:25Z</time>
      </trkpt>
      <trkpt lat="46.42809" lon="6.00116">
        <ele>1297</ele>
        <time>2018-09-03T17:36:30Z</time>
      </trkpt>
      <trkpt lat="46.4282" lon="6.00099">
        <ele>1299</ele>
        <time>2018-09-03T17:36:45Z</time>
      </trkpt>
      <trkpt lat="46.42822" lon="6.00095">
        <ele>1299</ele>
        <time>2018-09-03T17:36:50Z</time>
      </trkpt>
      <trkpt lat="46.42823" lon="6.00094">
        <ele>1299</ele>
        <time>2018-09-03T17:37:00Z</time>
      </trkpt>
      <trkpt lat="46.42824" lon="6.00092">
        <ele>1299</ele>
        <time>2018-09-03T17:37:05Z</time>
      </trkpt>
      <trkpt lat="46.42825" lon="6.00087">
        <ele>1299</ele>
        <time>2018-09-03T17:37:10Z</time>
      </trkpt>
      <trkpt lat="46.4283" lon="6.00078">
        <ele>1299</ele>
        <time>2018-09-03T17:37:20Z</time>
      </trkpt>
      <trkpt lat="46.42832" lon="6.00076">
        <ele>1299</ele>
        <time>2018-09-03T17:37:25Z</time>
      </trkpt>
      <trkpt lat="46.42835" lon="6.00069">
        <ele>1299</ele>
        <time>2018-09-03T17:37:35Z</time>
      </trkpt>
      <trkpt lat="46.42836" lon="6.00068">
        <ele>1299</ele>
        <time>2018-09-03T17:37:40Z</time>
      </trkpt>
      <trkpt lat="46.42836" lon="6.00068">
        <ele>1299</ele>
        <time>2018-09-03T17:37:50Z</time>
      </trkpt>
      <trkpt lat="46.42836" lon="6.00067">
        <ele>1299</ele>
        <time>2018-09-03T17:37:55Z</time>
      </trkpt>
      <trkpt lat="46.42835" lon="6.00066">
        <ele>1299</ele>
        <time>2018-09-03T17:38:00Z</time>
      </trkpt>
      <trkpt lat="46.42835" lon="6.00065">
        <ele>1299</ele>
        <time>2018-09-03T17:38:10Z</time>
      </trkpt>
      <trkpt lat="46.42835" lon="6.00065">
        <ele>1299</ele>
        <time>2018-09-03T17:38:15Z</time>
      </trkpt>
      <trkpt lat="46.42834" lon="6.00063">
        <ele>1299</ele>
        <time>2018-09-03T17:38:25Z</time>
      </trkpt>
      <trkpt lat="46.42834" lon="6.00063">
        <ele>1299</ele>
        <time>2018-09-03T17:38:30Z</time>
      </trkpt>
      <trkpt lat="46.42835" lon="6.00063">
        <ele>1299</ele>
        <time>2018-09-03T17:38:40Z</time>
      </trkpt>
      <trkpt lat="46.42834" lon="6.00062">
        <ele>1299</ele>
        <time>2018-09-03T17:38:45Z</time>
      </trkpt>
      <trkpt lat="46.42834" lon="6.00062">
        <ele>1299</ele>
        <time>2018-09-03T17:38:50Z</time>
      </trkpt>
      <trkpt lat="46.42833" lon="6.0006">
        <ele>1299</ele>
        <time>2018-09-03T17:39:00Z</time>
      </trkpt>
      <trkpt lat="46.42833" lon="6.0006">
        <ele>1299</ele>
        <time>2018-09-03T17:39:05Z</time>
      </trkpt>
      <trkpt lat="46.42832" lon="6.0006">
        <ele>1299</ele>
        <time>2018-09-03T17:39:15Z</time>
      </trkpt>
      <trkpt lat="46.42832" lon="6.00059">
        <ele>1299</ele>
        <time>2018-09-03T17:39:20Z</time>
      </trkpt>
      <trkpt lat="46.42831" lon="6.00059">
        <ele>1299</ele>
        <time>2018-09-03T17:39:30Z</time>
      </trkpt>
      <trkpt lat="46.42831" lon="6.00058">
        <ele>1299</ele>
        <time>2018-09-03T17:39:35Z</time>
      </trkpt>
      <trkpt lat="46.42835" lon="6.00056">
        <ele>1299</ele>
        <time>2018-09-03T17:39:40Z</time>
      </trkpt>
      <trkpt lat="46.42846" lon="6.00051">
        <ele>1300</ele>
        <time>2018-09-03T17:39:50Z</time>
      </trkpt>
      <trkpt lat="46.42849" lon="6.00051">
        <ele>1300</ele>
        <time>2018-09-03T17:39:55Z</time>
      </trkpt>
      <trkpt lat="46.42856" lon="6.00051">
        <ele>1300</ele>
        <time>2018-09-03T17:40:05Z</time>
      </trkpt>
      <trkpt lat="46.4286" lon="6.00051">
        <ele>1300</ele>
        <time>2018-09-03T17:40:10Z</time>
      </trkpt>
      <trkpt lat="46.42866" lon="6.00051">
        <ele>1300</ele>
        <time>2018-09-03T17:40:20Z</time>
      </trkpt>
      <trkpt lat="46.4287" lon="6.00052">
        <ele>1300</ele>
        <time>2018-09-03T17:40:25Z</time>
      </trkpt>
      <trkpt lat="46.42879" lon="6.00049">
        <ele>1300</ele>
        <time>2018-09-03T17:40:35Z</time>
      </trkpt>
      <trkpt lat="46.42883" lon="6.00047">
        <ele>1300</ele>
        <time>2018-09-03T17:40:40Z</time>
      </trkpt>
      <trkpt lat="46.42887" lon="6.00044">
        <ele>1300</ele>
        <time>2018-09-03T17:40:45Z</time>
      </trkpt>
      <trkpt lat="46.42893" lon="6.00037">
        <ele>1301</ele>
        <time>2018-09-03T17:40:55Z</time>
      </trkpt>
      <trkpt lat="46.42898" lon="6.00035">
        <ele>1301</ele>
        <time>2018-09-03T17:41:00Z</time>
      </trkpt>
      <trkpt lat="46.42907" lon="6.0003">
        <ele>1301</ele>
        <time>2018-09-03T17:41:10Z</time>
      </trkpt>
      <trkpt lat="46.4291" lon="6.00028">
        <ele>1301</ele>
        <time>2018-09-03T17:41:15Z</time>
      </trkpt>
      <trkpt lat="46.42917" lon="6.00023">
        <ele>1301</ele>
        <time>2018-09-03T17:41:25Z</time>
      </trkpt>
      <trkpt lat="46.42923" lon="6.00021">
        <ele>1301</ele>
        <time>2018-09-03T17:41:30Z</time>
      </trkpt>
      <trkpt lat="46.42929" lon="6.00018">
        <ele>1301</ele>
        <time>2018-09-03T17:41:35Z</time>
      </trkpt>
      <trkpt lat="46.42936" lon="6.00008">
        <ele>1301</ele>
        <time>2018-09-03T17:41:45Z</time>
      </trkpt>
      <trkpt lat="46.42939" lon="6.00004">
        <ele>1301</ele>
        <time>2018-09-03T17:41:50Z</time>
      </trkpt>
      <trkpt lat="46.42945" lon="5.99992">
        <ele>1301</ele>
        <time>2018-09-03T17:42:00Z</time>
      </trkpt>
      <trkpt lat="46.42947" lon="5.99985">
        <ele>1302</ele>
        <time>2018-09-03T17:42:05Z</time>
      </trkpt>
      <trkpt lat="46.42952" lon="5.99978">
        <ele>1303</ele>
        <time>2018-09-03T17:42:15Z</time>
      </trkpt>
      <trkpt lat="46.42955" lon="5.99973">
        <ele>1304</ele>
        <time>2018-09-03T17:42:20Z</time>
      </trkpt>
      <trkpt lat="46.42958" lon="5.99968">
        <ele>1305</ele>
        <time>2018-09-03T17:42:25Z</time>
      </trkpt>
      <trkpt lat="46.42964" lon="5.99958">
        <ele>1306</ele>
        <time>2018-09-03T17:42:35Z</time>
      </trkpt>
      <trkpt lat="46.42967" lon="5.99955">
        <ele>1307</ele>
        <time>2018-09-03T17:42:40Z</time>
      </trkpt>
      <trkpt lat="46.42972" lon="5.9995">
        <ele>1307</ele>
        <time>2018-09-03T17:42:50Z</time>
      </trkpt>
      <trkpt lat="46.42974" lon="5.99947">
        <ele>1308</ele>
        <time>2018-09-03T17:42:55Z</time>
      </trkpt>
      <trkpt lat="46.42981" lon="5.99937">
        <ele>1309</ele>
        <time>2018-09-03T17:43:05Z</time>
      </trkpt>
      <trkpt lat="46.42984" lon="5.99932">
        <ele>1310</ele>
        <time>2018-09-03T17:43:10Z</time>
      </trkpt>
      <trkpt lat="46.42986" lon="5.99927">
        <ele>1310</ele>
        <time>2018-09-03T17:43:15Z</time>
      </trkpt>
      <trkpt lat="46.4299" lon="5.99923">
        <ele>1311</ele>
        <time>2018-09-03T17:43:25Z</time>
      </trkpt>
      <trkpt lat="46.42994" lon="5.9992">
        <ele>1311</ele>
        <time>2018-09-03T17:43:30Z</time>
      </trkpt>
      <trkpt lat="46.43003" lon="5.99918">
        <ele>1311</ele>
        <time>2018-09-03T17:43:40Z</time>
      </trkpt>
      <trkpt lat="46.43006" lon="5.99919">
        <ele>1311</ele>
        <time>2018-09-03T17:43:45Z</time>
      </trkpt>
      <trkpt lat="46.43014" lon="5.99917">
        <ele>1310</ele>
        <time>2018-09-03T17:43:55Z</time>
      </trkpt>
      <trkpt lat="46.43019" lon="5.99915">
        <ele>1310</ele>
        <time>2018-09-03T17:44:00Z</time>
      </trkpt>
      <trkpt lat="46.43023" lon="5.99909">
        <ele>1310</ele>
        <time>2018-09-03T17:44:05Z</time>
      </trkpt>
      <trkpt lat="46.4303" lon="5.99903">
        <ele>1310</ele>
        <time>2018-09-03T17:44:15Z</time>
      </trkpt>
      <trkpt lat="46.43032" lon="5.99899">
        <ele>1310</ele>
        <time>2018-09-03T17:44:20Z</time>
      </trkpt>
      <trkpt lat="46.43034" lon="5.99887">
        <ele>1310</ele>
        <time>2018-09-03T17:44:30Z</time>
      </trkpt>
      <trkpt lat="46.43036" lon="5.9988">
        <ele>1309</ele>
        <time>2018-09-03T17:44:35Z</time>
      </trkpt>
      <trkpt lat="46.43043" lon="5.99868">
        <ele>1309</ele>
        <time>2018-09-03T17:44:45Z</time>
      </trkpt>
      <trkpt lat="46.43044" lon="5.99861">
        <ele>1309</ele>
        <time>2018-09-03T17:44:50Z</time>
      </trkpt>
      <trkpt lat="46.43055" lon="5.99854">
        <ele>1309</ele>
        <time>2018-09-03T17:45:00Z</time>
      </trkpt>
      <trkpt lat="46.4306" lon="5.99853">
        <ele>1309</ele>
        <time>2018-09-03T17:45:05Z</time>
      </trkpt>
      <trkpt lat="46.43065" lon="5.99854">
        <ele>1309</ele>
        <time>2018-09-03T17:45:10Z</time>
      </trkpt>
      <trkpt lat="46.43075" lon="5.99856">
        <ele>1309</ele>
        <time>2018-09-03T17:45:20Z</time>
      </trkpt>
      <trkpt lat="46.43081" lon="5.99858">
        <ele>1309</ele>
        <time>2018-09-03T17:45:25Z</time>
      </trkpt>
      <trkpt lat="46.43089" lon="5.99864">
        <ele>1309</ele>
        <time>2018-09-03T17:45:35Z</time>
      </trkpt>
      <trkpt lat="46.43093" lon="5.99868">
        <ele>1310</ele>
        <time>2018-09-03T17:45:40Z</time>
      </trkpt>
      <trkpt lat="46.43102" lon="5.99871">
        <ele>1310</ele>
        <time>2018-09-03T17:45:50Z</time>
      </trkpt>
      <trkpt lat="46.43106" lon="5.99873">
        <ele>1310</ele>
        <time>2018-09-03T17:45:55Z</time>
      </trkpt>
      <trkpt lat="46.43112" lon="5.99875">
        <ele>1310</ele>
        <time>2018-09-03T17:46:00Z</time>
      </trkpt>
      <trkpt lat="46.43123" lon="5.99878">
        <ele>1310</ele>
        <time>2018-09-03T17:46:10Z</time>
      </trkpt>
      <trkpt lat="46.43127" lon="5.99879">
        <ele>1310</ele>
        <time>2018-09-03T17:46:15Z</time>
      </trkpt>
      <trkpt lat="46.43136" lon="5.99885">
        <ele>1311</ele>
        <time>2018-09-03T17:46:25Z</time>
      </trkpt>
      <trkpt lat="46.43141" lon="5.99885">
        <ele>1311</ele>
        <time>2018-09-03T17:46:30Z</time>
      </trkpt>
      <trkpt lat="46.43153" lon="5.9988">
        <ele>1310</ele>
        <time>2018-09-03T17:46:40Z</time>
      </trkpt>
      <trkpt lat="46.43155" lon="5.99871">
        <ele>1310</ele>
        <time>2018-09-03T17:46:45Z</time>
      </trkpt>
      <trkpt lat="46.43157" lon="5.99864">
        <ele>1309</ele>
        <time>2018-09-03T17:46:50Z</time>
      </trkpt>
      <trkpt lat="46.43158" lon="5.9985">
        <ele>1308</ele>
        <time>2018-09-03T17:47:00Z</time>
      </trkpt>
      <trkpt lat="46.43158" lon="5.99842">
        <ele>1307</ele>
        <time>2018-09-03T17:47:05Z</time>
      </trkpt>
      <trkpt lat="46.43157" lon="5.99834">
        <ele>1306</ele>
        <time>2018-09-03T17:47:15Z</time>
      </trkpt>
      <trkpt lat="46.43158" lon="5.99829">
        <ele>1306</ele>
        <time>2018-09-03T17:47:20Z</time>
      </trkpt>
      <trkpt lat="46.4316" lon="5.99817">
        <ele>1305</ele>
        <time>2018-09-03T17:47:30Z</time>
      </trkpt>
      <trkpt lat="46.4316" lon="5.99809">
        <ele>1304</ele>
        <time>2018-09-03T17:47:35Z</time>
      </trkpt>
      <trkpt lat="46.43164" lon="5.99802">
        <ele>1304</ele>
        <time>2018-09-03T17:47:40Z</time>
      </trkpt>
      <trkpt lat="46.43173" lon="5.99797">
        <ele>1303</ele>
        <time>2018-09-03T17:47:50Z</time>
      </trkpt>
      <trkpt lat="46.43178" lon="5.99797">
        <ele>1302</ele>
        <time>2018-09-03T17:47:55Z</time>
      </trkpt>
      <trkpt lat="46.43189" lon="5.99803">
        <ele>1302</ele>
        <time>2018-09-03T17:48:05Z</time>
      </trkpt>
      <trkpt lat="46.43194" lon="5.99809">
        <ele>1302</ele>
        <time>2018-09-03T17:48:10Z</time>
      </trkpt>
      <trkpt lat="46.43204" lon="5.99819">
        <ele>1303</ele>
        <time>2018-09-03T17:48:20Z</time>
      </trkpt>
      <trkpt lat="46.43208" lon="5.99824">
        <ele>1303</ele>
        <time>2018-09-03T17:48:25Z</time>
      </trkpt>
      <trkpt lat="46.43212" lon="5.9983">
        <ele>1303</ele>
        <time>2018-09-03T17:48:30Z</time>
      </trkpt>
      <trkpt lat="46.43218" lon="5.99843">
        <ele>1305</ele>
        <time>2018-09-03T17:48:40Z</time>
      </trkpt>
      <trkpt lat="46.43221" lon="5.99848">
        <ele>1305</ele>
        <time>2018-09-03T17:48:45Z</time>
      </trkpt>
      <trkpt lat="46.43227" lon="5.99857">
        <ele>1306</ele>
        <time>2018-09-03T17:48:55Z</time>
      </trkpt>
      <trkpt lat="46.4323" lon="5.99859">
        <ele>1306</ele>
        <time>2018-09-03T17:49:00Z</time>
      </trkpt>
      <trkpt lat="46.43239" lon="5.99863">
        <ele>1306</ele>
        <time>2018-09-03T17:49:10Z</time>
      </trkpt>
      <trkpt lat="46.43244" lon="5.99866">
        <ele>1306</ele>
        <time>2018-09-03T17:49:15Z</time>
      </trkpt>
      <trkpt lat="46.43252" lon="5.99868">
        <ele>1306</ele>
        <time>2018-09-03T17:49:25Z</time>
      </trkpt>
      <trkpt lat="46.43257" lon="5.99866">
        <ele>1306</ele>
        <time>2018-09-03T17:49:30Z</time>
      </trkpt>
      <trkpt lat="46.43262" lon="5.99868">
        <ele>1306</ele>
        <time>2018-09-03T17:49:35Z</time>
      </trkpt>
      <trkpt lat="46.43271" lon="5.9987">
        <ele>1306</ele>
        <time>2018-09-03T17:49:45Z</time>
      </trkpt>
      <trkpt lat="46.43275" lon="5.99872">
        <ele>1306</ele>
        <time>2018-09-03T17:49:50Z</time>
      </trkpt>
      <trkpt lat="46.43286" lon="5.99875">
        <ele>1306</ele>
        <time>2018-09-03T17:50:00Z</time>
      </trkpt>
      <trkpt lat="46.43291" lon="5.99874">
        <ele>1306</ele>
        <time>2018-09-03T17:50:05Z</time>
      </trkpt>
      <trkpt lat="46.43303" lon="5.9988">
        <ele>1306</ele>
        <time>2018-09-03T17:50:15Z</time>
      </trkpt>
      <trkpt lat="46.43308" lon="5.99883">
        <ele>1306</ele>
        <time>2018-09-03T17:50:20Z</time>
      </trkpt>
      <trkpt lat="46.43312" lon="5.99886">
        <ele>1306</ele>
        <time>2018-09-03T17:50:25Z</time>
      </trkpt>
      <trkpt lat="46.43319" lon="5.99894">
        <ele>1307</ele>
        <time>2018-09-03T17:50:35Z</time>
      </trkpt>
      <trkpt lat="46.43323" lon="5.99898">
        <ele>1307</ele>
        <time>2018-09-03T17:50:40Z</time>
      </trkpt>
      <trkpt lat="46.43333" lon="5.99909">
        <ele>1308</ele>
        <time>2018-09-03T17:50:50Z</time>
      </trkpt>
      <trkpt lat="46.43337" lon="5.99913">
        <ele>1308</ele>
        <time>2018-09-03T17:50:55Z</time>
      </trkpt>
      <trkpt lat="46.43345" lon="5.99923">
        <ele>1308</ele>
        <time>2018-09-03T17:51:05Z</time>
      </trkpt>
      <trkpt lat="46.43351" lon="5.99928">
        <ele>1306</ele>
        <time>2018-09-03T17:51:10Z</time>
      </trkpt>
      <trkpt lat="46.43355" lon="5.99931">
        <ele>1305</ele>
        <time>2018-09-03T17:51:15Z</time>
      </trkpt>
      <trkpt lat="46.43364" lon="5.99931">
        <ele>1305</ele>
        <time>2018-09-03T17:51:25Z</time>
      </trkpt>
      <trkpt lat="46.43368" lon="5.99926">
        <ele>1306</ele>
        <time>2018-09-03T17:51:30Z</time>
      </trkpt>
      <trkpt lat="46.43373" lon="5.99917">
        <ele>1306</ele>
        <time>2018-09-03T17:51:40Z</time>
      </trkpt>
      <trkpt lat="46.43374" lon="5.99911">
        <ele>1306</ele>
        <time>2018-09-03T17:51:45Z</time>
      </trkpt>
      <trkpt lat="46.4338" lon="5.99899">
        <ele>1304</ele>
        <time>2018-09-03T17:51:55Z</time>
      </trkpt>
      <trkpt lat="46.43382" lon="5.99891">
        <ele>1304</ele>
        <time>2018-09-03T17:52:00Z</time>
      </trkpt>
      <trkpt lat="46.43386" lon="5.99883">
        <ele>1302</ele>
        <time>2018-09-03T17:52:05Z</time>
      </trkpt>
      <trkpt lat="46.43391" lon="5.99867">
        <ele>1301</ele>
        <time>2018-09-03T17:52:15Z</time>
      </trkpt>
      <trkpt lat="46.43393" lon="5.99859">
        <ele>1300</ele>
        <time>2018-09-03T17:52:20Z</time>
      </trkpt>
      <trkpt lat="46.434" lon="5.99846">
        <ele>1298</ele>
        <time>2018-09-03T17:52:30Z</time>
      </trkpt>
      <trkpt lat="46.43405" lon="5.99841">
        <ele>1297</ele>
        <time>2018-09-03T17:52:35Z</time>
      </trkpt>
      <trkpt lat="46.4341" lon="5.99829">
        <ele>1296</ele>
        <time>2018-09-03T17:52:45Z</time>
      </trkpt>
      <trkpt lat="46.43412" lon="5.99823">
        <ele>1295</ele>
        <time>2018-09-03T17:52:50Z</time>
      </trkpt>
      <trkpt lat="46.43415" lon="5.99819">
        <ele>1294</ele>
        <time>2018-09-03T17:52:55Z</time>
      </trkpt>
      <trkpt lat="46.43423" lon="5.99819">
        <ele>1294</ele>
        <time>2018-09-03T17:53:05Z</time>
      </trkpt>
      <trkpt lat="46.43425" lon="5.99819">
        <ele>1293</ele>
        <time>2018-09-03T17:53:10Z</time>
      </trkpt>
      <trkpt lat="46.43436" lon="5.99824">
        <ele>1293</ele>
        <time>2018-09-03T17:53:20Z</time>
      </trkpt>
      <trkpt lat="46.43442" lon="5.99828">
        <ele>1293</ele>
        <time>2018-09-03T17:53:25Z</time>
      </trkpt>
      <trkpt lat="46.43453" lon="5.99839">
        <ele>1294</ele>
        <time>2018-09-03T17:53:35Z</time>
      </trkpt>
      <trkpt lat="46.43459" lon="5.99842">
        <ele>1294</ele>
        <time>2018-09-03T17:53:40Z</time>
      </trkpt>
      <trkpt lat="46.43469" lon="5.99853">
        <ele>1294</ele>
        <time>2018-09-03T17:53:50Z</time>
      </trkpt>
      <trkpt lat="46.43473" lon="5.99856">
        <ele>1294</ele>
        <time>2018-09-03T17:53:55Z</time>
      </trkpt>
      <trkpt lat="46.43478" lon="5.99862">
        <ele>1294</ele>
        <time>2018-09-03T17:54:00Z</time>
      </trkpt>
      <trkpt lat="46.43486" lon="5.99872">
        <ele>1295</ele>
        <time>2018-09-03T17:54:10Z</time>
      </trkpt>
      <trkpt lat="46.43491" lon="5.99871">
        <ele>1294</ele>
        <time>2018-09-03T17:54:15Z</time>
      </trkpt>
      <trkpt lat="46.43501" lon="5.99865">
        <ele>1293</ele>
        <time>2018-09-03T17:54:25Z</time>
      </trkpt>
      <trkpt lat="46.43507" lon="5.99859">
        <ele>1293</ele>
        <time>2018-09-03T17:54:30Z</time>
      </trkpt>
      <trkpt lat="46.43514" lon="5.99849">
        <ele>1291</ele>
        <time>2018-09-03T17:54:40Z</time>
      </trkpt>
      <trkpt lat="46.43516" lon="5.99843">
        <ele>1290</ele>
        <time>2018-09-03T17:54:45Z</time>
      </trkpt>
      <trkpt lat="46.43519" lon="5.99838">
        <ele>1289</ele>
        <time>2018-09-03T17:54:50Z</time>
      </trkpt>
      <trkpt lat="46.4353" lon="5.99833">
        <ele>1288</ele>
        <time>2018-09-03T17:55:00Z</time>
      </trkpt>
      <trkpt lat="46.43536" lon="5.99833">
        <ele>1287</ele>
        <time>2018-09-03T17:55:05Z</time>
      </trkpt>
      <trkpt lat="46.43548" lon="5.99836">
        <ele>1287</ele>
        <time>2018-09-03T17:55:15Z</time>
      </trkpt>
      <trkpt lat="46.43552" lon="5.99837">
        <ele>1286</ele>
        <time>2018-09-03T17:55:20Z</time>
      </trkpt>
      <trkpt lat="46.43563" lon="5.99842">
        <ele>1286</ele>
        <time>2018-09-03T17:55:30Z</time>
      </trkpt>
      <trkpt lat="46.43567" lon="5.99842">
        <ele>1285</ele>
        <time>2018-09-03T17:55:35Z</time>
      </trkpt>
      <trkpt lat="46.43572" lon="5.99844">
        <ele>1285</ele>
        <time>2018-09-03T17:55:40Z</time>
      </trkpt>
      <trkpt lat="46.43582" lon="5.99854">
        <ele>1285</ele>
        <time>2018-09-03T17:55:50Z</time>
      </trkpt>
      <trkpt lat="46.43585" lon="5.99856">
        <ele>1285</ele>
        <time>2018-09-03T17:55:55Z</time>
      </trkpt>
      <trkpt lat="46.43594" lon="5.99859">
        <ele>1285</ele>
        <time>2018-09-03T17:56:05Z</time>
      </trkpt>
      <trkpt lat="46.43598" lon="5.99862">
        <ele>1285</ele>
        <time>2018-09-03T17:56:10Z</time>
      </trkpt>
      <trkpt lat="46.43606" lon="5.99863">
        <ele>1285</ele>
        <time>2018-09-03T17:56:20Z</time>
      </trkpt>
      <trkpt lat="46.4361" lon="5.99862">
        <ele>1285</ele>
        <time>2018-09-03T17:56:25Z</time>
      </trkpt>
      <trkpt lat="46.43615" lon="5.9986">
        <ele>1284</ele>
        <time>2018-09-03T17:56:30Z</time>
      </trkpt>
      <trkpt lat="46.43626" lon="5.99856">
        <ele>1284</ele>
        <time>2018-09-03T17:56:40Z</time>
      </trkpt>
      <trkpt lat="46.4363" lon="5.99855">
        <ele>1284</ele>
        <time>2018-09-03T17:56:45Z</time>
      </trkpt>
      <trkpt lat="46.43635" lon="5.99852">
        <ele>1283</ele>
        <time>2018-09-03T17:56:55Z</time>
      </trkpt>
      <trkpt lat="46.43635" lon="5.99851">
        <ele>1283</ele>
        <time>2018-09-03T17:57:00Z</time>
      </trkpt>
      <trkpt lat="46.43635" lon="5.9985">
        <ele>1283</ele>
        <time>2018-09-03T17:57:10Z</time>
      </trkpt>
      <trkpt lat="46.43635" lon="5.9985">
        <ele>1283</ele>
        <time>2018-09-03T17:57:15Z</time>
      </trkpt>
      <trkpt lat="46.43635" lon="5.99849">
        <ele>1283</ele>
        <time>2018-09-03T17:57:20Z</time>
      </trkpt>
      <trkpt lat="46.43636" lon="5.99848">
        <ele>1283</ele>
        <time>2018-09-03T17:57:30Z</time>
      </trkpt>
      <trkpt lat="46.43637" lon="5.99847">
        <ele>1283</ele>
        <time>2018-09-03T17:57:35Z</time>
      </trkpt>
      <trkpt lat="46.43638" lon="5.99847">
        <ele>1283</ele>
        <time>2018-09-03T17:57:45Z</time>
      </trkpt>
      <trkpt lat="46.43638" lon="5.99847">
        <ele>1283</ele>
        <time>2018-09-03T17:57:50Z</time>
      </trkpt>
      <trkpt lat="46.43637" lon="5.99847">
        <ele>1283</ele>
        <time>2018-09-03T17:58:00Z</time>
      </trkpt>
      <trkpt lat="46.43637" lon="5.99847">
        <ele>1283</ele>
        <time>2018-09-03T17:58:05Z</time>
      </trkpt>
      <trkpt lat="46.43637" lon="5.99847">
        <ele>1283</ele>
        <time>2018-09-03T17:58:15Z</time>
      </trkpt>
      <trkpt lat="46.43637" lon="5.99847">
        <ele>1283</ele>
        <time>2018-09-03T17:58:20Z</time>
      </trkpt>
      <trkpt lat="46.43637" lon="5.99847">
        <ele>1283</ele>
        <time>2018-09-03T17:58:25Z</time>
      </trkpt>
      <trkpt lat="46.43637" lon="5.99847">
        <ele>1283</ele>
        <time>2018-09-03T17:58:35Z</time>
      </trkpt>
      <trkpt lat="46.43638" lon="5.99847">
        <ele>1283</ele>
        <time>2018-09-03T17:58:40Z</time>
      </trkpt>
      <trkpt lat="46.43638" lon="5.9985">
        <ele>1283</ele>
        <time>2018-09-03T17:58:50Z</time>
      </trkpt>
      <trkpt lat="46.43638" lon="5.99851">
        <ele>1283</ele>
        <time>2018-09-03T17:58:55Z</time>
      </trkpt>
      <trkpt lat="46.43639" lon="5.99853">
        <ele>1283</ele>
        <time>2018-09-03T17:59:05Z</time>
      </trkpt>
      <trkpt lat="46.43639" lon="5.99854">
        <ele>1283</ele>
        <time>2018-09-03T17:59:10Z</time>
      </trkpt>
      <trkpt lat="46.4364" lon="5.99855">
        <ele>1283</ele>
        <time>2018-09-03T17:59:15Z</time>
      </trkpt>
      <trkpt lat="46.43641" lon="5.99856">
        <ele>1283</ele>
        <time>2018-09-03T17:59:25Z</time>
      </trkpt>
      <trkpt lat="46.43641" lon="5.99857">
        <ele>1283</ele>
        <time>2018-09-03T17:59:30Z</time>
      </trkpt>
      <trkpt lat="46.43641" lon="5.99858">
        <ele>1283</ele>
        <time>2018-09-03T17:59:40Z</time>
      </trkpt>
      <trkpt lat="46.43641" lon="5.99859">
        <ele>1283</ele>
        <time>2018-09-03T17:59:45Z</time>
      </trkpt>
      <trkpt lat="46.43641" lon="5.99861">
        <ele>1284</ele>
        <time>2018-09-03T17:59:55Z</time>
      </trkpt>
      <trkpt lat="46.4364" lon="5.99862">
        <ele>1284</ele>
        <time>2018-09-03T18:00:00Z</time>
      </trkpt>
      <trkpt lat="46.4364" lon="5.99862">
        <ele>1284</ele>
        <time>2018-09-03T18:00:05Z</time>
      </trkpt>
      <trkpt lat="46.4364" lon="5.99864">
        <ele>1284</ele>
        <time>2018-09-03T18:00:15Z</time>
      </trkpt>
      <trkpt lat="46.43641" lon="5.99864">
        <ele>1284</ele>
        <time>2018-09-03T18:00:20Z</time>
      </trkpt>
      <trkpt lat="46.43641" lon="5.99864">
        <ele>1284</ele>
        <time>2018-09-03T18:00:30Z</time>
      </trkpt>
      <trkpt lat="46.43641" lon="5.99864">
        <ele>1284</ele>
        <time>2018-09-03T18:00:35Z</time>
      </trkpt>
      <trkpt lat="46.43641" lon="5.99864">
        <ele>1284</ele>
        <time>2018-09-03T18:00:45Z</time>
      </trkpt>
      <trkpt lat="46.43644" lon="5.99872">
        <ele>1284</ele>
        <time>2018-09-03T18:00:50Z</time>
      </trkpt>
      <trkpt lat="46.43652" lon="5.9989">
        <ele>1285</ele>
        <time>2018-09-03T18:00:55Z</time>
      </trkpt>
      <trkpt lat="46.43664" lon="5.99913">
        <ele>1286</ele>
        <time>2018-09-03T18:01:05Z</time>
      </trkpt>
      <trkpt lat="46.43668" lon="5.99921">
        <ele>1287</ele>
        <time>2018-09-03T18:01:10Z</time>
      </trkpt>
      <trkpt lat="46.43677" lon="5.99935">
        <ele>1286</ele>
        <time>2018-09-03T18:01:20Z</time>
      </trkpt>
      <trkpt lat="46.43681" lon="5.9994">
        <ele>1285</ele>
        <time>2018-09-03T18:01:25Z</time>
      </trkpt>
      <trkpt lat="46.43689" lon="5.9995">
        <ele>1284</ele>
        <time>2018-09-03T18:01:35Z</time>
      </trkpt>
      <trkpt lat="46.43691" lon="5.99957">
        <ele>1284</ele>
        <time>2018-09-03T18:01:40Z</time>
      </trkpt>
      <trkpt lat="46.437" lon="5.99966">
        <ele>1283</ele>
        <time>2018-09-03T18:01:50Z</time>
      </trkpt>
      <trkpt lat="46.43703" lon="5.9997">
        <ele>1283</ele>
        <time>2018-09-03T18:01:55Z</time>
      </trkpt>
      <trkpt lat="46.43708" lon="5.99975">
        <ele>1282</ele>
        <time>2018-09-03T18:02:00Z</time>
      </trkpt>
      <trkpt lat="46.43715" lon="5.99984">
        <ele>1281</ele>
        <time>2018-09-03T18:02:10Z</time>
      </trkpt>
      <trkpt lat="46.4372" lon="5.99989">
        <ele>1281</ele>
        <time>2018-09-03T18:02:15Z</time>
      </trkpt>
      <trkpt lat="46.43728" lon="6.00001">
        <ele>1281</ele>
        <time>2018-09-03T18:02:25Z</time>
      </trkpt>
      <trkpt lat="46.43731" lon="6.00005">
        <ele>1281</ele>
        <time>2018-09-03T18:02:30Z</time>
      </trkpt>
      <trkpt lat="46.43742" lon="6.00016">
        <ele>1281</ele>
        <time>2018-09-03T18:02:40Z</time>
      </trkpt>
      <trkpt lat="46.43747" lon="6.00018">
        <ele>1281</ele>
        <time>2018-09-03T18:02:45Z</time>
      </trkpt>
      <trkpt lat="46.4375" lon="6.00021">
        <ele>1281</ele>
        <time>2018-09-03T18:02:50Z</time>
      </trkpt>
      <trkpt lat="46.43761" lon="6.00029">
        <ele>1280</ele>
        <time>2018-09-03T18:03:00Z</time>
      </trkpt>
      <trkpt lat="46.43764" lon="6.00035">
        <ele>1280</ele>
        <time>2018-09-03T18:03:05Z</time>
      </trkpt>
      <trkpt lat="46.43773" lon="6.00043">
        <ele>1280</ele>
        <time>2018-09-03T18:03:15Z</time>
      </trkpt>
      <trkpt lat="46.43777" lon="6.00047">
        <ele>1280</ele>
        <time>2018-09-03T18:03:20Z</time>
      </trkpt>
      <trkpt lat="46.43785" lon="6.00057">
        <ele>1280</ele>
        <time>2018-09-03T18:03:30Z</time>
      </trkpt>
      <trkpt lat="46.43789" lon="6.00061">
        <ele>1280</ele>
        <time>2018-09-03T18:03:35Z</time>
      </trkpt>
      <trkpt lat="46.43793" lon="6.00066">
        <ele>1280</ele>
        <time>2018-09-03T18:03:40Z</time>
      </trkpt>
      <trkpt lat="46.43803" lon="6.00077">
        <ele>1281</ele>
        <time>2018-09-03T18:03:50Z</time>
      </trkpt>
      <trkpt lat="46.43808" lon="6.00081">
        <ele>1281</ele>
        <time>2018-09-03T18:03:55Z</time>
      </trkpt>
      <trkpt lat="46.43817" lon="6.00091">
        <ele>1282</ele>
        <time>2018-09-03T18:04:05Z</time>
      </trkpt>
      <trkpt lat="46.43822" lon="6.00097">
        <ele>1282</ele>
        <time>2018-09-03T18:04:10Z</time>
      </trkpt>
      <trkpt lat="46.43829" lon="6.00109">
        <ele>1282</ele>
        <time>2018-09-03T18:04:20Z</time>
      </trkpt>
      <trkpt lat="46.43832" lon="6.00115">
        <ele>1283</ele>
        <time>2018-09-03T18:04:25Z</time>
      </trkpt>
      <trkpt lat="46.43837" lon="6.00119">
        <ele>1283</ele>
        <time>2018-09-03T18:04:30Z</time>
      </trkpt>
      <trkpt lat="46.43845" lon="6.00127">
        <ele>1284</ele>
        <time>2018-09-03T18:04:40Z</time>
      </trkpt>
      <trkpt lat="46.4385" lon="6.0013">
        <ele>1284</ele>
        <time>2018-09-03T18:04:45Z</time>
      </trkpt>
      <trkpt lat="46.43857" lon="6.00139">
        <ele>1285</ele>
        <time>2018-09-03T18:04:55Z</time>
      </trkpt>
      <trkpt lat="46.4386" lon="6.00143">
        <ele>1285</ele>
        <time>2018-09-03T18:05:00Z</time>
      </trkpt>
      <trkpt lat="46.43869" lon="6.00151">
        <ele>1286</ele>
        <time>2018-09-03T18:05:10Z</time>
      </trkpt>
      <trkpt lat="46.43872" lon="6.00156">
        <ele>1286</ele>
        <time>2018-09-03T18:05:15Z</time>
      </trkpt>
      <trkpt lat="46.43877" lon="6.00162">
        <ele>1287</ele>
        <time>2018-09-03T18:05:20Z</time>
      </trkpt>
      <trkpt lat="46.43883" lon="6.00171">
        <ele>1287</ele>
        <time>2018-09-03T18:05:30Z</time>
      </trkpt>
      <trkpt lat="46.43888" lon="6.00176">
        <ele>1288</ele>
        <time>2018-09-03T18:05:35Z</time>
      </trkpt>
      <trkpt lat="46.43899" lon="6.00185">
        <ele>1289</ele>
        <time>2018-09-03T18:05:45Z</time>
      </trkpt>
      <trkpt lat="46.43905" lon="6.00189">
        <ele>1289</ele>
        <time>2018-09-03T18:05:50Z</time>
      </trkpt>
      <trkpt lat="46.43914" lon="6.00201">
        <ele>1290</ele>
        <time>2018-09-03T18:06:00Z</time>
      </trkpt>
      <trkpt lat="46.43918" lon="6.00207">
        <ele>1290</ele>
        <time>2018-09-03T18:06:05Z</time>
      </trkpt>
      <trkpt lat="46.4393" lon="6.00221">
        <ele>1289</ele>
        <time>2018-09-03T18:06:15Z</time>
      </trkpt>
      <trkpt lat="46.43935" lon="6.00226">
        <ele>1289</ele>
        <time>2018-09-03T18:06:20Z</time>
      </trkpt>
      <trkpt lat="46.4394" lon="6.00231">
        <ele>1289</ele>
        <time>2018-09-03T18:06:25Z</time>
      </trkpt>
      <trkpt lat="46.43948" lon="6.00239">
        <ele>1289</ele>
        <time>2018-09-03T18:06:35Z</time>
      </trkpt>
      <trkpt lat="46.43953" lon="6.00243">
        <ele>1289</ele>
        <time>2018-09-03T18:06:40Z</time>
      </trkpt>
      <trkpt lat="46.43961" lon="6.00253">
        <ele>1288</ele>
        <time>2018-09-03T18:06:50Z</time>
      </trkpt>
      <trkpt lat="46.43966" lon="6.00258">
        <ele>1288</ele>
        <time>2018-09-03T18:06:55Z</time>
      </trkpt>
      <trkpt lat="46.43975" lon="6.00269">
        <ele>1288</ele>
        <time>2018-09-03T18:07:05Z</time>
      </trkpt>
      <trkpt lat="46.4398" lon="6.00274">
        <ele>1288</ele>
        <time>2018-09-03T18:07:10Z</time>
      </trkpt>
      <trkpt lat="46.43985" lon="6.00279">
        <ele>1288</ele>
        <time>2018-09-03T18:07:15Z</time>
      </trkpt>
      <trkpt lat="46.43994" lon="6.00292">
        <ele>1286</ele>
        <time>2018-09-03T18:07:25Z</time>
      </trkpt>
      <trkpt lat="46.43997" lon="6.00298">
        <ele>1285</ele>
        <time>2018-09-03T18:07:30Z</time>
      </trkpt>
      <trkpt lat="46.44006" lon="6.00307">
        <ele>1284</ele>
        <time>2018-09-03T18:07:40Z</time>
      </trkpt>
      <trkpt lat="46.4401" lon="6.00312">
        <ele>1283</ele>
        <time>2018-09-03T18:07:45Z</time>
      </trkpt>
      <trkpt lat="46.4402" lon="6.00321">
        <ele>1282</ele>
        <time>2018-09-03T18:07:55Z</time>
      </trkpt>
      <trkpt lat="46.44025" lon="6.00326">
        <ele>1281</ele>
        <time>2018-09-03T18:08:00Z</time>
      </trkpt>
      <trkpt lat="46.44027" lon="6.00329">
        <ele>1281</ele>
        <time>2018-09-03T18:08:05Z</time>
      </trkpt>
      <trkpt lat="46.44035" lon="6.0034">
        <ele>1280</ele>
        <time>2018-09-03T18:08:15Z</time>
      </trkpt>
      <trkpt lat="46.44039" lon="6.00345">
        <ele>1280</ele>
        <time>2018-09-03T18:08:20Z</time>
      </trkpt>
      <trkpt lat="46.44046" lon="6.00357">
        <ele>1280</ele>
        <time>2018-09-03T18:08:30Z</time>
      </trkpt>
      <trkpt lat="46.44049" lon="6.00363">
        <ele>1280</ele>
        <time>2018-09-03T18:08:35Z</time>
      </trkpt>
      <trkpt lat="46.44057" lon="6.00374">
        <ele>1280</ele>
        <time>2018-09-03T18:08:45Z</time>
      </trkpt>
      <trkpt lat="46.44062" lon="6.00378">
        <ele>1280</ele>
        <time>2018-09-03T18:08:50Z</time>
      </trkpt>
      <trkpt lat="46.44065" lon="6.00382">
        <ele>1280</ele>
        <time>2018-09-03T18:08:55Z</time>
      </trkpt>
      <trkpt lat="46.44067" lon="6.0039">
        <ele>1280</ele>
        <time>2018-09-03T18:09:05Z</time>
      </trkpt>
      <trkpt lat="46.44069" lon="6.00395">
        <ele>1280</ele>
        <time>2018-09-03T18:09:10Z</time>
      </trkpt>
      <trkpt lat="46.44075" lon="6.00406">
        <ele>1280</ele>
        <time>2018-09-03T18:09:20Z</time>
      </trkpt>
      <trkpt lat="46.44078" lon="6.00411">
        <ele>1280</ele>
        <time>2018-09-03T18:09:25Z</time>
      </trkpt>
      <trkpt lat="46.44084" lon="6.00425">
        <ele>1280</ele>
        <time>2018-09-03T18:09:35Z</time>
      </trkpt>
      <trkpt lat="46.44087" lon="6.0043">
        <ele>1280</ele>
        <time>2018-09-03T18:09:40Z</time>
      </trkpt>
      <trkpt lat="46.4409" lon="6.00437">
        <ele>1280</ele>
        <time>2018-09-03T18:09:45Z</time>
      </trkpt>
      <trkpt lat="46.44097" lon="6.00449">
        <ele>1280</ele>
        <time>2018-09-03T18:09:55Z</time>
      </trkpt>
      <trkpt lat="46.44102" lon="6.00454">
        <ele>1280</ele>
        <time>2018-09-03T18:10:00Z</time>
      </trkpt>
      <trkpt lat="46.4411" lon="6.00466">
        <ele>1280</ele>
        <time>2018-09-03T18:10:10Z</time>
      </trkpt>
      <trkpt lat="46.44114" lon="6.00472">
        <ele>1280</ele>
        <time>2018-09-03T18:10:15Z</time>
      </trkpt>
      <trkpt lat="46.44122" lon="6.00484">
        <ele>1280</ele>
        <time>2018-09-03T18:10:25Z</time>
      </trkpt>
      <trkpt lat="46.44127" lon="6.0049">
        <ele>1280</ele>
        <time>2018-09-03T18:10:30Z</time>
      </trkpt>
      <trkpt lat="46.44133" lon="6.00504">
        <ele>1280</ele>
        <time>2018-09-03T18:10:40Z</time>
      </trkpt>
      <trkpt lat="46.44136" lon="6.00511">
        <ele>1280</ele>
        <time>2018-09-03T18:10:45Z</time>
      </trkpt>
      <trkpt lat="46.44139" lon="6.00518">
        <ele>1280</ele>
        <time>2018-09-03T18:10:50Z</time>
      </trkpt>
      <trkpt lat="46.44145" lon="6.00533">
        <ele>1280</ele>
        <time>2018-09-03T18:11:00Z</time>
      </trkpt>
      <trkpt lat="46.44148" lon="6.0054">
        <ele>1280</ele>
        <time>2018-09-03T18:11:05Z</time>
      </trkpt>
      <trkpt lat="46.44152" lon="6.00553">
        <ele>1280</ele>
        <time>2018-09-03T18:11:15Z</time>
      </trkpt>
      <trkpt lat="46.44155" lon="6.0056">
        <ele>1280</ele>
        <time>2018-09-03T18:11:20Z</time>
      </trkpt>
      <trkpt lat="46.44159" lon="6.00575">
        <ele>1280</ele>
        <time>2018-09-03T18:11:30Z</time>
      </trkpt>
      <trkpt lat="46.44161" lon="6.00582">
        <ele>1280</ele>
        <time>2018-09-03T18:11:35Z</time>
      </trkpt>
      <trkpt lat="46.44162" lon="6.00591">
        <ele>1280</ele>
        <time>2018-09-03T18:11:40Z</time>
      </trkpt>
      <trkpt lat="46.44165" lon="6.00606">
        <ele>1280</ele>
        <time>2018-09-03T18:11:50Z</time>
      </trkpt>
      <trkpt lat="46.44167" lon="6.00613">
        <ele>1280</ele>
        <time>2018-09-03T18:11:55Z</time>
      </trkpt>
      <trkpt lat="46.44171" lon="6.00626">
        <ele>1280</ele>
        <time>2018-09-03T18:12:05Z</time>
      </trkpt>
      <trkpt lat="46.44174" lon="6.00632">
        <ele>1280</ele>
        <time>2018-09-03T18:12:10Z</time>
      </trkpt>
      <trkpt lat="46.44181" lon="6.00645">
        <ele>1280</ele>
        <time>2018-09-03T18:12:20Z</time>
      </trkpt>
      <trkpt lat="46.44184" lon="6.0065">
        <ele>1280</ele>
        <time>2018-09-03T18:12:25Z</time>
      </trkpt>
      <trkpt lat="46.44188" lon="6.00656">
        <ele>1280</ele>
        <time>2018-09-03T18:12:30Z</time>
      </trkpt>
      <trkpt lat="46.44195" lon="6.00666">
        <ele>1280</ele>
        <time>2018-09-03T18:12:40Z</time>
      </trkpt>
      <trkpt lat="46.44199" lon="6.00672">
        <ele>1280</ele>
        <time>2018-09-03T18:12:45Z</time>
      </trkpt>
      <trkpt lat="46.44205" lon="6.00684">
        <ele>1280</ele>
        <time>2018-09-03T18:12:55Z</time>
      </trkpt>
      <trkpt lat="46.44208" lon="6.0069">
        <ele>1280</ele>
        <time>2018-09-03T18:13:00Z</time>
      </trkpt>
      <trkpt lat="46.44215" lon="6.00702">
        <ele>1280</ele>
        <time>2018-09-03T18:13:10Z</time>
      </trkpt>
      <trkpt lat="46.44218" lon="6.00707">
        <ele>1280</ele>
        <time>2018-09-03T18:13:15Z</time>
      </trkpt>
      <trkpt lat="46.44221" lon="6.00713">
        <ele>1280</ele>
        <time>2018-09-03T18:13:20Z</time>
      </trkpt>
      <trkpt lat="46.44228" lon="6.00723">
        <ele>1280</ele>
        <time>2018-09-03T18:13:30Z</time>
      </trkpt>
      <trkpt lat="46.4423" lon="6.0073">
        <ele>1280</ele>
        <time>2018-09-03T18:13:35Z</time>
      </trkpt>
      <trkpt lat="46.44237" lon="6.00743">
        <ele>1280</ele>
        <time>2018-09-03T18:13:45Z</time>
      </trkpt>
      <trkpt lat="46.44241" lon="6.00749">
        <ele>1280</ele>
        <time>2018-09-03T18:13:50Z</time>
      </trkpt>
      <trkpt lat="46.44249" lon="6.00759">
        <ele>1280</ele>
        <time>2018-09-03T18:14:00Z</time>
      </trkpt>
      <trkpt lat="46.44251" lon="6.00762">
        <ele>1280</ele>
        <time>2018-09-03T18:14:05Z</time>
      </trkpt>
      <trkpt lat="46.44251" lon="6.00762">
        <ele>1280</ele>
        <time>2018-09-03T18:14:10Z</time>
      </trkpt>
      <trkpt lat="46.44251" lon="6.00762">
        <ele>1280</ele>
        <time>2018-09-03T18:14:20Z</time>
      </trkpt>
      <trkpt lat="46.44251" lon="6.00762">
        <ele>1280</ele>
        <time>2018-09-03T18:14:25Z</time>
      </trkpt>
      <trkpt lat="46.44251" lon="6.00762">
        <ele>1280</ele>
        <time>2018-09-03T18:14:35Z</time>
      </trkpt>
      <trkpt lat="46.44251" lon="6.00762">
        <ele>1280</ele>
        <time>2018-09-03T18:14:40Z</time>
      </trkpt>
      <trkpt lat="46.44251" lon="6.00762">
        <ele>1280</ele>
        <time>2018-09-03T18:14:50Z</time>
      </trkpt>
      <trkpt lat="46.44251" lon="6.00762">
        <ele>1280</ele>
        <time>2018-09-03T18:14:55Z</time>
      </trkpt>
      <trkpt lat="46.4425" lon="6.0076">
        <ele>1280</ele>
        <time>2018-09-03T18:15:05Z</time>
      </trkpt>
      <trkpt lat="46.4425" lon="6.0076">
        <ele>1280</ele>
        <time>2018-09-03T18:15:10Z</time>
      </trkpt>
      <trkpt lat="46.4425" lon="6.0076">
        <ele>1280</ele>
        <time>2018-09-03T18:15:15Z</time>
      </trkpt>
      <trkpt lat="46.4425" lon="6.00759">
        <ele>1280</ele>
        <time>2018-09-03T18:15:25Z</time>
      </trkpt>
      <trkpt lat="46.4425" lon="6.00761">
        <ele>1280</ele>
        <time>2018-09-03T18:15:30Z</time>
      </trkpt>
      <trkpt lat="46.44251" lon="6.00759">
        <ele>1280</ele>
        <time>2018-09-03T18:15:40Z</time>
      </trkpt>
      <trkpt lat="46.44251" lon="6.0076">
        <ele>1280</ele>
        <time>2018-09-03T18:15:45Z</time>
      </trkpt>
      <trkpt lat="46.44251" lon="6.0076">
        <ele>1280</ele>
        <time>2018-09-03T18:15:55Z</time>
      </trkpt>
      <trkpt lat="46.44252" lon="6.00761">
        <ele>1280</ele>
        <time>2018-09-03T18:16:00Z</time>
      </trkpt>
      <trkpt lat="46.44254" lon="6.00766">
        <ele>1280</ele>
        <time>2018-09-03T18:16:05Z</time>
      </trkpt>
      <trkpt lat="46.4426" lon="6.00779">
        <ele>1280</ele>
        <time>2018-09-03T18:16:15Z</time>
      </trkpt>
      <trkpt lat="46.44262" lon="6.00784">
        <ele>1279</ele>
        <time>2018-09-03T18:16:20Z</time>
      </trkpt>
      <trkpt lat="46.44264" lon="6.00788">
        <ele>1279</ele>
        <time>2018-09-03T18:16:30Z</time>
      </trkpt>
      <trkpt lat="46.44264" lon="6.00788">
        <ele>1279</ele>
        <time>2018-09-03T18:16:35Z</time>
      </trkpt>
      <trkpt lat="46.44264" lon="6.00788">
        <ele>1279</ele>
        <time>2018-09-03T18:16:45Z</time>
      </trkpt>
      <trkpt lat="46.44264" lon="6.00788">
        <ele>1279</ele>
        <time>2018-09-03T18:16:50Z</time>
      </trkpt>
      <trkpt lat="46.44264" lon="6.00788">
        <ele>1279</ele>
        <time>2018-09-03T18:16:55Z</time>
      </trkpt>
      <trkpt lat="46.44264" lon="6.00787">
        <ele>1279</ele>
        <time>2018-09-03T18:17:05Z</time>
      </trkpt>
      <trkpt lat="46.44264" lon="6.00788">
        <ele>1279</ele>
        <time>2018-09-03T18:17:10Z</time>
      </trkpt>
      <trkpt lat="46.44264" lon="6.0079">
        <ele>1279</ele>
        <time>2018-09-03T18:17:20Z</time>
      </trkpt>
      <trkpt lat="46.44265" lon="6.00792">
        <ele>1279</ele>
        <time>2018-09-03T18:17:25Z</time>
      </trkpt>
      <trkpt lat="46.4427" lon="6.00804">
        <ele>1279</ele>
        <time>2018-09-03T18:17:35Z</time>
      </trkpt>
      <trkpt lat="46.44273" lon="6.00812">
        <ele>1279</ele>
        <time>2018-09-03T18:17:40Z</time>
      </trkpt>
      <trkpt lat="46.44276" lon="6.0082">
        <ele>1279</ele>
        <time>2018-09-03T18:17:45Z</time>
      </trkpt>
      <trkpt lat="46.44282" lon="6.00835">
        <ele>1279</ele>
        <time>2018-09-03T18:17:55Z</time>
      </trkpt>
      <trkpt lat="46.44286" lon="6.00842">
        <ele>1279</ele>
        <time>2018-09-03T18:18:00Z</time>
      </trkpt>
      <trkpt lat="46.44294" lon="6.00854">
        <ele>1279</ele>
        <time>2018-09-03T18:18:10Z</time>
      </trkpt>
      <trkpt lat="46.44299" lon="6.0086">
        <ele>1279</ele>
        <time>2018-09-03T18:18:15Z</time>
      </trkpt>
      <trkpt lat="46.44309" lon="6.00872">
        <ele>1279</ele>
        <time>2018-09-03T18:18:25Z</time>
      </trkpt>
      <trkpt lat="46.44313" lon="6.00878">
        <ele>1279</ele>
        <time>2018-09-03T18:18:30Z</time>
      </trkpt>
      <trkpt lat="46.44317" lon="6.00884">
        <ele>1279</ele>
        <time>2018-09-03T18:18:35Z</time>
      </trkpt>
      <trkpt lat="46.44326" lon="6.00895">
        <ele>1279</ele>
        <time>2018-09-03T18:18:45Z</time>
      </trkpt>
      <trkpt lat="46.44331" lon="6.009">
        <ele>1279</ele>
        <time>2018-09-03T18:18:50Z</time>
      </trkpt>
      <trkpt lat="46.4434" lon="6.00911">
        <ele>1279</ele>
        <time>2018-09-03T18:19:00Z</time>
      </trkpt>
      <trkpt lat="46.44344" lon="6.00918">
        <ele>1279</ele>
        <time>2018-09-03T18:19:05Z</time>
      </trkpt>
      <trkpt lat="46.44353" lon="6.00929">
        <ele>1279</ele>
        <time>2018-09-03T18:19:15Z</time>
      </trkpt>
      <trkpt lat="46.44358" lon="6.00935">
        <ele>1279</ele>
        <time>2018-09-03T18:19:20Z</time>
      </trkpt>
      <trkpt lat="46.44366" lon="6.00947">
        <ele>1279</ele>
        <time>2018-09-03T18:19:30Z</time>
      </trkpt>
      <trkpt lat="46.44369" lon="6.00954">
        <ele>1279</ele>
        <time>2018-09-03T18:19:35Z</time>
      </trkpt>
      <trkpt lat="46.44373" lon="6.0096">
        <ele>1279</ele>
        <time>2018-09-03T18:19:40Z</time>
      </trkpt>
      <trkpt lat="46.44384" lon="6.00971">
        <ele>1279</ele>
        <time>2018-09-03T18:19:50Z</time>
      </trkpt>
      <trkpt lat="46.44388" lon="6.00978">
        <ele>1279</ele>
        <time>2018-09-03T18:19:55Z</time>
      </trkpt>
      <trkpt lat="46.44399" lon="6.00989">
        <ele>1278</ele>
        <time>2018-09-03T18:20:05Z</time>
      </trkpt>
      <trkpt lat="46.44403" lon="6.00994">
        <ele>1278</ele>
        <time>2018-09-03T18:20:10Z</time>
      </trkpt>
      <trkpt lat="46.44412" lon="6.01001">
        <ele>1278</ele>
        <time>2018-09-03T18:20:20Z</time>
      </trkpt>
      <trkpt lat="46.44418" lon="6.01004">
        <ele>1278</ele>
        <time>2018-09-03T18:20:25Z</time>
      </trkpt>
      <trkpt lat="46.44424" lon="6.01006">
        <ele>1278</ele>
        <time>2018-09-03T18:20:30Z</time>
      </trkpt>
      <trkpt lat="46.44435" lon="6.01012">
        <ele>1278</ele>
        <time>2018-09-03T18:20:40Z</time>
      </trkpt>
      <trkpt lat="46.44441" lon="6.01014">
        <ele>1278</ele>
        <time>2018-09-03T18:20:45Z</time>
      </trkpt>
      <trkpt lat="46.44451" lon="6.01021">
        <ele>1278</ele>
        <time>2018-09-03T18:20:55Z</time>
      </trkpt>
      <trkpt lat="46.44457" lon="6.01024">
        <ele>1278</ele>
        <time>2018-09-03T18:21:00Z</time>
      </trkpt>
      <trkpt lat="46.44468" lon="6.01035">
        <ele>1278</ele>
        <time>2018-09-03T18:21:10Z</time>
      </trkpt>
      <trkpt lat="46.44474" lon="6.0104">
        <ele>1278</ele>
        <time>2018-09-03T18:21:15Z</time>
      </trkpt>
      <trkpt lat="46.44479" lon="6.01045">
        <ele>1278</ele>
        <time>2018-09-03T18:21:20Z</time>
      </trkpt>
      <trkpt lat="46.44489" lon="6.01054">
        <ele>1278</ele>
        <time>2018-09-03T18:21:30Z</time>
      </trkpt>
      <trkpt lat="46.44494" lon="6.01058">
        <ele>1278</ele>
        <time>2018-09-03T18:21:35Z</time>
      </trkpt>
      <trkpt lat="46.44506" lon="6.01065">
        <ele>1278</ele>
        <time>2018-09-03T18:21:45Z</time>
      </trkpt>
      <trkpt lat="46.44511" lon="6.01071">
        <ele>1278</ele>
        <time>2018-09-03T18:21:50Z</time>
      </trkpt>
      <trkpt lat="46.44524" lon="6.01079">
        <ele>1278</ele>
        <time>2018-09-03T18:22:00Z</time>
      </trkpt>
      <trkpt lat="46.4453" lon="6.01085">
        <ele>1278</ele>
        <time>2018-09-03T18:22:05Z</time>
      </trkpt>
      <trkpt lat="46.44536" lon="6.0109">
        <ele>1278</ele>
        <time>2018-09-03T18:22:10Z</time>
      </trkpt>
      <trkpt lat="46.44546" lon="6.01099">
        <ele>1278</ele>
        <time>2018-09-03T18:22:20Z</time>
      </trkpt>
      <trkpt lat="46.44551" lon="6.01103">
        <ele>1277</ele>
        <time>2018-09-03T18:22:25Z</time>
      </trkpt>
      <trkpt lat="46.4456" lon="6.0111">
        <ele>1277</ele>
        <time>2018-09-03T18:22:35Z</time>
      </trkpt>
      <trkpt lat="46.44565" lon="6.01114">
        <ele>1276</ele>
        <time>2018-09-03T18:22:40Z</time>
      </trkpt>
      <trkpt lat="46.44575" lon="6.01121">
        <ele>1276</ele>
        <time>2018-09-03T18:22:50Z</time>
      </trkpt>
      <trkpt lat="46.4458" lon="6.01126">
        <ele>1276</ele>
        <time>2018-09-03T18:22:55Z</time>
      </trkpt>
      <trkpt lat="46.44584" lon="6.01133">
        <ele>1275</ele>
        <time>2018-09-03T18:23:00Z</time>
      </trkpt>
      <trkpt lat="46.44593" lon="6.01144">
        <ele>1275</ele>
        <time>2018-09-03T18:23:10Z</time>
      </trkpt>
      <trkpt lat="46.44597" lon="6.01149">
        <ele>1275</ele>
        <time>2018-09-03T18:23:15Z</time>
      </trkpt>
      <trkpt lat="46.44607" lon="6.0116">
        <ele>1274</ele>
        <time>2018-09-03T18:23:25Z</time>
      </trkpt>
      <trkpt lat="46.44611" lon="6.01166">
        <ele>1273</ele>
        <time>2018-09-03T18:23:30Z</time>
      </trkpt>
      <trkpt lat="46.44621" lon="6.01178">
        <ele>1272</ele>
        <time>2018-09-03T18:23:40Z</time>
      </trkpt>
      <trkpt lat="46.44625" lon="6.01185">
        <ele>1272</ele>
        <time>2018-09-03T18:23:45Z</time>
      </trkpt>
      <trkpt lat="46.44635" lon="6.01199">
        <ele>1270</ele>
        <time>2018-09-03T18:23:55Z</time>
      </trkpt>
      <trkpt lat="46.44637" lon="6.01204">
        <ele>1270</ele>
        <time>2018-09-03T18:24:00Z</time>
      </trkpt>
      <trkpt lat="46.44637" lon="6.01208">
        <ele>1270</ele>
        <time>2018-09-03T18:24:05Z</time>
      </trkpt>
      <trkpt lat="46.44637" lon="6.01208">
        <ele>1270</ele>
        <time>2018-09-03T18:24:15Z</time>
      </trkpt>
      <trkpt lat="46.44637" lon="6.01208">
        <ele>1270</ele>
        <time>2018-09-03T18:24:20Z</time>
      </trkpt>
      <trkpt lat="46.44637" lon="6.01208">
        <ele>1270</ele>
        <time>2018-09-03T18:24:30Z</time>
      </trkpt>
      <trkpt lat="46.44637" lon="6.01208">
        <ele>1270</ele>
        <time>2018-09-03T18:24:35Z</time>
      </trkpt>
      <trkpt lat="46.44636" lon="6.01208">
        <ele>1270</ele>
        <time>2018-09-03T18:24:45Z</time>
      </trkpt>
      <trkpt lat="46.44636" lon="6.01208">
        <ele>1270</ele>
        <time>2018-09-03T18:24:50Z</time>
      </trkpt>
      <trkpt lat="46.44637" lon="6.01208">
        <ele>1270</ele>
        <time>2018-09-03T18:24:55Z</time>
      </trkpt>
      <trkpt lat="46.44643" lon="6.01215">
        <ele>1269</ele>
        <time>2018-09-03T18:25:05Z</time>
      </trkpt>
      <trkpt lat="46.44647" lon="6.01221">
        <ele>1269</ele>
        <time>2018-09-03T18:25:10Z</time>
      </trkpt>
      <trkpt lat="46.44652" lon="6.01231">
        <ele>1268</ele>
        <time>2018-09-03T18:25:20Z</time>
      </trkpt>
      <trkpt lat="46.44653" lon="6.01235">
        <ele>1268</ele>
        <time>2018-09-03T18:25:25Z</time>
      </trkpt>
      <trkpt lat="46.44661" lon="6.01239">
        <ele>1268</ele>
        <time>2018-09-03T18:25:35Z</time>
      </trkpt>
      <trkpt lat="46.44665" lon="6.01243">
        <ele>1267</ele>
        <time>2018-09-03T18:25:40Z</time>
      </trkpt>
      <trkpt lat="46.44664" lon="6.01242">
        <ele>1267</ele>
        <time>2018-09-03T18:25:45Z</time>
      </trkpt>
      <trkpt lat="46.44664" lon="6.01243">
        <ele>1267</ele>
        <time>2018-09-03T18:25:55Z</time>
      </trkpt>
      <trkpt lat="46.44665" lon="6.01246">
        <ele>1267</ele>
        <time>2018-09-03T18:26:00Z</time>
      </trkpt>
      <trkpt lat="46.44673" lon="6.01255">
        <ele>1266</ele>
        <time>2018-09-03T18:26:10Z</time>
      </trkpt>
      <trkpt lat="46.44679" lon="6.0126">
        <ele>1266</ele>
        <time>2018-09-03T18:26:15Z</time>
      </trkpt>
      <trkpt lat="46.44689" lon="6.01264">
        <ele>1267</ele>
        <time>2018-09-03T18:26:25Z</time>
      </trkpt>
      <trkpt lat="46.44694" lon="6.01262">
        <ele>1267</ele>
        <time>2018-09-03T18:26:30Z</time>
      </trkpt>
      <trkpt lat="46.44699" lon="6.01258">
        <ele>1268</ele>
        <time>2018-09-03T18:26:35Z</time>
      </trkpt>
      <trkpt lat="46.44704" lon="6.0125">
        <ele>1268</ele>
        <time>2018-09-03T18:26:45Z</time>
      </trkpt>
      <trkpt lat="46.44703" lon="6.01246">
        <ele>1268</ele>
        <time>2018-09-03T18:26:50Z</time>
      </trkpt>
      <trkpt lat="46.44704" lon="6.01245">
        <ele>1269</ele>
        <time>2018-09-03T18:27:00Z</time>
      </trkpt>
      <trkpt lat="46.44704" lon="6.01245">
        <ele>1269</ele>
        <time>2018-09-03T18:27:05Z</time>
      </trkpt>
      <trkpt lat="46.44704" lon="6.01245">
        <ele>1269</ele>
        <time>2018-09-03T18:27:15Z</time>
      </trkpt>
      <trkpt lat="46.44704" lon="6.01245">
        <ele>1269</ele>
        <time>2018-09-03T18:27:20Z</time>
      </trkpt>
      <trkpt lat="46.44704" lon="6.01245">
        <ele>1269</ele>
        <time>2018-09-03T18:27:25Z</time>
      </trkpt>
      <trkpt lat="46.44705" lon="6.01245">
        <ele>1269</ele>
        <time>2018-09-03T18:27:35Z</time>
      </trkpt>
      <trkpt lat="46.44705" lon="6.01245">
        <ele>1269</ele>
        <time>2018-09-03T18:27:40Z</time>
      </trkpt>
      <trkpt lat="46.44706" lon="6.01245">
        <ele>1269</ele>
        <time>2018-09-03T18:27:50Z</time>
      </trkpt>
      <trkpt lat="46.44706" lon="6.01245">
        <ele>1269</ele>
        <time>2018-09-03T18:27:55Z</time>
      </trkpt>
      <trkpt lat="46.44707" lon="6.0125">
        <ele>1269</ele>
        <time>2018-09-03T18:28:05Z</time>
      </trkpt>
      <trkpt lat="46.44709" lon="6.01253">
        <ele>1269</ele>
        <time>2018-09-03T18:28:10Z</time>
      </trkpt>
      <trkpt lat="46.44716" lon="6.01262">
        <ele>1269</ele>
        <time>2018-09-03T18:28:20Z</time>
      </trkpt>
      <trkpt lat="46.44718" lon="6.01265">
        <ele>1269</ele>
        <time>2018-09-03T18:28:25Z</time>
      </trkpt>
      <trkpt lat="46.4472" lon="6.01269">
        <ele>1269</ele>
        <time>2018-09-03T18:28:30Z</time>
      </trkpt>
      <trkpt lat="46.44724" lon="6.01274">
        <ele>1269</ele>
        <time>2018-09-03T18:28:40Z</time>
      </trkpt>
      <trkpt lat="46.44725" lon="6.01279">
        <ele>1269</ele>
        <time>2018-09-03T18:28:45Z</time>
      </trkpt>
      <trkpt lat="46.44728" lon="6.01281">
        <ele>1269</ele>
        <time>2018-09-03T18:28:55Z</time>
      </trkpt>
      <trkpt lat="46.44731" lon="6.01286">
        <ele>1270</ele>
        <time>2018-09-03T18:29:00Z</time>
      </trkpt>
      <trkpt lat="46.44739" lon="6.01297">
        <ele>1270</ele>
        <time>2018-09-03T18:29:10Z</time>
      </trkpt>
      <trkpt lat="46.44743" lon="6.01303">
        <ele>1270</ele>
        <time>2018-09-03T18:29:15Z</time>
      </trkpt>
      <trkpt lat="46.44747" lon="6.01309">
        <ele>1270</ele>
        <time>2018-09-03T18:29:20Z</time>
      </trkpt>
      <trkpt lat="46.44749" lon="6.01314">
        <ele>1270</ele>
        <time>2018-09-03T18:29:30Z</time>
      </trkpt>
      <trkpt lat="46.44748" lon="6.01314">
        <ele>1270</ele>
        <time>2018-09-03T18:29:35Z</time>
      </trkpt>
      <trkpt lat="46.4475" lon="6.01314">
        <ele>1270</ele>
        <time>2018-09-03T18:29:45Z</time>
      </trkpt>
      <trkpt lat="46.44754" lon="6.01314">
        <ele>1271</ele>
        <time>2018-09-03T18:29:50Z</time>
      </trkpt>
      <trkpt lat="46.44756" lon="6.01318">
        <ele>1271</ele>
        <time>2018-09-03T18:30:00Z</time>
      </trkpt>
      <trkpt lat="46.44758" lon="6.01318">
        <ele>1271</ele>
        <time>2018-09-03T18:30:05Z</time>
      </trkpt>
      <trkpt lat="46.44758" lon="6.01319">
        <ele>1271</ele>
        <time>2018-09-03T18:30:10Z</time>
      </trkpt>
      <trkpt lat="46.44759" lon="6.01322">
        <ele>1271</ele>
        <time>2018-09-03T18:30:20Z</time>
      </trkpt>
      <trkpt lat="46.44761" lon="6.01324">
        <ele>1271</ele>
        <time>2018-09-03T18:30:25Z</time>
      </trkpt>
      <trkpt lat="46.44767" lon="6.01332">
        <ele>1271</ele>
        <time>2018-09-03T18:30:35Z</time>
      </trkpt>
      <trkpt lat="46.44771" lon="6.01337">
        <ele>1271</ele>
        <time>2018-09-03T18:30:40Z</time>
      </trkpt>
      <trkpt lat="46.44778" lon="6.01349">
        <ele>1271</ele>
        <time>2018-09-03T18:30:50Z</time>
      </trkpt>
      <trkpt lat="46.44781" lon="6.01355">
        <ele>1271</ele>
        <time>2018-09-03T18:30:55Z</time>
      </trkpt>
      <trkpt lat="46.44785" lon="6.0136">
        <ele>1271</ele>
        <time>2018-09-03T18:31:00Z</time>
      </trkpt>
      <trkpt lat="46.44795" lon="6.0137">
        <ele>1272</ele>
        <time>2018-09-03T18:31:10Z</time>
      </trkpt>
      <trkpt lat="46.44799" lon="6.01372">
        <ele>1272</ele>
        <time>2018-09-03T18:31:15Z</time>
      </trkpt>
      <trkpt lat="46.44807" lon="6.01385">
        <ele>1272</ele>
        <time>2018-09-03T18:31:25Z</time>
      </trkpt>
      <trkpt lat="46.4481" lon="6.01391">
        <ele>1272</ele>
        <time>2018-09-03T18:31:30Z</time>
      </trkpt>
      <trkpt lat="46.44814" lon="6.01403">
        <ele>1271</ele>
        <time>2018-09-03T18:31:40Z</time>
      </trkpt>
      <trkpt lat="46.44818" lon="6.01408">
        <ele>1271</ele>
        <time>2018-09-03T18:31:45Z</time>
      </trkpt>
      <trkpt lat="46.44821" lon="6.01415">
        <ele>1271</ele>
        <time>2018-09-03T18:31:50Z</time>
      </trkpt>
      <trkpt lat="46.44826" lon="6.01428">
        <ele>1271</ele>
        <time>2018-09-03T18:32:00Z</time>
      </trkpt>
      <trkpt lat="46.4483" lon="6.01433">
        <ele>1271</ele>
        <time>2018-09-03T18:32:05Z</time>
      </trkpt>
      <trkpt lat="46.44836" lon="6.01447">
        <ele>1270</ele>
        <time>2018-09-03T18:32:15Z</time>
      </trkpt>
      <trkpt lat="46.4484" lon="6.01453">
        <ele>1270</ele>
        <time>2018-09-03T18:32:20Z</time>
      </trkpt>
      <trkpt lat="46.44847" lon="6.01463">
        <ele>1270</ele>
        <time>2018-09-03T18:32:30Z</time>
      </trkpt>
      <trkpt lat="46.44851" lon="6.01471">
        <ele>1270</ele>
        <time>2018-09-03T18:32:35Z</time>
      </trkpt>
      <trkpt lat="46.44859" lon="6.01483">
        <ele>1270</ele>
        <time>2018-09-03T18:32:45Z</time>
      </trkpt>
      <trkpt lat="46.44864" lon="6.01487">
        <ele>1270</ele>
        <time>2018-09-03T18:32:50Z</time>
      </trkpt>
      <trkpt lat="46.44868" lon="6.01493">
        <ele>1270</ele>
        <time>2018-09-03T18:32:55Z</time>
      </trkpt>
      <trkpt lat="46.44875" lon="6.01504">
        <ele>1269</ele>
        <time>2018-09-03T18:33:05Z</time>
      </trkpt>
      <trkpt lat="46.44879" lon="6.01509">
        <ele>1269</ele>
        <time>2018-09-03T18:33:10Z</time>
      </trkpt>
      <trkpt lat="46.44886" lon="6.01519">
        <ele>1268</ele>
        <time>2018-09-03T18:33:20Z</time>
      </trkpt>
      <trkpt lat="46.44888" lon="6.01527">
        <ele>1267</ele>
        <time>2018-09-03T18:33:25Z</time>
      </trkpt>
      <trkpt lat="46.44895" lon="6.01537">
        <ele>1267</ele>
        <time>2018-09-03T18:33:35Z</time>
      </trkpt>
      <trkpt lat="46.44898" lon="6.01544">
        <ele>1266</ele>
        <time>2018-09-03T18:33:40Z</time>
      </trkpt>
      <trkpt lat="46.44901" lon="6.01553">
        <ele>1265</ele>
        <time>2018-09-03T18:33:45Z</time>
      </trkpt>
      <trkpt lat="46.44907" lon="6.01565">
        <ele>1264</ele>
        <time>2018-09-03T18:33:55Z</time>
      </trkpt>
      <trkpt lat="46.4491" lon="6.01572">
        <ele>1263</ele>
        <time>2018-09-03T18:34:00Z</time>
      </trkpt>
      <trkpt lat="46.4492" lon="6.01582">
        <ele>1262</ele>
        <time>2018-09-03T18:34:10Z</time>
      </trkpt>
      <trkpt lat="46.44924" lon="6.01587">
        <ele>1261</ele>
        <time>2018-09-03T18:34:15Z</time>
      </trkpt>
      <trkpt lat="46.44935" lon="6.01594">
        <ele>1260</ele>
        <time>2018-09-03T18:34:25Z</time>
      </trkpt>
      <trkpt lat="46.4494" lon="6.01597">
        <ele>1260</ele>
        <time>2018-09-03T18:34:30Z</time>
      </trkpt>
      <trkpt lat="46.44946" lon="6.01602">
        <ele>1259</ele>
        <time>2018-09-03T18:34:35Z</time>
      </trkpt>
      <trkpt lat="46.44959" lon="6.01609">
        <ele>1258</ele>
        <time>2018-09-03T18:34:45Z</time>
      </trkpt>
      <trkpt lat="46.44965" lon="6.01612">
        <ele>1257</ele>
        <time>2018-09-03T18:34:50Z</time>
      </trkpt>
      <trkpt lat="46.44974" lon="6.01618">
        <ele>1256</ele>
        <time>2018-09-03T18:35:00Z</time>
      </trkpt>
      <trkpt lat="46.44979" lon="6.01621">
        <ele>1255</ele>
        <time>2018-09-03T18:35:05Z</time>
      </trkpt>
      <trkpt lat="46.44992" lon="6.01628">
        <ele>1254</ele>
        <time>2018-09-03T18:35:15Z</time>
      </trkpt>
      <trkpt lat="46.44997" lon="6.0163">
        <ele>1254</ele>
        <time>2018-09-03T18:35:20Z</time>
      </trkpt>
      <trkpt lat="46.45002" lon="6.01632">
        <ele>1253</ele>
        <time>2018-09-03T18:35:25Z</time>
      </trkpt>
      <trkpt lat="46.4501" lon="6.01637">
        <ele>1252</ele>
        <time>2018-09-03T18:35:35Z</time>
      </trkpt>
      <trkpt lat="46.45016" lon="6.01638">
        <ele>1252</ele>
        <time>2018-09-03T18:35:40Z</time>
      </trkpt>
      <trkpt lat="46.45028" lon="6.01644">
        <ele>1251</ele>
        <time>2018-09-03T18:35:50Z</time>
      </trkpt>
      <trkpt lat="46.45034" lon="6.01648">
        <ele>1250</ele>
        <time>2018-09-03T18:35:55Z</time>
      </trkpt>
      <trkpt lat="46.45045" lon="6.01658">
        <ele>1248</ele>
        <time>2018-09-03T18:36:05Z</time>
      </trkpt>
      <trkpt lat="46.45052" lon="6.01662">
        <ele>1248</ele>
        <time>2018-09-03T18:36:10Z</time>
      </trkpt>
      <trkpt lat="46.45057" lon="6.01664">
        <ele>1247</ele>
        <time>2018-09-03T18:36:15Z</time>
      </trkpt>
      <trkpt lat="46.4507" lon="6.01671">
        <ele>1246</ele>
        <time>2018-09-03T18:36:25Z</time>
      </trkpt>
      <trkpt lat="46.45075" lon="6.01673">
        <ele>1246</ele>
        <time>2018-09-03T18:36:30Z</time>
      </trkpt>
      <trkpt lat="46.45087" lon="6.01676">
        <ele>1246</ele>
        <time>2018-09-03T18:36:40Z</time>
      </trkpt>
      <trkpt lat="46.45093" lon="6.01676">
        <ele>1246</ele>
        <time>2018-09-03T18:36:45Z</time>
      </trkpt>
      <trkpt lat="46.45099" lon="6.0168">
        <ele>1247</ele>
        <time>2018-09-03T18:36:55Z</time>
      </trkpt>
      <trkpt lat="46.45105" lon="6.01683">
        <ele>1248</ele>
        <time>2018-09-03T18:37:00Z</time>
      </trkpt>
      <trkpt lat="46.45113" lon="6.01695">
        <ele>1247</ele>
        <time>2018-09-03T18:37:10Z</time>
      </trkpt>
      <trkpt lat="46.45119" lon="6.01702">
        <ele>1247</ele>
        <time>2018-09-03T18:37:15Z</time>
      </trkpt>
      <trkpt lat="46.45121" lon="6.01708">
        <ele>1247</ele>
        <time>2018-09-03T18:37:20Z</time>
      </trkpt>
      <trkpt lat="46.45127" lon="6.01718">
        <ele>1246</ele>
        <time>2018-09-03T18:37:30Z</time>
      </trkpt>
      <trkpt lat="46.45131" lon="6.01722">
        <ele>1246</ele>
        <time>2018-09-03T18:37:35Z</time>
      </trkpt>
      <trkpt lat="46.45139" lon="6.0173">
        <ele>1246</ele>
        <time>2018-09-03T18:37:45Z</time>
      </trkpt>
      <trkpt lat="46.45143" lon="6.01736">
        <ele>1246</ele>
        <time>2018-09-03T18:37:50Z</time>
      </trkpt>
      <trkpt lat="46.45148" lon="6.01748">
        <ele>1244</ele>
        <time>2018-09-03T18:38:00Z</time>
      </trkpt>
      <trkpt lat="46.45151" lon="6.01755">
        <ele>1243</ele>
        <time>2018-09-03T18:38:05Z</time>
      </trkpt>
      <trkpt lat="46.45152" lon="6.01762">
        <ele>1242</ele>
        <time>2018-09-03T18:38:10Z</time>
      </trkpt>
      <trkpt lat="46.45157" lon="6.01777">
        <ele>1240</ele>
        <time>2018-09-03T18:38:20Z</time>
      </trkpt>
      <trkpt lat="46.45159" lon="6.01785">
        <ele>1239</ele>
        <time>2018-09-03T18:38:25Z</time>
      </trkpt>
      <trkpt lat="46.45165" lon="6.01798">
        <ele>1237</ele>
        <time>2018-09-03T18:38:35Z</time>
      </trkpt>
      <trkpt lat="46.45167" lon="6.01806">
        <ele>1236</ele>
        <time>2018-09-03T18:38:40Z</time>
      </trkpt>
      <trkpt lat="46.45175" lon="6.01817">
        <ele>1235</ele>
        <time>2018-09-03T18:38:50Z</time>
      </trkpt>
      <trkpt lat="46.45178" lon="6.01824">
        <ele>1234</ele>
        <time>2018-09-03T18:38:55Z</time>
      </trkpt>
      <trkpt lat="46.45182" lon="6.01831">
        <ele>1234</ele>
        <time>2018-09-03T18:39:00Z</time>
      </trkpt>
      <trkpt lat="46.45191" lon="6.01844">
        <ele>1233</ele>
        <time>2018-09-03T18:39:10Z</time>
      </trkpt>
      <trkpt lat="46.45194" lon="6.01853">
        <ele>1232</ele>
        <time>2018-09-03T18:39:15Z</time>
      </trkpt>
      <trkpt lat="46.45201" lon="6.01865">
        <ele>1230</ele>
        <time>2018-09-03T18:39:25Z</time>
      </trkpt>
      <trkpt lat="46.45205" lon="6.01872">
        <ele>1230</ele>
        <time>2018-09-03T18:39:30Z</time>
      </trkpt>
      <trkpt lat="46.45213" lon="6.01884">
        <ele>1229</ele>
        <time>2018-09-03T18:39:40Z</time>
      </trkpt>
      <trkpt lat="46.45216" lon="6.0189">
        <ele>1228</ele>
        <time>2018-09-03T18:39:45Z</time>
      </trkpt>
      <trkpt lat="46.45217" lon="6.01897">
        <ele>1227</ele>
        <time>2018-09-03T18:39:50Z</time>
      </trkpt>
      <trkpt lat="46.45224" lon="6.01911">
        <ele>1225</ele>
        <time>2018-09-03T18:40:00Z</time>
      </trkpt>
      <trkpt lat="46.45228" lon="6.01916">
        <ele>1224</ele>
        <time>2018-09-03T18:40:05Z</time>
      </trkpt>
      <trkpt lat="46.45236" lon="6.01928">
        <ele>1222</ele>
        <time>2018-09-03T18:40:15Z</time>
      </trkpt>
      <trkpt lat="46.45239" lon="6.01935">
        <ele>1220</ele>
        <time>2018-09-03T18:40:20Z</time>
      </trkpt>
      <trkpt lat="46.45245" lon="6.01948">
        <ele>1217</ele>
        <time>2018-09-03T18:40:30Z</time>
      </trkpt>
      <trkpt lat="46.45247" lon="6.01957">
        <ele>1215</ele>
        <time>2018-09-03T18:40:35Z</time>
      </trkpt>
      <trkpt lat="46.45249" lon="6.01964">
        <ele>1213</ele>
        <time>2018-09-03T18:40:40Z</time>
      </trkpt>
      <trkpt lat="46.45254" lon="6.01973">
        <ele>1211</ele>
        <time>2018-09-03T18:40:50Z</time>
      </trkpt>
      <trkpt lat="46.45255" lon="6.01973">
        <ele>1211</ele>
        <time>2018-09-03T18:40:55Z</time>
      </trkpt>
      <trkpt lat="46.45258" lon="6.01976">
        <ele>1211</ele>
        <time>2018-09-03T18:41:05Z</time>
      </trkpt>
      <trkpt lat="46.45262" lon="6.0198">
        <ele>1210</ele>
        <time>2018-09-03T18:41:10Z</time>
      </trkpt>
      <trkpt lat="46.45267" lon="6.01995">
        <ele>1207</ele>
        <time>2018-09-03T18:41:20Z</time>
      </trkpt>
      <trkpt lat="46.45269" lon="6.02001">
        <ele>1206</ele>
        <time>2018-09-03T18:41:25Z</time>
      </trkpt>
      <trkpt lat="46.45273" lon="6.02015">
        <ele>1203</ele>
        <time>2018-09-03T18:41:35Z</time>
      </trkpt>
      <trkpt lat="46.45276" lon="6.0202">
        <ele>1202</ele>
        <time>2018-09-03T18:41:40Z</time>
      </trkpt>
      <trkpt lat="46.45278" lon="6.02027">
        <ele>1201</ele>
        <time>2018-09-03T18:41:45Z</time>
      </trkpt>
      <trkpt lat="46.4528" lon="6.02043">
        <ele>1198</ele>
        <time>2018-09-03T18:41:55Z</time>
      </trkpt>
      <trkpt lat="46.45281" lon="6.02049">
        <ele>1197</ele>
        <time>2018-09-03T18:42:00Z</time>
      </trkpt>
      <trkpt lat="46.45284" lon="6.02064">
        <ele>1194</ele>
        <time>2018-09-03T18:42:10Z</time>
      </trkpt>
      <trkpt lat="46.45288" lon="6.02069">
        <ele>1193</ele>
        <time>2018-09-03T18:42:15Z</time>
      </trkpt>
      <trkpt lat="46.45294" lon="6.02083">
        <ele>1191</ele>
        <time>2018-09-03T18:42:25Z</time>
      </trkpt>
      <trkpt lat="46.45295" lon="6.02089">
        <ele>1190</ele>
        <time>2018-09-03T18:42:30Z</time>
      </trkpt>
      <trkpt lat="46.45298" lon="6.02097">
        <ele>1188</ele>
        <time>2018-09-03T18:42:35Z</time>
      </trkpt>
      <trkpt lat="46.45305" lon="6.02111">
        <ele>1185</ele>
        <time>2018-09-03T18:42:45Z</time>
      </trkpt>
      <trkpt lat="46.45308" lon="6.02117">
        <ele>1184</ele>
        <time>2018-09-03T18:42:50Z</time>
      </trkpt>
      <trkpt lat="46.45315" lon="6.02129">
        <ele>1181</ele>
        <time>2018-09-03T18:43:00Z</time>
      </trkpt>
      <trkpt lat="46.45318" lon="6.02135">
        <ele>1180</ele>
        <time>2018-09-03T18:43:05Z</time>
      </trkpt>
      <trkpt lat="46.45325" lon="6.02146">
        <ele>1177</ele>
        <time>2018-09-03T18:43:15Z</time>
      </trkpt>
      <trkpt lat="46.45329" lon="6.0215">
        <ele>1176</ele>
        <time>2018-09-03T18:43:20Z</time>
      </trkpt>
      <trkpt lat="46.45333" lon="6.02154">
        <ele>1175</ele>
        <time>2018-09-03T18:43:25Z</time>
      </trkpt>
      <trkpt lat="46.45342" lon="6.02164">
        <ele>1173</ele>
        <time>2018-09-03T18:43:35Z</time>
      </trkpt>
      <trkpt lat="46.45347" lon="6.02168">
        <ele>1172</ele>
        <time>2018-09-03T18:43:40Z</time>
      </trkpt>
      <trkpt lat="46.45355" lon="6.02177">
        <ele>1170</ele>
        <time>2018-09-03T18:43:50Z</time>
      </trkpt>
      <trkpt lat="46.4536" lon="6.02182">
        <ele>1168</ele>
        <time>2018-09-03T18:43:55Z</time>
      </trkpt>
      <trkpt lat="46.45368" lon="6.02189">
        <ele>1166</ele>
        <time>2018-09-03T18:44:05Z</time>
      </trkpt>
      <trkpt lat="46.45372" lon="6.02194">
        <ele>1165</ele>
        <time>2018-09-03T18:44:10Z</time>
      </trkpt>
      <trkpt lat="46.45375" lon="6.022">
        <ele>1163</ele>
        <time>2018-09-03T18:44:15Z</time>
      </trkpt>
      <trkpt lat="46.45382" lon="6.0221">
        <ele>1160</ele>
        <time>2018-09-03T18:44:25Z</time>
      </trkpt>
      <trkpt lat="46.45384" lon="6.02216">
        <ele>1159</ele>
        <time>2018-09-03T18:44:30Z</time>
      </trkpt>
      <trkpt lat="46.45387" lon="6.02229">
        <ele>1156</ele>
        <time>2018-09-03T18:44:40Z</time>
      </trkpt>
      <trkpt lat="46.45387" lon="6.02235">
        <ele>1155</ele>
        <time>2018-09-03T18:44:45Z</time>
      </trkpt>
      <trkpt lat="46.45387" lon="6.02248">
        <ele>1152</ele>
        <time>2018-09-03T18:44:55Z</time>
      </trkpt>
      <trkpt lat="46.45387" lon="6.02254">
        <ele>1151</ele>
        <time>2018-09-03T18:45:00Z</time>
      </trkpt>
      <trkpt lat="46.45387" lon="6.02261">
        <ele>1150</ele>
        <time>2018-09-03T18:45:05Z</time>
      </trkpt>
      <trkpt lat="46.45388" lon="6.02275">
        <ele>1148</ele>
        <time>2018-09-03T18:45:15Z</time>
      </trkpt>
      <trkpt lat="46.45388" lon="6.0228">
        <ele>1148</ele>
        <time>2018-09-03T18:45:20Z</time>
      </trkpt>
      <trkpt lat="46.45389" lon="6.02284">
        <ele>1147</ele>
        <time>2018-09-03T18:45:30Z</time>
      </trkpt>
      <trkpt lat="46.45389" lon="6.02285">
        <ele>1147</ele>
        <time>2018-09-03T18:45:35Z</time>
      </trkpt>
      <trkpt lat="46.45387" lon="6.02284">
        <ele>1147</ele>
        <time>2018-09-03T18:45:45Z</time>
      </trkpt>
      <trkpt lat="46.45388" lon="6.02284">
        <ele>1147</ele>
        <time>2018-09-03T18:45:50Z</time>
      </trkpt>
      <trkpt lat="46.45395" lon="6.0228">
        <ele>1147</ele>
        <time>2018-09-03T18:46:00Z</time>
      </trkpt>
      <trkpt lat="46.45401" lon="6.0228">
        <ele>1147</ele>
        <time>2018-09-03T18:46:05Z</time>
      </trkpt>
      <trkpt lat="46.45407" lon="6.02281">
        <ele>1146</ele>
        <time>2018-09-03T18:46:10Z</time>
      </trkpt>
      <trkpt lat="46.45418" lon="6.02285">
        <ele>1145</ele>
        <time>2018-09-03T18:46:20Z</time>
      </trkpt>
      <trkpt lat="46.45423" lon="6.02287">
        <ele>1145</ele>
        <time>2018-09-03T18:46:25Z</time>
      </trkpt>
      <trkpt lat="46.45435" lon="6.02292">
        <ele>1144</ele>
        <time>2018-09-03T18:46:35Z</time>
      </trkpt>
      <trkpt lat="46.4544" lon="6.02295">
        <ele>1143</ele>
        <time>2018-09-03T18:46:40Z</time>
      </trkpt>
      <trkpt lat="46.45451" lon="6.02299">
        <ele>1142</ele>
        <time>2018-09-03T18:46:50Z</time>
      </trkpt>
      <trkpt lat="46.45456" lon="6.02302">
        <ele>1142</ele>
        <time>2018-09-03T18:46:55Z</time>
      </trkpt>
      <trkpt lat="46.45458" lon="6.02304">
        <ele>1142</ele>
        <time>2018-09-03T18:47:00Z</time>
      </trkpt>
      <trkpt lat="46.45467" lon="6.02309">
        <ele>1141</ele>
        <time>2018-09-03T18:47:10Z</time>
      </trkpt>
      <trkpt lat="46.45472" lon="6.02312">
        <ele>1141</ele>
        <time>2018-09-03T18:47:15Z</time>
      </trkpt>
      <trkpt lat="46.45481" lon="6.02322">
        <ele>1140</ele>
        <time>2018-09-03T18:47:25Z</time>
      </trkpt>
      <trkpt lat="46.45484" lon="6.02328">
        <ele>1140</ele>
        <time>2018-09-03T18:47:30Z</time>
      </trkpt>
      <trkpt lat="46.45491" lon="6.02339">
        <ele>1140</ele>
        <time>2018-09-03T18:47:40Z</time>
      </trkpt>
      <trkpt lat="46.45495" lon="6.02346">
        <ele>1140</ele>
        <time>2018-09-03T18:47:45Z</time>
      </trkpt>
      <trkpt lat="46.45499" lon="6.02352">
        <ele>1140</ele>
        <time>2018-09-03T18:47:50Z</time>
      </trkpt>
      <trkpt lat="46.45508" lon="6.02363">
        <ele>1140</ele>
        <time>2018-09-03T18:48:00Z</time>
      </trkpt>
      <trkpt lat="46.45513" lon="6.0237">
        <ele>1140</ele>
        <time>2018-09-03T18:48:05Z</time>
      </trkpt>
      <trkpt lat="46.4552" lon="6.02379">
        <ele>1140</ele>
        <time>2018-09-03T18:48:15Z</time>
      </trkpt>
      <trkpt lat="46.45524" lon="6.02383">
        <ele>1140</ele>
        <time>2018-09-03T18:48:20Z</time>
      </trkpt>
      <trkpt lat="46.45531" lon="6.02392">
        <ele>1140</ele>
        <time>2018-09-03T18:48:30Z</time>
      </trkpt>
      <trkpt lat="46.45535" lon="6.02396">
        <ele>1139</ele>
        <time>2018-09-03T18:48:35Z</time>
      </trkpt>
      <trkpt lat="46.45538" lon="6.02398">
        <ele>1139</ele>
        <time>2018-09-03T18:48:40Z</time>
      </trkpt>
      <trkpt lat="46.45546" lon="6.0241">
        <ele>1139</ele>
        <time>2018-09-03T18:48:50Z</time>
      </trkpt>
      <trkpt lat="46.45549" lon="6.02418">
        <ele>1139</ele>
        <time>2018-09-03T18:48:55Z</time>
      </trkpt>
      <trkpt lat="46.45557" lon="6.0243">
        <ele>1139</ele>
        <time>2018-09-03T18:49:05Z</time>
      </trkpt>
      <trkpt lat="46.45561" lon="6.02434">
        <ele>1139</ele>
        <time>2018-09-03T18:49:10Z</time>
      </trkpt>
      <trkpt lat="46.4557" lon="6.02449">
        <ele>1138</ele>
        <time>2018-09-03T18:49:20Z</time>
      </trkpt>
      <trkpt lat="46.45575" lon="6.02454">
        <ele>1139</ele>
        <time>2018-09-03T18:49:25Z</time>
      </trkpt>
      <trkpt lat="46.45587" lon="6.02461">
        <ele>1139</ele>
        <time>2018-09-03T18:49:35Z</time>
      </trkpt>
      <trkpt lat="46.45592" lon="6.02466">
        <ele>1139</ele>
        <time>2018-09-03T18:49:40Z</time>
      </trkpt>
      <trkpt lat="46.45596" lon="6.02471">
        <ele>1139</ele>
        <time>2018-09-03T18:49:45Z</time>
      </trkpt>
      <trkpt lat="46.45595" lon="6.02472">
        <ele>1139</ele>
        <time>2018-09-03T18:49:55Z</time>
      </trkpt>
      <trkpt lat="46.45595" lon="6.02472">
        <ele>1139</ele>
        <time>2018-09-03T18:50:00Z</time>
      </trkpt>
      <trkpt lat="46.45595" lon="6.02471">
        <ele>1139</ele>
        <time>2018-09-03T18:50:10Z</time>
      </trkpt>
      <trkpt lat="46.45596" lon="6.02469">
        <ele>1139</ele>
        <time>2018-09-03T18:50:15Z</time>
      </trkpt>
      <trkpt lat="46.45598" lon="6.02467">
        <ele>1139</ele>
        <time>2018-09-03T18:50:25Z</time>
      </trkpt>
      <trkpt lat="46.45598" lon="6.02469">
        <ele>1139</ele>
        <time>2018-09-03T18:50:30Z</time>
      </trkpt>
      <trkpt lat="46.45598" lon="6.02469">
        <ele>1139</ele>
        <time>2018-09-03T18:50:35Z</time>
      </trkpt>
      <trkpt lat="46.45597" lon="6.02468">
        <ele>1139</ele>
        <time>2018-09-03T18:50:45Z</time>
      </trkpt>
      <trkpt lat="46.45597" lon="6.02468">
        <ele>1139</ele>
        <time>2018-09-03T18:50:50Z</time>
      </trkpt>
      <trkpt lat="46.45597" lon="6.02468">
        <ele>1139</ele>
        <time>2018-09-03T18:51:00Z</time>
      </trkpt>
      <trkpt lat="46.45597" lon="6.02469">
        <ele>1139</ele>
        <time>2018-09-03T18:51:05Z</time>
      </trkpt>
      <trkpt lat="46.45599" lon="6.02475">
        <ele>1139</ele>
        <time>2018-09-03T18:51:15Z</time>
      </trkpt>
      <trkpt lat="46.45601" lon="6.02477">
        <ele>1139</ele>
        <time>2018-09-03T18:51:20Z</time>
      </trkpt>
      <trkpt lat="46.45605" lon="6.02479">
        <ele>1139</ele>
        <time>2018-09-03T18:51:25Z</time>
      </trkpt>
      <trkpt lat="46.45613" lon="6.02487">
        <ele>1139</ele>
        <time>2018-09-03T18:51:35Z</time>
      </trkpt>
      <trkpt lat="46.45619" lon="6.02491">
        <ele>1139</ele>
        <time>2018-09-03T18:51:40Z</time>
      </trkpt>
      <trkpt lat="46.45629" lon="6.02499">
        <ele>1139</ele>
        <time>2018-09-03T18:51:50Z</time>
      </trkpt>
      <trkpt lat="46.45637" lon="6.02508">
        <ele>1138</ele>
        <time>2018-09-03T18:51:55Z</time>
      </trkpt>
      <trkpt lat="46.45646" lon="6.02515">
        <ele>1138</ele>
        <time>2018-09-03T18:52:05Z</time>
      </trkpt>
      <trkpt lat="46.45651" lon="6.02517">
        <ele>1138</ele>
        <time>2018-09-03T18:52:10Z</time>
      </trkpt>
      <trkpt lat="46.45656" lon="6.0252">
        <ele>1138</ele>
        <time>2018-09-03T18:52:15Z</time>
      </trkpt>
      <trkpt lat="46.45667" lon="6.02523">
        <ele>1138</ele>
        <time>2018-09-03T18:52:25Z</time>
      </trkpt>
      <trkpt lat="46.45672" lon="6.02525">
        <ele>1138</ele>
        <time>2018-09-03T18:52:30Z</time>
      </trkpt>
      <trkpt lat="46.45682" lon="6.02529">
        <ele>1138</ele>
        <time>2018-09-03T18:52:40Z</time>
      </trkpt>
      <trkpt lat="46.45686" lon="6.02531">
        <ele>1138</ele>
        <time>2018-09-03T18:52:45Z</time>
      </trkpt>
      <trkpt lat="46.45695" lon="6.02536">
        <ele>1137</ele>
        <time>2018-09-03T18:52:55Z</time>
      </trkpt>
      <trkpt lat="46.45699" lon="6.0254">
        <ele>1137</ele>
        <time>2018-09-03T18:53:00Z</time>
      </trkpt>
      <trkpt lat="46.45704" lon="6.02544">
        <ele>1137</ele>
        <time>2018-09-03T18:53:05Z</time>
      </trkpt>
      <trkpt lat="46.45712" lon="6.02553">
        <ele>1136</ele>
        <time>2018-09-03T18:53:15Z</time>
      </trkpt>
      <trkpt lat="46.45716" lon="6.02557">
        <ele>1136</ele>
        <time>2018-09-03T18:53:20Z</time>
      </trkpt>
      <trkpt lat="46.45726" lon="6.02566">
        <ele>1136</ele>
        <time>2018-09-03T18:53:30Z</time>
      </trkpt>
      <trkpt lat="46.45731" lon="6.02567">
        <ele>1136</ele>
        <time>2018-09-03T18:53:35Z</time>
      </trkpt>
      <trkpt lat="46.45741" lon="6.02571">
        <ele>1135</ele>
        <time>2018-09-03T18:53:45Z</time>
      </trkpt>
      <trkpt lat="46.45747" lon="6.02572">
        <ele>1135</ele>
        <time>2018-09-03T18:53:50Z</time>
      </trkpt>
      <trkpt lat="46.45758" lon="6.02574">
        <ele>1135</ele>
        <time>2018-09-03T18:54:00Z</time>
      </trkpt>
      <trkpt lat="46.45764" lon="6.02575">
        <ele>1135</ele>
        <time>2018-09-03T18:54:05Z</time>
      </trkpt>
      <trkpt lat="46.4577" lon="6.02576">
        <ele>1135</ele>
        <time>2018-09-03T18:54:10Z</time>
      </trkpt>
      <trkpt lat="46.45778" lon="6.02578">
        <ele>1135</ele>
        <time>2018-09-03T18:54:20Z</time>
      </trkpt>
      <trkpt lat="46.45783" lon="6.02581">
        <ele>1135</ele>
        <time>2018-09-03T18:54:25Z</time>
      </trkpt>
      <trkpt lat="46.45793" lon="6.02587">
        <ele>1134</ele>
        <time>2018-09-03T18:54:35Z</time>
      </trkpt>
      <trkpt lat="46.45795" lon="6.02589">
        <ele>1134</ele>
        <time>2018-09-03T18:54:40Z</time>
      </trkpt>
      <trkpt lat="46.45804" lon="6.02601">
        <ele>1133</ele>
        <time>2018-09-03T18:54:50Z</time>
      </trkpt>
      <trkpt lat="46.45807" lon="6.02605">
        <ele>1133</ele>
        <time>2018-09-03T18:54:55Z</time>
      </trkpt>
      <trkpt lat="46.45809" lon="6.02608">
        <ele>1133</ele>
        <time>2018-09-03T18:55:00Z</time>
      </trkpt>
      <trkpt lat="46.45817" lon="6.02619">
        <ele>1132</ele>
        <time>2018-09-03T18:55:10Z</time>
      </trkpt>
      <trkpt lat="46.45821" lon="6.02625">
        <ele>1132</ele>
        <time>2018-09-03T18:55:15Z</time>
      </trkpt>
      <trkpt lat="46.45829" lon="6.02635">
        <ele>1131</ele>
        <time>2018-09-03T18:55:25Z</time>
      </trkpt>
      <trkpt lat="46.45833" lon="6.02642">
        <ele>1131</ele>
        <time>2018-09-03T18:55:30Z</time>
      </trkpt>
      <trkpt lat="46.45841" lon="6.02653">
        <ele>1130</ele>
        <time>2018-09-03T18:55:40Z</time>
      </trkpt>
      <trkpt lat="46.45844" lon="6.02659">
        <ele>1130</ele>
        <time>2018-09-03T18:55:45Z</time>
      </trkpt>
      <trkpt lat="46.45846" lon="6.02662">
        <ele>1130</ele>
        <time>2018-09-03T18:55:50Z</time>
      </trkpt>
      <trkpt lat="46.4585" lon="6.02667">
        <ele>1130</ele>
        <time>2018-09-03T18:56:00Z</time>
      </trkpt>
      <trkpt lat="46.45851" lon="6.0267">
        <ele>1130</ele>
        <time>2018-09-03T18:56:05Z</time>
      </trkpt>
      <trkpt lat="46.45857" lon="6.0268">
        <ele>1130</ele>
        <time>2018-09-03T18:56:15Z</time>
      </trkpt>
      <trkpt lat="46.4586" lon="6.02686">
        <ele>1130</ele>
        <time>2018-09-03T18:56:20Z</time>
      </trkpt>
      <trkpt lat="46.45868" lon="6.02696">
        <ele>1130</ele>
        <time>2018-09-03T18:56:30Z</time>
      </trkpt>
      <trkpt lat="46.45871" lon="6.02702">
        <ele>1130</ele>
        <time>2018-09-03T18:56:35Z</time>
      </trkpt>
      <trkpt lat="46.45874" lon="6.02706">
        <ele>1130</ele>
        <time>2018-09-03T18:56:40Z</time>
      </trkpt>
      <trkpt lat="46.45878" lon="6.02713">
        <ele>1130</ele>
        <time>2018-09-03T18:56:50Z</time>
      </trkpt>
      <trkpt lat="46.45882" lon="6.02717">
        <ele>1130</ele>
        <time>2018-09-03T18:56:55Z</time>
      </trkpt>
      <trkpt lat="46.45891" lon="6.02724">
        <ele>1131</ele>
        <time>2018-09-03T18:57:05Z</time>
      </trkpt>
      <trkpt lat="46.45895" lon="6.02729">
        <ele>1131</ele>
        <time>2018-09-03T18:57:10Z</time>
      </trkpt>
      <trkpt lat="46.45902" lon="6.02738">
        <ele>1131</ele>
        <time>2018-09-03T18:57:20Z</time>
      </trkpt>
      <trkpt lat="46.45906" lon="6.02741">
        <ele>1131</ele>
        <time>2018-09-03T18:57:25Z</time>
      </trkpt>
      <trkpt lat="46.45909" lon="6.02743">
        <ele>1131</ele>
        <time>2018-09-03T18:57:30Z</time>
      </trkpt>
      <trkpt lat="46.45913" lon="6.02746">
        <ele>1131</ele>
        <time>2018-09-03T18:57:40Z</time>
      </trkpt>
      <trkpt lat="46.45916" lon="6.0275">
        <ele>1131</ele>
        <time>2018-09-03T18:57:45Z</time>
      </trkpt>
      <trkpt lat="46.45916" lon="6.0275">
        <ele>1131</ele>
        <time>2018-09-03T18:57:55Z</time>
      </trkpt>
      <trkpt lat="46.45916" lon="6.0275">
        <ele>1131</ele>
        <time>2018-09-03T18:58:00Z</time>
      </trkpt>
      <trkpt lat="46.45921" lon="6.02759">
        <ele>1130</ele>
        <time>2018-09-03T18:58:10Z</time>
      </trkpt>
      <trkpt lat="46.45925" lon="6.02765">
        <ele>1130</ele>
        <time>2018-09-03T18:58:15Z</time>
      </trkpt>
      <trkpt lat="46.45929" lon="6.02774">
        <ele>1129</ele>
        <time>2018-09-03T18:58:25Z</time>
      </trkpt>
      <trkpt lat="46.45931" lon="6.0278">
        <ele>1128</ele>
        <time>2018-09-03T18:58:30Z</time>
      </trkpt>
      <trkpt lat="46.45933" lon="6.02785">
        <ele>1128</ele>
        <time>2018-09-03T18:58:35Z</time>
      </trkpt>
      <trkpt lat="46.45937" lon="6.02797">
        <ele>1127</ele>
        <time>2018-09-03T18:58:45Z</time>
      </trkpt>
      <trkpt lat="46.45938" lon="6.02802">
        <ele>1127</ele>
        <time>2018-09-03T18:58:50Z</time>
      </trkpt>
      <trkpt lat="46.45942" lon="6.0281">
        <ele>1126</ele>
        <time>2018-09-03T18:59:00Z</time>
      </trkpt>
      <trkpt lat="46.45941" lon="6.0281">
        <ele>1126</ele>
        <time>2018-09-03T18:59:05Z</time>
      </trkpt>
      <trkpt lat="46.45946" lon="6.02818">
        <ele>1126</ele>
        <time>2018-09-03T18:59:15Z</time>
      </trkpt>
      <trkpt lat="46.45949" lon="6.02825">
        <ele>1125</ele>
        <time>2018-09-03T18:59:20Z</time>
      </trkpt>
      <trkpt lat="46.45951" lon="6.02831">
        <ele>1125</ele>
        <time>2018-09-03T18:59:25Z</time>
      </trkpt>
      <trkpt lat="46.45956" lon="6.02839">
        <ele>1125</ele>
        <time>2018-09-03T18:59:35Z</time>
      </trkpt>
      <trkpt lat="46.45956" lon="6.02841">
        <ele>1125</ele>
        <time>2018-09-03T18:59:40Z</time>
      </trkpt>
      <trkpt lat="46.45959" lon="6.02844">
        <ele>1124</ele>
        <time>2018-09-03T18:59:50Z</time>
      </trkpt>
      <trkpt lat="46.4596" lon="6.02844">
        <ele>1124</ele>
        <time>2018-09-03T18:59:55Z</time>
      </trkpt>
      <trkpt lat="46.45961" lon="6.02845">
        <ele>1124</ele>
        <time>2018-09-03T19:00:05Z</time>
      </trkpt>
      <trkpt lat="46.45964" lon="6.0285">
        <ele>1124</ele>
        <time>2018-09-03T19:00:10Z</time>
      </trkpt>
      <trkpt lat="46.4597" lon="6.02854">
        <ele>1124</ele>
        <time>2018-09-03T19:00:15Z</time>
      </trkpt>
      <trkpt lat="46.4598" lon="6.02862">
        <ele>1124</ele>
        <time>2018-09-03T19:00:25Z</time>
      </trkpt>
      <trkpt lat="46.45985" lon="6.02864">
        <ele>1124</ele>
        <time>2018-09-03T19:00:30Z</time>
      </trkpt>
      <trkpt lat="46.45995" lon="6.0287">
        <ele>1123</ele>
        <time>2018-09-03T19:00:40Z</time>
      </trkpt>
      <trkpt lat="46.46" lon="6.02873">
        <ele>1123</ele>
        <time>2018-09-03T19:00:45Z</time>
      </trkpt>
      <trkpt lat="46.4601" lon="6.0288">
        <ele>1123</ele>
        <time>2018-09-03T19:00:55Z</time>
      </trkpt>
      <trkpt lat="46.46015" lon="6.02884">
        <ele>1123</ele>
        <time>2018-09-03T19:01:00Z</time>
      </trkpt>
      <trkpt lat="46.46021" lon="6.02888">
        <ele>1122</ele>
        <time>2018-09-03T19:01:05Z</time>
      </trkpt>
      <trkpt lat="46.46032" lon="6.02897">
        <ele>1122</ele>
        <time>2018-09-03T19:01:15Z</time>
      </trkpt>
      <trkpt lat="46.46038" lon="6.02902">
        <ele>1122</ele>
        <time>2018-09-03T19:01:20Z</time>
      </trkpt>
      <trkpt lat="46.46048" lon="6.02913">
        <ele>1121</ele>
        <time>2018-09-03T19:01:30Z</time>
      </trkpt>
      <trkpt lat="46.46053" lon="6.02917">
        <ele>1121</ele>
        <time>2018-09-03T19:01:35Z</time>
      </trkpt>
      <trkpt lat="46.46062" lon="6.02926">
        <ele>1121</ele>
        <time>2018-09-03T19:01:45Z</time>
      </trkpt>
      <trkpt lat="46.46066" lon="6.02932">
        <ele>1120</ele>
        <time>2018-09-03T19:01:50Z</time>
      </trkpt>
      <trkpt lat="46.46068" lon="6.02937">
        <ele>1120</ele>
        <time>2018-09-03T19:01:55Z</time>
      </trkpt>
      <trkpt lat="46.46069" lon="6.02937">
        <ele>1120</ele>
        <time>2018-09-03T19:02:05Z</time>
      </trkpt>
      <trkpt lat="46.46071" lon="6.02938">
        <ele>1120</ele>
        <time>2018-09-03T19:02:10Z</time>
      </trkpt>
      <trkpt lat="46.46082" lon="6.02944">
        <ele>1120</ele>
        <time>2018-09-03T19:02:20Z</time>
      </trkpt>
      <trkpt lat="46.46087" lon="6.02947">
        <ele>1119</ele>
        <time>2018-09-03T19:02:25Z</time>
      </trkpt>
      <trkpt lat="46.46096" lon="6.02956">
        <ele>1119</ele>
        <time>2018-09-03T19:02:35Z</time>
      </trkpt>
      <trkpt lat="46.461" lon="6.02958">
        <ele>1119</ele>
        <time>2018-09-03T19:02:40Z</time>
      </trkpt>
      <trkpt lat="46.4611" lon="6.02959">
        <ele>1119</ele>
        <time>2018-09-03T19:02:50Z</time>
      </trkpt>
      <trkpt lat="46.46115" lon="6.0296">
        <ele>1119</ele>
        <time>2018-09-03T19:02:55Z</time>
      </trkpt>
      <trkpt lat="46.4612" lon="6.02962">
        <ele>1119</ele>
        <time>2018-09-03T19:03:00Z</time>
      </trkpt>
      <trkpt lat="46.46127" lon="6.02963">
        <ele>1119</ele>
        <time>2018-09-03T19:03:10Z</time>
      </trkpt>
      <trkpt lat="46.46129" lon="6.02962">
        <ele>1119</ele>
        <time>2018-09-03T19:03:15Z</time>
      </trkpt>
      <trkpt lat="46.46138" lon="6.02965">
        <ele>1119</ele>
        <time>2018-09-03T19:03:25Z</time>
      </trkpt>
      <trkpt lat="46.46141" lon="6.02966">
        <ele>1119</ele>
        <time>2018-09-03T19:03:30Z</time>
      </trkpt>
      <trkpt lat="46.46142" lon="6.02968">
        <ele>1119</ele>
        <time>2018-09-03T19:03:40Z</time>
      </trkpt>
      <trkpt lat="46.46143" lon="6.02969">
        <ele>1119</ele>
        <time>2018-09-03T19:03:45Z</time>
      </trkpt>
      <trkpt lat="46.46143" lon="6.02969">
        <ele>1119</ele>
        <time>2018-09-03T19:03:50Z</time>
      </trkpt>
      <trkpt lat="46.46143" lon="6.02969">
        <ele>1119</ele>
        <time>2018-09-03T19:04:00Z</time>
      </trkpt>
      <trkpt lat="46.46144" lon="6.02969">
        <ele>1119</ele>
        <time>2018-09-03T19:04:05Z</time>
      </trkpt>
      <trkpt lat="46.46144" lon="6.02969">
        <ele>1119</ele>
        <time>2018-09-03T19:04:15Z</time>
      </trkpt>
      <trkpt lat="46.46144" lon="6.02969">
        <ele>1119</ele>
        <time>2018-09-03T19:04:20Z</time>
      </trkpt>
      <trkpt lat="46.46147" lon="6.02972">
        <ele>1119</ele>
        <time>2018-09-03T19:04:30Z</time>
      </trkpt>
      <trkpt lat="46.4615" lon="6.02975">
        <ele>1119</ele>
        <time>2018-09-03T19:04:35Z</time>
      </trkpt>
      <trkpt lat="46.46151" lon="6.0298">
        <ele>1119</ele>
        <time>2018-09-03T19:04:40Z</time>
      </trkpt>
      <trkpt lat="46.46153" lon="6.02985">
        <ele>1119</ele>
        <time>2018-09-03T19:04:50Z</time>
      </trkpt>
      <trkpt lat="46.46153" lon="6.02986">
        <ele>1119</ele>
        <time>2018-09-03T19:04:55Z</time>
      </trkpt>
      <trkpt lat="46.46152" lon="6.02986">
        <ele>1119</ele>
        <time>2018-09-03T19:05:05Z</time>
      </trkpt>
      <trkpt lat="46.46152" lon="6.02986">
        <ele>1119</ele>
        <time>2018-09-03T19:05:10Z</time>
      </trkpt>
      <trkpt lat="46.46153" lon="6.02985">
        <ele>1119</ele>
        <time>2018-09-03T19:05:20Z</time>
      </trkpt>
      <trkpt lat="46.46153" lon="6.02984">
        <ele>1119</ele>
        <time>2018-09-03T19:05:25Z</time>
      </trkpt>
      <trkpt lat="46.46153" lon="6.02985">
        <ele>1119</ele>
        <time>2018-09-03T19:05:30Z</time>
      </trkpt>
      <trkpt lat="46.46154" lon="6.02984">
        <ele>1119</ele>
        <time>2018-09-03T19:05:40Z</time>
      </trkpt>
      <trkpt lat="46.46154" lon="6.02984">
        <ele>1119</ele>
        <time>2018-09-03T19:05:45Z</time>
      </trkpt>
      <trkpt lat="46.46156" lon="6.02986">
        <ele>1119</ele>
        <time>2018-09-03T19:05:55Z</time>
      </trkpt>
      <trkpt lat="46.46158" lon="6.02987">
        <ele>1119</ele>
        <time>2018-09-03T19:06:00Z</time>
      </trkpt>
      <trkpt lat="46.46164" lon="6.02996">
        <ele>1119</ele>
        <time>2018-09-03T19:06:10Z</time>
      </trkpt>
      <trkpt lat="46.46167" lon="6.02998">
        <ele>1119</ele>
        <time>2018-09-03T19:06:15Z</time>
      </trkpt>
      <trkpt lat="46.46171" lon="6.03003">
        <ele>1119</ele>
        <time>2018-09-03T19:06:20Z</time>
      </trkpt>
      <trkpt lat="46.4618" lon="6.03012">
        <ele>1119</ele>
        <time>2018-09-03T19:06:30Z</time>
      </trkpt>
      <trkpt lat="46.46184" lon="6.03017">
        <ele>1119</ele>
        <time>2018-09-03T19:06:35Z</time>
      </trkpt>
      <trkpt lat="46.46189" lon="6.03032">
        <ele>1119</ele>
        <time>2018-09-03T19:06:45Z</time>
      </trkpt>
      <trkpt lat="46.46193" lon="6.03036">
        <ele>1119</ele>
        <time>2018-09-03T19:06:50Z</time>
      </trkpt>
      <trkpt lat="46.46202" lon="6.03044">
        <ele>1119</ele>
        <time>2018-09-03T19:07:00Z</time>
      </trkpt>
      <trkpt lat="46.46204" lon="6.03047">
        <ele>1119</ele>
        <time>2018-09-03T19:07:05Z</time>
      </trkpt>
      <trkpt lat="46.46206" lon="6.03048">
        <ele>1119</ele>
        <time>2018-09-03T19:07:15Z</time>
      </trkpt>
      <trkpt lat="46.46205" lon="6.03051">
        <ele>1119</ele>
        <time>2018-09-03T19:07:20Z</time>
      </trkpt>
      <trkpt lat="46.46202" lon="6.03058">
        <ele>1119</ele>
        <time>2018-09-03T19:07:25Z</time>
      </trkpt>
      <trkpt lat="46.46203" lon="6.03068">
        <ele>1119</ele>
        <time>2018-09-03T19:07:35Z</time>
      </trkpt>
      <trkpt lat="46.46204" lon="6.03069">
        <ele>1119</ele>
        <time>2018-09-03T19:07:40Z</time>
      </trkpt>
      <trkpt lat="46.46207" lon="6.03073">
        <ele>1119</ele>
        <time>2018-09-03T19:07:50Z</time>
      </trkpt>
      <trkpt lat="46.46209" lon="6.03074">
        <ele>1119</ele>
        <time>2018-09-03T19:07:55Z</time>
      </trkpt>
      <trkpt lat="46.46216" lon="6.03085">
        <ele>1119</ele>
        <time>2018-09-03T19:08:05Z</time>
      </trkpt>
      <trkpt lat="46.46217" lon="6.03089">
        <ele>1119</ele>
        <time>2018-09-03T19:08:10Z</time>
      </trkpt>
      <trkpt lat="46.46216" lon="6.03091">
        <ele>1119</ele>
        <time>2018-09-03T19:08:15Z</time>
      </trkpt>
      <trkpt lat="46.46216" lon="6.03091">
        <ele>1119</ele>
        <time>2018-09-03T19:08:25Z</time>
      </trkpt>
      <trkpt lat="46.46217" lon="6.03092">
        <ele>1119</ele>
        <time>2018-09-03T19:08:30Z</time>
      </trkpt>
      <trkpt lat="46.46219" lon="6.03104">
        <ele>1119</ele>
        <time>2018-09-03T19:08:40Z</time>
      </trkpt>
      <trkpt lat="46.46222" lon="6.03107">
        <ele>1119</ele>
        <time>2018-09-03T19:08:45Z</time>
      </trkpt>
      <trkpt lat="46.46226" lon="6.03118">
        <ele>1119</ele>
        <time>2018-09-03T19:08:55Z</time>
      </trkpt>
      <trkpt lat="46.46229" lon="6.03122">
        <ele>1119</ele>
        <time>2018-09-03T19:09:00Z</time>
      </trkpt>
      <trkpt lat="46.46233" lon="6.03128">
        <ele>1119</ele>
        <time>2018-09-03T19:09:05Z</time>
      </trkpt>
      <trkpt lat="46.46236" lon="6.03133">
        <ele>1119</ele>
        <time>2018-09-03T19:09:15Z</time>
      </trkpt>
      <trkpt lat="46.46238" lon="6.03136">
        <ele>1119</ele>
        <time>2018-09-03T19:09:20Z</time>
      </trkpt>
      <trkpt lat="46.46237" lon="6.03134">
        <ele>1119</ele>
        <time>2018-09-03T19:09:30Z</time>
      </trkpt>
      <trkpt lat="46.46237" lon="6.03135">
        <ele>1119</ele>
        <time>2018-09-03T19:09:35Z</time>
      </trkpt>
      <trkpt lat="46.46245" lon="6.03132">
        <ele>1119</ele>
        <time>2018-09-03T19:09:45Z</time>
      </trkpt>
      <trkpt lat="46.46255" lon="6.03131">
        <ele>1119</ele>
        <time>2018-09-03T19:09:50Z</time>
      </trkpt>
      <trkpt lat="46.46262" lon="6.03131">
        <ele>1118</ele>
        <time>2018-09-03T19:09:55Z</time>
      </trkpt>
      <trkpt lat="46.46272" lon="6.03128">
        <ele>1116</ele>
        <time>2018-09-03T19:10:05Z</time>
      </trkpt>
      <trkpt lat="46.46277" lon="6.03126">
        <ele>1116</ele>
        <time>2018-09-03T19:10:10Z</time>
      </trkpt>
      <trkpt lat="46.46284" lon="6.03131">
        <ele>1115</ele>
        <time>2018-09-03T19:10:20Z</time>
      </trkpt>
      <trkpt lat="46.46285" lon="6.0313">
        <ele>1115</ele>
        <time>2018-09-03T19:10:25Z</time>
      </trkpt>
      <trkpt lat="46.46281" lon="6.03124">
        <ele>1115</ele>
        <time>2018-09-03T19:10:35Z</time>
      </trkpt>
      <trkpt lat="46.46276" lon="6.03123">
        <ele>1116</ele>
        <time>2018-09-03T19:10:40Z</time>
      </trkpt>
      <trkpt lat="46.46272" lon="6.03123">
        <ele>1116</ele>
        <time>2018-09-03T19:10:45Z</time>
      </trkpt>
      <trkpt lat="46.4627" lon="6.03126">
        <ele>1117</ele>
        <time>2018-09-03T19:10:55Z</time>
      </trkpt>
      <trkpt lat="46.46269" lon="6.03128">
        <ele>1117</ele>
        <time>2018-09-03T19:11:00Z</time>
      </trkpt>
      <trkpt lat="46.46258" lon="6.0313">
        <ele>1118</ele>
        <time>2018-09-03T19:11:10Z</time>
      </trkpt>
      <trkpt lat="46.46252" lon="6.0313">
        <ele>1119</ele>
        <time>2018-09-03T19:11:15Z</time>
      </trkpt>
      <trkpt lat="46.46242" lon="6.03128">
        <ele>1119</ele>
        <time>2018-09-03T19:11:25Z</time>
      </trkpt>
      <trkpt lat="46.46236" lon="6.03128">
        <ele>1119</ele>
        <time>2018-09-03T19:11:30Z</time>
      </trkpt>
      <trkpt lat="46.46223" lon="6.0312">
        <ele>1119</ele>
        <time>2018-09-03T19:11:40Z</time>
      </trkpt>
      <trkpt lat="46.46216" lon="6.03123">
        <ele>1119</ele>
        <time>2018-09-03T19:11:45Z</time>
      </trkpt>
      <trkpt lat="46.4621" lon="6.03125">
        <ele>1119</ele>
        <time>2018-09-03T19:11:50Z</time>
      </trkpt>
      <trkpt lat="46.462" lon="6.03131">
        <ele>1120</ele>
        <time>2018-09-03T19:12:00Z</time>
      </trkpt>
      <trkpt lat="46.46197" lon="6.03132">
        <ele>1120</ele>
        <time>2018-09-03T19:12:05Z</time>
      </trkpt>
      <trkpt lat="46.46191" lon="6.03139">
        <ele>1120</ele>
        <time>2018-09-03T19:12:15Z</time>
      </trkpt>
      <trkpt lat="46.46189" lon="6.0314">
        <ele>1120</ele>
        <time>2018-09-03T19:12:20Z</time>
      </trkpt>
      <trkpt lat="46.4619" lon="6.03143">
        <ele>1120</ele>
        <time>2018-09-03T19:12:30Z</time>
      </trkpt>
      <trkpt lat="46.4619" lon="6.03143">
        <ele>1120</ele>
        <time>2018-09-03T19:12:35Z</time>
      </trkpt>
      <trkpt lat="46.46189" lon="6.03142">
        <ele>1120</ele>
        <time>2018-09-03T19:12:40Z</time>
      </trkpt>
      <trkpt lat="46.46189" lon="6.03141">
        <ele>1120</ele>
        <time>2018-09-03T19:12:50Z</time>
      </trkpt>
      <trkpt lat="46.46189" lon="6.03141">
        <ele>1120</ele>
        <time>2018-09-03T19:12:55Z</time>
      </trkpt>
      <trkpt lat="46.46189" lon="6.03141">
        <ele>1120</ele>
        <time>2018-09-03T19:13:05Z</time>
      </trkpt>
      <trkpt lat="46.46189" lon="6.03141">
        <ele>1120</ele>
        <time>2018-09-03T19:13:10Z</time>
      </trkpt>
      <trkpt lat="46.46188" lon="6.03141">
        <ele>1120</ele>
        <time>2018-09-03T19:13:20Z</time>
      </trkpt>
      <trkpt lat="46.46189" lon="6.03141">
        <ele>1120</ele>
        <time>2018-09-03T19:13:25Z</time>
      </trkpt>
      <trkpt lat="46.46189" lon="6.03141">
        <ele>1120</ele>
        <time>2018-09-03T19:13:30Z</time>
      </trkpt>
      <trkpt lat="46.46189" lon="6.03141">
        <ele>1120</ele>
        <time>2018-09-03T19:13:40Z</time>
      </trkpt>
      <trkpt lat="46.46189" lon="6.03141">
        <ele>1120</ele>
        <time>2018-09-03T19:13:45Z</time>
      </trkpt>
      <trkpt lat="46.46189" lon="6.03141">
        <ele>1120</ele>
        <time>2018-09-03T19:13:55Z</time>
      </trkpt>
      <trkpt lat="46.46189" lon="6.03141">
        <ele>1120</ele>
        <time>2018-09-03T19:14:00Z</time>
      </trkpt>
      <trkpt lat="46.46189" lon="6.03141">
        <ele>1120</ele>
        <time>2018-09-03T19:14:10Z</time>
      </trkpt>
      <trkpt lat="46.46189" lon="6.03141">
        <ele>1120</ele>
        <time>2018-09-03T19:14:15Z</time>
      </trkpt>
      <trkpt lat="46.46189" lon="6.03141">
        <ele>1120</ele>
        <time>2018-09-03T19:14:20Z</time>
      </trkpt>
      <trkpt lat="46.46189" lon="6.03141">
        <ele>1120</ele>
        <time>2018-09-03T19:14:30Z</time>
      </trkpt>
      <trkpt lat="46.46189" lon="6.03141">
        <ele>1120</ele>
        <time>2018-09-03T19:14:35Z</time>
      </trkpt>
      <trkpt lat="46.46189" lon="6.03141">
        <ele>1120</ele>
        <time>2018-09-03T19:14:45Z</time>
      </trkpt>
      <trkpt lat="46.46189" lon="6.03141">
        <ele>1120</ele>
        <time>2018-09-03T19:14:50Z</time>
      </trkpt>
      <trkpt lat="46.46189" lon="6.03141">
        <ele>1120</ele>
        <time>2018-09-03T19:15:00Z</time>
      </trkpt>
      <trkpt lat="46.46189" lon="6.03141">
        <ele>1120</ele>
        <time>2018-09-03T19:15:05Z</time>
      </trkpt>
      <trkpt lat="46.46189" lon="6.03141">
        <ele>1120</ele>
        <time>2018-09-03T19:15:10Z</time>
      </trkpt>
      <trkpt lat="46.46189" lon="6.03141">
        <ele>1120</ele>
        <time>2018-09-03T19:15:20Z</time>
      </trkpt>
      <trkpt lat="46.46189" lon="6.03141">
        <ele>1120</ele>
        <time>2018-09-03T19:15:25Z</time>
      </trkpt>
      <trkpt lat="46.46189" lon="6.03141">
        <ele>1120</ele>
        <time>2018-09-03T19:15:35Z</time>
      </trkpt>
      <trkpt lat="46.46189" lon="6.03141">
        <ele>1120</ele>
        <time>2018-09-03T19:15:40Z</time>
      </trkpt>
      <trkpt lat="46.46189" lon="6.03141">
        <ele>1120</ele>
        <time>2018-09-03T19:15:50Z</time>
      </trkpt>
      <trkpt lat="46.46189" lon="6.03141">
        <ele>1120</ele>
        <time>2018-09-03T19:15:55Z</time>
      </trkpt>
      <trkpt lat="46.46189" lon="6.03141">
        <ele>1120</ele>
        <time>2018-09-03T19:16:05Z</time>
      </trkpt>
      <trkpt lat="46.46189" lon="6.03141">
        <ele>1120</ele>
        <time>2018-09-03T19:16:10Z</time>
      </trkpt>
      <trkpt lat="46.46189" lon="6.03141">
        <ele>1120</ele>
        <time>2018-09-03T19:16:15Z</time>
      </trkpt>
      <trkpt lat="46.46189" lon="6.03141">
        <ele>1120</ele>
        <time>2018-09-03T19:16:25Z</time>
      </trkpt>
      <trkpt lat="46.46189" lon="6.03141">
        <ele>1120</ele>
        <time>2018-09-03T19:16:30Z</time>
      </trkpt>
      <trkpt lat="46.46189" lon="6.03141">
        <ele>1120</ele>
        <time>2018-09-03T19:16:40Z</time>
      </trkpt>
      <trkpt lat="46.46189" lon="6.03141">
        <ele>1120</ele>
        <time>2018-09-03T19:16:45Z</time>
      </trkpt>
      <trkpt lat="46.46189" lon="6.03141">
        <ele>1120</ele>
        <time>2018-09-03T19:16:55Z</time>
      </trkpt>
      <trkpt lat="46.46189" lon="6.03141">
        <ele>1120</ele>
        <time>2018-09-03T19:17:00Z</time>
      </trkpt>
      <trkpt lat="46.46189" lon="6.03141">
        <ele>1120</ele>
        <time>2018-09-03T19:17:05Z</time>
      </trkpt>
      <trkpt lat="46.4619" lon="6.03139">
        <ele>1120</ele>
        <time>2018-09-03T19:17:15Z</time>
      </trkpt>
      <trkpt lat="46.4619" lon="6.03139">
        <ele>1120</ele>
        <time>2018-09-03T19:17:20Z</time>
      </trkpt>
      <trkpt lat="46.46189" lon="6.03139">
        <ele>1120</ele>
        <time>2018-09-03T19:17:30Z</time>
      </trkpt>
      <trkpt lat="46.46189" lon="6.03139">
        <ele>1120</ele>
        <time>2018-09-03T19:17:35Z</time>
      </trkpt>
      <trkpt lat="46.46189" lon="6.03139">
        <ele>1120</ele>
        <time>2018-09-03T19:17:45Z</time>
      </trkpt>
      <trkpt lat="46.46189" lon="6.03139">
        <ele>1120</ele>
        <time>2018-09-03T19:17:50Z</time>
      </trkpt>
      <trkpt lat="46.4619" lon="6.03139">
        <ele>1120</ele>
        <time>2018-09-03T19:17:55Z</time>
      </trkpt>
      <trkpt lat="46.4619" lon="6.03139">
        <ele>1120</ele>
        <time>2018-09-03T19:18:05Z</time>
      </trkpt>
      <trkpt lat="46.4619" lon="6.0314">
        <ele>1120</ele>
        <time>2018-09-03T19:18:10Z</time>
      </trkpt>
      <trkpt lat="46.4619" lon="6.0314">
        <ele>1120</ele>
        <time>2018-09-03T19:18:20Z</time>
      </trkpt>
      <trkpt lat="46.4619" lon="6.03141">
        <ele>1120</ele>
        <time>2018-09-03T19:18:25Z</time>
      </trkpt>
      <trkpt lat="46.46189" lon="6.03144">
        <ele>1120</ele>
        <time>2018-09-03T19:18:35Z</time>
      </trkpt>
      <trkpt lat="46.46189" lon="6.03144">
        <ele>1120</ele>
        <time>2018-09-03T19:18:40Z</time>
      </trkpt>
      <trkpt lat="46.46189" lon="6.03144">
        <ele>1120</ele>
        <time>2018-09-03T19:18:45Z</time>
      </trkpt>
      <trkpt lat="46.46189" lon="6.03143">
        <ele>1120</ele>
        <time>2018-09-03T19:18:55Z</time>
      </trkpt>
      <trkpt lat="46.46189" lon="6.03144">
        <ele>1120</ele>
        <time>2018-09-03T19:19:00Z</time>
      </trkpt>
      <trkpt lat="46.46189" lon="6.03144">
        <ele>1120</ele>
        <time>2018-09-03T19:19:10Z</time>
      </trkpt>
      <trkpt lat="46.46189" lon="6.03144">
        <ele>1120</ele>
        <time>2018-09-03T19:19:15Z</time>
      </trkpt>
      <trkpt lat="46.46189" lon="6.03144">
        <ele>1120</ele>
        <time>2018-09-03T19:19:25Z</time>
      </trkpt>
      <trkpt lat="46.46189" lon="6.03144">
        <ele>1120</ele>
        <time>2018-09-03T19:19:30Z</time>
      </trkpt>
      <trkpt lat="46.46189" lon="6.03144">
        <ele>1120</ele>
        <time>2018-09-03T19:19:35Z</time>
      </trkpt>
      <trkpt lat="46.46189" lon="6.03144">
        <ele>1120</ele>
        <time>2018-09-03T19:19:45Z</time>
      </trkpt>
      <trkpt lat="46.46189" lon="6.03144">
        <ele>1120</ele>
        <time>2018-09-03T19:19:50Z</time>
      </trkpt>
      <trkpt lat="46.46189" lon="6.03144">
        <ele>1120</ele>
        <time>2018-09-03T19:20:00Z</time>
      </trkpt>
      <trkpt lat="46.46189" lon="6.03144">
        <ele>1120</ele>
        <time>2018-09-03T19:20:05Z</time>
      </trkpt>
      <trkpt lat="46.46189" lon="6.03144">
        <ele>1120</ele>
        <time>2018-09-03T19:20:15Z</time>
      </trkpt>
      <trkpt lat="46.46189" lon="6.03144">
        <ele>1120</ele>
        <time>2018-09-03T19:20:20Z</time>
      </trkpt>
      <trkpt lat="46.46189" lon="6.03144">
        <ele>1120</ele>
        <time>2018-09-03T19:20:30Z</time>
      </trkpt>
      <trkpt lat="46.46191" lon="6.03141">
        <ele>1120</ele>
        <time>2018-09-03T19:20:35Z</time>
      </trkpt>
      <trkpt lat="46.46193" lon="6.03138">
        <ele>1120</ele>
        <time>2018-09-03T19:20:40Z</time>
      </trkpt>
      <trkpt lat="46.46204" lon="6.03132">
        <ele>1119</ele>
        <time>2018-09-03T19:20:50Z</time>
      </trkpt>
      <trkpt lat="46.46209" lon="6.03131">
        <ele>1119</ele>
        <time>2018-09-03T19:20:55Z</time>
      </trkpt>
      <trkpt lat="46.46222" lon="6.03123">
        <ele>1119</ele>
        <time>2018-09-03T19:21:05Z</time>
      </trkpt>
      <trkpt lat="46.46227" lon="6.03121">
        <ele>1119</ele>
        <time>2018-09-03T19:21:10Z</time>
      </trkpt>
      <trkpt lat="46.46235" lon="6.03125">
        <ele>1119</ele>
        <time>2018-09-03T19:21:20Z</time>
      </trkpt>
      <trkpt lat="46.46239" lon="6.03127">
        <ele>1119</ele>
        <time>2018-09-03T19:21:25Z</time>
      </trkpt>
      <trkpt lat="46.46243" lon="6.03126">
        <ele>1119</ele>
        <time>2018-09-03T19:21:30Z</time>
      </trkpt>
      <trkpt lat="46.46249" lon="6.03128">
        <ele>1119</ele>
        <time>2018-09-03T19:21:40Z</time>
      </trkpt>
      <trkpt lat="46.46254" lon="6.03125">
        <ele>1119</ele>
        <time>2018-09-03T19:21:45Z</time>
      </trkpt>
      <trkpt lat="46.46261" lon="6.03122">
        <ele>1118</ele>
        <time>2018-09-03T19:21:55Z</time>
      </trkpt>
      <trkpt lat="46.46266" lon="6.03123">
        <ele>1117</ele>
        <time>2018-09-03T19:22:00Z</time>
      </trkpt>
      <trkpt lat="46.46274" lon="6.03128">
        <ele>1116</ele>
        <time>2018-09-03T19:22:10Z</time>
      </trkpt>
      <trkpt lat="46.46278" lon="6.03126">
        <ele>1115</ele>
        <time>2018-09-03T19:22:15Z</time>
      </trkpt>
      <trkpt lat="46.46281" lon="6.03124">
        <ele>1115</ele>
        <time>2018-09-03T19:22:20Z</time>
      </trkpt>
      <trkpt lat="46.46288" lon="6.03128">
        <ele>1114</ele>
        <time>2018-09-03T19:22:30Z</time>
      </trkpt>
      <trkpt lat="46.4629" lon="6.03132">
        <ele>1114</ele>
        <time>2018-09-03T19:22:35Z</time>
      </trkpt>
      <trkpt lat="46.4629" lon="6.03135">
        <ele>1114</ele>
        <time>2018-09-03T19:22:45Z</time>
      </trkpt>
      <trkpt lat="46.4629" lon="6.03131">
        <ele>1114</ele>
        <time>2018-09-03T19:22:50Z</time>
      </trkpt>
      <trkpt lat="46.46299" lon="6.03126">
        <ele>1113</ele>
        <time>2018-09-03T19:23:00Z</time>
      </trkpt>
      <trkpt lat="46.46303" lon="6.03122">
        <ele>1112</ele>
        <time>2018-09-03T19:23:05Z</time>
      </trkpt>
      <trkpt lat="46.46306" lon="6.0312">
        <ele>1111</ele>
        <time>2018-09-03T19:23:10Z</time>
      </trkpt>
      <trkpt lat="46.46313" lon="6.03116">
        <ele>1110</ele>
        <time>2018-09-03T19:23:20Z</time>
      </trkpt>
      <trkpt lat="46.46317" lon="6.03113">
        <ele>1109</ele>
        <time>2018-09-03T19:23:25Z</time>
      </trkpt>
      <trkpt lat="46.46324" lon="6.03109">
        <ele>1108</ele>
        <time>2018-09-03T19:23:35Z</time>
      </trkpt>
      <trkpt lat="46.46329" lon="6.03109">
        <ele>1107</ele>
        <time>2018-09-03T19:23:40Z</time>
      </trkpt>
      <trkpt lat="46.46334" lon="6.0311">
        <ele>1107</ele>
        <time>2018-09-03T19:23:50Z</time>
      </trkpt>
      <trkpt lat="46.46337" lon="6.03111">
        <ele>1106</ele>
        <time>2018-09-03T19:23:55Z</time>
      </trkpt>
      <trkpt lat="46.4634" lon="6.03109">
        <ele>1106</ele>
        <time>2018-09-03T19:24:00Z</time>
      </trkpt>
      <trkpt lat="46.46343" lon="6.03106">
        <ele>1105</ele>
        <time>2018-09-03T19:24:10Z</time>
      </trkpt>
      <trkpt lat="46.46343" lon="6.03109">
        <ele>1105</ele>
        <time>2018-09-03T19:24:15Z</time>
      </trkpt>
      <trkpt lat="46.46342" lon="6.03106">
        <ele>1105</ele>
        <time>2018-09-03T19:24:25Z</time>
      </trkpt>
      <trkpt lat="46.46342" lon="6.03107">
        <ele>1105</ele>
        <time>2018-09-03T19:24:30Z</time>
      </trkpt>
      <trkpt lat="46.46343" lon="6.03107">
        <ele>1105</ele>
        <time>2018-09-03T19:24:40Z</time>
      </trkpt>
      <trkpt lat="46.46343" lon="6.03106">
        <ele>1105</ele>
        <time>2018-09-03T19:24:45Z</time>
      </trkpt>
      <trkpt lat="46.46334" lon="6.03103">
        <ele>1106</ele>
        <time>2018-09-03T19:24:55Z</time>
      </trkpt>
      <trkpt lat="46.46331" lon="6.03104">
        <ele>1107</ele>
        <time>2018-09-03T19:25:00Z</time>
      </trkpt>
      <trkpt lat="46.46327" lon="6.03107">
        <ele>1108</ele>
        <time>2018-09-03T19:25:05Z</time>
      </trkpt>
      <trkpt lat="46.46325" lon="6.0311">
        <ele>1108</ele>
        <time>2018-09-03T19:25:15Z</time>
      </trkpt>
      <trkpt lat="46.46323" lon="6.03109">
        <ele>1108</ele>
        <time>2018-09-03T19:25:20Z</time>
      </trkpt>
      <trkpt lat="46.46313" lon="6.03112">
        <ele>1110</ele>
        <time>2018-09-03T19:25:30Z</time>
      </trkpt>
      <trkpt lat="46.46308" lon="6.03114">
        <ele>1111</ele>
        <time>2018-09-03T19:25:35Z</time>
      </trkpt>
      <trkpt lat="46.46304" lon="6.03123">
        <ele>1112</ele>
        <time>2018-09-03T19:25:45Z</time>
      </trkpt>
      <trkpt lat="46.46304" lon="6.0313">
        <ele>1112</ele>
        <time>2018-09-03T19:25:50Z</time>
      </trkpt>
      <trkpt lat="46.46301" lon="6.03131">
        <ele>1112</ele>
        <time>2018-09-03T19:25:55Z</time>
      </trkpt>
      <trkpt lat="46.46292" lon="6.03123">
        <ele>1113</ele>
        <time>2018-09-03T19:26:05Z</time>
      </trkpt>
      <trkpt lat="46.46288" lon="6.03125">
        <ele>1114</ele>
        <time>2018-09-03T19:26:10Z</time>
      </trkpt>
      <trkpt lat="46.46296" lon="6.03139">
        <ele>1113</ele>
        <time>2018-09-03T19:26:20Z</time>
      </trkpt>
      <trkpt lat="46.463" lon="6.03143">
        <ele>1113</ele>
        <time>2018-09-03T19:26:25Z</time>
      </trkpt>
      <trkpt lat="46.46308" lon="6.03155">
        <ele>1112</ele>
        <time>2018-09-03T19:26:35Z</time>
      </trkpt>
      <trkpt lat="46.46311" lon="6.0316">
        <ele>1112</ele>
        <time>2018-09-03T19:26:40Z</time>
      </trkpt>
      <trkpt lat="46.46314" lon="6.03165">
        <ele>1112</ele>
        <time>2018-09-03T19:26:45Z</time>
      </trkpt>
      <trkpt lat="46.46322" lon="6.03177">
        <ele>1111</ele>
        <time>2018-09-03T19:26:55Z</time>
      </trkpt>
      <trkpt lat="46.46326" lon="6.03183">
        <ele>1111</ele>
        <time>2018-09-03T19:27:00Z</time>
      </trkpt>
      <trkpt lat="46.46334" lon="6.03191">
        <ele>1110</ele>
        <time>2018-09-03T19:27:10Z</time>
      </trkpt>
      <trkpt lat="46.46339" lon="6.03196">
        <ele>1109</ele>
        <time>2018-09-03T19:27:15Z</time>
      </trkpt>
      <trkpt lat="46.46347" lon="6.03207">
        <ele>1108</ele>
        <time>2018-09-03T19:27:25Z</time>
      </trkpt>
      <trkpt lat="46.46353" lon="6.03212">
        <ele>1107</ele>
        <time>2018-09-03T19:27:30Z</time>
      </trkpt>
      <trkpt lat="46.46357" lon="6.03217">
        <ele>1106</ele>
        <time>2018-09-03T19:27:35Z</time>
      </trkpt>
      <trkpt lat="46.46369" lon="6.03221">
        <ele>1104</ele>
        <time>2018-09-03T19:27:45Z</time>
      </trkpt>
      <trkpt lat="46.46375" lon="6.03223">
        <ele>1103</ele>
        <time>2018-09-03T19:27:50Z</time>
      </trkpt>
      <trkpt lat="46.46386" lon="6.03227">
        <ele>1101</ele>
        <time>2018-09-03T19:28:00Z</time>
      </trkpt>
      <trkpt lat="46.46391" lon="6.03229">
        <ele>1100</ele>
        <time>2018-09-03T19:28:05Z</time>
      </trkpt>
      <trkpt lat="46.46402" lon="6.03228">
        <ele>1098</ele>
        <time>2018-09-03T19:28:15Z</time>
      </trkpt>
      <trkpt lat="46.46407" lon="6.03228">
        <ele>1097</ele>
        <time>2018-09-03T19:28:20Z</time>
      </trkpt>
      <trkpt lat="46.46413" lon="6.03229">
        <ele>1096</ele>
        <time>2018-09-03T19:28:25Z</time>
      </trkpt>
      <trkpt lat="46.46421" lon="6.03238">
        <ele>1095</ele>
        <time>2018-09-03T19:28:35Z</time>
      </trkpt>
      <trkpt lat="46.46424" lon="6.03245">
        <ele>1095</ele>
        <time>2018-09-03T19:28:40Z</time>
      </trkpt>
      <trkpt lat="46.46431" lon="6.03258">
        <ele>1095</ele>
        <time>2018-09-03T19:28:50Z</time>
      </trkpt>
      <trkpt lat="46.46436" lon="6.03262">
        <ele>1094</ele>
        <time>2018-09-03T19:28:55Z</time>
      </trkpt>
      <trkpt lat="46.46444" lon="6.03265">
        <ele>1093</ele>
        <time>2018-09-03T19:29:05Z</time>
      </trkpt>
      <trkpt lat="46.46448" lon="6.03267">
        <ele>1093</ele>
        <time>2018-09-03T19:29:10Z</time>
      </trkpt>
      <trkpt lat="46.46458" lon="6.03268">
        <ele>1091</ele>
        <time>2018-09-03T19:29:20Z</time>
      </trkpt>
      <trkpt lat="46.46464" lon="6.03268">
        <ele>1091</ele>
        <time>2018-09-03T19:29:25Z</time>
      </trkpt>
      <trkpt lat="46.4647" lon="6.03266">
        <ele>1090</ele>
        <time>2018-09-03T19:29:30Z</time>
      </trkpt>
      <trkpt lat="46.46479" lon="6.03269">
        <ele>1089</ele>
        <time>2018-09-03T19:29:40Z</time>
      </trkpt>
      <trkpt lat="46.46484" lon="6.0327">
        <ele>1089</ele>
        <time>2018-09-03T19:29:45Z</time>
      </trkpt>
      <trkpt lat="46.46492" lon="6.03269">
        <ele>1088</ele>
        <time>2018-09-03T19:29:55Z</time>
      </trkpt>
      <trkpt lat="46.46496" lon="6.03269">
        <ele>1088</ele>
        <time>2018-09-03T19:30:00Z</time>
      </trkpt>
      <trkpt lat="46.46502" lon="6.03267">
        <ele>1087</ele>
        <time>2018-09-03T19:30:10Z</time>
      </trkpt>
      <trkpt lat="46.46506" lon="6.03267">
        <ele>1087</ele>
        <time>2018-09-03T19:30:15Z</time>
      </trkpt>
      <trkpt lat="46.4651" lon="6.03267">
        <ele>1086</ele>
        <time>2018-09-03T19:30:20Z</time>
      </trkpt>
      <trkpt lat="46.46518" lon="6.03268">
        <ele>1086</ele>
        <time>2018-09-03T19:30:30Z</time>
      </trkpt>
      <trkpt lat="46.46522" lon="6.03268">
        <ele>1085</ele>
        <time>2018-09-03T19:30:35Z</time>
      </trkpt>
      <trkpt lat="46.46525" lon="6.03269">
        <ele>1085</ele>
        <time>2018-09-03T19:30:45Z</time>
      </trkpt>
      <trkpt lat="46.46526" lon="6.0327">
        <ele>1085</ele>
        <time>2018-09-03T19:30:50Z</time>
      </trkpt>
      <trkpt lat="46.46532" lon="6.03274">
        <ele>1085</ele>
        <time>2018-09-03T19:31:00Z</time>
      </trkpt>
      <trkpt lat="46.46535" lon="6.03277">
        <ele>1085</ele>
        <time>2018-09-03T19:31:05Z</time>
      </trkpt>
      <trkpt lat="46.46536" lon="6.03282">
        <ele>1085</ele>
        <time>2018-09-03T19:31:10Z</time>
      </trkpt>
      <trkpt lat="46.46538" lon="6.03292">
        <ele>1086</ele>
        <time>2018-09-03T19:31:20Z</time>
      </trkpt>
      <trkpt lat="46.4654" lon="6.03296">
        <ele>1086</ele>
        <time>2018-09-03T19:31:25Z</time>
      </trkpt>
      <trkpt lat="46.4654" lon="6.03306">
        <ele>1087</ele>
        <time>2018-09-03T19:31:35Z</time>
      </trkpt>
      <trkpt lat="46.46539" lon="6.03314">
        <ele>1088</ele>
        <time>2018-09-03T19:31:40Z</time>
      </trkpt>
      <trkpt lat="46.46533" lon="6.03327">
        <ele>1090</ele>
        <time>2018-09-03T19:31:50Z</time>
      </trkpt>
      <trkpt lat="46.46531" lon="6.03334">
        <ele>1091</ele>
        <time>2018-09-03T19:31:55Z</time>
      </trkpt>
      <trkpt lat="46.46529" lon="6.03339">
        <ele>1091</ele>
        <time>2018-09-03T19:32:00Z</time>
      </trkpt>
      <trkpt lat="46.46525" lon="6.0335">
        <ele>1093</ele>
        <time>2018-09-03T19:32:10Z</time>
      </trkpt>
      <trkpt lat="46.46523" lon="6.03355">
        <ele>1093</ele>
        <time>2018-09-03T19:32:15Z</time>
      </trkpt>
      <trkpt lat="46.46518" lon="6.03367">
        <ele>1095</ele>
        <time>2018-09-03T19:32:25Z</time>
      </trkpt>
      <trkpt lat="46.46516" lon="6.03374">
        <ele>1096</ele>
        <time>2018-09-03T19:32:30Z</time>
      </trkpt>
      <trkpt lat="46.46516" lon="6.03385">
        <ele>1097</ele>
        <time>2018-09-03T19:32:40Z</time>
      </trkpt>
      <trkpt lat="46.46515" lon="6.03393">
        <ele>1097</ele>
        <time>2018-09-03T19:32:45Z</time>
      </trkpt>
      <trkpt lat="46.46515" lon="6.03401">
        <ele>1098</ele>
        <time>2018-09-03T19:32:50Z</time>
      </trkpt>
      <trkpt lat="46.46516" lon="6.03416">
        <ele>1100</ele>
        <time>2018-09-03T19:33:00Z</time>
      </trkpt>
      <trkpt lat="46.46519" lon="6.03424">
        <ele>1100</ele>
        <time>2018-09-03T19:33:05Z</time>
      </trkpt>
      <trkpt lat="46.46525" lon="6.03436">
        <ele>1101</ele>
        <time>2018-09-03T19:33:15Z</time>
      </trkpt>
      <trkpt lat="46.46528" lon="6.03441">
        <ele>1101</ele>
        <time>2018-09-03T19:33:20Z</time>
      </trkpt>
      <trkpt lat="46.46534" lon="6.03452">
        <ele>1102</ele>
        <time>2018-09-03T19:33:30Z</time>
      </trkpt>
      <trkpt lat="46.46537" lon="6.03456">
        <ele>1102</ele>
        <time>2018-09-03T19:33:35Z</time>
      </trkpt>
      <trkpt lat="46.46546" lon="6.0347">
        <ele>1103</ele>
        <time>2018-09-03T19:33:45Z</time>
      </trkpt>
      <trkpt lat="46.4655" lon="6.03476">
        <ele>1103</ele>
        <time>2018-09-03T19:33:50Z</time>
      </trkpt>
      <trkpt lat="46.46553" lon="6.03482">
        <ele>1104</ele>
        <time>2018-09-03T19:33:55Z</time>
      </trkpt>
      <trkpt lat="46.46559" lon="6.03489">
        <ele>1104</ele>
        <time>2018-09-03T19:34:05Z</time>
      </trkpt>
      <trkpt lat="46.46564" lon="6.03494">
        <ele>1105</ele>
        <time>2018-09-03T19:34:10Z</time>
      </trkpt>
      <trkpt lat="46.4657" lon="6.03507">
        <ele>1105</ele>
        <time>2018-09-03T19:34:20Z</time>
      </trkpt>
      <trkpt lat="46.46573" lon="6.03511">
        <ele>1105</ele>
        <time>2018-09-03T19:34:25Z</time>
      </trkpt>
      <trkpt lat="46.46578" lon="6.0352">
        <ele>1106</ele>
        <time>2018-09-03T19:34:35Z</time>
      </trkpt>
      <trkpt lat="46.4658" lon="6.03524">
        <ele>1106</ele>
        <time>2018-09-03T19:34:40Z</time>
      </trkpt>
      <trkpt lat="46.46583" lon="6.0353">
        <ele>1106</ele>
        <time>2018-09-03T19:34:45Z</time>
      </trkpt>
      <trkpt lat="46.46588" lon="6.03538">
        <ele>1107</ele>
        <time>2018-09-03T19:34:55Z</time>
      </trkpt>
      <trkpt lat="46.46589" lon="6.0354">
        <ele>1107</ele>
        <time>2018-09-03T19:35:00Z</time>
      </trkpt>
      <trkpt lat="46.4659" lon="6.03543">
        <ele>1107</ele>
        <time>2018-09-03T19:35:10Z</time>
      </trkpt>
      <trkpt lat="46.4659" lon="6.03547">
        <ele>1106</ele>
        <time>2018-09-03T19:35:15Z</time>
      </trkpt>
      <trkpt lat="46.4659" lon="6.03548">
        <ele>1106</ele>
        <time>2018-09-03T19:35:25Z</time>
      </trkpt>
      <trkpt lat="46.4659" lon="6.03547">
        <ele>1107</ele>
        <time>2018-09-03T19:35:30Z</time>
      </trkpt>
      <trkpt lat="46.46591" lon="6.03547">
        <ele>1106</ele>
        <time>2018-09-03T19:35:35Z</time>
      </trkpt>
      <trkpt lat="46.46592" lon="6.03548">
        <ele>1107</ele>
        <time>2018-09-03T19:35:45Z</time>
      </trkpt>
      <trkpt lat="46.46591" lon="6.03547">
        <ele>1107</ele>
        <time>2018-09-03T19:35:50Z</time>
      </trkpt>
      <trkpt lat="46.46593" lon="6.0355">
        <ele>1107</ele>
        <time>2018-09-03T19:36:00Z</time>
      </trkpt>
      <trkpt lat="46.46593" lon="6.03551">
        <ele>1106</ele>
        <time>2018-09-03T19:36:05Z</time>
      </trkpt>
      <trkpt lat="46.46594" lon="6.03551">
        <ele>1107</ele>
        <time>2018-09-03T19:36:15Z</time>
      </trkpt>
      <trkpt lat="46.46595" lon="6.03554">
        <ele>1106</ele>
        <time>2018-09-03T19:36:20Z</time>
      </trkpt>
      <trkpt lat="46.46597" lon="6.03559">
        <ele>1106</ele>
        <time>2018-09-03T19:36:25Z</time>
      </trkpt>
      <trkpt lat="46.46602" lon="6.03568">
        <ele>1105</ele>
        <time>2018-09-03T19:36:35Z</time>
      </trkpt>
      <trkpt lat="46.46603" lon="6.03569">
        <ele>1105</ele>
        <time>2018-09-03T19:36:40Z</time>
      </trkpt>
      <trkpt lat="46.46603" lon="6.0357">
        <ele>1105</ele>
        <time>2018-09-03T19:36:50Z</time>
      </trkpt>
      <trkpt lat="46.46603" lon="6.03571">
        <ele>1105</ele>
        <time>2018-09-03T19:36:55Z</time>
      </trkpt>
      <trkpt lat="46.46605" lon="6.03576">
        <ele>1104</ele>
        <time>2018-09-03T19:37:05Z</time>
      </trkpt>
      <trkpt lat="46.46608" lon="6.0358">
        <ele>1104</ele>
        <time>2018-09-03T19:37:10Z</time>
      </trkpt>
      <trkpt lat="46.46616" lon="6.03589">
        <ele>1103</ele>
        <time>2018-09-03T19:37:20Z</time>
      </trkpt>
      <trkpt lat="46.4662" lon="6.03595">
        <ele>1103</ele>
        <time>2018-09-03T19:37:25Z</time>
      </trkpt>
      <trkpt lat="46.46623" lon="6.03601">
        <ele>1102</ele>
        <time>2018-09-03T19:37:30Z</time>
      </trkpt>
      <trkpt lat="46.4663" lon="6.03611">
        <ele>1101</ele>
        <time>2018-09-03T19:37:40Z</time>
      </trkpt>
      <trkpt lat="46.46632" lon="6.03614">
        <ele>1101</ele>
        <time>2018-09-03T19:37:45Z</time>
      </trkpt>
      <trkpt lat="46.46635" lon="6.03621">
        <ele>1100</ele>
        <time>2018-09-03T19:37:55Z</time>
      </trkpt>
      <trkpt lat="46.46638" lon="6.03629">
        <ele>1099</ele>
        <time>2018-09-03T19:38:00Z</time>
      </trkpt>
      <trkpt lat="46.46643" lon="6.03641">
        <ele>1097</ele>
        <time>2018-09-03T19:38:10Z</time>
      </trkpt>
      <trkpt lat="46.46645" lon="6.03644">
        <ele>1097</ele>
        <time>2018-09-03T19:38:15Z</time>
      </trkpt>
      <trkpt lat="46.46648" lon="6.03648">
        <ele>1097</ele>
        <time>2018-09-03T19:38:20Z</time>
      </trkpt>
      <trkpt lat="46.46653" lon="6.03658">
        <ele>1096</ele>
        <time>2018-09-03T19:38:30Z</time>
      </trkpt>
      <trkpt lat="46.46655" lon="6.0366">
        <ele>1096</ele>
        <time>2018-09-03T19:38:35Z</time>
      </trkpt>
      <trkpt lat="46.46656" lon="6.03664">
        <ele>1096</ele>
        <time>2018-09-03T19:38:45Z</time>
      </trkpt>
      <trkpt lat="46.46657" lon="6.03664">
        <ele>1096</ele>
        <time>2018-09-03T19:38:50Z</time>
      </trkpt>
      <trkpt lat="46.46657" lon="6.03664">
        <ele>1096</ele>
        <time>2018-09-03T19:39:00Z</time>
      </trkpt>
      <trkpt lat="46.46657" lon="6.03665">
        <ele>1096</ele>
        <time>2018-09-03T19:39:05Z</time>
      </trkpt>
      <trkpt lat="46.46657" lon="6.03665">
        <ele>1096</ele>
        <time>2018-09-03T19:39:10Z</time>
      </trkpt>
      <trkpt lat="46.46657" lon="6.03666">
        <ele>1096</ele>
        <time>2018-09-03T19:39:20Z</time>
      </trkpt>
      <trkpt lat="46.46659" lon="6.03667">
        <ele>1096</ele>
        <time>2018-09-03T19:39:25Z</time>
      </trkpt>
      <trkpt lat="46.46664" lon="6.03674">
        <ele>1096</ele>
        <time>2018-09-03T19:39:35Z</time>
      </trkpt>
      <trkpt lat="46.46666" lon="6.03675">
        <ele>1097</ele>
        <time>2018-09-03T19:39:40Z</time>
      </trkpt>
      <trkpt lat="46.46664" lon="6.0368">
        <ele>1094</ele>
        <time>2018-09-03T19:39:50Z</time>
      </trkpt>
      <trkpt lat="46.46663" lon="6.03679">
        <ele>1094</ele>
        <time>2018-09-03T19:39:55Z</time>
      </trkpt>
      <trkpt lat="46.46663" lon="6.0368">
        <ele>1094</ele>
        <time>2018-09-03T19:40:00Z</time>
      </trkpt>
      <trkpt lat="46.46663" lon="6.0368">
        <ele>1094</ele>
        <time>2018-09-03T19:40:10Z</time>
      </trkpt>
      <trkpt lat="46.46663" lon="6.0368">
        <ele>1094</ele>
        <time>2018-09-03T19:40:15Z</time>
      </trkpt>
      <trkpt lat="46.46664" lon="6.0368">
        <ele>1094</ele>
        <time>2018-09-03T19:40:25Z</time>
      </trkpt>
      <trkpt lat="46.46663" lon="6.03681">
        <ele>1094</ele>
        <time>2018-09-03T19:40:30Z</time>
      </trkpt>
      <trkpt lat="46.46663" lon="6.0368">
        <ele>1094</ele>
        <time>2018-09-03T19:40:40Z</time>
      </trkpt>
      <trkpt lat="46.46662" lon="6.03681">
        <ele>1093</ele>
        <time>2018-09-03T19:40:45Z</time>
      </trkpt>
      <trkpt lat="46.46661" lon="6.03681">
        <ele>1093</ele>
        <time>2018-09-03T19:40:50Z</time>
      </trkpt>
      <trkpt lat="46.46662" lon="6.03681">
        <ele>1093</ele>
        <time>2018-09-03T19:41:00Z</time>
      </trkpt>
      <trkpt lat="46.46662" lon="6.03681">
        <ele>1093</ele>
        <time>2018-09-03T19:41:05Z</time>
      </trkpt>
      <trkpt lat="46.46669" lon="6.03682">
        <ele>1096</ele>
        <time>2018-09-03T19:41:15Z</time>
      </trkpt>
      <trkpt lat="46.46674" lon="6.03684">
        <ele>1097</ele>
        <time>2018-09-03T19:41:20Z</time>
      </trkpt>
      <trkpt lat="46.46686" lon="6.03688">
        <ele>1098</ele>
        <time>2018-09-03T19:41:30Z</time>
      </trkpt>
      <trkpt lat="46.46693" lon="6.0369">
        <ele>1098</ele>
        <time>2018-09-03T19:41:35Z</time>
      </trkpt>
      <trkpt lat="46.46705" lon="6.03695">
        <ele>1097</ele>
        <time>2018-09-03T19:41:45Z</time>
      </trkpt>
      <trkpt lat="46.46711" lon="6.03699">
        <ele>1098</ele>
        <time>2018-09-03T19:41:50Z</time>
      </trkpt>
      <trkpt lat="46.46717" lon="6.03704">
        <ele>1098</ele>
        <time>2018-09-03T19:41:55Z</time>
      </trkpt>
      <trkpt lat="46.46729" lon="6.03712">
        <ele>1098</ele>
        <time>2018-09-03T19:42:05Z</time>
      </trkpt>
      <trkpt lat="46.46734" lon="6.03717">
        <ele>1098</ele>
        <time>2018-09-03T19:42:10Z</time>
      </trkpt>
      <trkpt lat="46.46744" lon="6.03726">
        <ele>1098</ele>
        <time>2018-09-03T19:42:20Z</time>
      </trkpt>
      <trkpt lat="46.46749" lon="6.03729">
        <ele>1097</ele>
        <time>2018-09-03T19:42:25Z</time>
      </trkpt>
      <trkpt lat="46.4676" lon="6.03736">
        <ele>1096</ele>
        <time>2018-09-03T19:42:35Z</time>
      </trkpt>
      <trkpt lat="46.46766" lon="6.0374">
        <ele>1094</ele>
        <time>2018-09-03T19:42:40Z</time>
      </trkpt>
      <trkpt lat="46.46771" lon="6.03741">
        <ele>1094</ele>
        <time>2018-09-03T19:42:45Z</time>
      </trkpt>
      <trkpt lat="46.46784" lon="6.03745">
        <ele>1092</ele>
        <time>2018-09-03T19:42:55Z</time>
      </trkpt>
      <trkpt lat="46.46791" lon="6.03747">
        <ele>1090</ele>
        <time>2018-09-03T19:43:00Z</time>
      </trkpt>
      <trkpt lat="46.46806" lon="6.03747">
        <ele>1086</ele>
        <time>2018-09-03T19:43:10Z</time>
      </trkpt>
      <trkpt lat="46.46813" lon="6.03749">
        <ele>1084</ele>
        <time>2018-09-03T19:43:15Z</time>
      </trkpt>
      <trkpt lat="46.4682" lon="6.0375">
        <ele>1081</ele>
        <time>2018-09-03T19:43:25Z</time>
      </trkpt>
      <trkpt lat="46.4682" lon="6.03752">
        <ele>1081</ele>
        <time>2018-09-03T19:43:30Z</time>
      </trkpt>
      <trkpt lat="46.4682" lon="6.03755">
        <ele>1081</ele>
        <time>2018-09-03T19:43:35Z</time>
      </trkpt>
      <trkpt lat="46.46822" lon="6.0376">
        <ele>1080</ele>
        <time>2018-09-03T19:43:45Z</time>
      </trkpt>
      <trkpt lat="46.46823" lon="6.03763">
        <ele>1079</ele>
        <time>2018-09-03T19:43:50Z</time>
      </trkpt>
      <trkpt lat="46.46828" lon="6.03765">
        <ele>1077</ele>
        <time>2018-09-03T19:44:00Z</time>
      </trkpt>
      <trkpt lat="46.4683" lon="6.03767">
        <ele>1077</ele>
        <time>2018-09-03T19:44:05Z</time>
      </trkpt>
      <trkpt lat="46.4683" lon="6.03768">
        <ele>1077</ele>
        <time>2018-09-03T19:44:15Z</time>
      </trkpt>
      <trkpt lat="46.46829" lon="6.03768">
        <ele>1077</ele>
        <time>2018-09-03T19:44:20Z</time>
      </trkpt>
      <trkpt lat="46.46829" lon="6.03768">
        <ele>1077</ele>
        <time>2018-09-03T19:44:25Z</time>
      </trkpt>
      <trkpt lat="46.46831" lon="6.03769">
        <ele>1076</ele>
        <time>2018-09-03T19:44:35Z</time>
      </trkpt>
      <trkpt lat="46.46831" lon="6.0377">
        <ele>1076</ele>
        <time>2018-09-03T19:44:40Z</time>
      </trkpt>
      <trkpt lat="46.46831" lon="6.0377">
        <ele>1076</ele>
        <time>2018-09-03T19:44:50Z</time>
      </trkpt>
      <trkpt lat="46.46836" lon="6.03774">
        <ele>1074</ele>
        <time>2018-09-03T19:44:55Z</time>
      </trkpt>
      <trkpt lat="46.46845" lon="6.03783">
        <ele>1070</ele>
        <time>2018-09-03T19:45:05Z</time>
      </trkpt>
      <trkpt lat="46.46851" lon="6.03789">
        <ele>1068</ele>
        <time>2018-09-03T19:45:10Z</time>
      </trkpt>
      <trkpt lat="46.46856" lon="6.03794">
        <ele>1068</ele>
        <time>2018-09-03T19:45:15Z</time>
      </trkpt>
      <trkpt lat="46.46866" lon="6.03805">
        <ele>1066</ele>
        <time>2018-09-03T19:45:25Z</time>
      </trkpt>
      <trkpt lat="46.46872" lon="6.03812">
        <ele>1065</ele>
        <time>2018-09-03T19:45:30Z</time>
      </trkpt>
      <trkpt lat="46.46885" lon="6.03821">
        <ele>1064</ele>
        <time>2018-09-03T19:45:40Z</time>
      </trkpt>
      <trkpt lat="46.46889" lon="6.03827">
        <ele>1063</ele>
        <time>2018-09-03T19:45:45Z</time>
      </trkpt>
      <trkpt lat="46.46901" lon="6.03836">
        <ele>1061</ele>
        <time>2018-09-03T19:45:55Z</time>
      </trkpt>
      <trkpt lat="46.46906" lon="6.03843">
        <ele>1061</ele>
        <time>2018-09-03T19:46:00Z</time>
      </trkpt>
      <trkpt lat="46.46921" lon="6.03848">
        <ele>1059</ele>
        <time>2018-09-03T19:46:10Z</time>
      </trkpt>
      <trkpt lat="46.46927" lon="6.0385">
        <ele>1058</ele>
        <time>2018-09-03T19:46:15Z</time>
      </trkpt>
      <trkpt lat="46.46934" lon="6.03852">
        <ele>1058</ele>
        <time>2018-09-03T19:46:20Z</time>
      </trkpt>
      <trkpt lat="46.46944" lon="6.03854">
        <ele>1057</ele>
        <time>2018-09-03T19:46:30Z</time>
      </trkpt>
      <trkpt lat="46.46949" lon="6.03854">
        <ele>1057</ele>
        <time>2018-09-03T19:46:35Z</time>
      </trkpt>
      <trkpt lat="46.46957" lon="6.03854">
        <ele>1055</ele>
        <time>2018-09-03T19:46:45Z</time>
      </trkpt>
      <trkpt lat="46.46961" lon="6.03856">
        <ele>1055</ele>
        <time>2018-09-03T19:46:50Z</time>
      </trkpt>
      <trkpt lat="46.46967" lon="6.03857">
        <ele>1054</ele>
        <time>2018-09-03T19:47:00Z</time>
      </trkpt>
      <trkpt lat="46.46971" lon="6.03857">
        <ele>1054</ele>
        <time>2018-09-03T19:47:05Z</time>
      </trkpt>
      <trkpt lat="46.46976" lon="6.03859">
        <ele>1053</ele>
        <time>2018-09-03T19:47:10Z</time>
      </trkpt>
      <trkpt lat="46.46984" lon="6.03863">
        <ele>1051</ele>
        <time>2018-09-03T19:47:20Z</time>
      </trkpt>
      <trkpt lat="46.46989" lon="6.03864">
        <ele>1050</ele>
        <time>2018-09-03T19:47:25Z</time>
      </trkpt>
      <trkpt lat="46.46997" lon="6.03864">
        <ele>1048</ele>
        <time>2018-09-03T19:47:35Z</time>
      </trkpt>
      <trkpt lat="46.47" lon="6.03865">
        <ele>1048</ele>
        <time>2018-09-03T19:47:40Z</time>
      </trkpt>
      <trkpt lat="46.47007" lon="6.0387">
        <ele>1047</ele>
        <time>2018-09-03T19:47:50Z</time>
      </trkpt>
      <trkpt lat="46.47012" lon="6.03872">
        <ele>1046</ele>
        <time>2018-09-03T19:47:55Z</time>
      </trkpt>
      <trkpt lat="46.47016" lon="6.03874">
        <ele>1045</ele>
        <time>2018-09-03T19:48:00Z</time>
      </trkpt>
      <trkpt lat="46.47024" lon="6.03879">
        <ele>1044</ele>
        <time>2018-09-03T19:48:10Z</time>
      </trkpt>
      <trkpt lat="46.47028" lon="6.0388">
        <ele>1043</ele>
        <time>2018-09-03T19:48:15Z</time>
      </trkpt>
      <trkpt lat="46.47037" lon="6.03885">
        <ele>1041</ele>
        <time>2018-09-03T19:48:25Z</time>
      </trkpt>
      <trkpt lat="46.47041" lon="6.03885">
        <ele>1040</ele>
        <time>2018-09-03T19:48:30Z</time>
      </trkpt>
      <trkpt lat="46.4705" lon="6.03887">
        <ele>1039</ele>
        <time>2018-09-03T19:48:40Z</time>
      </trkpt>
      <trkpt lat="46.47055" lon="6.03887">
        <ele>1038</ele>
        <time>2018-09-03T19:48:45Z</time>
      </trkpt>
      <trkpt lat="46.47059" lon="6.0389">
        <ele>1038</ele>
        <time>2018-09-03T19:48:50Z</time>
      </trkpt>
      <trkpt lat="46.47067" lon="6.03894">
        <ele>1037</ele>
        <time>2018-09-03T19:49:00Z</time>
      </trkpt>
      <trkpt lat="46.47071" lon="6.03895">
        <ele>1036</ele>
        <time>2018-09-03T19:49:05Z</time>
      </trkpt>
      <trkpt lat="46.47077" lon="6.03899">
        <ele>1035</ele>
        <time>2018-09-03T19:49:15Z</time>
      </trkpt>
      <trkpt lat="46.4708" lon="6.03901">
        <ele>1034</ele>
        <time>2018-09-03T19:49:20Z</time>
      </trkpt>
      <trkpt lat="46.47079" lon="6.03899">
        <ele>1035</ele>
        <time>2018-09-03T19:49:30Z</time>
      </trkpt>
      <trkpt lat="46.47083" lon="6.039">
        <ele>1034</ele>
        <time>2018-09-03T19:49:35Z</time>
      </trkpt>
      <trkpt lat="46.47085" lon="6.03899">
        <ele>1034</ele>
        <time>2018-09-03T19:49:40Z</time>
      </trkpt>
      <trkpt lat="46.47091" lon="6.03902">
        <ele>1032</ele>
        <time>2018-09-03T19:49:50Z</time>
      </trkpt>
      <trkpt lat="46.47093" lon="6.03902">
        <ele>1032</ele>
        <time>2018-09-03T19:49:55Z</time>
      </trkpt>
      <trkpt lat="46.47095" lon="6.03903">
        <ele>1031</ele>
        <time>2018-09-03T19:50:05Z</time>
      </trkpt>
      <trkpt lat="46.47095" lon="6.03905">
        <ele>1031</ele>
        <time>2018-09-03T19:50:10Z</time>
      </trkpt>
      <trkpt lat="46.47094" lon="6.03905">
        <ele>1032</ele>
        <time>2018-09-03T19:50:20Z</time>
      </trkpt>
      <trkpt lat="46.47094" lon="6.03905">
        <ele>1032</ele>
        <time>2018-09-03T19:50:25Z</time>
      </trkpt>
      <trkpt lat="46.47093" lon="6.03905">
        <ele>1032</ele>
        <time>2018-09-03T19:50:35Z</time>
      </trkpt>
      <trkpt lat="46.47094" lon="6.03905">
        <ele>1032</ele>
        <time>2018-09-03T19:50:40Z</time>
      </trkpt>
      <trkpt lat="46.47094" lon="6.03905">
        <ele>1032</ele>
        <time>2018-09-03T19:50:45Z</time>
      </trkpt>
      <trkpt lat="46.47095" lon="6.03906">
        <ele>1031</ele>
        <time>2018-09-03T19:50:55Z</time>
      </trkpt>
      <trkpt lat="46.47095" lon="6.03906">
        <ele>1031</ele>
        <time>2018-09-03T19:51:00Z</time>
      </trkpt>
      <trkpt lat="46.47095" lon="6.03908">
        <ele>1031</ele>
        <time>2018-09-03T19:51:10Z</time>
      </trkpt>
      <trkpt lat="46.47094" lon="6.03906">
        <ele>1032</ele>
        <time>2018-09-03T19:51:15Z</time>
      </trkpt>
      <trkpt lat="46.47092" lon="6.03905">
        <ele>1032</ele>
        <time>2018-09-03T19:51:25Z</time>
      </trkpt>
      <trkpt lat="46.47092" lon="6.03904">
        <ele>1032</ele>
        <time>2018-09-03T19:51:30Z</time>
      </trkpt>
      <trkpt lat="46.47093" lon="6.03903">
        <ele>1032</ele>
        <time>2018-09-03T19:51:35Z</time>
      </trkpt>
      <trkpt lat="46.47094" lon="6.03903">
        <ele>1032</ele>
        <time>2018-09-03T19:51:45Z</time>
      </trkpt>
      <trkpt lat="46.47094" lon="6.03902">
        <ele>1032</ele>
        <time>2018-09-03T19:51:50Z</time>
      </trkpt>
      <trkpt lat="46.47093" lon="6.03903">
        <ele>1032</ele>
        <time>2018-09-03T19:52:00Z</time>
      </trkpt>
      <trkpt lat="46.47094" lon="6.03903">
        <ele>1032</ele>
        <time>2018-09-03T19:52:05Z</time>
      </trkpt>
      <trkpt lat="46.47094" lon="6.03905">
        <ele>1032</ele>
        <time>2018-09-03T19:52:15Z</time>
      </trkpt>
      <trkpt lat="46.47095" lon="6.03906">
        <ele>1031</ele>
        <time>2018-09-03T19:52:20Z</time>
      </trkpt>
      <trkpt lat="46.47095" lon="6.03907">
        <ele>1031</ele>
        <time>2018-09-03T19:52:25Z</time>
      </trkpt>
      <trkpt lat="46.47094" lon="6.03906">
        <ele>1032</ele>
        <time>2018-09-03T19:52:35Z</time>
      </trkpt>
      <trkpt lat="46.47094" lon="6.03906">
        <ele>1032</ele>
        <time>2018-09-03T19:52:40Z</time>
      </trkpt>
      <trkpt lat="46.47094" lon="6.03906">
        <ele>1032</ele>
        <time>2018-09-03T19:52:50Z</time>
      </trkpt>
      <trkpt lat="46.47094" lon="6.03906">
        <ele>1032</ele>
        <time>2018-09-03T19:52:55Z</time>
      </trkpt>
      <trkpt lat="46.47094" lon="6.03906">
        <ele>1032</ele>
        <time>2018-09-03T19:53:05Z</time>
      </trkpt>
      <trkpt lat="46.47094" lon="6.03906">
        <ele>1032</ele>
        <time>2018-09-03T19:53:10Z</time>
      </trkpt>
      <trkpt lat="46.47094" lon="6.03906">
        <ele>1032</ele>
        <time>2018-09-03T19:53:15Z</time>
      </trkpt>
      <trkpt lat="46.47094" lon="6.03906">
        <ele>1032</ele>
        <time>2018-09-03T19:53:25Z</time>
      </trkpt>
      <trkpt lat="46.47094" lon="6.03906">
        <ele>1032</ele>
        <time>2018-09-03T19:53:30Z</time>
      </trkpt>
      <trkpt lat="46.47094" lon="6.03906">
        <ele>1032</ele>
        <time>2018-09-03T19:53:40Z</time>
      </trkpt>
      <trkpt lat="46.47094" lon="6.03905">
        <ele>1032</ele>
        <time>2018-09-03T19:53:45Z</time>
      </trkpt>
      <trkpt lat="46.47094" lon="6.03905">
        <ele>1032</ele>
        <time>2018-09-03T19:53:55Z</time>
      </trkpt>
      <trkpt lat="46.47094" lon="6.03905">
        <ele>1032</ele>
        <time>2018-09-03T19:54:00Z</time>
      </trkpt>
      <trkpt lat="46.47094" lon="6.03906">
        <ele>1032</ele>
        <time>2018-09-03T19:54:05Z</time>
      </trkpt>
      <trkpt lat="46.47098" lon="6.03905">
        <ele>1031</ele>
        <time>2018-09-03T19:54:15Z</time>
      </trkpt>
      <trkpt lat="46.47099" lon="6.03905">
        <ele>1031</ele>
        <time>2018-09-03T19:54:20Z</time>
      </trkpt>
      <trkpt lat="46.47098" lon="6.03904">
        <ele>1031</ele>
        <time>2018-09-03T19:54:30Z</time>
      </trkpt>
      <trkpt lat="46.47098" lon="6.03904">
        <ele>1031</ele>
        <time>2018-09-03T19:54:35Z</time>
      </trkpt>
      <trkpt lat="46.47099" lon="6.03904">
        <ele>1031</ele>
        <time>2018-09-03T19:54:45Z</time>
      </trkpt>
      <trkpt lat="46.47101" lon="6.03904">
        <ele>1030</ele>
        <time>2018-09-03T19:54:50Z</time>
      </trkpt>
      <trkpt lat="46.47109" lon="6.03906">
        <ele>1029</ele>
        <time>2018-09-03T19:55:00Z</time>
      </trkpt>
      <trkpt lat="46.47115" lon="6.03908">
        <ele>1029</ele>
        <time>2018-09-03T19:55:05Z</time>
      </trkpt>
      <trkpt lat="46.47119" lon="6.03909">
        <ele>1028</ele>
        <time>2018-09-03T19:55:10Z</time>
      </trkpt>
      <trkpt lat="46.47129" lon="6.03913">
        <ele>1027</ele>
        <time>2018-09-03T19:55:20Z</time>
      </trkpt>
      <trkpt lat="46.47134" lon="6.03915">
        <ele>1026</ele>
        <time>2018-09-03T19:55:25Z</time>
      </trkpt>
      <trkpt lat="46.47145" lon="6.03918">
        <ele>1025</ele>
        <time>2018-09-03T19:55:35Z</time>
      </trkpt>
      <trkpt lat="46.4715" lon="6.03921">
        <ele>1024</ele>
        <time>2018-09-03T19:55:40Z</time>
      </trkpt>
      <trkpt lat="46.47158" lon="6.03924">
        <ele>1023</ele>
        <time>2018-09-03T19:55:50Z</time>
      </trkpt>
      <trkpt lat="46.47163" lon="6.03926">
        <ele>1023</ele>
        <time>2018-09-03T19:55:55Z</time>
      </trkpt>
      <trkpt lat="46.47168" lon="6.03928">
        <ele>1023</ele>
        <time>2018-09-03T19:56:00Z</time>
      </trkpt>
      <trkpt lat="46.47176" lon="6.03931">
        <ele>1021</ele>
        <time>2018-09-03T19:56:10Z</time>
      </trkpt>
      <trkpt lat="46.47179" lon="6.03932">
        <ele>1021</ele>
        <time>2018-09-03T19:56:15Z</time>
      </trkpt>
      <trkpt lat="46.47185" lon="6.03935">
        <ele>1021</ele>
        <time>2018-09-03T19:56:25Z</time>
      </trkpt>
      <trkpt lat="46.47186" lon="6.03935">
        <ele>1021</ele>
        <time>2018-09-03T19:56:30Z</time>
      </trkpt>
      <trkpt lat="46.47194" lon="6.03936">
        <ele>1020</ele>
        <time>2018-09-03T19:56:40Z</time>
      </trkpt>
      <trkpt lat="46.47198" lon="6.03937">
        <ele>1019</ele>
        <time>2018-09-03T19:56:45Z</time>
      </trkpt>
      <trkpt lat="46.47203" lon="6.03936">
        <ele>1019</ele>
        <time>2018-09-03T19:56:50Z</time>
      </trkpt>
      <trkpt lat="46.47212" lon="6.03934">
        <ele>1018</ele>
        <time>2018-09-03T19:57:00Z</time>
      </trkpt>
      <trkpt lat="46.47216" lon="6.03933">
        <ele>1018</ele>
        <time>2018-09-03T19:57:05Z</time>
      </trkpt>
      <trkpt lat="46.47222" lon="6.03927">
        <ele>1018</ele>
        <time>2018-09-03T19:57:15Z</time>
      </trkpt>
      <trkpt lat="46.47226" lon="6.03923">
        <ele>1018</ele>
        <time>2018-09-03T19:57:20Z</time>
      </trkpt>
      <trkpt lat="46.47227" lon="6.0392">
        <ele>1018</ele>
        <time>2018-09-03T19:57:30Z</time>
      </trkpt>
      <trkpt lat="46.4723" lon="6.03916">
        <ele>1018</ele>
        <time>2018-09-03T19:57:35Z</time>
      </trkpt>
      <trkpt lat="46.47232" lon="6.03911">
        <ele>1018</ele>
        <time>2018-09-03T19:57:40Z</time>
      </trkpt>
      <trkpt lat="46.47237" lon="6.03901">
        <ele>1018</ele>
        <time>2018-09-03T19:57:50Z</time>
      </trkpt>
      <trkpt lat="46.47238" lon="6.03897">
        <ele>1018</ele>
        <time>2018-09-03T19:57:55Z</time>
      </trkpt>
      <trkpt lat="46.47241" lon="6.03892">
        <ele>1018</ele>
        <time>2018-09-03T19:58:05Z</time>
      </trkpt>
      <trkpt lat="46.47244" lon="6.03887">
        <ele>1017</ele>
        <time>2018-09-03T19:58:10Z</time>
      </trkpt>
      <trkpt lat="46.4725" lon="6.03876">
        <ele>1016</ele>
        <time>2018-09-03T19:58:20Z</time>
      </trkpt>
      <trkpt lat="46.47253" lon="6.0387">
        <ele>1016</ele>
        <time>2018-09-03T19:58:25Z</time>
      </trkpt>
      <trkpt lat="46.47256" lon="6.03864">
        <ele>1016</ele>
        <time>2018-09-03T19:58:30Z</time>
      </trkpt>
      <trkpt lat="46.47261" lon="6.03851">
        <ele>1015</ele>
        <time>2018-09-03T19:58:40Z</time>
      </trkpt>
      <trkpt lat="46.47264" lon="6.03844">
        <ele>1015</ele>
        <time>2018-09-03T19:58:45Z</time>
      </trkpt>
      <trkpt lat="46.47269" lon="6.03831">
        <ele>1015</ele>
        <time>2018-09-03T19:58:55Z</time>
      </trkpt>
      <trkpt lat="46.47272" lon="6.03825">
        <ele>1015</ele>
        <time>2018-09-03T19:59:00Z</time>
      </trkpt>
      <trkpt lat="46.47276" lon="6.03812">
        <ele>1016</ele>
        <time>2018-09-03T19:59:10Z</time>
      </trkpt>
      <trkpt lat="46.47279" lon="6.03807">
        <ele>1016</ele>
        <time>2018-09-03T19:59:15Z</time>
      </trkpt>
      <trkpt lat="46.47284" lon="6.03794">
        <ele>1017</ele>
        <time>2018-09-03T19:59:25Z</time>
      </trkpt>
      <trkpt lat="46.47284" lon="6.03792">
        <ele>1017</ele>
        <time>2018-09-03T19:59:30Z</time>
      </trkpt>
      <trkpt lat="46.47285" lon="6.03792">
        <ele>1017</ele>
        <time>2018-09-03T19:59:35Z</time>
      </trkpt>
      <trkpt lat="46.47289" lon="6.03782">
        <ele>1017</ele>
        <time>2018-09-03T19:59:45Z</time>
      </trkpt>
      <trkpt lat="46.47292" lon="6.03776">
        <ele>1017</ele>
        <time>2018-09-03T19:59:50Z</time>
      </trkpt>
      <trkpt lat="46.47298" lon="6.03764">
        <ele>1017</ele>
        <time>2018-09-03T20:00:00Z</time>
      </trkpt>
      <trkpt lat="46.47301" lon="6.03758">
        <ele>1018</ele>
        <time>2018-09-03T20:00:05Z</time>
      </trkpt>
      <trkpt lat="46.47306" lon="6.03745">
        <ele>1018</ele>
        <time>2018-09-03T20:00:15Z</time>
      </trkpt>
      <trkpt lat="46.47309" lon="6.03738">
        <ele>1018</ele>
        <time>2018-09-03T20:00:20Z</time>
      </trkpt>
      <trkpt lat="46.47311" lon="6.03731">
        <ele>1018</ele>
        <time>2018-09-03T20:00:25Z</time>
      </trkpt>
      <trkpt lat="46.47315" lon="6.03718">
        <ele>1019</ele>
        <time>2018-09-03T20:00:35Z</time>
      </trkpt>
      <trkpt lat="46.47318" lon="6.03711">
        <ele>1019</ele>
        <time>2018-09-03T20:00:40Z</time>
      </trkpt>
      <trkpt lat="46.47324" lon="6.037">
        <ele>1019</ele>
        <time>2018-09-03T20:00:50Z</time>
      </trkpt>
      <trkpt lat="46.47327" lon="6.03695">
        <ele>1019</ele>
        <time>2018-09-03T20:00:55Z</time>
      </trkpt>
      <trkpt lat="46.47332" lon="6.03681">
        <ele>1019</ele>
        <time>2018-09-03T20:01:05Z</time>
      </trkpt>
      <trkpt lat="46.47336" lon="6.03677">
        <ele>1019</ele>
        <time>2018-09-03T20:01:10Z</time>
      </trkpt>
      <trkpt lat="46.47338" lon="6.03671">
        <ele>1019</ele>
        <time>2018-09-03T20:01:15Z</time>
      </trkpt>
      <trkpt lat="46.47342" lon="6.03656">
        <ele>1018</ele>
        <time>2018-09-03T20:01:25Z</time>
      </trkpt>
      <trkpt lat="46.47345" lon="6.03649">
        <ele>1018</ele>
        <time>2018-09-03T20:01:30Z</time>
      </trkpt>
      <trkpt lat="46.47351" lon="6.03635">
        <ele>1017</ele>
        <time>2018-09-03T20:01:40Z</time>
      </trkpt>
      <trkpt lat="46.47357" lon="6.0363">
        <ele>1017</ele>
        <time>2018-09-03T20:01:45Z</time>
      </trkpt>
      <trkpt lat="46.47362" lon="6.03621">
        <ele>1017</ele>
        <time>2018-09-03T20:01:55Z</time>
      </trkpt>
      <trkpt lat="46.47366" lon="6.03618">
        <ele>1017</ele>
        <time>2018-09-03T20:02:00Z</time>
      </trkpt>
      <trkpt lat="46.47371" lon="6.03615">
        <ele>1017</ele>
        <time>2018-09-03T20:02:05Z</time>
      </trkpt>
      <trkpt lat="46.47379" lon="6.03607">
        <ele>1017</ele>
        <time>2018-09-03T20:02:15Z</time>
      </trkpt>
      <trkpt lat="46.47384" lon="6.03605">
        <ele>1017</ele>
        <time>2018-09-03T20:02:20Z</time>
      </trkpt>
      <trkpt lat="46.47393" lon="6.03602">
        <ele>1016</ele>
        <time>2018-09-03T20:02:30Z</time>
      </trkpt>
      <trkpt lat="46.47397" lon="6.03599">
        <ele>1016</ele>
        <time>2018-09-03T20:02:35Z</time>
      </trkpt>
      <trkpt lat="46.47405" lon="6.0359">
        <ele>1015</ele>
        <time>2018-09-03T20:02:45Z</time>
      </trkpt>
      <trkpt lat="46.47409" lon="6.03585">
        <ele>1014</ele>
        <time>2018-09-03T20:02:50Z</time>
      </trkpt>
      <trkpt lat="46.47413" lon="6.03581">
        <ele>1014</ele>
        <time>2018-09-03T20:02:55Z</time>
      </trkpt>
      <trkpt lat="46.47421" lon="6.03571">
        <ele>1012</ele>
        <time>2018-09-03T20:03:05Z</time>
      </trkpt>
      <trkpt lat="46.47425" lon="6.03566">
        <ele>1011</ele>
        <time>2018-09-03T20:03:10Z</time>
      </trkpt>
      <trkpt lat="46.47429" lon="6.03552">
        <ele>1010</ele>
        <time>2018-09-03T20:03:20Z</time>
      </trkpt>
      <trkpt lat="46.47431" lon="6.03547">
        <ele>1010</ele>
        <time>2018-09-03T20:03:25Z</time>
      </trkpt>
      <trkpt lat="46.47431" lon="6.03531">
        <ele>1009</ele>
        <time>2018-09-03T20:03:35Z</time>
      </trkpt>
      <trkpt lat="46.47431" lon="6.03524">
        <ele>1009</ele>
        <time>2018-09-03T20:03:40Z</time>
      </trkpt>
      <trkpt lat="46.47435" lon="6.03512">
        <ele>1009</ele>
        <time>2018-09-03T20:03:50Z</time>
      </trkpt>
      <trkpt lat="46.47436" lon="6.03505">
        <ele>1009</ele>
        <time>2018-09-03T20:03:55Z</time>
      </trkpt>
      <trkpt lat="46.47437" lon="6.03496">
        <ele>1009</ele>
        <time>2018-09-03T20:04:00Z</time>
      </trkpt>
      <trkpt lat="46.47439" lon="6.03482">
        <ele>1009</ele>
        <time>2018-09-03T20:04:10Z</time>
      </trkpt>
      <trkpt lat="46.4744" lon="6.03476">
        <ele>1009</ele>
        <time>2018-09-03T20:04:15Z</time>
      </trkpt>
      <trkpt lat="46.47442" lon="6.03461">
        <ele>1009</ele>
        <time>2018-09-03T20:04:25Z</time>
      </trkpt>
      <trkpt lat="46.47444" lon="6.03454">
        <ele>1009</ele>
        <time>2018-09-03T20:04:30Z</time>
      </trkpt>
      <trkpt lat="46.47446" lon="6.03439">
        <ele>1010</ele>
        <time>2018-09-03T20:04:40Z</time>
      </trkpt>
      <trkpt lat="46.47447" lon="6.03432">
        <ele>1010</ele>
        <time>2018-09-03T20:04:45Z</time>
      </trkpt>
      <trkpt lat="46.47448" lon="6.03425">
        <ele>1010</ele>
        <time>2018-09-03T20:04:50Z</time>
      </trkpt>
      <trkpt lat="46.47451" lon="6.03415">
        <ele>1010</ele>
        <time>2018-09-03T20:05:00Z</time>
      </trkpt>
      <trkpt lat="46.47453" lon="6.03412">
        <ele>1010</ele>
        <time>2018-09-03T20:05:05Z</time>
      </trkpt>
      <trkpt lat="46.47456" lon="6.034">
        <ele>1009</ele>
        <time>2018-09-03T20:05:15Z</time>
      </trkpt>
      <trkpt lat="46.47457" lon="6.03393">
        <ele>1009</ele>
        <time>2018-09-03T20:05:20Z</time>
      </trkpt>
      <trkpt lat="46.47461" lon="6.0338">
        <ele>1009</ele>
        <time>2018-09-03T20:05:30Z</time>
      </trkpt>
      <trkpt lat="46.47461" lon="6.03372">
        <ele>1009</ele>
        <time>2018-09-03T20:05:35Z</time>
      </trkpt>
      <trkpt lat="46.47462" lon="6.03365">
        <ele>1009</ele>
        <time>2018-09-03T20:05:40Z</time>
      </trkpt>
      <trkpt lat="46.47466" lon="6.0335">
        <ele>1009</ele>
        <time>2018-09-03T20:05:50Z</time>
      </trkpt>
      <trkpt lat="46.47469" lon="6.03347">
        <ele>1009</ele>
        <time>2018-09-03T20:05:55Z</time>
      </trkpt>
      <trkpt lat="46.47472" lon="6.03334">
        <ele>1008</ele>
        <time>2018-09-03T20:06:05Z</time>
      </trkpt>
      <trkpt lat="46.47475" lon="6.03328">
        <ele>1008</ele>
        <time>2018-09-03T20:06:10Z</time>
      </trkpt>
      <trkpt lat="46.47479" lon="6.03315">
        <ele>1008</ele>
        <time>2018-09-03T20:06:20Z</time>
      </trkpt>
      <trkpt lat="46.47481" lon="6.03306">
        <ele>1007</ele>
        <time>2018-09-03T20:06:25Z</time>
      </trkpt>
      <trkpt lat="46.47482" lon="6.03299">
        <ele>1007</ele>
        <time>2018-09-03T20:06:30Z</time>
      </trkpt>
      <trkpt lat="46.47488" lon="6.03286">
        <ele>1006</ele>
        <time>2018-09-03T20:06:40Z</time>
      </trkpt>
      <trkpt lat="46.47493" lon="6.03279">
        <ele>1006</ele>
        <time>2018-09-03T20:06:45Z</time>
      </trkpt>
      <trkpt lat="46.47501" lon="6.03268">
        <ele>1005</ele>
        <time>2018-09-03T20:06:55Z</time>
      </trkpt>
      <trkpt lat="46.47506" lon="6.03263">
        <ele>1005</ele>
        <time>2018-09-03T20:07:00Z</time>
      </trkpt>
      <trkpt lat="46.47515" lon="6.03253">
        <ele>1004</ele>
        <time>2018-09-03T20:07:10Z</time>
      </trkpt>
      <trkpt lat="46.47519" lon="6.03248">
        <ele>1003</ele>
        <time>2018-09-03T20:07:15Z</time>
      </trkpt>
      <trkpt lat="46.47522" lon="6.03242">
        <ele>1003</ele>
        <time>2018-09-03T20:07:20Z</time>
      </trkpt>
      <trkpt lat="46.47529" lon="6.03232">
        <ele>1002</ele>
        <time>2018-09-03T20:07:30Z</time>
      </trkpt>
      <trkpt lat="46.4753" lon="6.03226">
        <ele>1002</ele>
        <time>2018-09-03T20:07:35Z</time>
      </trkpt>
      <trkpt lat="46.47536" lon="6.03217">
        <ele>1001</ele>
        <time>2018-09-03T20:07:45Z</time>
      </trkpt>
      <trkpt lat="46.4754" lon="6.03209">
        <ele>1001</ele>
        <time>2018-09-03T20:07:50Z</time>
      </trkpt>
      <trkpt lat="46.47543" lon="6.03198">
        <ele>1000</ele>
        <time>2018-09-03T20:08:00Z</time>
      </trkpt>
      <trkpt lat="46.47543" lon="6.03194">
        <ele>1000</ele>
        <time>2018-09-03T20:08:05Z</time>
      </trkpt>
      <trkpt lat="46.47545" lon="6.03181">
        <ele>1000</ele>
        <time>2018-09-03T20:08:15Z</time>
      </trkpt>
      <trkpt lat="46.47546" lon="6.03176">
        <ele>1000</ele>
        <time>2018-09-03T20:08:20Z</time>
      </trkpt>
      <trkpt lat="46.47545" lon="6.03171">
        <ele>1000</ele>
        <time>2018-09-03T20:08:25Z</time>
      </trkpt>
      <trkpt lat="46.47545" lon="6.03157">
        <ele>1000</ele>
        <time>2018-09-03T20:08:35Z</time>
      </trkpt>
      <trkpt lat="46.47545" lon="6.03151">
        <ele>999</ele>
        <time>2018-09-03T20:08:40Z</time>
      </trkpt>
      <trkpt lat="46.47545" lon="6.0314">
        <ele>999</ele>
        <time>2018-09-03T20:08:50Z</time>
      </trkpt>
      <trkpt lat="46.47544" lon="6.03134">
        <ele>999</ele>
        <time>2018-09-03T20:08:55Z</time>
      </trkpt>
      <trkpt lat="46.47547" lon="6.03123">
        <ele>999</ele>
        <time>2018-09-03T20:09:05Z</time>
      </trkpt>
      <trkpt lat="46.47548" lon="6.03116">
        <ele>999</ele>
        <time>2018-09-03T20:09:10Z</time>
      </trkpt>
      <trkpt lat="46.47549" lon="6.03108">
        <ele>998</ele>
        <time>2018-09-03T20:09:15Z</time>
      </trkpt>
      <trkpt lat="46.47554" lon="6.03097">
        <ele>998</ele>
        <time>2018-09-03T20:09:25Z</time>
      </trkpt>
      <trkpt lat="46.47559" lon="6.03093">
        <ele>997</ele>
        <time>2018-09-03T20:09:30Z</time>
      </trkpt>
      <trkpt lat="46.47565" lon="6.03081">
        <ele>997</ele>
        <time>2018-09-03T20:09:40Z</time>
      </trkpt>
      <trkpt lat="46.47567" lon="6.03076">
        <ele>996</ele>
        <time>2018-09-03T20:09:45Z</time>
      </trkpt>
      <trkpt lat="46.47572" lon="6.03065">
        <ele>996</ele>
        <time>2018-09-03T20:09:55Z</time>
      </trkpt>
      <trkpt lat="46.47577" lon="6.03061">
        <ele>995</ele>
        <time>2018-09-03T20:10:00Z</time>
      </trkpt>
      <trkpt lat="46.47581" lon="6.03058">
        <ele>995</ele>
        <time>2018-09-03T20:10:05Z</time>
      </trkpt>
      <trkpt lat="46.47589" lon="6.0305">
        <ele>994</ele>
        <time>2018-09-03T20:10:15Z</time>
      </trkpt>
      <trkpt lat="46.47592" lon="6.03046">
        <ele>993</ele>
        <time>2018-09-03T20:10:20Z</time>
      </trkpt>
      <trkpt lat="46.47598" lon="6.03036">
        <ele>992</ele>
        <time>2018-09-03T20:10:30Z</time>
      </trkpt>
      <trkpt lat="46.47602" lon="6.03031">
        <ele>992</ele>
        <time>2018-09-03T20:10:35Z</time>
      </trkpt>
      <trkpt lat="46.47609" lon="6.0302">
        <ele>990</ele>
        <time>2018-09-03T20:10:45Z</time>
      </trkpt>
      <trkpt lat="46.47612" lon="6.03015">
        <ele>990</ele>
        <time>2018-09-03T20:10:50Z</time>
      </trkpt>
      <trkpt lat="46.47615" lon="6.0301">
        <ele>989</ele>
        <time>2018-09-03T20:10:55Z</time>
      </trkpt>
      <trkpt lat="46.47621" lon="6.02998">
        <ele>987</ele>
        <time>2018-09-03T20:11:05Z</time>
      </trkpt>
      <trkpt lat="46.47625" lon="6.02991">
        <ele>986</ele>
        <time>2018-09-03T20:11:10Z</time>
      </trkpt>
      <trkpt lat="46.47632" lon="6.0298">
        <ele>984</ele>
        <time>2018-09-03T20:11:20Z</time>
      </trkpt>
      <trkpt lat="46.47635" lon="6.02974">
        <ele>983</ele>
        <time>2018-09-03T20:11:25Z</time>
      </trkpt>
      <trkpt lat="46.47643" lon="6.02968">
        <ele>981</ele>
        <time>2018-09-03T20:11:35Z</time>
      </trkpt>
      <trkpt lat="46.47648" lon="6.02966">
        <ele>980</ele>
        <time>2018-09-03T20:11:40Z</time>
      </trkpt>
      <trkpt lat="46.47652" lon="6.02964">
        <ele>979</ele>
        <time>2018-09-03T20:11:45Z</time>
      </trkpt>
      <trkpt lat="46.47661" lon="6.02962">
        <ele>978</ele>
        <time>2018-09-03T20:11:55Z</time>
      </trkpt>
      <trkpt lat="46.47667" lon="6.02962">
        <ele>977</ele>
        <time>2018-09-03T20:12:00Z</time>
      </trkpt>
      <trkpt lat="46.47678" lon="6.02956">
        <ele>974</ele>
        <time>2018-09-03T20:12:10Z</time>
      </trkpt>
      <trkpt lat="46.47682" lon="6.02951">
        <ele>972</ele>
        <time>2018-09-03T20:12:15Z</time>
      </trkpt>
      <trkpt lat="46.47688" lon="6.02941">
        <ele>969</ele>
        <time>2018-09-03T20:12:25Z</time>
      </trkpt>
      <trkpt lat="46.47691" lon="6.02936">
        <ele>968</ele>
        <time>2018-09-03T20:12:30Z</time>
      </trkpt>
      <trkpt lat="46.47691" lon="6.02925">
        <ele>966</ele>
        <time>2018-09-03T20:12:40Z</time>
      </trkpt>
      <trkpt lat="46.47688" lon="6.02918">
        <ele>965</ele>
        <time>2018-09-03T20:12:45Z</time>
      </trkpt>
      <trkpt lat="46.47688" lon="6.02917">
        <ele>965</ele>
        <time>2018-09-03T20:12:50Z</time>
      </trkpt>
      <trkpt lat="46.47688" lon="6.02914">
        <ele>965</ele>
        <time>2018-09-03T20:13:00Z</time>
      </trkpt>
      <trkpt lat="46.47688" lon="6.02913">
        <ele>964</ele>
        <time>2018-09-03T20:13:05Z</time>
      </trkpt>
      <trkpt lat="46.47687" lon="6.02913">
        <ele>965</ele>
        <time>2018-09-03T20:13:15Z</time>
      </trkpt>
      <trkpt lat="46.47687" lon="6.02913">
        <ele>965</ele>
        <time>2018-09-03T20:13:20Z</time>
      </trkpt>
      <trkpt lat="46.47687" lon="6.02913">
        <ele>965</ele>
        <time>2018-09-03T20:13:30Z</time>
      </trkpt>
      <trkpt lat="46.47687" lon="6.02913">
        <ele>965</ele>
        <time>2018-09-03T20:13:35Z</time>
      </trkpt>
      <trkpt lat="46.47687" lon="6.02913">
        <ele>965</ele>
        <time>2018-09-03T20:13:40Z</time>
      </trkpt>
      <trkpt lat="46.47687" lon="6.02913">
        <ele>965</ele>
        <time>2018-09-03T20:13:50Z</time>
      </trkpt>
      <trkpt lat="46.47687" lon="6.02913">
        <ele>965</ele>
        <time>2018-09-03T20:13:55Z</time>
      </trkpt>
      <trkpt lat="46.47687" lon="6.02913">
        <ele>965</ele>
        <time>2018-09-03T20:14:05Z</time>
      </trkpt>
      <trkpt lat="46.47687" lon="6.02912">
        <ele>965</ele>
        <time>2018-09-03T20:14:10Z</time>
      </trkpt>
      <trkpt lat="46.47686" lon="6.02911">
        <ele>965</ele>
        <time>2018-09-03T20:14:20Z</time>
      </trkpt>
      <trkpt lat="46.47685" lon="6.02911">
        <ele>965</ele>
        <time>2018-09-03T20:14:25Z</time>
      </trkpt>
      <trkpt lat="46.47686" lon="6.0291">
        <ele>964</ele>
        <time>2018-09-03T20:14:30Z</time>
      </trkpt>
      <trkpt lat="46.47685" lon="6.02909">
        <ele>964</ele>
        <time>2018-09-03T20:14:40Z</time>
      </trkpt>
      <trkpt lat="46.47685" lon="6.02909">
        <ele>964</ele>
        <time>2018-09-03T20:14:45Z</time>
      </trkpt>
      <trkpt lat="46.47689" lon="6.02913">
        <ele>964</ele>
        <time>2018-09-03T20:14:55Z</time>
      </trkpt>
      <trkpt lat="46.47692" lon="6.02912">
        <ele>963</ele>
        <time>2018-09-03T20:15:00Z</time>
      </trkpt>
      <trkpt lat="46.47693" lon="6.02914">
        <ele>963</ele>
        <time>2018-09-03T20:15:10Z</time>
      </trkpt>
      <trkpt lat="46.47695" lon="6.02916">
        <ele>963</ele>
        <time>2018-09-03T20:15:15Z</time>
      </trkpt>
      <trkpt lat="46.47699" lon="6.02918">
        <ele>963</ele>
        <time>2018-09-03T20:15:20Z</time>
      </trkpt>
      <trkpt lat="46.47705" lon="6.02921">
        <ele>962</ele>
        <time>2018-09-03T20:15:30Z</time>
      </trkpt>
      <trkpt lat="46.4771" lon="6.02923">
        <ele>962</ele>
        <time>2018-09-03T20:15:35Z</time>
      </trkpt>
      <trkpt lat="46.47715" lon="6.02929">
        <ele>962</ele>
        <time>2018-09-03T20:15:45Z</time>
      </trkpt>
      <trkpt lat="46.47717" lon="6.02932">
        <ele>962</ele>
        <time>2018-09-03T20:15:50Z</time>
      </trkpt>
      <trkpt lat="46.47725" lon="6.02934">
        <ele>961</ele>
        <time>2018-09-03T20:16:00Z</time>
      </trkpt>
      <trkpt lat="46.4773" lon="6.02938">
        <ele>961</ele>
        <time>2018-09-03T20:16:05Z</time>
      </trkpt>
      <trkpt lat="46.47734" lon="6.02944">
        <ele>961</ele>
        <time>2018-09-03T20:16:10Z</time>
      </trkpt>
      <trkpt lat="46.47742" lon="6.02951">
        <ele>961</ele>
        <time>2018-09-03T20:16:20Z</time>
      </trkpt>
      <trkpt lat="46.47747" lon="6.02954">
        <ele>961</ele>
        <time>2018-09-03T20:16:25Z</time>
      </trkpt>
      <trkpt lat="46.47756" lon="6.02963">
        <ele>962</ele>
        <time>2018-09-03T20:16:35Z</time>
      </trkpt>
      <trkpt lat="46.47761" lon="6.02966">
        <ele>962</ele>
        <time>2018-09-03T20:16:40Z</time>
      </trkpt>
      <trkpt lat="46.47772" lon="6.02975">
        <ele>962</ele>
        <time>2018-09-03T20:16:50Z</time>
      </trkpt>
      <trkpt lat="46.47775" lon="6.02979">
        <ele>962</ele>
        <time>2018-09-03T20:16:55Z</time>
      </trkpt>
      <trkpt lat="46.47783" lon="6.02987">
        <ele>963</ele>
        <time>2018-09-03T20:17:05Z</time>
      </trkpt>
      <trkpt lat="46.47787" lon="6.02991">
        <ele>963</ele>
        <time>2018-09-03T20:17:10Z</time>
      </trkpt>
      <trkpt lat="46.47791" lon="6.02994">
        <ele>963</ele>
        <time>2018-09-03T20:17:15Z</time>
      </trkpt>
      <trkpt lat="46.478" lon="6.03002">
        <ele>963</ele>
        <time>2018-09-03T20:17:25Z</time>
      </trkpt>
      <trkpt lat="46.47804" lon="6.03006">
        <ele>963</ele>
        <time>2018-09-03T20:17:30Z</time>
      </trkpt>
      <trkpt lat="46.47814" lon="6.03014">
        <ele>962</ele>
        <time>2018-09-03T20:17:40Z</time>
      </trkpt>
      <trkpt lat="46.47819" lon="6.03018">
        <ele>962</ele>
        <time>2018-09-03T20:17:45Z</time>
      </trkpt>
      <trkpt lat="46.47828" lon="6.03028">
        <ele>962</ele>
        <time>2018-09-03T20:17:55Z</time>
      </trkpt>
      <trkpt lat="46.47833" lon="6.03031">
        <ele>962</ele>
        <time>2018-09-03T20:18:00Z</time>
      </trkpt>
      <trkpt lat="46.47836" lon="6.03035">
        <ele>962</ele>
        <time>2018-09-03T20:18:05Z</time>
      </trkpt>
      <trkpt lat="46.47846" lon="6.03041">
        <ele>962</ele>
        <time>2018-09-03T20:18:15Z</time>
      </trkpt>
      <trkpt lat="46.4785" lon="6.03044">
        <ele>961</ele>
        <time>2018-09-03T20:18:20Z</time>
      </trkpt>
      <trkpt lat="46.47857" lon="6.0305">
        <ele>961</ele>
        <time>2018-09-03T20:18:30Z</time>
      </trkpt>
      <trkpt lat="46.47861" lon="6.03054">
        <ele>961</ele>
        <time>2018-09-03T20:18:35Z</time>
      </trkpt>
      <trkpt lat="46.47868" lon="6.03057">
        <ele>960</ele>
        <time>2018-09-03T20:18:45Z</time>
      </trkpt>
      <trkpt lat="46.47873" lon="6.0306">
        <ele>960</ele>
        <time>2018-09-03T20:18:50Z</time>
      </trkpt>
      <trkpt lat="46.47877" lon="6.03062">
        <ele>959</ele>
        <time>2018-09-03T20:18:55Z</time>
      </trkpt>
      <trkpt lat="46.4789" lon="6.03062">
        <ele>957</ele>
        <time>2018-09-03T20:19:05Z</time>
      </trkpt>
      <trkpt lat="46.47894" lon="6.03062">
        <ele>956</ele>
        <time>2018-09-03T20:19:10Z</time>
      </trkpt>
      <trkpt lat="46.47904" lon="6.03062">
        <ele>954</ele>
        <time>2018-09-03T20:19:20Z</time>
      </trkpt>
      <trkpt lat="46.47909" lon="6.03061">
        <ele>952</ele>
        <time>2018-09-03T20:19:25Z</time>
      </trkpt>
      <trkpt lat="46.47921" lon="6.03062">
        <ele>951</ele>
        <time>2018-09-03T20:19:35Z</time>
      </trkpt>
      <trkpt lat="46.47924" lon="6.03068">
        <ele>951</ele>
        <time>2018-09-03T20:19:40Z</time>
      </trkpt>
      <trkpt lat="46.47928" lon="6.03073">
        <ele>952</ele>
        <time>2018-09-03T20:19:45Z</time>
      </trkpt>
      <trkpt lat="46.47934" lon="6.0308">
        <ele>952</ele>
        <time>2018-09-03T20:19:55Z</time>
      </trkpt>
      <trkpt lat="46.47935" lon="6.03082">
        <ele>952</ele>
        <time>2018-09-03T20:20:00Z</time>
      </trkpt>
      <trkpt lat="46.47937" lon="6.03085">
        <ele>952</ele>
        <time>2018-09-03T20:20:10Z</time>
      </trkpt>
      <trkpt lat="46.47938" lon="6.03086">
        <ele>952</ele>
        <time>2018-09-03T20:20:15Z</time>
      </trkpt>
      <trkpt lat="46.47946" lon="6.03092">
        <ele>952</ele>
        <time>2018-09-03T20:20:25Z</time>
      </trkpt>
      <trkpt lat="46.47947" lon="6.03094">
        <ele>952</ele>
        <time>2018-09-03T20:20:30Z</time>
      </trkpt>
      <trkpt lat="46.47949" lon="6.03093">
        <ele>951</ele>
        <time>2018-09-03T20:20:35Z</time>
      </trkpt>
      <trkpt lat="46.47959" lon="6.03088">
        <ele>949</ele>
        <time>2018-09-03T20:20:45Z</time>
      </trkpt>
      <trkpt lat="46.47965" lon="6.03088">
        <ele>948</ele>
        <time>2018-09-03T20:20:50Z</time>
      </trkpt>
      <trkpt lat="46.47975" lon="6.03088">
        <ele>946</ele>
        <time>2018-09-03T20:21:00Z</time>
      </trkpt>
      <trkpt lat="46.47982" lon="6.03088">
        <ele>945</ele>
        <time>2018-09-03T20:21:05Z</time>
      </trkpt>
      <trkpt lat="46.47992" lon="6.03092">
        <ele>944</ele>
        <time>2018-09-03T20:21:15Z</time>
      </trkpt>
      <trkpt lat="46.47997" lon="6.03093">
        <ele>943</ele>
        <time>2018-09-03T20:21:20Z</time>
      </trkpt>
      <trkpt lat="46.48005" lon="6.03099">
        <ele>943</ele>
        <time>2018-09-03T20:21:30Z</time>
      </trkpt>
      <trkpt lat="46.48007" lon="6.03104">
        <ele>943</ele>
        <time>2018-09-03T20:21:35Z</time>
      </trkpt>
      <trkpt lat="46.48005" lon="6.0311">
        <ele>945</ele>
        <time>2018-09-03T20:21:40Z</time>
      </trkpt>
      <trkpt lat="46.48001" lon="6.03117">
        <ele>947</ele>
        <time>2018-09-03T20:21:50Z</time>
      </trkpt>
      <trkpt lat="46.47998" lon="6.03121">
        <ele>948</ele>
        <time>2018-09-03T20:21:55Z</time>
      </trkpt>
      <trkpt lat="46.47991" lon="6.03127">
        <ele>950</ele>
        <time>2018-09-03T20:22:05Z</time>
      </trkpt>
      <trkpt lat="46.47988" lon="6.03129">
        <ele>951</ele>
        <time>2018-09-03T20:22:10Z</time>
      </trkpt>
      <trkpt lat="46.47988" lon="6.03129">
        <ele>951</ele>
        <time>2018-09-03T20:22:20Z</time>
      </trkpt>
      <trkpt lat="46.47987" lon="6.03129">
        <ele>951</ele>
        <time>2018-09-03T20:22:25Z</time>
      </trkpt>
      <trkpt lat="46.47988" lon="6.03126">
        <ele>951</ele>
        <time>2018-09-03T20:22:30Z</time>
      </trkpt>
      <trkpt lat="46.47989" lon="6.03124">
        <ele>950</ele>
        <time>2018-09-03T20:22:40Z</time>
      </trkpt>
      <trkpt lat="46.47989" lon="6.03124">
        <ele>950</ele>
        <time>2018-09-03T20:22:45Z</time>
      </trkpt>
      <trkpt lat="46.47989" lon="6.03124">
        <ele>950</ele>
        <time>2018-09-03T20:22:55Z</time>
      </trkpt>
      <trkpt lat="46.47989" lon="6.03126">
        <ele>951</ele>
        <time>2018-09-03T20:23:00Z</time>
      </trkpt>
      <trkpt lat="46.47988" lon="6.03128">
        <ele>951</ele>
        <time>2018-09-03T20:23:10Z</time>
      </trkpt>
      <trkpt lat="46.47988" lon="6.03129">
        <ele>951</ele>
        <time>2018-09-03T20:23:15Z</time>
      </trkpt>
      <trkpt lat="46.47989" lon="6.03132">
        <ele>952</ele>
        <time>2018-09-03T20:23:20Z</time>
      </trkpt>
      <trkpt lat="46.47989" lon="6.03137">
        <ele>953</ele>
        <time>2018-09-03T20:23:30Z</time>
      </trkpt>
      <trkpt lat="46.47989" lon="6.03137">
        <ele>953</ele>
        <time>2018-09-03T20:23:35Z</time>
      </trkpt>
      <trkpt lat="46.47988" lon="6.03146">
        <ele>955</ele>
        <time>2018-09-03T20:23:45Z</time>
      </trkpt>
      <trkpt lat="46.47986" lon="6.03151">
        <ele>956</ele>
        <time>2018-09-03T20:23:50Z</time>
      </trkpt>
      <trkpt lat="46.47988" lon="6.03146">
        <ele>955</ele>
        <time>2018-09-03T20:24:00Z</time>
      </trkpt>
      <trkpt lat="46.47989" lon="6.03146">
        <ele>954</ele>
        <time>2018-09-03T20:24:05Z</time>
      </trkpt>
      <trkpt lat="46.47989" lon="6.03146">
        <ele>954</ele>
        <time>2018-09-03T20:24:10Z</time>
      </trkpt>
      <trkpt lat="46.47989" lon="6.0314">
        <ele>953</ele>
        <time>2018-09-03T20:24:20Z</time>
      </trkpt>
      <trkpt lat="46.47989" lon="6.03139">
        <ele>953</ele>
        <time>2018-09-03T20:24:25Z</time>
      </trkpt>
      <trkpt lat="46.47991" lon="6.03137">
        <ele>952</ele>
        <time>2018-09-03T20:24:35Z</time>
      </trkpt>
      <trkpt lat="46.47991" lon="6.03137">
        <ele>952</ele>
        <time>2018-09-03T20:24:40Z</time>
      </trkpt>
      <trkpt lat="46.47992" lon="6.03136">
        <ele>952</ele>
        <time>2018-09-03T20:24:50Z</time>
      </trkpt>
      <trkpt lat="46.47994" lon="6.03132">
        <ele>951</ele>
        <time>2018-09-03T20:24:55Z</time>
      </trkpt>
      <trkpt lat="46.47997" lon="6.03127">
        <ele>950</ele>
        <time>2018-09-03T20:25:05Z</time>
      </trkpt>
      <trkpt lat="46.47996" lon="6.03127">
        <ele>950</ele>
        <time>2018-09-03T20:25:10Z</time>
      </trkpt>
      <trkpt lat="46.47997" lon="6.03126">
        <ele>949</ele>
        <time>2018-09-03T20:25:15Z</time>
      </trkpt>
      <trkpt lat="46.48001" lon="6.03123">
        <ele>948</ele>
        <time>2018-09-03T20:25:25Z</time>
      </trkpt>
      <trkpt lat="46.48003" lon="6.03121">
        <ele>947</ele>
        <time>2018-09-03T20:25:30Z</time>
      </trkpt>
      <trkpt lat="46.48008" lon="6.03116">
        <ele>945</ele>
        <time>2018-09-03T20:25:40Z</time>
      </trkpt>
      <trkpt lat="46.4801" lon="6.03115">
        <ele>945</ele>
        <time>2018-09-03T20:25:45Z</time>
      </trkpt>
      <trkpt lat="46.48014" lon="6.03111">
        <ele>943</ele>
        <time>2018-09-03T20:25:55Z</time>
      </trkpt>
      <trkpt lat="46.48014" lon="6.03111">
        <ele>944</ele>
        <time>2018-09-03T20:26:00Z</time>
      </trkpt>
      <trkpt lat="46.48014" lon="6.0311">
        <ele>943</ele>
        <time>2018-09-03T20:26:05Z</time>
      </trkpt>
      <trkpt lat="46.48015" lon="6.03095">
        <ele>940</ele>
        <time>2018-09-03T20:26:15Z</time>
      </trkpt>
      <trkpt lat="46.48013" lon="6.03087">
        <ele>939</ele>
        <time>2018-09-03T20:26:20Z</time>
      </trkpt>
      <trkpt lat="46.48008" lon="6.03075">
        <ele>937</ele>
        <time>2018-09-03T20:26:30Z</time>
      </trkpt>
      <trkpt lat="46.48009" lon="6.03067">
        <ele>936</ele>
        <time>2018-09-03T20:26:35Z</time>
      </trkpt>
      <trkpt lat="46.48012" lon="6.03054">
        <ele>932</ele>
        <time>2018-09-03T20:26:45Z</time>
      </trkpt>
      <trkpt lat="46.48013" lon="6.03048">
        <ele>930</ele>
        <time>2018-09-03T20:26:50Z</time>
      </trkpt>
      <trkpt lat="46.48016" lon="6.03042">
        <ele>928</ele>
        <time>2018-09-03T20:26:55Z</time>
      </trkpt>
      <trkpt lat="46.4802" lon="6.0303">
        <ele>925</ele>
        <time>2018-09-03T20:27:05Z</time>
      </trkpt>
      <trkpt lat="46.4802" lon="6.03024">
        <ele>924</ele>
        <time>2018-09-03T20:27:10Z</time>
      </trkpt>
      <trkpt lat="46.48023" lon="6.03018">
        <ele>921</ele>
        <time>2018-09-03T20:27:20Z</time>
      </trkpt>
      <trkpt lat="46.48025" lon="6.03015">
        <ele>920</ele>
        <time>2018-09-03T20:27:25Z</time>
      </trkpt>
      <trkpt lat="46.48032" lon="6.03012">
        <ele>919</ele>
        <time>2018-09-03T20:27:35Z</time>
      </trkpt>
      <trkpt lat="46.48034" lon="6.03012">
        <ele>918</ele>
        <time>2018-09-03T20:27:40Z</time>
      </trkpt>
      <trkpt lat="46.48038" lon="6.03012">
        <ele>917</ele>
        <time>2018-09-03T20:27:45Z</time>
      </trkpt>
      <trkpt lat="46.48048" lon="6.03012">
        <ele>916</ele>
        <time>2018-09-03T20:27:55Z</time>
      </trkpt>
      <trkpt lat="46.48051" lon="6.03013">
        <ele>915</ele>
        <time>2018-09-03T20:28:00Z</time>
      </trkpt>
      <trkpt lat="46.48062" lon="6.03017">
        <ele>914</ele>
        <time>2018-09-03T20:28:10Z</time>
      </trkpt>
      <trkpt lat="46.48068" lon="6.03021">
        <ele>914</ele>
        <time>2018-09-03T20:28:15Z</time>
      </trkpt>
      <trkpt lat="46.48079" lon="6.03026">
        <ele>912</ele>
        <time>2018-09-03T20:28:25Z</time>
      </trkpt>
      <trkpt lat="46.48084" lon="6.03029">
        <ele>912</ele>
        <time>2018-09-03T20:28:30Z</time>
      </trkpt>
      <trkpt lat="46.48089" lon="6.03034">
        <ele>913</ele>
        <time>2018-09-03T20:28:35Z</time>
      </trkpt>
      <trkpt lat="46.48097" lon="6.03041">
        <ele>912</ele>
        <time>2018-09-03T20:28:45Z</time>
      </trkpt>
      <trkpt lat="46.48103" lon="6.03044">
        <ele>912</ele>
        <time>2018-09-03T20:28:50Z</time>
      </trkpt>
      <trkpt lat="46.48114" lon="6.03046">
        <ele>910</ele>
        <time>2018-09-03T20:29:00Z</time>
      </trkpt>
      <trkpt lat="46.48119" lon="6.03043">
        <ele>908</ele>
        <time>2018-09-03T20:29:05Z</time>
      </trkpt>
      <trkpt lat="46.4813" lon="6.03032">
        <ele>903</ele>
        <time>2018-09-03T20:29:15Z</time>
      </trkpt>
      <trkpt lat="46.48134" lon="6.03025">
        <ele>901</ele>
        <time>2018-09-03T20:29:20Z</time>
      </trkpt>
      <trkpt lat="46.48135" lon="6.03013">
        <ele>898</ele>
        <time>2018-09-03T20:29:30Z</time>
      </trkpt>
      <trkpt lat="46.48134" lon="6.03008">
        <ele>897</ele>
        <time>2018-09-03T20:29:35Z</time>
      </trkpt>
      <trkpt lat="46.48132" lon="6.03003">
        <ele>897</ele>
        <time>2018-09-03T20:29:40Z</time>
      </trkpt>
      <trkpt lat="46.48129" lon="6.02996">
        <ele>896</ele>
        <time>2018-09-03T20:29:50Z</time>
      </trkpt>
      <trkpt lat="46.48126" lon="6.02991">
        <ele>896</ele>
        <time>2018-09-03T20:29:55Z</time>
      </trkpt>
      <trkpt lat="46.4812" lon="6.02981">
        <ele>896</ele>
        <time>2018-09-03T20:30:05Z</time>
      </trkpt>
      <trkpt lat="46.48119" lon="6.02978">
        <ele>895</ele>
        <time>2018-09-03T20:30:10Z</time>
      </trkpt>
      <trkpt lat="46.4812" lon="6.02971">
        <ele>894</ele>
        <time>2018-09-03T20:30:20Z</time>
      </trkpt>
      <trkpt lat="46.48126" lon="6.02969">
        <ele>893</ele>
        <time>2018-09-03T20:30:25Z</time>
      </trkpt>
      <trkpt lat="46.48131" lon="6.02967">
        <ele>891</ele>
        <time>2018-09-03T20:30:30Z</time>
      </trkpt>
      <trkpt lat="46.48138" lon="6.02973">
        <ele>891</ele>
        <time>2018-09-03T20:30:40Z</time>
      </trkpt>
      <trkpt lat="46.4814" lon="6.02977">
        <ele>891</ele>
        <time>2018-09-03T20:30:45Z</time>
      </trkpt>
      <trkpt lat="46.48145" lon="6.02988">
        <ele>892</ele>
        <time>2018-09-03T20:30:55Z</time>
      </trkpt>
      <trkpt lat="46.4815" lon="6.02993">
        <ele>892</ele>
        <time>2018-09-03T20:31:00Z</time>
      </trkpt>
      <trkpt lat="46.48156" lon="6.02989">
        <ele>890</ele>
        <time>2018-09-03T20:31:10Z</time>
      </trkpt>
      <trkpt lat="46.48159" lon="6.02987">
        <ele>889</ele>
        <time>2018-09-03T20:31:15Z</time>
      </trkpt>
      <trkpt lat="46.48161" lon="6.02985">
        <ele>889</ele>
        <time>2018-09-03T20:31:20Z</time>
      </trkpt>
      <trkpt lat="46.48163" lon="6.0298">
        <ele>888</ele>
        <time>2018-09-03T20:31:30Z</time>
      </trkpt>
      <trkpt lat="46.48165" lon="6.02975">
        <ele>887</ele>
        <time>2018-09-03T20:31:35Z</time>
      </trkpt>
      <trkpt lat="46.48171" lon="6.0297">
        <ele>885</ele>
        <time>2018-09-03T20:31:45Z</time>
      </trkpt>
      <trkpt lat="46.48172" lon="6.0297">
        <ele>885</ele>
        <time>2018-09-03T20:31:50Z</time>
      </trkpt>
      <trkpt lat="46.48172" lon="6.0297">
        <ele>885</ele>
        <time>2018-09-03T20:32:00Z</time>
      </trkpt>
      <trkpt lat="46.48172" lon="6.02969">
        <ele>884</ele>
        <time>2018-09-03T20:32:05Z</time>
      </trkpt>
      <trkpt lat="46.48172" lon="6.02969">
        <ele>884</ele>
        <time>2018-09-03T20:32:10Z</time>
      </trkpt>
      <trkpt lat="46.48172" lon="6.02969">
        <ele>884</ele>
        <time>2018-09-03T20:32:20Z</time>
      </trkpt>
      <trkpt lat="46.48172" lon="6.02969">
        <ele>884</ele>
        <time>2018-09-03T20:32:25Z</time>
      </trkpt>
      <trkpt lat="46.48172" lon="6.02969">
        <ele>884</ele>
        <time>2018-09-03T20:32:35Z</time>
      </trkpt>
      <trkpt lat="46.48172" lon="6.02969">
        <ele>884</ele>
        <time>2018-09-03T20:32:40Z</time>
      </trkpt>
      <trkpt lat="46.48172" lon="6.02969">
        <ele>884</ele>
        <time>2018-09-03T20:32:50Z</time>
      </trkpt>
      <trkpt lat="46.48172" lon="6.02969">
        <ele>884</ele>
        <time>2018-09-03T20:32:55Z</time>
      </trkpt>
      <trkpt lat="46.48172" lon="6.02969">
        <ele>884</ele>
        <time>2018-09-03T20:33:00Z</time>
      </trkpt>
      <trkpt lat="46.48172" lon="6.02969">
        <ele>884</ele>
        <time>2018-09-03T20:33:10Z</time>
      </trkpt>
      <trkpt lat="46.48172" lon="6.02969">
        <ele>884</ele>
        <time>2018-09-03T20:33:15Z</time>
      </trkpt>
      <trkpt lat="46.48172" lon="6.02969">
        <ele>884</ele>
        <time>2018-09-03T20:33:25Z</time>
      </trkpt>
      <trkpt lat="46.48172" lon="6.02969">
        <ele>884</ele>
        <time>2018-09-03T20:33:30Z</time>
      </trkpt>
      <trkpt lat="46.48172" lon="6.02969">
        <ele>884</ele>
        <time>2018-09-03T20:33:40Z</time>
      </trkpt>
      <trkpt lat="46.48172" lon="6.02969">
        <ele>884</ele>
        <time>2018-09-03T20:33:45Z</time>
      </trkpt>
      <trkpt lat="46.48172" lon="6.02969">
        <ele>884</ele>
        <time>2018-09-03T20:33:55Z</time>
      </trkpt>
      <trkpt lat="46.48172" lon="6.02969">
        <ele>884</ele>
        <time>2018-09-03T20:34:00Z</time>
      </trkpt>
      <trkpt lat="46.48172" lon="6.02969">
        <ele>884</ele>
        <time>2018-09-03T20:34:05Z</time>
      </trkpt>
      <trkpt lat="46.48172" lon="6.02969">
        <ele>884</ele>
        <time>2018-09-03T20:34:15Z</time>
      </trkpt>
      <trkpt lat="46.48172" lon="6.02969">
        <ele>884</ele>
        <time>2018-09-03T20:34:20Z</time>
      </trkpt>
      <trkpt lat="46.48172" lon="6.02969">
        <ele>884</ele>
        <time>2018-09-03T20:34:30Z</time>
      </trkpt>
      <trkpt lat="46.48172" lon="6.02969">
        <ele>884</ele>
        <time>2018-09-03T20:34:35Z</time>
      </trkpt>
      <trkpt lat="46.48172" lon="6.02969">
        <ele>884</ele>
        <time>2018-09-03T20:34:45Z</time>
      </trkpt>
      <trkpt lat="46.48172" lon="6.02969">
        <ele>884</ele>
        <time>2018-09-03T20:34:50Z</time>
      </trkpt>
      <trkpt lat="46.48172" lon="6.02969">
        <ele>884</ele>
        <time>2018-09-03T20:34:55Z</time>
      </trkpt>
      <trkpt lat="46.48172" lon="6.02969">
        <ele>884</ele>
        <time>2018-09-03T20:35:05Z</time>
      </trkpt>
      <trkpt lat="46.48172" lon="6.02969">
        <ele>884</ele>
        <time>2018-09-03T20:35:10Z</time>
      </trkpt>
      <trkpt lat="46.48172" lon="6.02969">
        <ele>884</ele>
        <time>2018-09-03T20:35:20Z</time>
      </trkpt>
      <trkpt lat="46.48172" lon="6.02969">
        <ele>884</ele>
        <time>2018-09-03T20:35:25Z</time>
      </trkpt>
      <trkpt lat="46.48172" lon="6.02969">
        <ele>884</ele>
        <time>2018-09-03T20:35:35Z</time>
      </trkpt>
      <trkpt lat="46.48172" lon="6.02969">
        <ele>884</ele>
        <time>2018-09-03T20:35:40Z</time>
      </trkpt>
      <trkpt lat="46.48172" lon="6.02969">
        <ele>884</ele>
        <time>2018-09-03T20:35:45Z</time>
      </trkpt>
      <trkpt lat="46.48171" lon="6.02969">
        <ele>885</ele>
        <time>2018-09-03T20:35:55Z</time>
      </trkpt>
      <trkpt lat="46.48171" lon="6.02969">
        <ele>885</ele>
        <time>2018-09-03T20:36:00Z</time>
      </trkpt>
      <trkpt lat="46.48171" lon="6.02969">
        <ele>885</ele>
        <time>2018-09-03T20:36:10Z</time>
      </trkpt>
      <trkpt lat="46.48171" lon="6.02969">
        <ele>885</ele>
        <time>2018-09-03T20:36:15Z</time>
      </trkpt>
      <trkpt lat="46.48171" lon="6.02969">
        <ele>885</ele>
        <time>2018-09-03T20:36:25Z</time>
      </trkpt>
      <trkpt lat="46.48171" lon="6.02969">
        <ele>885</ele>
        <time>2018-09-03T20:36:30Z</time>
      </trkpt>
      <trkpt lat="46.48171" lon="6.02969">
        <ele>885</ele>
        <time>2018-09-03T20:36:35Z</time>
      </trkpt>
      <trkpt lat="46.48171" lon="6.02969">
        <ele>885</ele>
        <time>2018-09-03T20:36:45Z</time>
      </trkpt>
      <trkpt lat="46.48171" lon="6.02969">
        <ele>885</ele>
        <time>2018-09-03T20:36:50Z</time>
      </trkpt>
      <trkpt lat="46.48171" lon="6.02969">
        <ele>885</ele>
        <time>2018-09-03T20:37:00Z</time>
      </trkpt>
      <trkpt lat="46.48171" lon="6.02969">
        <ele>885</ele>
        <time>2018-09-03T20:37:05Z</time>
      </trkpt>
      <trkpt lat="46.48171" lon="6.02969">
        <ele>885</ele>
        <time>2018-09-03T20:37:15Z</time>
      </trkpt>
      <trkpt lat="46.48171" lon="6.02969">
        <ele>885</ele>
        <time>2018-09-03T20:37:20Z</time>
      </trkpt>
      <trkpt lat="46.48171" lon="6.02969">
        <ele>885</ele>
        <time>2018-09-03T20:37:25Z</time>
      </trkpt>
      <trkpt lat="46.48171" lon="6.02969">
        <ele>885</ele>
        <time>2018-09-03T20:37:35Z</time>
      </trkpt>
      <trkpt lat="46.48171" lon="6.02969">
        <ele>885</ele>
        <time>2018-09-03T20:37:40Z</time>
      </trkpt>
      <trkpt lat="46.48171" lon="6.02969">
        <ele>885</ele>
        <time>2018-09-03T20:37:50Z</time>
      </trkpt>
      <trkpt lat="46.48171" lon="6.02969">
        <ele>885</ele>
        <time>2018-09-03T20:37:55Z</time>
      </trkpt>
      <trkpt lat="46.48171" lon="6.02969">
        <ele>885</ele>
        <time>2018-09-03T20:38:05Z</time>
      </trkpt>
      <trkpt lat="46.48171" lon="6.02969">
        <ele>885</ele>
        <time>2018-09-03T20:38:10Z</time>
      </trkpt>
      <trkpt lat="46.48171" lon="6.02969">
        <ele>885</ele>
        <time>2018-09-03T20:38:20Z</time>
      </trkpt>
      <trkpt lat="46.48171" lon="6.02969">
        <ele>885</ele>
        <time>2018-09-03T20:38:25Z</time>
      </trkpt>
      <trkpt lat="46.48171" lon="6.02969">
        <ele>885</ele>
        <time>2018-09-03T20:38:30Z</time>
      </trkpt>
      <trkpt lat="46.48171" lon="6.02969">
        <ele>885</ele>
        <time>2018-09-03T20:38:40Z</time>
      </trkpt>
      <trkpt lat="46.48171" lon="6.02969">
        <ele>885</ele>
        <time>2018-09-03T20:38:45Z</time>
      </trkpt>
      <trkpt lat="46.48171" lon="6.02969">
        <ele>885</ele>
        <time>2018-09-03T20:38:55Z</time>
      </trkpt>
      <trkpt lat="46.48171" lon="6.02969">
        <ele>885</ele>
        <time>2018-09-03T20:39:00Z</time>
      </trkpt>
      <trkpt lat="46.48171" lon="6.02969">
        <ele>885</ele>
        <time>2018-09-03T20:39:10Z</time>
      </trkpt>
      <trkpt lat="46.48171" lon="6.02969">
        <ele>885</ele>
        <time>2018-09-03T20:39:15Z</time>
      </trkpt>
      <trkpt lat="46.48171" lon="6.02969">
        <ele>885</ele>
        <time>2018-09-03T20:39:20Z</time>
      </trkpt>
      <trkpt lat="46.48171" lon="6.02969">
        <ele>885</ele>
        <time>2018-09-03T20:39:30Z</time>
      </trkpt>
      <trkpt lat="46.48171" lon="6.02969">
        <ele>885</ele>
        <time>2018-09-03T20:39:35Z</time>
      </trkpt>
      <trkpt lat="46.48171" lon="6.02969">
        <ele>885</ele>
        <time>2018-09-03T20:39:45Z</time>
      </trkpt>
      <trkpt lat="46.48171" lon="6.02969">
        <ele>885</ele>
        <time>2018-09-03T20:39:50Z</time>
      </trkpt>
      <trkpt lat="46.48171" lon="6.02969">
        <ele>885</ele>
        <time>2018-09-03T20:40:00Z</time>
      </trkpt>
      <trkpt lat="46.48171" lon="6.02969">
        <ele>885</ele>
        <time>2018-09-03T20:40:05Z</time>
      </trkpt>
      <trkpt lat="46.48171" lon="6.02969">
        <ele>885</ele>
        <time>2018-09-03T20:40:10Z</time>
      </trkpt>
      <trkpt lat="46.48171" lon="6.02969">
        <ele>885</ele>
        <time>2018-09-03T20:40:20Z</time>
      </trkpt>
      <trkpt lat="46.48171" lon="6.02969">
        <ele>885</ele>
        <time>2018-09-03T20:40:25Z</time>
      </trkpt>
      <trkpt lat="46.48171" lon="6.02969">
        <ele>885</ele>
        <time>2018-09-03T20:40:35Z</time>
      </trkpt>
      <trkpt lat="46.48171" lon="6.02969">
        <ele>885</ele>
        <time>2018-09-03T20:40:40Z</time>
      </trkpt>
      <trkpt lat="46.48171" lon="6.02969">
        <ele>885</ele>
        <time>2018-09-03T20:40:50Z</time>
      </trkpt>
      <trkpt lat="46.48171" lon="6.02969">
        <ele>885</ele>
        <time>2018-09-03T20:40:55Z</time>
      </trkpt>
      <trkpt lat="46.48171" lon="6.02969">
        <ele>885</ele>
        <time>2018-09-03T20:41:00Z</time>
      </trkpt>
      <trkpt lat="46.48171" lon="6.02969">
        <ele>885</ele>
        <time>2018-09-03T20:41:10Z</time>
      </trkpt>
      <trkpt lat="46.48171" lon="6.02969">
        <ele>885</ele>
        <time>2018-09-03T20:41:15Z</time>
      </trkpt>
      <trkpt lat="46.48171" lon="6.02969">
        <ele>885</ele>
        <time>2018-09-03T20:41:25Z</time>
      </trkpt>
      <trkpt lat="46.48171" lon="6.02969">
        <ele>885</ele>
        <time>2018-09-03T20:41:30Z</time>
      </trkpt>
      <trkpt lat="46.48171" lon="6.02969">
        <ele>885</ele>
        <time>2018-09-03T20:41:40Z</time>
      </trkpt>
      <trkpt lat="46.48171" lon="6.02969">
        <ele>885</ele>
        <time>2018-09-03T20:41:45Z</time>
      </trkpt>
      <trkpt lat="46.48171" lon="6.02969">
        <ele>885</ele>
        <time>2018-09-03T20:41:50Z</time>
      </trkpt>
      <trkpt lat="46.48171" lon="6.02969">
        <ele>885</ele>
        <time>2018-09-03T20:42:00Z</time>
      </trkpt>
      <trkpt lat="46.4817" lon="6.02969">
        <ele>885</ele>
        <time>2018-09-03T20:42:05Z</time>
      </trkpt>
      <trkpt lat="46.4817" lon="6.0297">
        <ele>885</ele>
        <time>2018-09-03T20:42:15Z</time>
      </trkpt>
      <trkpt lat="46.4817" lon="6.0297">
        <ele>885</ele>
        <time>2018-09-03T20:42:20Z</time>
      </trkpt>
      <trkpt lat="46.4817" lon="6.0297">
        <ele>885</ele>
        <time>2018-09-03T20:42:30Z</time>
      </trkpt>
      <trkpt lat="46.4817" lon="6.0297">
        <ele>885</ele>
        <time>2018-09-03T20:42:35Z</time>
      </trkpt>
      <trkpt lat="46.4817" lon="6.0297">
        <ele>885</ele>
        <time>2018-09-03T20:42:45Z</time>
      </trkpt>
      <trkpt lat="46.4817" lon="6.0297">
        <ele>885</ele>
        <time>2018-09-03T20:42:50Z</time>
      </trkpt>
      <trkpt lat="46.4817" lon="6.0297">
        <ele>885</ele>
        <time>2018-09-03T20:42:55Z</time>
      </trkpt>
      <trkpt lat="46.4817" lon="6.0297">
        <ele>885</ele>
        <time>2018-09-03T20:43:05Z</time>
      </trkpt>
      <trkpt lat="46.4817" lon="6.0297">
        <ele>885</ele>
        <time>2018-09-03T20:43:10Z</time>
      </trkpt>
      <trkpt lat="46.48169" lon="6.02971">
        <ele>885</ele>
        <time>2018-09-03T20:43:20Z</time>
      </trkpt>
      <trkpt lat="46.48169" lon="6.02972">
        <ele>885</ele>
        <time>2018-09-03T20:43:25Z</time>
      </trkpt>
      <trkpt lat="46.48167" lon="6.02973">
        <ele>886</ele>
        <time>2018-09-03T20:43:35Z</time>
      </trkpt>
      <trkpt lat="46.48166" lon="6.02974">
        <ele>886</ele>
        <time>2018-09-03T20:43:40Z</time>
      </trkpt>
      <trkpt lat="46.48166" lon="6.02974">
        <ele>886</ele>
        <time>2018-09-03T20:43:45Z</time>
      </trkpt>
      <trkpt lat="46.48164" lon="6.02974">
        <ele>887</ele>
        <time>2018-09-03T20:43:55Z</time>
      </trkpt>
      <trkpt lat="46.48163" lon="6.02974">
        <ele>887</ele>
        <time>2018-09-03T20:44:00Z</time>
      </trkpt>
      <trkpt lat="46.48163" lon="6.02976">
        <ele>887</ele>
        <time>2018-09-03T20:44:10Z</time>
      </trkpt>
      <trkpt lat="46.48161" lon="6.02982">
        <ele>888</ele>
        <time>2018-09-03T20:44:15Z</time>
      </trkpt>
      <trkpt lat="46.48161" lon="6.02986">
        <ele>889</ele>
        <time>2018-09-03T20:44:25Z</time>
      </trkpt>
      <trkpt lat="46.48161" lon="6.02987">
        <ele>889</ele>
        <time>2018-09-03T20:44:30Z</time>
      </trkpt>
      <trkpt lat="46.4816" lon="6.02988">
        <ele>889</ele>
        <time>2018-09-03T20:44:35Z</time>
      </trkpt>
      <trkpt lat="46.4816" lon="6.02989">
        <ele>889</ele>
        <time>2018-09-03T20:44:45Z</time>
      </trkpt>
      <trkpt lat="46.48159" lon="6.02989">
        <ele>889</ele>
        <time>2018-09-03T20:44:50Z</time>
      </trkpt>
      <trkpt lat="46.48157" lon="6.02992">
        <ele>890</ele>
        <time>2018-09-03T20:45:00Z</time>
      </trkpt>
      <trkpt lat="46.48155" lon="6.02995">
        <ele>891</ele>
        <time>2018-09-03T20:45:05Z</time>
      </trkpt>
      <trkpt lat="46.48145" lon="6.02989">
        <ele>892</ele>
        <time>2018-09-03T20:45:15Z</time>
      </trkpt>
      <trkpt lat="46.48142" lon="6.02984">
        <ele>892</ele>
        <time>2018-09-03T20:45:20Z</time>
      </trkpt>
      <trkpt lat="46.48138" lon="6.02978">
        <ele>892</ele>
        <time>2018-09-03T20:45:25Z</time>
      </trkpt>
      <trkpt lat="46.48131" lon="6.02969">
        <ele>892</ele>
        <time>2018-09-03T20:45:35Z</time>
      </trkpt>
      <trkpt lat="46.48127" lon="6.02969">
        <ele>892</ele>
        <time>2018-09-03T20:45:40Z</time>
      </trkpt>
      <trkpt lat="46.48119" lon="6.0297">
        <ele>894</ele>
        <time>2018-09-03T20:45:50Z</time>
      </trkpt>
      <trkpt lat="46.48116" lon="6.02972">
        <ele>895</ele>
        <time>2018-09-03T20:45:55Z</time>
      </trkpt>
      <trkpt lat="46.48117" lon="6.0298">
        <ele>896</ele>
        <time>2018-09-03T20:46:05Z</time>
      </trkpt>
      <trkpt lat="46.48119" lon="6.02984">
        <ele>896</ele>
        <time>2018-09-03T20:46:10Z</time>
      </trkpt>
      <trkpt lat="46.48121" lon="6.02988">
        <ele>896</ele>
        <time>2018-09-03T20:46:15Z</time>
      </trkpt>
      <trkpt lat="46.48125" lon="6.02994">
        <ele>897</ele>
        <time>2018-09-03T20:46:25Z</time>
      </trkpt>
      <trkpt lat="46.48126" lon="6.02998">
        <ele>897</ele>
        <time>2018-09-03T20:46:30Z</time>
      </trkpt>
      <trkpt lat="46.48129" lon="6.03004">
        <ele>898</ele>
        <time>2018-09-03T20:46:40Z</time>
      </trkpt>
      <trkpt lat="46.48131" lon="6.03009">
        <ele>898</ele>
        <time>2018-09-03T20:46:45Z</time>
      </trkpt>
      <trkpt lat="46.48133" lon="6.03016">
        <ele>899</ele>
        <time>2018-09-03T20:46:55Z</time>
      </trkpt>
      <trkpt lat="46.48133" lon="6.03019">
        <ele>900</ele>
        <time>2018-09-03T20:47:00Z</time>
      </trkpt>
      <trkpt lat="46.48133" lon="6.03025">
        <ele>901</ele>
        <time>2018-09-03T20:47:10Z</time>
      </trkpt>
      <trkpt lat="46.48133" lon="6.03029">
        <ele>902</ele>
        <time>2018-09-03T20:47:15Z</time>
      </trkpt>
      <trkpt lat="46.48132" lon="6.03032">
        <ele>903</ele>
        <time>2018-09-03T20:47:20Z</time>
      </trkpt>
      <trkpt lat="46.48128" lon="6.03037">
        <ele>905</ele>
        <time>2018-09-03T20:47:30Z</time>
      </trkpt>
      <trkpt lat="46.48126" lon="6.0304">
        <ele>906</ele>
        <time>2018-09-03T20:47:35Z</time>
      </trkpt>
      <trkpt lat="46.48123" lon="6.03043">
        <ele>907</ele>
        <time>2018-09-03T20:47:45Z</time>
      </trkpt>
      <trkpt lat="46.48121" lon="6.03045">
        <ele>908</ele>
        <time>2018-09-03T20:47:50Z</time>
      </trkpt>
      <trkpt lat="46.48115" lon="6.03045">
        <ele>910</ele>
        <time>2018-09-03T20:48:00Z</time>
      </trkpt>
      <trkpt lat="46.48112" lon="6.03043">
        <ele>910</ele>
        <time>2018-09-03T20:48:05Z</time>
      </trkpt>
      <trkpt lat="46.48109" lon="6.03043">
        <ele>910</ele>
        <time>2018-09-03T20:48:10Z</time>
      </trkpt>
      <trkpt lat="46.48102" lon="6.03042">
        <ele>911</ele>
        <time>2018-09-03T20:48:20Z</time>
      </trkpt>
      <trkpt lat="46.48098" lon="6.0304">
        <ele>912</ele>
        <time>2018-09-03T20:48:25Z</time>
      </trkpt>
      <trkpt lat="46.4809" lon="6.03034">
        <ele>912</ele>
        <time>2018-09-03T20:48:35Z</time>
      </trkpt>
      <trkpt lat="46.48088" lon="6.03031">
        <ele>912</ele>
        <time>2018-09-03T20:48:40Z</time>
      </trkpt>
      <trkpt lat="46.48081" lon="6.03026">
        <ele>912</ele>
        <time>2018-09-03T20:48:50Z</time>
      </trkpt>
      <trkpt lat="46.48077" lon="6.03023">
        <ele>912</ele>
        <time>2018-09-03T20:48:55Z</time>
      </trkpt>
      <trkpt lat="46.48073" lon="6.03021">
        <ele>913</ele>
        <time>2018-09-03T20:49:00Z</time>
      </trkpt>
      <trkpt lat="46.48065" lon="6.03017">
        <ele>913</ele>
        <time>2018-09-03T20:49:10Z</time>
      </trkpt>
      <trkpt lat="46.48061" lon="6.03015">
        <ele>914</ele>
        <time>2018-09-03T20:49:15Z</time>
      </trkpt>
      <trkpt lat="46.48054" lon="6.0301">
        <ele>914</ele>
        <time>2018-09-03T20:49:25Z</time>
      </trkpt>
      <trkpt lat="46.4805" lon="6.0301">
        <ele>915</ele>
        <time>2018-09-03T20:49:30Z</time>
      </trkpt>
      <trkpt lat="46.48041" lon="6.03009">
        <ele>916</ele>
        <time>2018-09-03T20:49:40Z</time>
      </trkpt>
      <trkpt lat="46.48037" lon="6.03011">
        <ele>917</ele>
        <time>2018-09-03T20:49:45Z</time>
      </trkpt>
      <trkpt lat="46.48034" lon="6.03011">
        <ele>918</ele>
        <time>2018-09-03T20:49:50Z</time>
      </trkpt>
      <trkpt lat="46.48025" lon="6.03014">
        <ele>920</ele>
        <time>2018-09-03T20:50:00Z</time>
      </trkpt>
      <trkpt lat="46.48022" lon="6.03016">
        <ele>921</ele>
        <time>2018-09-03T20:50:05Z</time>
      </trkpt>
      <trkpt lat="46.48019" lon="6.03025">
        <ele>924</ele>
        <time>2018-09-03T20:50:15Z</time>
      </trkpt>
      <trkpt lat="46.48017" lon="6.0303">
        <ele>925</ele>
        <time>2018-09-03T20:50:20Z</time>
      </trkpt>
      <trkpt lat="46.48013" lon="6.0304">
        <ele>928</ele>
        <time>2018-09-03T20:50:30Z</time>
      </trkpt>
      <trkpt lat="46.48013" lon="6.03045">
        <ele>930</ele>
        <time>2018-09-03T20:50:35Z</time>
      </trkpt>
      <trkpt lat="46.48011" lon="6.0305">
        <ele>931</ele>
        <time>2018-09-03T20:50:40Z</time>
      </trkpt>
      <trkpt lat="46.48009" lon="6.03062">
        <ele>934</ele>
        <time>2018-09-03T20:50:50Z</time>
      </trkpt>
      <trkpt lat="46.48008" lon="6.03068">
        <ele>936</ele>
        <time>2018-09-03T20:50:55Z</time>
      </trkpt>
      <trkpt lat="46.48009" lon="6.03077">
        <ele>938</ele>
        <time>2018-09-03T20:51:05Z</time>
      </trkpt>
      <trkpt lat="46.48011" lon="6.03081">
        <ele>938</ele>
        <time>2018-09-03T20:51:10Z</time>
      </trkpt>
      <trkpt lat="46.48014" lon="6.03097">
        <ele>941</ele>
        <time>2018-09-03T20:51:20Z</time>
      </trkpt>
      <trkpt lat="46.48012" lon="6.03104">
        <ele>942</ele>
        <time>2018-09-03T20:51:25Z</time>
      </trkpt>
      <trkpt lat="46.48009" lon="6.03112">
        <ele>944</ele>
        <time>2018-09-03T20:51:35Z</time>
      </trkpt>
      <trkpt lat="46.48009" lon="6.03112">
        <ele>944</ele>
        <time>2018-09-03T20:51:40Z</time>
      </trkpt>
      <trkpt lat="46.48009" lon="6.03112">
        <ele>944</ele>
        <time>2018-09-03T20:51:45Z</time>
      </trkpt>
      <trkpt lat="46.48" lon="6.03122">
        <ele>948</ele>
        <time>2018-09-03T20:51:55Z</time>
      </trkpt>
      <trkpt lat="46.47995" lon="6.03127">
        <ele>950</ele>
        <time>2018-09-03T20:52:00Z</time>
      </trkpt>
      <trkpt lat="46.47989" lon="6.0314">
        <ele>953</ele>
        <time>2018-09-03T20:52:10Z</time>
      </trkpt>
      <trkpt lat="46.47988" lon="6.03147">
        <ele>955</ele>
        <time>2018-09-03T20:52:15Z</time>
      </trkpt>
      <trkpt lat="46.47984" lon="6.03162">
        <ele>957</ele>
        <time>2018-09-03T20:52:25Z</time>
      </trkpt>
      <trkpt lat="46.47983" lon="6.03169">
        <ele>958</ele>
        <time>2018-09-03T20:52:30Z</time>
      </trkpt>
      <trkpt lat="46.47981" lon="6.03175">
        <ele>959</ele>
        <time>2018-09-03T20:52:35Z</time>
      </trkpt>
      <trkpt lat="46.47975" lon="6.03184">
        <ele>961</ele>
        <time>2018-09-03T20:52:45Z</time>
      </trkpt>
      <trkpt lat="46.47973" lon="6.03186">
        <ele>962</ele>
        <time>2018-09-03T20:52:50Z</time>
      </trkpt>
      <trkpt lat="46.47969" lon="6.0319">
        <ele>962</ele>
        <time>2018-09-03T20:53:00Z</time>
      </trkpt>
      <trkpt lat="46.47969" lon="6.03191">
        <ele>963</ele>
        <time>2018-09-03T20:53:05Z</time>
      </trkpt>
      <trkpt lat="46.47959" lon="6.03196">
        <ele>964</ele>
        <time>2018-09-03T20:53:15Z</time>
      </trkpt>
      <trkpt lat="46.47954" lon="6.03199">
        <ele>965</ele>
        <time>2018-09-03T20:53:20Z</time>
      </trkpt>
      <trkpt lat="46.47949" lon="6.03202">
        <ele>966</ele>
        <time>2018-09-03T20:53:25Z</time>
      </trkpt>
      <trkpt lat="46.4794" lon="6.03209">
        <ele>967</ele>
        <time>2018-09-03T20:53:35Z</time>
      </trkpt>
      <trkpt lat="46.47936" lon="6.03213">
        <ele>968</ele>
        <time>2018-09-03T20:53:40Z</time>
      </trkpt>
      <trkpt lat="46.47924" lon="6.03214">
        <ele>969</ele>
        <time>2018-09-03T20:53:50Z</time>
      </trkpt>
      <trkpt lat="46.4792" lon="6.03215">
        <ele>970</ele>
        <time>2018-09-03T20:53:55Z</time>
      </trkpt>
      <trkpt lat="46.47911" lon="6.03221">
        <ele>971</ele>
        <time>2018-09-03T20:54:05Z</time>
      </trkpt>
      <trkpt lat="46.47906" lon="6.03225">
        <ele>972</ele>
        <time>2018-09-03T20:54:10Z</time>
      </trkpt>
      <trkpt lat="46.47902" lon="6.03228">
        <ele>972</ele>
        <time>2018-09-03T20:54:15Z</time>
      </trkpt>
      <trkpt lat="46.47895" lon="6.03238">
        <ele>973</ele>
        <time>2018-09-03T20:54:25Z</time>
      </trkpt>
      <trkpt lat="46.4789" lon="6.03242">
        <ele>974</ele>
        <time>2018-09-03T20:54:30Z</time>
      </trkpt>
      <trkpt lat="46.47883" lon="6.03252">
        <ele>975</ele>
        <time>2018-09-03T20:54:40Z</time>
      </trkpt>
      <trkpt lat="46.47881" lon="6.03259">
        <ele>975</ele>
        <time>2018-09-03T20:54:45Z</time>
      </trkpt>
      <trkpt lat="46.47877" lon="6.03272">
        <ele>976</ele>
        <time>2018-09-03T20:54:55Z</time>
      </trkpt>
      <trkpt lat="46.47875" lon="6.03279">
        <ele>976</ele>
        <time>2018-09-03T20:55:00Z</time>
      </trkpt>
      <trkpt lat="46.47871" lon="6.03284">
        <ele>977</ele>
        <time>2018-09-03T20:55:05Z</time>
      </trkpt>
      <trkpt lat="46.47863" lon="6.03296">
        <ele>977</ele>
        <time>2018-09-03T20:55:15Z</time>
      </trkpt>
      <trkpt lat="46.47859" lon="6.03301">
        <ele>978</ele>
        <time>2018-09-03T20:55:20Z</time>
      </trkpt>
      <trkpt lat="46.47851" lon="6.03308">
        <ele>978</ele>
        <time>2018-09-03T20:55:30Z</time>
      </trkpt>
      <trkpt lat="46.47846" lon="6.0331">
        <ele>979</ele>
        <time>2018-09-03T20:55:35Z</time>
      </trkpt>
      <trkpt lat="46.47836" lon="6.03315">
        <ele>979</ele>
        <time>2018-09-03T20:55:45Z</time>
      </trkpt>
      <trkpt lat="46.47832" lon="6.03318">
        <ele>980</ele>
        <time>2018-09-03T20:55:50Z</time>
      </trkpt>
      <trkpt lat="46.47823" lon="6.03319">
        <ele>980</ele>
        <time>2018-09-03T20:56:00Z</time>
      </trkpt>
      <trkpt lat="46.47818" lon="6.03318">
        <ele>980</ele>
        <time>2018-09-03T20:56:05Z</time>
      </trkpt>
      <trkpt lat="46.47816" lon="6.03318">
        <ele>981</ele>
        <time>2018-09-03T20:56:10Z</time>
      </trkpt>
      <trkpt lat="46.47811" lon="6.03321">
        <ele>981</ele>
        <time>2018-09-03T20:56:20Z</time>
      </trkpt>
      <trkpt lat="46.47811" lon="6.03328">
        <ele>981</ele>
        <time>2018-09-03T20:56:25Z</time>
      </trkpt>
      <trkpt lat="46.47815" lon="6.03345">
        <ele>980</ele>
        <time>2018-09-03T20:56:35Z</time>
      </trkpt>
      <trkpt lat="46.47817" lon="6.03351">
        <ele>980</ele>
        <time>2018-09-03T20:56:40Z</time>
      </trkpt>
      <trkpt lat="46.47818" lon="6.03359">
        <ele>979</ele>
        <time>2018-09-03T20:56:50Z</time>
      </trkpt>
      <trkpt lat="46.47818" lon="6.0336">
        <ele>979</ele>
        <time>2018-09-03T20:56:55Z</time>
      </trkpt>
      <trkpt lat="46.47818" lon="6.0336">
        <ele>979</ele>
        <time>2018-09-03T20:57:00Z</time>
      </trkpt>
      <trkpt lat="46.47822" lon="6.03367">
        <ele>979</ele>
        <time>2018-09-03T20:57:10Z</time>
      </trkpt>
      <trkpt lat="46.47823" lon="6.03371">
        <ele>978</ele>
        <time>2018-09-03T20:57:15Z</time>
      </trkpt>
      <trkpt lat="46.47829" lon="6.03379">
        <ele>978</ele>
        <time>2018-09-03T20:57:25Z</time>
      </trkpt>
      <trkpt lat="46.4783" lon="6.03384">
        <ele>977</ele>
        <time>2018-09-03T20:57:30Z</time>
      </trkpt>
      <trkpt lat="46.47835" lon="6.03394">
        <ele>977</ele>
        <time>2018-09-03T20:57:40Z</time>
      </trkpt>
      <trkpt lat="46.47836" lon="6.03399">
        <ele>976</ele>
        <time>2018-09-03T20:57:45Z</time>
      </trkpt>
      <trkpt lat="46.47838" lon="6.03404">
        <ele>976</ele>
        <time>2018-09-03T20:57:50Z</time>
      </trkpt>
      <trkpt lat="46.4784" lon="6.03413">
        <ele>976</ele>
        <time>2018-09-03T20:58:00Z</time>
      </trkpt>
      <trkpt lat="46.47841" lon="6.03418">
        <ele>975</ele>
        <time>2018-09-03T20:58:05Z</time>
      </trkpt>
      <trkpt lat="46.47843" lon="6.03431">
        <ele>975</ele>
        <time>2018-09-03T20:58:15Z</time>
      </trkpt>
      <trkpt lat="46.47845" lon="6.03437">
        <ele>975</ele>
        <time>2018-09-03T20:58:20Z</time>
      </trkpt>
      <trkpt lat="46.47847" lon="6.03451">
        <ele>974</ele>
        <time>2018-09-03T20:58:30Z</time>
      </trkpt>
      <trkpt lat="46.47848" lon="6.03458">
        <ele>974</ele>
        <time>2018-09-03T20:58:35Z</time>
      </trkpt>
      <trkpt lat="46.4785" lon="6.03465">
        <ele>974</ele>
        <time>2018-09-03T20:58:40Z</time>
      </trkpt>
      <trkpt lat="46.47854" lon="6.0348">
        <ele>973</ele>
        <time>2018-09-03T20:58:50Z</time>
      </trkpt>
      <trkpt lat="46.47856" lon="6.03487">
        <ele>972</ele>
        <time>2018-09-03T20:58:55Z</time>
      </trkpt>
      <trkpt lat="46.47859" lon="6.035">
        <ele>971</ele>
        <time>2018-09-03T20:59:05Z</time>
      </trkpt>
      <trkpt lat="46.47861" lon="6.03507">
        <ele>970</ele>
        <time>2018-09-03T20:59:10Z</time>
      </trkpt>
      <trkpt lat="46.47865" lon="6.03519">
        <ele>968</ele>
        <time>2018-09-03T20:59:20Z</time>
      </trkpt>
      <trkpt lat="46.47867" lon="6.03524">
        <ele>967</ele>
        <time>2018-09-03T20:59:25Z</time>
      </trkpt>
      <trkpt lat="46.47869" lon="6.0353">
        <ele>966</ele>
        <time>2018-09-03T20:59:30Z</time>
      </trkpt>
      <trkpt lat="46.47871" lon="6.03543">
        <ele>965</ele>
        <time>2018-09-03T20:59:40Z</time>
      </trkpt>
      <trkpt lat="46.47872" lon="6.03551">
        <ele>964</ele>
        <time>2018-09-03T20:59:45Z</time>
      </trkpt>
      <trkpt lat="46.4787" lon="6.03567">
        <ele>963</ele>
        <time>2018-09-03T20:59:55Z</time>
      </trkpt>
      <trkpt lat="46.47872" lon="6.03573">
        <ele>963</ele>
        <time>2018-09-03T21:00:00Z</time>
      </trkpt>
      <trkpt lat="46.47873" lon="6.03587">
        <ele>959</ele>
        <time>2018-09-03T21:00:10Z</time>
      </trkpt>
      <trkpt lat="46.47873" lon="6.03593">
        <ele>958</ele>
        <time>2018-09-03T21:00:15Z</time>
      </trkpt>
      <trkpt lat="46.4787" lon="6.03602">
        <ele>957</ele>
        <time>2018-09-03T21:00:25Z</time>
      </trkpt>
      <trkpt lat="46.47866" lon="6.03606">
        <ele>957</ele>
        <time>2018-09-03T21:00:30Z</time>
      </trkpt>
      <trkpt lat="46.47862" lon="6.03609">
        <ele>957</ele>
        <time>2018-09-03T21:00:35Z</time>
      </trkpt>
      <trkpt lat="46.47853" lon="6.03611">
        <ele>959</ele>
        <time>2018-09-03T21:00:45Z</time>
      </trkpt>
      <trkpt lat="46.47849" lon="6.03613">
        <ele>960</ele>
        <time>2018-09-03T21:00:50Z</time>
      </trkpt>
      <trkpt lat="46.47841" lon="6.03616">
        <ele>961</ele>
        <time>2018-09-03T21:01:00Z</time>
      </trkpt>
      <trkpt lat="46.47836" lon="6.03618">
        <ele>962</ele>
        <time>2018-09-03T21:01:05Z</time>
      </trkpt>
      <trkpt lat="46.47827" lon="6.03625">
        <ele>963</ele>
        <time>2018-09-03T21:01:15Z</time>
      </trkpt>
      <trkpt lat="46.47825" lon="6.03628">
        <ele>963</ele>
        <time>2018-09-03T21:01:20Z</time>
      </trkpt>
      <trkpt lat="46.47822" lon="6.03632">
        <ele>963</ele>
        <time>2018-09-03T21:01:25Z</time>
      </trkpt>
      <trkpt lat="46.47816" lon="6.03642">
        <ele>963</ele>
        <time>2018-09-03T21:01:35Z</time>
      </trkpt>
      <trkpt lat="46.47812" lon="6.03645">
        <ele>964</ele>
        <time>2018-09-03T21:01:40Z</time>
      </trkpt>
      <trkpt lat="46.47807" lon="6.03649">
        <ele>965</ele>
        <time>2018-09-03T21:01:50Z</time>
      </trkpt>
      <trkpt lat="46.47803" lon="6.03652">
        <ele>965</ele>
        <time>2018-09-03T21:01:55Z</time>
      </trkpt>
      <trkpt lat="46.47799" lon="6.03656">
        <ele>966</ele>
        <time>2018-09-03T21:02:05Z</time>
      </trkpt>
      <trkpt lat="46.47799" lon="6.03659">
        <ele>966</ele>
        <time>2018-09-03T21:02:10Z</time>
      </trkpt>
      <trkpt lat="46.47799" lon="6.03662">
        <ele>966</ele>
        <time>2018-09-03T21:02:15Z</time>
      </trkpt>
      <trkpt lat="46.478" lon="6.03669">
        <ele>965</ele>
        <time>2018-09-03T21:02:25Z</time>
      </trkpt>
      <trkpt lat="46.478" lon="6.03673">
        <ele>965</ele>
        <time>2018-09-03T21:02:30Z</time>
      </trkpt>
      <trkpt lat="46.478" lon="6.03672">
        <ele>965</ele>
        <time>2018-09-03T21:02:40Z</time>
      </trkpt>
      <trkpt lat="46.478" lon="6.03672">
        <ele>965</ele>
        <time>2018-09-03T21:02:45Z</time>
      </trkpt>
      <trkpt lat="46.47801" lon="6.03672">
        <ele>965</ele>
        <time>2018-09-03T21:02:55Z</time>
      </trkpt>
      <trkpt lat="46.478" lon="6.03673">
        <ele>965</ele>
        <time>2018-09-03T21:03:00Z</time>
      </trkpt>
      <trkpt lat="46.478" lon="6.03673">
        <ele>965</ele>
        <time>2018-09-03T21:03:05Z</time>
      </trkpt>
      <trkpt lat="46.478" lon="6.03673">
        <ele>965</ele>
        <time>2018-09-03T21:03:15Z</time>
      </trkpt>
      <trkpt lat="46.478" lon="6.03674">
        <ele>965</ele>
        <time>2018-09-03T21:03:20Z</time>
      </trkpt>
      <trkpt lat="46.47799" lon="6.03676">
        <ele>965</ele>
        <time>2018-09-03T21:03:30Z</time>
      </trkpt>
      <trkpt lat="46.47799" lon="6.03677">
        <ele>965</ele>
        <time>2018-09-03T21:03:35Z</time>
      </trkpt>
      <trkpt lat="46.47799" lon="6.0368">
        <ele>965</ele>
        <time>2018-09-03T21:03:45Z</time>
      </trkpt>
      <trkpt lat="46.47799" lon="6.03682">
        <ele>965</ele>
        <time>2018-09-03T21:03:50Z</time>
      </trkpt>
      <trkpt lat="46.478" lon="6.03684">
        <ele>964</ele>
        <time>2018-09-03T21:03:55Z</time>
      </trkpt>
      <trkpt lat="46.47802" lon="6.03691">
        <ele>964</ele>
        <time>2018-09-03T21:04:05Z</time>
      </trkpt>
      <trkpt lat="46.47803" lon="6.03694">
        <ele>963</ele>
        <time>2018-09-03T21:04:10Z</time>
      </trkpt>
      <trkpt lat="46.47805" lon="6.03702">
        <ele>963</ele>
        <time>2018-09-03T21:04:20Z</time>
      </trkpt>
      <trkpt lat="46.47809" lon="6.03705">
        <ele>963</ele>
        <time>2018-09-03T21:04:25Z</time>
      </trkpt>
      <trkpt lat="46.47815" lon="6.03715">
        <ele>963</ele>
        <time>2018-09-03T21:04:35Z</time>
      </trkpt>
      <trkpt lat="46.47818" lon="6.03719">
        <ele>964</ele>
        <time>2018-09-03T21:04:40Z</time>
      </trkpt>
      <trkpt lat="46.47822" lon="6.03727">
        <ele>965</ele>
        <time>2018-09-03T21:04:50Z</time>
      </trkpt>
      <trkpt lat="46.47823" lon="6.03731">
        <ele>966</ele>
        <time>2018-09-03T21:04:55Z</time>
      </trkpt>
      <trkpt lat="46.47825" lon="6.03735">
        <ele>966</ele>
        <time>2018-09-03T21:05:00Z</time>
      </trkpt>
      <trkpt lat="46.47828" lon="6.03745">
        <ele>967</ele>
        <time>2018-09-03T21:05:10Z</time>
      </trkpt>
      <trkpt lat="46.47832" lon="6.03749">
        <ele>967</ele>
        <time>2018-09-03T21:05:15Z</time>
      </trkpt>
      <trkpt lat="46.47833" lon="6.03758">
        <ele>967</ele>
        <time>2018-09-03T21:05:25Z</time>
      </trkpt>
      <trkpt lat="46.47834" lon="6.03765">
        <ele>966</ele>
        <time>2018-09-03T21:05:30Z</time>
      </trkpt>
      <trkpt lat="46.47837" lon="6.03778">
        <ele>964</ele>
        <time>2018-09-03T21:05:40Z</time>
      </trkpt>
      <trkpt lat="46.47837" lon="6.03784">
        <ele>964</ele>
        <time>2018-09-03T21:05:45Z</time>
      </trkpt>
      <trkpt lat="46.47838" lon="6.03791">
        <ele>963</ele>
        <time>2018-09-03T21:05:50Z</time>
      </trkpt>
      <trkpt lat="46.47841" lon="6.03803">
        <ele>962</ele>
        <time>2018-09-03T21:06:00Z</time>
      </trkpt>
      <trkpt lat="46.47841" lon="6.03806">
        <ele>962</ele>
        <time>2018-09-03T21:06:05Z</time>
      </trkpt>
      <trkpt lat="46.47842" lon="6.03818">
        <ele>963</ele>
        <time>2018-09-03T21:06:15Z</time>
      </trkpt>
      <trkpt lat="46.47845" lon="6.03825">
        <ele>960</ele>
        <time>2018-09-03T21:06:20Z</time>
      </trkpt>
      <trkpt lat="46.47849" lon="6.03838">
        <ele>952</ele>
        <time>2018-09-03T21:06:30Z</time>
      </trkpt>
      <trkpt lat="46.4785" lon="6.03846">
        <ele>948</ele>
        <time>2018-09-03T21:06:35Z</time>
      </trkpt>
      <trkpt lat="46.4785" lon="6.03854">
        <ele>945</ele>
        <time>2018-09-03T21:06:40Z</time>
      </trkpt>
      <trkpt lat="46.47852" lon="6.03866">
        <ele>941</ele>
        <time>2018-09-03T21:06:50Z</time>
      </trkpt>
      <trkpt lat="46.47853" lon="6.03872">
        <ele>939</ele>
        <time>2018-09-03T21:06:55Z</time>
      </trkpt>
      <trkpt lat="46.47852" lon="6.03884">
        <ele>936</ele>
        <time>2018-09-03T21:07:05Z</time>
      </trkpt>
      <trkpt lat="46.47851" lon="6.0389">
        <ele>935</ele>
        <time>2018-09-03T21:07:10Z</time>
      </trkpt>
      <trkpt lat="46.47849" lon="6.03901">
        <ele>933</ele>
        <time>2018-09-03T21:07:20Z</time>
      </trkpt>
      <trkpt lat="46.47848" lon="6.03904">
        <ele>932</ele>
        <time>2018-09-03T21:07:25Z</time>
      </trkpt>
      <trkpt lat="46.47846" lon="6.03909">
        <ele>932</ele>
        <time>2018-09-03T21:07:30Z</time>
      </trkpt>
      <trkpt lat="46.47845" lon="6.03916">
        <ele>930</ele>
        <time>2018-09-03T21:07:40Z</time>
      </trkpt>
      <trkpt lat="46.47846" lon="6.0392">
        <ele>929</ele>
        <time>2018-09-03T21:07:45Z</time>
      </trkpt>
      <trkpt lat="46.47844" lon="6.03928">
        <ele>928</ele>
        <time>2018-09-03T21:07:55Z</time>
      </trkpt>
      <trkpt lat="46.47843" lon="6.0393">
        <ele>927</ele>
        <time>2018-09-03T21:08:00Z</time>
      </trkpt>
      <trkpt lat="46.47843" lon="6.03937">
        <ele>926</ele>
        <time>2018-09-03T21:08:10Z</time>
      </trkpt>
      <trkpt lat="46.47843" lon="6.0394">
        <ele>925</ele>
        <time>2018-09-03T21:08:15Z</time>
      </trkpt>
      <trkpt lat="46.47844" lon="6.03944">
        <ele>924</ele>
        <time>2018-09-03T21:08:20Z</time>
      </trkpt>
      <trkpt lat="46.47846" lon="6.0395">
        <ele>922</ele>
        <time>2018-09-03T21:08:30Z</time>
      </trkpt>
      <trkpt lat="46.47848" lon="6.0395">
        <ele>921</ele>
        <time>2018-09-03T21:08:35Z</time>
      </trkpt>
      <trkpt lat="46.47852" lon="6.03952">
        <ele>920</ele>
        <time>2018-09-03T21:08:45Z</time>
      </trkpt>
      <trkpt lat="46.47855" lon="6.03953">
        <ele>919</ele>
        <time>2018-09-03T21:08:50Z</time>
      </trkpt>
      <trkpt lat="46.47855" lon="6.03958">
        <ele>918</ele>
        <time>2018-09-03T21:09:00Z</time>
      </trkpt>
      <trkpt lat="46.47856" lon="6.03961">
        <ele>917</ele>
        <time>2018-09-03T21:09:05Z</time>
      </trkpt>
      <trkpt lat="46.47861" lon="6.03959">
        <ele>916</ele>
        <time>2018-09-03T21:09:15Z</time>
      </trkpt>
      <trkpt lat="46.47864" lon="6.03956">
        <ele>916</ele>
        <time>2018-09-03T21:09:20Z</time>
      </trkpt>
      <trkpt lat="46.47865" lon="6.03954">
        <ele>916</ele>
        <time>2018-09-03T21:09:25Z</time>
      </trkpt>
      <trkpt lat="46.47867" lon="6.03952">
        <ele>916</ele>
        <time>2018-09-03T21:09:35Z</time>
      </trkpt>
      <trkpt lat="46.47867" lon="6.03958">
        <ele>914</ele>
        <time>2018-09-03T21:09:40Z</time>
      </trkpt>
      <trkpt lat="46.47866" lon="6.03971">
        <ele>911</ele>
        <time>2018-09-03T21:09:50Z</time>
      </trkpt>
      <trkpt lat="46.47864" lon="6.03979">
        <ele>910</ele>
        <time>2018-09-03T21:09:55Z</time>
      </trkpt>
      <trkpt lat="46.47859" lon="6.03989">
        <ele>909</ele>
        <time>2018-09-03T21:10:05Z</time>
      </trkpt>
      <trkpt lat="46.47856" lon="6.03994">
        <ele>909</ele>
        <time>2018-09-03T21:10:10Z</time>
      </trkpt>
      <trkpt lat="46.47854" lon="6.03999">
        <ele>908</ele>
        <time>2018-09-03T21:10:15Z</time>
      </trkpt>
      <trkpt lat="46.47852" lon="6.04007">
        <ele>906</ele>
        <time>2018-09-03T21:10:25Z</time>
      </trkpt>
      <trkpt lat="46.47851" lon="6.04012">
        <ele>905</ele>
        <time>2018-09-03T21:10:30Z</time>
      </trkpt>
      <trkpt lat="46.47847" lon="6.04019">
        <ele>903</ele>
        <time>2018-09-03T21:10:40Z</time>
      </trkpt>
      <trkpt lat="46.47846" lon="6.04024">
        <ele>901</ele>
        <time>2018-09-03T21:10:45Z</time>
      </trkpt>
      <trkpt lat="46.47844" lon="6.04032">
        <ele>899</ele>
        <time>2018-09-03T21:10:55Z</time>
      </trkpt>
      <trkpt lat="46.47843" lon="6.04037">
        <ele>898</ele>
        <time>2018-09-03T21:11:00Z</time>
      </trkpt>
      <trkpt lat="46.47841" lon="6.04042">
        <ele>898</ele>
        <time>2018-09-03T21:11:05Z</time>
      </trkpt>
      <trkpt lat="46.47838" lon="6.0405">
        <ele>899</ele>
        <time>2018-09-03T21:11:15Z</time>
      </trkpt>
      <trkpt lat="46.47836" lon="6.04054">
        <ele>899</ele>
        <time>2018-09-03T21:11:20Z</time>
      </trkpt>
      <trkpt lat="46.47835" lon="6.04059">
        <ele>899</ele>
        <time>2018-09-03T21:11:30Z</time>
      </trkpt>
      <trkpt lat="46.47836" lon="6.04061">
        <ele>899</ele>
        <time>2018-09-03T21:11:35Z</time>
      </trkpt>
      <trkpt lat="46.47837" lon="6.04066">
        <ele>898</ele>
        <time>2018-09-03T21:11:45Z</time>
      </trkpt>
      <trkpt lat="46.47838" lon="6.04068">
        <ele>898</ele>
        <time>2018-09-03T21:11:50Z</time>
      </trkpt>
      <trkpt lat="46.47839" lon="6.04071">
        <ele>897</ele>
        <time>2018-09-03T21:11:55Z</time>
      </trkpt>
      <trkpt lat="46.47841" lon="6.04076">
        <ele>896</ele>
        <time>2018-09-03T21:12:05Z</time>
      </trkpt>
      <trkpt lat="46.47841" lon="6.04081">
        <ele>895</ele>
        <time>2018-09-03T21:12:10Z</time>
      </trkpt>
      <trkpt lat="46.47843" lon="6.0409">
        <ele>894</ele>
        <time>2018-09-03T21:12:20Z</time>
      </trkpt>
      <trkpt lat="46.47843" lon="6.04094">
        <ele>893</ele>
        <time>2018-09-03T21:12:25Z</time>
      </trkpt>
      <trkpt lat="46.47842" lon="6.04097">
        <ele>893</ele>
        <time>2018-09-03T21:12:35Z</time>
      </trkpt>
      <trkpt lat="46.4784" lon="6.04101">
        <ele>893</ele>
        <time>2018-09-03T21:12:40Z</time>
      </trkpt>
      <trkpt lat="46.47835" lon="6.0411">
        <ele>893</ele>
        <time>2018-09-03T21:12:50Z</time>
      </trkpt>
      <trkpt lat="46.47833" lon="6.04112">
        <ele>893</ele>
        <time>2018-09-03T21:12:55Z</time>
      </trkpt>
      <trkpt lat="46.47832" lon="6.04115">
        <ele>892</ele>
        <time>2018-09-03T21:13:00Z</time>
      </trkpt>
      <trkpt lat="46.47828" lon="6.04122">
        <ele>892</ele>
        <time>2018-09-03T21:13:10Z</time>
      </trkpt>
      <trkpt lat="46.47827" lon="6.04125">
        <ele>891</ele>
        <time>2018-09-03T21:13:15Z</time>
      </trkpt>
      <trkpt lat="46.47822" lon="6.04133">
        <ele>891</ele>
        <time>2018-09-03T21:13:25Z</time>
      </trkpt>
      <trkpt lat="46.47818" lon="6.04136">
        <ele>893</ele>
        <time>2018-09-03T21:13:30Z</time>
      </trkpt>
      <trkpt lat="46.47811" lon="6.04142">
        <ele>894</ele>
        <time>2018-09-03T21:13:40Z</time>
      </trkpt>
      <trkpt lat="46.47807" lon="6.04146">
        <ele>895</ele>
        <time>2018-09-03T21:13:45Z</time>
      </trkpt>
      <trkpt lat="46.47803" lon="6.04149">
        <ele>895</ele>
        <time>2018-09-03T21:13:50Z</time>
      </trkpt>
      <trkpt lat="46.47802" lon="6.04153">
        <ele>895</ele>
        <time>2018-09-03T21:14:00Z</time>
      </trkpt>
      <trkpt lat="46.47801" lon="6.04154">
        <ele>895</ele>
        <time>2018-09-03T21:14:05Z</time>
      </trkpt>
      <trkpt lat="46.47801" lon="6.04155">
        <ele>895</ele>
        <time>2018-09-03T21:14:15Z</time>
      </trkpt>
      <trkpt lat="46.478" lon="6.04153">
        <ele>895</ele>
        <time>2018-09-03T21:14:20Z</time>
      </trkpt>
      <trkpt lat="46.47799" lon="6.04152">
        <ele>895</ele>
        <time>2018-09-03T21:14:30Z</time>
      </trkpt>
      <trkpt lat="46.47798" lon="6.04153">
        <ele>895</ele>
        <time>2018-09-03T21:14:35Z</time>
      </trkpt>
      <trkpt lat="46.47798" lon="6.04155">
        <ele>895</ele>
        <time>2018-09-03T21:14:40Z</time>
      </trkpt>
      <trkpt lat="46.478" lon="6.04151">
        <ele>895</ele>
        <time>2018-09-03T21:14:50Z</time>
      </trkpt>
      <trkpt lat="46.47799" lon="6.04149">
        <ele>895</ele>
        <time>2018-09-03T21:14:55Z</time>
      </trkpt>
      <trkpt lat="46.47799" lon="6.04149">
        <ele>895</ele>
        <time>2018-09-03T21:15:05Z</time>
      </trkpt>
      <trkpt lat="46.47796" lon="6.0415">
        <ele>895</ele>
        <time>2018-09-03T21:15:10Z</time>
      </trkpt>
      <trkpt lat="46.47787" lon="6.04156">
        <ele>892</ele>
        <time>2018-09-03T21:15:20Z</time>
      </trkpt>
      <trkpt lat="46.47785" lon="6.04159">
        <ele>888</ele>
        <time>2018-09-03T21:15:25Z</time>
      </trkpt>
      <trkpt lat="46.47785" lon="6.0416">
        <ele>888</ele>
        <time>2018-09-03T21:15:30Z</time>
      </trkpt>
      <trkpt lat="46.4778" lon="6.04167">
        <ele>881</ele>
        <time>2018-09-03T21:15:40Z</time>
      </trkpt>
      <trkpt lat="46.4778" lon="6.04169">
        <ele>882</ele>
        <time>2018-09-03T21:15:45Z</time>
      </trkpt>
      <trkpt lat="46.4778" lon="6.04174">
        <ele>885</ele>
        <time>2018-09-03T21:15:55Z</time>
      </trkpt>
      <trkpt lat="46.47783" lon="6.04181">
        <ele>893</ele>
        <time>2018-09-03T21:16:00Z</time>
      </trkpt>
      <trkpt lat="46.47782" lon="6.04179">
        <ele>891</ele>
        <time>2018-09-03T21:16:10Z</time>
      </trkpt>
      <trkpt lat="46.47781" lon="6.04178">
        <ele>889</ele>
        <time>2018-09-03T21:16:15Z</time>
      </trkpt>
      <trkpt lat="46.47783" lon="6.04183">
        <ele>895</ele>
        <time>2018-09-03T21:16:20Z</time>
      </trkpt>
      <trkpt lat="46.47783" lon="6.04186">
        <ele>896</ele>
        <time>2018-09-03T21:16:30Z</time>
      </trkpt>
      <trkpt lat="46.47783" lon="6.04186">
        <ele>896</ele>
        <time>2018-09-03T21:16:35Z</time>
      </trkpt>
      <trkpt lat="46.47792" lon="6.04183">
        <ele>899</ele>
        <time>2018-09-03T21:16:45Z</time>
      </trkpt>
      <trkpt lat="46.47799" lon="6.04183">
        <ele>901</ele>
        <time>2018-09-03T21:16:50Z</time>
      </trkpt>
      <trkpt lat="46.47806" lon="6.04184">
        <ele>902</ele>
        <time>2018-09-03T21:17:00Z</time>
      </trkpt>
      <trkpt lat="46.47811" lon="6.04184">
        <ele>902</ele>
        <time>2018-09-03T21:17:05Z</time>
      </trkpt>
      <trkpt lat="46.47819" lon="6.04189">
        <ele>905</ele>
        <time>2018-09-03T21:17:15Z</time>
      </trkpt>
      <trkpt lat="46.4782" lon="6.0419">
        <ele>906</ele>
        <time>2018-09-03T21:17:20Z</time>
      </trkpt>
      <trkpt lat="46.47821" lon="6.0419">
        <ele>906</ele>
        <time>2018-09-03T21:17:25Z</time>
      </trkpt>
      <trkpt lat="46.47821" lon="6.0419">
        <ele>906</ele>
        <time>2018-09-03T21:17:35Z</time>
      </trkpt>
      <trkpt lat="46.47822" lon="6.0419">
        <ele>906</ele>
        <time>2018-09-03T21:17:40Z</time>
      </trkpt>
      <trkpt lat="46.47823" lon="6.0419">
        <ele>906</ele>
        <time>2018-09-03T21:17:50Z</time>
      </trkpt>
      <trkpt lat="46.47822" lon="6.04189">
        <ele>905</ele>
        <time>2018-09-03T21:17:55Z</time>
      </trkpt>
      <trkpt lat="46.47827" lon="6.04185">
        <ele>903</ele>
        <time>2018-09-03T21:18:05Z</time>
      </trkpt>
      <trkpt lat="46.47832" lon="6.04185">
        <ele>902</ele>
        <time>2018-09-03T21:18:10Z</time>
      </trkpt>
      <trkpt lat="46.47836" lon="6.04185">
        <ele>902</ele>
        <time>2018-09-03T21:18:15Z</time>
      </trkpt>
      <trkpt lat="46.47842" lon="6.04188">
        <ele>903</ele>
        <time>2018-09-03T21:18:25Z</time>
      </trkpt>
      <trkpt lat="46.47845" lon="6.0419">
        <ele>903</ele>
        <time>2018-09-03T21:18:30Z</time>
      </trkpt>
      <trkpt lat="46.47851" lon="6.04188">
        <ele>902</ele>
        <time>2018-09-03T21:18:40Z</time>
      </trkpt>
      <trkpt lat="46.47853" lon="6.0419">
        <ele>903</ele>
        <time>2018-09-03T21:18:45Z</time>
      </trkpt>
      <trkpt lat="46.4786" lon="6.04187">
        <ele>902</ele>
        <time>2018-09-03T21:18:55Z</time>
      </trkpt>
      <trkpt lat="46.47863" lon="6.04187">
        <ele>902</ele>
        <time>2018-09-03T21:19:00Z</time>
      </trkpt>
      <trkpt lat="46.47866" lon="6.04187">
        <ele>901</ele>
        <time>2018-09-03T21:19:05Z</time>
      </trkpt>
      <trkpt lat="46.47868" lon="6.04186">
        <ele>901</ele>
        <time>2018-09-03T21:19:15Z</time>
      </trkpt>
      <trkpt lat="46.47869" lon="6.04187">
        <ele>901</ele>
        <time>2018-09-03T21:19:20Z</time>
      </trkpt>
      <trkpt lat="46.47874" lon="6.04192">
        <ele>903</ele>
        <time>2018-09-03T21:19:30Z</time>
      </trkpt>
      <trkpt lat="46.47876" lon="6.04195">
        <ele>903</ele>
        <time>2018-09-03T21:19:35Z</time>
      </trkpt>
      <trkpt lat="46.47879" lon="6.04199">
        <ele>904</ele>
        <time>2018-09-03T21:19:45Z</time>
      </trkpt>
      <trkpt lat="46.4788" lon="6.04202">
        <ele>905</ele>
        <time>2018-09-03T21:19:50Z</time>
      </trkpt>
      <trkpt lat="46.47883" lon="6.04203">
        <ele>905</ele>
        <time>2018-09-03T21:19:55Z</time>
      </trkpt>
      <trkpt lat="46.47887" lon="6.04207">
        <ele>906</ele>
        <time>2018-09-03T21:20:05Z</time>
      </trkpt>
      <trkpt lat="46.47891" lon="6.04209">
        <ele>906</ele>
        <time>2018-09-03T21:20:10Z</time>
      </trkpt>
      <trkpt lat="46.47894" lon="6.04212">
        <ele>907</ele>
        <time>2018-09-03T21:20:20Z</time>
      </trkpt>
      <trkpt lat="46.47897" lon="6.04216">
        <ele>908</ele>
        <time>2018-09-03T21:20:25Z</time>
      </trkpt>
      <trkpt lat="46.47903" lon="6.04224">
        <ele>910</ele>
        <time>2018-09-03T21:20:35Z</time>
      </trkpt>
      <trkpt lat="46.47904" lon="6.04226">
        <ele>911</ele>
        <time>2018-09-03T21:20:40Z</time>
      </trkpt>
      <trkpt lat="46.47902" lon="6.04228">
        <ele>912</ele>
        <time>2018-09-03T21:20:45Z</time>
      </trkpt>
      <trkpt lat="46.47898" lon="6.04228">
        <ele>913</ele>
        <time>2018-09-03T21:20:55Z</time>
      </trkpt>
      <trkpt lat="46.47897" lon="6.04228">
        <ele>913</ele>
        <time>2018-09-03T21:21:00Z</time>
      </trkpt>
      <trkpt lat="46.47892" lon="6.04226">
        <ele>912</ele>
        <time>2018-09-03T21:21:10Z</time>
      </trkpt>
      <trkpt lat="46.47889" lon="6.04229">
        <ele>913</ele>
        <time>2018-09-03T21:21:15Z</time>
      </trkpt>
      <trkpt lat="46.47883" lon="6.04238">
        <ele>917</ele>
        <time>2018-09-03T21:21:25Z</time>
      </trkpt>
      <trkpt lat="46.47878" lon="6.04242">
        <ele>918</ele>
        <time>2018-09-03T21:21:30Z</time>
      </trkpt>
      <trkpt lat="46.47873" lon="6.04249">
        <ele>920</ele>
        <time>2018-09-03T21:21:40Z</time>
      </trkpt>
      <trkpt lat="46.4787" lon="6.04254">
        <ele>922</ele>
        <time>2018-09-03T21:21:45Z</time>
      </trkpt>
      <trkpt lat="46.47868" lon="6.04258">
        <ele>923</ele>
        <time>2018-09-03T21:21:50Z</time>
      </trkpt>
      <trkpt lat="46.47863" lon="6.04267">
        <ele>926</ele>
        <time>2018-09-03T21:22:00Z</time>
      </trkpt>
      <trkpt lat="46.47859" lon="6.04269">
        <ele>926</ele>
        <time>2018-09-03T21:22:05Z</time>
      </trkpt>
      <trkpt lat="46.47852" lon="6.04277">
        <ele>928</ele>
        <time>2018-09-03T21:22:15Z</time>
      </trkpt>
      <trkpt lat="46.47849" lon="6.0428">
        <ele>929</ele>
        <time>2018-09-03T21:22:20Z</time>
      </trkpt>
      <trkpt lat="46.47845" lon="6.04287">
        <ele>930</ele>
        <time>2018-09-03T21:22:30Z</time>
      </trkpt>
      <trkpt lat="46.47844" lon="6.04293">
        <ele>932</ele>
        <time>2018-09-03T21:22:35Z</time>
      </trkpt>
      <trkpt lat="46.47842" lon="6.04299">
        <ele>934</ele>
        <time>2018-09-03T21:22:40Z</time>
      </trkpt>
      <trkpt lat="46.47839" lon="6.04311">
        <ele>937</ele>
        <time>2018-09-03T21:22:50Z</time>
      </trkpt>
      <trkpt lat="46.47834" lon="6.04316">
        <ele>937</ele>
        <time>2018-09-03T21:22:55Z</time>
      </trkpt>
      <trkpt lat="46.47827" lon="6.04325">
        <ele>945</ele>
        <time>2018-09-03T21:23:05Z</time>
      </trkpt>
      <trkpt lat="46.47823" lon="6.04328">
        <ele>947</ele>
        <time>2018-09-03T21:23:10Z</time>
      </trkpt>
      <trkpt lat="46.47818" lon="6.04336">
        <ele>951</ele>
        <time>2018-09-03T21:23:20Z</time>
      </trkpt>
      <trkpt lat="46.47815" lon="6.04338">
        <ele>951</ele>
        <time>2018-09-03T21:23:25Z</time>
      </trkpt>
      <trkpt lat="46.47811" lon="6.0434">
        <ele>952</ele>
        <time>2018-09-03T21:23:30Z</time>
      </trkpt>
      <trkpt lat="46.47805" lon="6.04344">
        <ele>953</ele>
        <time>2018-09-03T21:23:40Z</time>
      </trkpt>
      <trkpt lat="46.47799" lon="6.04345">
        <ele>953</ele>
        <time>2018-09-03T21:23:45Z</time>
      </trkpt>
      <trkpt lat="46.47791" lon="6.04344">
        <ele>951</ele>
        <time>2018-09-03T21:23:55Z</time>
      </trkpt>
      <trkpt lat="46.47787" lon="6.04341">
        <ele>949</ele>
        <time>2018-09-03T21:24:00Z</time>
      </trkpt>
      <trkpt lat="46.47781" lon="6.04331">
        <ele>945</ele>
        <time>2018-09-03T21:24:10Z</time>
      </trkpt>
      <trkpt lat="46.47778" lon="6.04327">
        <ele>943</ele>
        <time>2018-09-03T21:24:15Z</time>
      </trkpt>
      <trkpt lat="46.47776" lon="6.04325">
        <ele>943</ele>
        <time>2018-09-03T21:24:20Z</time>
      </trkpt>
      <trkpt lat="46.4777" lon="6.04329">
        <ele>944</ele>
        <time>2018-09-03T21:24:30Z</time>
      </trkpt>
      <trkpt lat="46.47767" lon="6.04329">
        <ele>943</ele>
        <time>2018-09-03T21:24:35Z</time>
      </trkpt>
      <trkpt lat="46.47763" lon="6.04333">
        <ele>944</ele>
        <time>2018-09-03T21:24:45Z</time>
      </trkpt>
      <trkpt lat="46.47761" lon="6.04336">
        <ele>945</ele>
        <time>2018-09-03T21:24:50Z</time>
      </trkpt>
      <trkpt lat="46.47759" lon="6.04345">
        <ele>947</ele>
        <time>2018-09-03T21:25:00Z</time>
      </trkpt>
      <trkpt lat="46.47758" lon="6.04351">
        <ele>949</ele>
        <time>2018-09-03T21:25:05Z</time>
      </trkpt>
      <trkpt lat="46.47759" lon="6.04355">
        <ele>950</ele>
        <time>2018-09-03T21:25:10Z</time>
      </trkpt>
      <trkpt lat="46.47763" lon="6.04363">
        <ele>953</ele>
        <time>2018-09-03T21:25:20Z</time>
      </trkpt>
      <trkpt lat="46.47764" lon="6.04369">
        <ele>954</ele>
        <time>2018-09-03T21:25:25Z</time>
      </trkpt>
      <trkpt lat="46.47768" lon="6.04371">
        <ele>956</ele>
        <time>2018-09-03T21:25:35Z</time>
      </trkpt>
      <trkpt lat="46.47769" lon="6.04375">
        <ele>958</ele>
        <time>2018-09-03T21:25:40Z</time>
      </trkpt>
      <trkpt lat="46.47773" lon="6.04385">
        <ele>961</ele>
        <time>2018-09-03T21:25:50Z</time>
      </trkpt>
      <trkpt lat="46.47776" lon="6.04392">
        <ele>963</ele>
        <time>2018-09-03T21:25:55Z</time>
      </trkpt>
      <trkpt lat="46.47777" lon="6.04403">
        <ele>967</ele>
        <time>2018-09-03T21:26:05Z</time>
      </trkpt>
      <trkpt lat="46.47777" lon="6.04409">
        <ele>969</ele>
        <time>2018-09-03T21:26:10Z</time>
      </trkpt>
      <trkpt lat="46.47776" lon="6.04414">
        <ele>970</ele>
        <time>2018-09-03T21:26:15Z</time>
      </trkpt>
      <trkpt lat="46.47775" lon="6.04424">
        <ele>974</ele>
        <time>2018-09-03T21:26:25Z</time>
      </trkpt>
      <trkpt lat="46.47773" lon="6.04426">
        <ele>975</ele>
        <time>2018-09-03T21:26:30Z</time>
      </trkpt>
      <trkpt lat="46.47773" lon="6.04426">
        <ele>975</ele>
        <time>2018-09-03T21:26:40Z</time>
      </trkpt>
      <trkpt lat="46.47773" lon="6.04425">
        <ele>974</ele>
        <time>2018-09-03T21:26:45Z</time>
      </trkpt>
      <trkpt lat="46.47769" lon="6.04426">
        <ele>974</ele>
        <time>2018-09-03T21:26:55Z</time>
      </trkpt>
      <trkpt lat="46.47768" lon="6.04427">
        <ele>975</ele>
        <time>2018-09-03T21:27:00Z</time>
      </trkpt>
      <trkpt lat="46.47767" lon="6.04426">
        <ele>974</ele>
        <time>2018-09-03T21:27:05Z</time>
      </trkpt>
      <trkpt lat="46.47759" lon="6.04429">
        <ele>975</ele>
        <time>2018-09-03T21:27:15Z</time>
      </trkpt>
      <trkpt lat="46.47756" lon="6.04431">
        <ele>976</ele>
        <time>2018-09-03T21:27:20Z</time>
      </trkpt>
      <trkpt lat="46.47749" lon="6.04437">
        <ele>977</ele>
        <time>2018-09-03T21:27:30Z</time>
      </trkpt>
      <trkpt lat="46.47745" lon="6.04439">
        <ele>978</ele>
        <time>2018-09-03T21:27:35Z</time>
      </trkpt>
      <trkpt lat="46.4774" lon="6.04443">
        <ele>980</ele>
        <time>2018-09-03T21:27:45Z</time>
      </trkpt>
      <trkpt lat="46.47734" lon="6.04446">
        <ele>980</ele>
        <time>2018-09-03T21:27:50Z</time>
      </trkpt>
      <trkpt lat="46.4773" lon="6.0445">
        <ele>981</ele>
        <time>2018-09-03T21:27:55Z</time>
      </trkpt>
      <trkpt lat="46.47722" lon="6.04453">
        <ele>979</ele>
        <time>2018-09-03T21:28:05Z</time>
      </trkpt>
      <trkpt lat="46.47719" lon="6.04455">
        <ele>979</ele>
        <time>2018-09-03T21:28:10Z</time>
      </trkpt>
      <trkpt lat="46.4771" lon="6.04458">
        <ele>982</ele>
        <time>2018-09-03T21:28:20Z</time>
      </trkpt>
      <trkpt lat="46.47706" lon="6.0446">
        <ele>984</ele>
        <time>2018-09-03T21:28:25Z</time>
      </trkpt>
      <trkpt lat="46.47703" lon="6.04462">
        <ele>985</ele>
        <time>2018-09-03T21:28:35Z</time>
      </trkpt>
      <trkpt lat="46.477" lon="6.04464">
        <ele>985</ele>
        <time>2018-09-03T21:28:40Z</time>
      </trkpt>
      <trkpt lat="46.47696" lon="6.04467">
        <ele>985</ele>
        <time>2018-09-03T21:28:45Z</time>
      </trkpt>
      <trkpt lat="46.4769" lon="6.04474">
        <ele>985</ele>
        <time>2018-09-03T21:28:55Z</time>
      </trkpt>
      <trkpt lat="46.47686" lon="6.04477">
        <ele>984</ele>
        <time>2018-09-03T21:29:00Z</time>
      </trkpt>
      <trkpt lat="46.4768" lon="6.04483">
        <ele>980</ele>
        <time>2018-09-03T21:29:10Z</time>
      </trkpt>
      <trkpt lat="46.47676" lon="6.04485">
        <ele>976</ele>
        <time>2018-09-03T21:29:15Z</time>
      </trkpt>
      <trkpt lat="46.47669" lon="6.04491">
        <ele>973</ele>
        <time>2018-09-03T21:29:25Z</time>
      </trkpt>
      <trkpt lat="46.47666" lon="6.04493">
        <ele>973</ele>
        <time>2018-09-03T21:29:30Z</time>
      </trkpt>
      <trkpt lat="46.47661" lon="6.04495">
        <ele>975</ele>
        <time>2018-09-03T21:29:35Z</time>
      </trkpt>
      <trkpt lat="46.47653" lon="6.04498">
        <ele>979</ele>
        <time>2018-09-03T21:29:45Z</time>
      </trkpt>
      <trkpt lat="46.4765" lon="6.045">
        <ele>980</ele>
        <time>2018-09-03T21:29:50Z</time>
      </trkpt>
      <trkpt lat="46.47642" lon="6.04502">
        <ele>980</ele>
        <time>2018-09-03T21:30:00Z</time>
      </trkpt>
      <trkpt lat="46.47638" lon="6.04505">
        <ele>981</ele>
        <time>2018-09-03T21:30:05Z</time>
      </trkpt>
      <trkpt lat="46.47629" lon="6.04509">
        <ele>981</ele>
        <time>2018-09-03T21:30:15Z</time>
      </trkpt>
      <trkpt lat="46.47625" lon="6.04511">
        <ele>981</ele>
        <time>2018-09-03T21:30:20Z</time>
      </trkpt>
      <trkpt lat="46.47619" lon="6.04519">
        <ele>981</ele>
        <time>2018-09-03T21:30:30Z</time>
      </trkpt>
      <trkpt lat="46.47617" lon="6.04524">
        <ele>982</ele>
        <time>2018-09-03T21:30:35Z</time>
      </trkpt>
      <trkpt lat="46.47615" lon="6.04526">
        <ele>982</ele>
        <time>2018-09-03T21:30:40Z</time>
      </trkpt>
      <trkpt lat="46.4761" lon="6.04532">
        <ele>983</ele>
        <time>2018-09-03T21:30:50Z</time>
      </trkpt>
      <trkpt lat="46.47606" lon="6.04535">
        <ele>983</ele>
        <time>2018-09-03T21:30:55Z</time>
      </trkpt>
      <trkpt lat="46.47598" lon="6.04544">
        <ele>984</ele>
        <time>2018-09-03T21:31:05Z</time>
      </trkpt>
      <trkpt lat="46.47595" lon="6.04548">
        <ele>984</ele>
        <time>2018-09-03T21:31:10Z</time>
      </trkpt>
      <trkpt lat="46.47589" lon="6.04555">
        <ele>985</ele>
        <time>2018-09-03T21:31:20Z</time>
      </trkpt>
      <trkpt lat="46.47587" lon="6.04558">
        <ele>985</ele>
        <time>2018-09-03T21:31:25Z</time>
      </trkpt>
      <trkpt lat="46.47584" lon="6.04562">
        <ele>986</ele>
        <time>2018-09-03T21:31:30Z</time>
      </trkpt>
      <trkpt lat="46.47578" lon="6.0457">
        <ele>987</ele>
        <time>2018-09-03T21:31:40Z</time>
      </trkpt>
      <trkpt lat="46.47575" lon="6.04572">
        <ele>987</ele>
        <time>2018-09-03T21:31:45Z</time>
      </trkpt>
      <trkpt lat="46.47572" lon="6.04577">
        <ele>987</ele>
        <time>2018-09-03T21:31:55Z</time>
      </trkpt>
      <trkpt lat="46.47569" lon="6.04577">
        <ele>987</ele>
        <time>2018-09-03T21:32:00Z</time>
      </trkpt>
      <trkpt lat="46.47563" lon="6.0458">
        <ele>987</ele>
        <time>2018-09-03T21:32:10Z</time>
      </trkpt>
      <trkpt lat="46.47558" lon="6.0458">
        <ele>987</ele>
        <time>2018-09-03T21:32:15Z</time>
      </trkpt>
      <trkpt lat="46.47554" lon="6.04577">
        <ele>986</ele>
        <time>2018-09-03T21:32:20Z</time>
      </trkpt>
      <trkpt lat="46.47545" lon="6.04574">
        <ele>984</ele>
        <time>2018-09-03T21:32:30Z</time>
      </trkpt>
      <trkpt lat="46.47545" lon="6.04573">
        <ele>984</ele>
        <time>2018-09-03T21:32:35Z</time>
      </trkpt>
      <trkpt lat="46.47541" lon="6.04576">
        <ele>984</ele>
        <time>2018-09-03T21:32:45Z</time>
      </trkpt>
      <trkpt lat="46.47539" lon="6.04576">
        <ele>984</ele>
        <time>2018-09-03T21:32:50Z</time>
      </trkpt>
      <trkpt lat="46.47531" lon="6.04576">
        <ele>983</ele>
        <time>2018-09-03T21:33:00Z</time>
      </trkpt>
      <trkpt lat="46.4753" lon="6.04577">
        <ele>983</ele>
        <time>2018-09-03T21:33:05Z</time>
      </trkpt>
      <trkpt lat="46.4753" lon="6.04579">
        <ele>983</ele>
        <time>2018-09-03T21:33:10Z</time>
      </trkpt>
      <trkpt lat="46.4753" lon="6.04584">
        <ele>984</ele>
        <time>2018-09-03T21:33:20Z</time>
      </trkpt>
      <trkpt lat="46.47531" lon="6.04585">
        <ele>985</ele>
        <time>2018-09-03T21:33:25Z</time>
      </trkpt>
      <trkpt lat="46.4753" lon="6.04585">
        <ele>984</ele>
        <time>2018-09-03T21:33:35Z</time>
      </trkpt>
      <trkpt lat="46.4753" lon="6.04586">
        <ele>985</ele>
        <time>2018-09-03T21:33:40Z</time>
      </trkpt>
      <trkpt lat="46.4753" lon="6.04587">
        <ele>985</ele>
        <time>2018-09-03T21:33:50Z</time>
      </trkpt>
      <trkpt lat="46.4753" lon="6.04587">
        <ele>985</ele>
        <time>2018-09-03T21:33:55Z</time>
      </trkpt>
      <trkpt lat="46.4753" lon="6.04587">
        <ele>985</ele>
        <time>2018-09-03T21:34:00Z</time>
      </trkpt>
      <trkpt lat="46.4753" lon="6.04587">
        <ele>985</ele>
        <time>2018-09-03T21:34:10Z</time>
      </trkpt>
      <trkpt lat="46.4753" lon="6.04587">
        <ele>985</ele>
        <time>2018-09-03T21:34:15Z</time>
      </trkpt>
      <trkpt lat="46.47529" lon="6.04587">
        <ele>985</ele>
        <time>2018-09-03T21:34:25Z</time>
      </trkpt>
      <trkpt lat="46.47528" lon="6.04586">
        <ele>985</ele>
        <time>2018-09-03T21:34:30Z</time>
      </trkpt>
      <trkpt lat="46.47529" lon="6.04584">
        <ele>984</ele>
        <time>2018-09-03T21:34:40Z</time>
      </trkpt>
      <trkpt lat="46.4753" lon="6.04585">
        <ele>984</ele>
        <time>2018-09-03T21:34:45Z</time>
      </trkpt>
      <trkpt lat="46.4753" lon="6.04585">
        <ele>984</ele>
        <time>2018-09-03T21:34:55Z</time>
      </trkpt>
      <trkpt lat="46.4753" lon="6.04585">
        <ele>984</ele>
        <time>2018-09-03T21:35:00Z</time>
      </trkpt>
      <trkpt lat="46.4753" lon="6.04585">
        <ele>984</ele>
        <time>2018-09-03T21:35:05Z</time>
      </trkpt>
      <trkpt lat="46.47529" lon="6.04586">
        <ele>985</ele>
        <time>2018-09-03T21:35:15Z</time>
      </trkpt>
      <trkpt lat="46.47529" lon="6.04586">
        <ele>985</ele>
        <time>2018-09-03T21:35:20Z</time>
      </trkpt>
      <trkpt lat="46.47529" lon="6.04586">
        <ele>985</ele>
        <time>2018-09-03T21:35:30Z</time>
      </trkpt>
      <trkpt lat="46.47529" lon="6.04586">
        <ele>985</ele>
        <time>2018-09-03T21:35:35Z</time>
      </trkpt>
      <trkpt lat="46.47528" lon="6.04585">
        <ele>984</ele>
        <time>2018-09-03T21:35:45Z</time>
      </trkpt>
      <trkpt lat="46.47528" lon="6.04584">
        <ele>984</ele>
        <time>2018-09-03T21:35:50Z</time>
      </trkpt>
      <trkpt lat="46.47527" lon="6.04583">
        <ele>984</ele>
        <time>2018-09-03T21:35:55Z</time>
      </trkpt>
      <trkpt lat="46.47527" lon="6.04582">
        <ele>984</ele>
        <time>2018-09-03T21:36:05Z</time>
      </trkpt>
      <trkpt lat="46.47527" lon="6.04582">
        <ele>984</ele>
        <time>2018-09-03T21:36:10Z</time>
      </trkpt>
      <trkpt lat="46.47527" lon="6.04582">
        <ele>984</ele>
        <time>2018-09-03T21:36:20Z</time>
      </trkpt>
      <trkpt lat="46.47527" lon="6.04582">
        <ele>984</ele>
        <time>2018-09-03T21:36:25Z</time>
      </trkpt>
      <trkpt lat="46.47527" lon="6.04582">
        <ele>984</ele>
        <time>2018-09-03T21:36:35Z</time>
      </trkpt>
      <trkpt lat="46.47527" lon="6.04582">
        <ele>984</ele>
        <time>2018-09-03T21:36:40Z</time>
      </trkpt>
      <trkpt lat="46.47527" lon="6.04582">
        <ele>984</ele>
        <time>2018-09-03T21:36:45Z</time>
      </trkpt>
      <trkpt lat="46.47526" lon="6.04582">
        <ele>984</ele>
        <time>2018-09-03T21:36:55Z</time>
      </trkpt>
      <trkpt lat="46.47526" lon="6.04581">
        <ele>984</ele>
        <time>2018-09-03T21:37:00Z</time>
      </trkpt>
      <trkpt lat="46.47524" lon="6.04578">
        <ele>983</ele>
        <time>2018-09-03T21:37:10Z</time>
      </trkpt>
      <trkpt lat="46.47524" lon="6.04577">
        <ele>983</ele>
        <time>2018-09-03T21:37:15Z</time>
      </trkpt>
      <trkpt lat="46.47525" lon="6.04577">
        <ele>983</ele>
        <time>2018-09-03T21:37:25Z</time>
      </trkpt>
      <trkpt lat="46.47525" lon="6.04577">
        <ele>983</ele>
        <time>2018-09-03T21:37:30Z</time>
      </trkpt>
      <trkpt lat="46.47525" lon="6.04577">
        <ele>983</ele>
        <time>2018-09-03T21:37:35Z</time>
      </trkpt>
      <trkpt lat="46.47525" lon="6.04577">
        <ele>983</ele>
        <time>2018-09-03T21:37:45Z</time>
      </trkpt>
      <trkpt lat="46.47525" lon="6.04577">
        <ele>983</ele>
        <time>2018-09-03T21:37:50Z</time>
      </trkpt>
      <trkpt lat="46.47525" lon="6.04577">
        <ele>983</ele>
        <time>2018-09-03T21:38:00Z</time>
      </trkpt>
      <trkpt lat="46.47525" lon="6.04576">
        <ele>983</ele>
        <time>2018-09-03T21:38:05Z</time>
      </trkpt>
      <trkpt lat="46.47526" lon="6.04576">
        <ele>983</ele>
        <time>2018-09-03T21:38:15Z</time>
      </trkpt>
      <trkpt lat="46.47527" lon="6.04577">
        <ele>983</ele>
        <time>2018-09-03T21:38:20Z</time>
      </trkpt>
      <trkpt lat="46.47527" lon="6.04576">
        <ele>983</ele>
        <time>2018-09-03T21:38:25Z</time>
      </trkpt>
      <trkpt lat="46.47527" lon="6.04576">
        <ele>983</ele>
        <time>2018-09-03T21:38:35Z</time>
      </trkpt>
      <trkpt lat="46.47527" lon="6.04576">
        <ele>983</ele>
        <time>2018-09-03T21:38:40Z</time>
      </trkpt>
      <trkpt lat="46.47527" lon="6.04576">
        <ele>983</ele>
        <time>2018-09-03T21:38:50Z</time>
      </trkpt>
      <trkpt lat="46.47527" lon="6.04576">
        <ele>983</ele>
        <time>2018-09-03T21:38:55Z</time>
      </trkpt>
      <trkpt lat="46.47527" lon="6.04576">
        <ele>983</ele>
        <time>2018-09-03T21:39:05Z</time>
      </trkpt>
      <trkpt lat="46.47527" lon="6.04577">
        <ele>983</ele>
        <time>2018-09-03T21:39:10Z</time>
      </trkpt>
      <trkpt lat="46.47528" lon="6.04577">
        <ele>983</ele>
        <time>2018-09-03T21:39:20Z</time>
      </trkpt>
      <trkpt lat="46.47528" lon="6.04577">
        <ele>983</ele>
        <time>2018-09-03T21:39:25Z</time>
      </trkpt>
      <trkpt lat="46.47528" lon="6.04577">
        <ele>983</ele>
        <time>2018-09-03T21:39:30Z</time>
      </trkpt>
      <trkpt lat="46.47528" lon="6.04577">
        <ele>983</ele>
        <time>2018-09-03T21:39:40Z</time>
      </trkpt>
      <trkpt lat="46.47528" lon="6.04577">
        <ele>983</ele>
        <time>2018-09-03T21:39:45Z</time>
      </trkpt>
      <trkpt lat="46.47528" lon="6.04577">
        <ele>983</ele>
        <time>2018-09-03T21:39:55Z</time>
      </trkpt>
      <trkpt lat="46.47529" lon="6.04577">
        <ele>983</ele>
        <time>2018-09-03T21:40:00Z</time>
      </trkpt>
      <trkpt lat="46.47529" lon="6.04577">
        <ele>983</ele>
        <time>2018-09-03T21:40:10Z</time>
      </trkpt>
      <trkpt lat="46.47529" lon="6.04578">
        <ele>983</ele>
        <time>2018-09-03T21:40:15Z</time>
      </trkpt>
      <trkpt lat="46.47528" lon="6.04578">
        <ele>983</ele>
        <time>2018-09-03T21:40:20Z</time>
      </trkpt>
      <trkpt lat="46.47524" lon="6.0459">
        <ele>985</ele>
        <time>2018-09-03T21:40:30Z</time>
      </trkpt>
      <trkpt lat="46.47522" lon="6.04597">
        <ele>986</ele>
        <time>2018-09-03T21:40:35Z</time>
      </trkpt>
      <trkpt lat="46.47517" lon="6.04612">
        <ele>988</ele>
        <time>2018-09-03T21:40:45Z</time>
      </trkpt>
      <trkpt lat="46.47515" lon="6.04618">
        <ele>989</ele>
        <time>2018-09-03T21:40:50Z</time>
      </trkpt>
      <trkpt lat="46.4751" lon="6.0463">
        <ele>990</ele>
        <time>2018-09-03T21:41:00Z</time>
      </trkpt>
      <trkpt lat="46.47508" lon="6.04634">
        <ele>991</ele>
        <time>2018-09-03T21:41:05Z</time>
      </trkpt>
      <trkpt lat="46.47506" lon="6.04639">
        <ele>991</ele>
        <time>2018-09-03T21:41:10Z</time>
      </trkpt>
      <trkpt lat="46.47503" lon="6.04649">
        <ele>992</ele>
        <time>2018-09-03T21:41:20Z</time>
      </trkpt>
      <trkpt lat="46.47502" lon="6.04654">
        <ele>993</ele>
        <time>2018-09-03T21:41:25Z</time>
      </trkpt>
      <trkpt lat="46.47498" lon="6.04666">
        <ele>994</ele>
        <time>2018-09-03T21:41:35Z</time>
      </trkpt>
      <trkpt lat="46.47494" lon="6.04673">
        <ele>995</ele>
        <time>2018-09-03T21:41:40Z</time>
      </trkpt>
      <trkpt lat="46.47486" lon="6.04686">
        <ele>996</ele>
        <time>2018-09-03T21:41:50Z</time>
      </trkpt>
      <trkpt lat="46.47484" lon="6.04692">
        <ele>996</ele>
        <time>2018-09-03T21:41:55Z</time>
      </trkpt>
      <trkpt lat="46.47482" lon="6.04698">
        <ele>997</ele>
        <time>2018-09-03T21:42:00Z</time>
      </trkpt>
      <trkpt lat="46.47477" lon="6.04709">
        <ele>998</ele>
        <time>2018-09-03T21:42:10Z</time>
      </trkpt>
      <trkpt lat="46.47475" lon="6.04715">
        <ele>998</ele>
        <time>2018-09-03T21:42:15Z</time>
      </trkpt>
      <trkpt lat="46.4747" lon="6.04725">
        <ele>999</ele>
        <time>2018-09-03T21:42:25Z</time>
      </trkpt>
      <trkpt lat="46.47469" lon="6.04729">
        <ele>999</ele>
        <time>2018-09-03T21:42:30Z</time>
      </trkpt>
      <trkpt lat="46.47463" lon="6.04737">
        <ele>1000</ele>
        <time>2018-09-03T21:42:40Z</time>
      </trkpt>
      <trkpt lat="46.4746" lon="6.04742">
        <ele>1000</ele>
        <time>2018-09-03T21:42:45Z</time>
      </trkpt>
      <trkpt lat="46.47454" lon="6.04746">
        <ele>1000</ele>
        <time>2018-09-03T21:42:50Z</time>
      </trkpt>
      <trkpt lat="46.47444" lon="6.04753">
        <ele>1000</ele>
        <time>2018-09-03T21:43:00Z</time>
      </trkpt>
      <trkpt lat="46.4744" lon="6.04758">
        <ele>1001</ele>
        <time>2018-09-03T21:43:05Z</time>
      </trkpt>
      <trkpt lat="46.47432" lon="6.04767">
        <ele>1001</ele>
        <time>2018-09-03T21:43:15Z</time>
      </trkpt>
      <trkpt lat="46.47427" lon="6.04772">
        <ele>1002</ele>
        <time>2018-09-03T21:43:20Z</time>
      </trkpt>
      <trkpt lat="46.47419" lon="6.04783">
        <ele>1003</ele>
        <time>2018-09-03T21:43:30Z</time>
      </trkpt>
      <trkpt lat="46.47416" lon="6.04788">
        <ele>1004</ele>
        <time>2018-09-03T21:43:35Z</time>
      </trkpt>
      <trkpt lat="46.47411" lon="6.048">
        <ele>1006</ele>
        <time>2018-09-03T21:43:45Z</time>
      </trkpt>
      <trkpt lat="46.47409" lon="6.04807">
        <ele>1007</ele>
        <time>2018-09-03T21:43:50Z</time>
      </trkpt>
      <trkpt lat="46.47406" lon="6.04813">
        <ele>1009</ele>
        <time>2018-09-03T21:43:55Z</time>
      </trkpt>
      <trkpt lat="46.47402" lon="6.04826">
        <ele>1012</ele>
        <time>2018-09-03T21:44:05Z</time>
      </trkpt>
      <trkpt lat="46.474" lon="6.04832">
        <ele>1014</ele>
        <time>2018-09-03T21:44:10Z</time>
      </trkpt>
      <trkpt lat="46.47395" lon="6.04845">
        <ele>1017</ele>
        <time>2018-09-03T21:44:20Z</time>
      </trkpt>
      <trkpt lat="46.47393" lon="6.0485">
        <ele>1017</ele>
        <time>2018-09-03T21:44:25Z</time>
      </trkpt>
      <trkpt lat="46.47391" lon="6.04856">
        <ele>1019</ele>
        <time>2018-09-03T21:44:35Z</time>
      </trkpt>
      <trkpt lat="46.4739" lon="6.04856">
        <ele>1019</ele>
        <time>2018-09-03T21:44:40Z</time>
      </trkpt>
      <trkpt lat="46.47391" lon="6.04857">
        <ele>1020</ele>
        <time>2018-09-03T21:44:45Z</time>
      </trkpt>
      <trkpt lat="46.4739" lon="6.04856">
        <ele>1019</ele>
        <time>2018-09-03T21:44:55Z</time>
      </trkpt>
      <trkpt lat="46.47391" lon="6.04857">
        <ele>1020</ele>
        <time>2018-09-03T21:45:00Z</time>
      </trkpt>
      <trkpt lat="46.47393" lon="6.04857">
        <ele>1020</ele>
        <time>2018-09-03T21:45:10Z</time>
      </trkpt>
      <trkpt lat="46.47393" lon="6.04857">
        <ele>1020</ele>
        <time>2018-09-03T21:45:15Z</time>
      </trkpt>
      <trkpt lat="46.47393" lon="6.04856">
        <ele>1020</ele>
        <time>2018-09-03T21:45:25Z</time>
      </trkpt>
      <trkpt lat="46.47393" lon="6.04856">
        <ele>1020</ele>
        <time>2018-09-03T21:45:30Z</time>
      </trkpt>
      <trkpt lat="46.47393" lon="6.04856">
        <ele>1020</ele>
        <time>2018-09-03T21:45:35Z</time>
      </trkpt>
      <trkpt lat="46.47393" lon="6.04855">
        <ele>1019</ele>
        <time>2018-09-03T21:45:45Z</time>
      </trkpt>
      <trkpt lat="46.47393" lon="6.04855">
        <ele>1019</ele>
        <time>2018-09-03T21:45:50Z</time>
      </trkpt>
      <trkpt lat="46.47392" lon="6.04854">
        <ele>1018</ele>
        <time>2018-09-03T21:46:00Z</time>
      </trkpt>
      <trkpt lat="46.47392" lon="6.04854">
        <ele>1018</ele>
        <time>2018-09-03T21:46:05Z</time>
      </trkpt>
      <trkpt lat="46.47393" lon="6.04854">
        <ele>1019</ele>
        <time>2018-09-03T21:46:15Z</time>
      </trkpt>
      <trkpt lat="46.47391" lon="6.04854">
        <ele>1018</ele>
        <time>2018-09-03T21:46:20Z</time>
      </trkpt>
      <trkpt lat="46.47391" lon="6.04854">
        <ele>1018</ele>
        <time>2018-09-03T21:46:25Z</time>
      </trkpt>
      <trkpt lat="46.47391" lon="6.04855">
        <ele>1018</ele>
        <time>2018-09-03T21:46:35Z</time>
      </trkpt>
      <trkpt lat="46.47391" lon="6.04855">
        <ele>1018</ele>
        <time>2018-09-03T21:46:40Z</time>
      </trkpt>
      <trkpt lat="46.47391" lon="6.04856">
        <ele>1019</ele>
        <time>2018-09-03T21:46:50Z</time>
      </trkpt>
      <trkpt lat="46.47391" lon="6.04857">
        <ele>1020</ele>
        <time>2018-09-03T21:46:55Z</time>
      </trkpt>
      <trkpt lat="46.47391" lon="6.04856">
        <ele>1020</ele>
        <time>2018-09-03T21:47:05Z</time>
      </trkpt>
      <trkpt lat="46.47391" lon="6.04857">
        <ele>1020</ele>
        <time>2018-09-03T21:47:10Z</time>
      </trkpt>
      <trkpt lat="46.47391" lon="6.04855">
        <ele>1018</ele>
        <time>2018-09-03T21:47:15Z</time>
      </trkpt>
      <trkpt lat="46.47391" lon="6.04855">
        <ele>1019</ele>
        <time>2018-09-03T21:47:25Z</time>
      </trkpt>
      <trkpt lat="46.47392" lon="6.04855">
        <ele>1019</ele>
        <time>2018-09-03T21:47:30Z</time>
      </trkpt>
      <trkpt lat="46.47393" lon="6.04857">
        <ele>1021</ele>
        <time>2018-09-03T21:47:40Z</time>
      </trkpt>
      <trkpt lat="46.47394" lon="6.04859">
        <ele>1022</ele>
        <time>2018-09-03T21:47:45Z</time>
      </trkpt>
      <trkpt lat="46.47394" lon="6.04859">
        <ele>1022</ele>
        <time>2018-09-03T21:47:55Z</time>
      </trkpt>
      <trkpt lat="46.47393" lon="6.04859">
        <ele>1022</ele>
        <time>2018-09-03T21:48:00Z</time>
      </trkpt>
      <trkpt lat="46.47387" lon="6.04856">
        <ele>1019</ele>
        <time>2018-09-03T21:48:10Z</time>
      </trkpt>
      <trkpt lat="46.47384" lon="6.04856">
        <ele>1019</ele>
        <time>2018-09-03T21:48:15Z</time>
      </trkpt>
      <trkpt lat="46.47384" lon="6.04856">
        <ele>1019</ele>
        <time>2018-09-03T21:48:20Z</time>
      </trkpt>
      <trkpt lat="46.47386" lon="6.04855">
        <ele>1018</ele>
        <time>2018-09-03T21:48:30Z</time>
      </trkpt>
      <trkpt lat="46.4739" lon="6.04855">
        <ele>1018</ele>
        <time>2018-09-03T21:48:35Z</time>
      </trkpt>
      <trkpt lat="46.47396" lon="6.04856">
        <ele>1021</ele>
        <time>2018-09-03T21:48:45Z</time>
      </trkpt>
      <trkpt lat="46.474" lon="6.04857">
        <ele>1023</ele>
        <time>2018-09-03T21:48:50Z</time>
      </trkpt>
      <trkpt lat="46.4741" lon="6.04856">
        <ele>1025</ele>
        <time>2018-09-03T21:49:00Z</time>
      </trkpt>
      <trkpt lat="46.47413" lon="6.04854">
        <ele>1025</ele>
        <time>2018-09-03T21:49:05Z</time>
      </trkpt>
      <trkpt lat="46.47418" lon="6.04851">
        <ele>1024</ele>
        <time>2018-09-03T21:49:10Z</time>
      </trkpt>
      <trkpt lat="46.47426" lon="6.04846">
        <ele>1022</ele>
        <time>2018-09-03T21:49:20Z</time>
      </trkpt>
      <trkpt lat="46.47431" lon="6.04845">
        <ele>1022</ele>
        <time>2018-09-03T21:49:25Z</time>
      </trkpt>
      <trkpt lat="46.4744" lon="6.04845">
        <ele>1025</ele>
        <time>2018-09-03T21:49:35Z</time>
      </trkpt>
      <trkpt lat="46.47444" lon="6.04843">
        <ele>1026</ele>
        <time>2018-09-03T21:49:40Z</time>
      </trkpt>
      <trkpt lat="46.47453" lon="6.0484">
        <ele>1028</ele>
        <time>2018-09-03T21:49:50Z</time>
      </trkpt>
      <trkpt lat="46.47456" lon="6.04838">
        <ele>1028</ele>
        <time>2018-09-03T21:49:55Z</time>
      </trkpt>
      <trkpt lat="46.47461" lon="6.04836">
        <ele>1029</ele>
        <time>2018-09-03T21:50:00Z</time>
      </trkpt>
      <trkpt lat="46.47468" lon="6.04833">
        <ele>1030</ele>
        <time>2018-09-03T21:50:10Z</time>
      </trkpt>
      <trkpt lat="46.47471" lon="6.04829">
        <ele>1030</ele>
        <time>2018-09-03T21:50:15Z</time>
      </trkpt>
      <trkpt lat="46.47482" lon="6.04824">
        <ele>1030</ele>
        <time>2018-09-03T21:50:25Z</time>
      </trkpt>
      <trkpt lat="46.47486" lon="6.04823">
        <ele>1030</ele>
        <time>2018-09-03T21:50:30Z</time>
      </trkpt>
      <trkpt lat="46.47495" lon="6.04823">
        <ele>1030</ele>
        <time>2018-09-03T21:50:40Z</time>
      </trkpt>
      <trkpt lat="46.47499" lon="6.04822">
        <ele>1030</ele>
        <time>2018-09-03T21:50:45Z</time>
      </trkpt>
      <trkpt lat="46.47505" lon="6.04821">
        <ele>1030</ele>
        <time>2018-09-03T21:50:50Z</time>
      </trkpt>
      <trkpt lat="46.47515" lon="6.04819">
        <ele>1030</ele>
        <time>2018-09-03T21:51:00Z</time>
      </trkpt>
      <trkpt lat="46.4752" lon="6.04819">
        <ele>1030</ele>
        <time>2018-09-03T21:51:05Z</time>
      </trkpt>
      <trkpt lat="46.47531" lon="6.04815">
        <ele>1030</ele>
        <time>2018-09-03T21:51:15Z</time>
      </trkpt>
      <trkpt lat="46.47536" lon="6.04809">
        <ele>1029</ele>
        <time>2018-09-03T21:51:20Z</time>
      </trkpt>
      <trkpt lat="46.47545" lon="6.04803">
        <ele>1026</ele>
        <time>2018-09-03T21:51:30Z</time>
      </trkpt>
      <trkpt lat="46.4755" lon="6.04801">
        <ele>1026</ele>
        <time>2018-09-03T21:51:35Z</time>
      </trkpt>
      <trkpt lat="46.47555" lon="6.04799">
        <ele>1026</ele>
        <time>2018-09-03T21:51:40Z</time>
      </trkpt>
      <trkpt lat="46.47564" lon="6.04795">
        <ele>1026</ele>
        <time>2018-09-03T21:51:50Z</time>
      </trkpt>
      <trkpt lat="46.47569" lon="6.04793">
        <ele>1026</ele>
        <time>2018-09-03T21:51:55Z</time>
      </trkpt>
      <trkpt lat="46.47577" lon="6.04789">
        <ele>1024</ele>
        <time>2018-09-03T21:52:05Z</time>
      </trkpt>
      <trkpt lat="46.47578" lon="6.04788">
        <ele>1024</ele>
        <time>2018-09-03T21:52:10Z</time>
      </trkpt>
      <trkpt lat="46.47586" lon="6.04781">
        <ele>1022</ele>
        <time>2018-09-03T21:52:20Z</time>
      </trkpt>
      <trkpt lat="46.47588" lon="6.0478">
        <ele>1022</ele>
        <time>2018-09-03T21:52:25Z</time>
      </trkpt>
      <trkpt lat="46.47592" lon="6.04779">
        <ele>1022</ele>
        <time>2018-09-03T21:52:35Z</time>
      </trkpt>
      <trkpt lat="46.47592" lon="6.04779">
        <ele>1022</ele>
        <time>2018-09-03T21:52:40Z</time>
      </trkpt>
      <trkpt lat="46.47594" lon="6.04776">
        <ele>1022</ele>
        <time>2018-09-03T21:52:45Z</time>
      </trkpt>
      <trkpt lat="46.47597" lon="6.04767">
        <ele>1022</ele>
        <time>2018-09-03T21:52:55Z</time>
      </trkpt>
      <trkpt lat="46.47597" lon="6.04764">
        <ele>1022</ele>
        <time>2018-09-03T21:53:00Z</time>
      </trkpt>
      <trkpt lat="46.47597" lon="6.04764">
        <ele>1022</ele>
        <time>2018-09-03T21:53:10Z</time>
      </trkpt>
      <trkpt lat="46.47596" lon="6.04764">
        <ele>1022</ele>
        <time>2018-09-03T21:53:15Z</time>
      </trkpt>
      <trkpt lat="46.47595" lon="6.04766">
        <ele>1022</ele>
        <time>2018-09-03T21:53:25Z</time>
      </trkpt>
      <trkpt lat="46.47595" lon="6.04767">
        <ele>1022</ele>
        <time>2018-09-03T21:53:30Z</time>
      </trkpt>
      <trkpt lat="46.47595" lon="6.04765">
        <ele>1022</ele>
        <time>2018-09-03T21:53:35Z</time>
      </trkpt>
      <trkpt lat="46.47594" lon="6.04765">
        <ele>1022</ele>
        <time>2018-09-03T21:53:45Z</time>
      </trkpt>
      <trkpt lat="46.47595" lon="6.04765">
        <ele>1022</ele>
        <time>2018-09-03T21:53:50Z</time>
      </trkpt>
      <trkpt lat="46.47599" lon="6.04761">
        <ele>1022</ele>
        <time>2018-09-03T21:54:00Z</time>
      </trkpt>
      <trkpt lat="46.47601" lon="6.0476">
        <ele>1022</ele>
        <time>2018-09-03T21:54:05Z</time>
      </trkpt>
      <trkpt lat="46.47602" lon="6.04759">
        <ele>1022</ele>
        <time>2018-09-03T21:54:15Z</time>
      </trkpt>
      <trkpt lat="46.47604" lon="6.04758">
        <ele>1023</ele>
        <time>2018-09-03T21:54:20Z</time>
      </trkpt>
      <trkpt lat="46.47606" lon="6.04756">
        <ele>1023</ele>
        <time>2018-09-03T21:54:25Z</time>
      </trkpt>
      <trkpt lat="46.47608" lon="6.04753">
        <ele>1024</ele>
        <time>2018-09-03T21:54:35Z</time>
      </trkpt>
      <trkpt lat="46.47611" lon="6.04749">
        <ele>1024</ele>
        <time>2018-09-03T21:54:40Z</time>
      </trkpt>
      <trkpt lat="46.47613" lon="6.04742">
        <ele>1024</ele>
        <time>2018-09-03T21:54:50Z</time>
      </trkpt>
      <trkpt lat="46.47612" lon="6.04743">
        <ele>1024</ele>
        <time>2018-09-03T21:54:55Z</time>
      </trkpt>
      <trkpt lat="46.47617" lon="6.04739">
        <ele>1024</ele>
        <time>2018-09-03T21:55:05Z</time>
      </trkpt>
      <trkpt lat="46.47619" lon="6.04738">
        <ele>1024</ele>
        <time>2018-09-03T21:55:10Z</time>
      </trkpt>
      <trkpt lat="46.47621" lon="6.04737">
        <ele>1024</ele>
        <time>2018-09-03T21:55:15Z</time>
      </trkpt>
      <trkpt lat="46.47633" lon="6.04737">
        <ele>1026</ele>
        <time>2018-09-03T21:55:25Z</time>
      </trkpt>
      <trkpt lat="46.47639" lon="6.04735">
        <ele>1027</ele>
        <time>2018-09-03T21:55:30Z</time>
      </trkpt>
      <trkpt lat="46.47649" lon="6.04732">
        <ele>1029</ele>
        <time>2018-09-03T21:55:40Z</time>
      </trkpt>
      <trkpt lat="46.47654" lon="6.04729">
        <ele>1030</ele>
        <time>2018-09-03T21:55:45Z</time>
      </trkpt>
      <trkpt lat="46.47664" lon="6.04728">
        <ele>1031</ele>
        <time>2018-09-03T21:55:55Z</time>
      </trkpt>
      <trkpt lat="46.47669" lon="6.04724">
        <ele>1031</ele>
        <time>2018-09-03T21:56:00Z</time>
      </trkpt>
      <trkpt lat="46.47673" lon="6.04719">
        <ele>1030</ele>
        <time>2018-09-03T21:56:05Z</time>
      </trkpt>
      <trkpt lat="46.47681" lon="6.04711">
        <ele>1026</ele>
        <time>2018-09-03T21:56:15Z</time>
      </trkpt>
      <trkpt lat="46.47686" lon="6.04707">
        <ele>1029</ele>
        <time>2018-09-03T21:56:20Z</time>
      </trkpt>
      <trkpt lat="46.47697" lon="6.04701">
        <ele>1031</ele>
        <time>2018-09-03T21:56:30Z</time>
      </trkpt>
      <trkpt lat="46.47701" lon="6.04698">
        <ele>1031</ele>
        <time>2018-09-03T21:56:35Z</time>
      </trkpt>
      <trkpt lat="46.47711" lon="6.04694">
        <ele>1030</ele>
        <time>2018-09-03T21:56:45Z</time>
      </trkpt>
      <trkpt lat="46.47715" lon="6.04692">
        <ele>1030</ele>
        <time>2018-09-03T21:56:50Z</time>
      </trkpt>
      <trkpt lat="46.47724" lon="6.04687">
        <ele>1030</ele>
        <time>2018-09-03T21:57:00Z</time>
      </trkpt>
      <trkpt lat="46.47728" lon="6.04684">
        <ele>1030</ele>
        <time>2018-09-03T21:57:05Z</time>
      </trkpt>
      <trkpt lat="46.47734" lon="6.04681">
        <ele>1030</ele>
        <time>2018-09-03T21:57:10Z</time>
      </trkpt>
      <trkpt lat="46.47744" lon="6.04678">
        <ele>1030</ele>
        <time>2018-09-03T21:57:20Z</time>
      </trkpt>
      <trkpt lat="46.4775" lon="6.04677">
        <ele>1030</ele>
        <time>2018-09-03T21:57:25Z</time>
      </trkpt>
      <trkpt lat="46.4776" lon="6.04681">
        <ele>1031</ele>
        <time>2018-09-03T21:57:35Z</time>
      </trkpt>
      <trkpt lat="46.47765" lon="6.0468">
        <ele>1031</ele>
        <time>2018-09-03T21:57:40Z</time>
      </trkpt>
      <trkpt lat="46.47769" lon="6.04677">
        <ele>1031</ele>
        <time>2018-09-03T21:57:50Z</time>
      </trkpt>
      <trkpt lat="46.47773" lon="6.04679">
        <ele>1031</ele>
        <time>2018-09-03T21:57:55Z</time>
      </trkpt>
      <trkpt lat="46.47779" lon="6.04679">
        <ele>1031</ele>
        <time>2018-09-03T21:58:00Z</time>
      </trkpt>
      <trkpt lat="46.47789" lon="6.04677">
        <ele>1031</ele>
        <time>2018-09-03T21:58:10Z</time>
      </trkpt>
      <trkpt lat="46.47795" lon="6.04677">
        <ele>1032</ele>
        <time>2018-09-03T21:58:15Z</time>
      </trkpt>
      <trkpt lat="46.47806" lon="6.04675">
        <ele>1033</ele>
        <time>2018-09-03T21:58:25Z</time>
      </trkpt>
      <trkpt lat="46.47812" lon="6.04673">
        <ele>1034</ele>
        <time>2018-09-03T21:58:30Z</time>
      </trkpt>
      <trkpt lat="46.47823" lon="6.0467">
        <ele>1036</ele>
        <time>2018-09-03T21:58:40Z</time>
      </trkpt>
      <trkpt lat="46.47827" lon="6.04668">
        <ele>1036</ele>
        <time>2018-09-03T21:58:45Z</time>
      </trkpt>
      <trkpt lat="46.47831" lon="6.04664">
        <ele>1036</ele>
        <time>2018-09-03T21:58:50Z</time>
      </trkpt>
      <trkpt lat="46.47841" lon="6.04659">
        <ele>1037</ele>
        <time>2018-09-03T21:59:00Z</time>
      </trkpt>
      <trkpt lat="46.47845" lon="6.04656">
        <ele>1037</ele>
        <time>2018-09-03T21:59:05Z</time>
      </trkpt>
      <trkpt lat="46.47852" lon="6.04652">
        <ele>1038</ele>
        <time>2018-09-03T21:59:15Z</time>
      </trkpt>
      <trkpt lat="46.47857" lon="6.04651">
        <ele>1039</ele>
        <time>2018-09-03T21:59:20Z</time>
      </trkpt>
      <trkpt lat="46.47866" lon="6.04648">
        <ele>1040</ele>
        <time>2018-09-03T21:59:30Z</time>
      </trkpt>
      <trkpt lat="46.47872" lon="6.04647">
        <ele>1041</ele>
        <time>2018-09-03T21:59:35Z</time>
      </trkpt>
      <trkpt lat="46.47877" lon="6.04648">
        <ele>1042</ele>
        <time>2018-09-03T21:59:40Z</time>
      </trkpt>
      <trkpt lat="46.47886" lon="6.04649">
        <ele>1043</ele>
        <time>2018-09-03T21:59:50Z</time>
      </trkpt>
      <trkpt lat="46.4789" lon="6.04649">
        <ele>1044</ele>
        <time>2018-09-03T21:59:55Z</time>
      </trkpt>
      <trkpt lat="46.47898" lon="6.0465">
        <ele>1045</ele>
        <time>2018-09-03T22:00:05Z</time>
      </trkpt>
      <trkpt lat="46.47903" lon="6.04652">
        <ele>1046</ele>
        <time>2018-09-03T22:00:10Z</time>
      </trkpt>
      <trkpt lat="46.47914" lon="6.04653">
        <ele>1047</ele>
        <time>2018-09-03T22:00:20Z</time>
      </trkpt>
      <trkpt lat="46.47919" lon="6.04655">
        <ele>1047</ele>
        <time>2018-09-03T22:00:25Z</time>
      </trkpt>
      <trkpt lat="46.47925" lon="6.0466">
        <ele>1048</ele>
        <time>2018-09-03T22:00:35Z</time>
      </trkpt>
      <trkpt lat="46.47926" lon="6.04662">
        <ele>1049</ele>
        <time>2018-09-03T22:00:40Z</time>
      </trkpt>
      <trkpt lat="46.47927" lon="6.04663">
        <ele>1049</ele>
        <time>2018-09-03T22:00:45Z</time>
      </trkpt>
      <trkpt lat="46.47929" lon="6.0467">
        <ele>1050</ele>
        <time>2018-09-03T22:00:55Z</time>
      </trkpt>
      <trkpt lat="46.47929" lon="6.0467">
        <ele>1050</ele>
        <time>2018-09-03T22:01:00Z</time>
      </trkpt>
      <trkpt lat="46.47933" lon="6.04673">
        <ele>1051</ele>
        <time>2018-09-03T22:01:10Z</time>
      </trkpt>
      <trkpt lat="46.47933" lon="6.04673">
        <ele>1051</ele>
        <time>2018-09-03T22:01:15Z</time>
      </trkpt>
      <trkpt lat="46.47935" lon="6.04673">
        <ele>1051</ele>
        <time>2018-09-03T22:01:25Z</time>
      </trkpt>
      <trkpt lat="46.47938" lon="6.04675">
        <ele>1052</ele>
        <time>2018-09-03T22:01:30Z</time>
      </trkpt>
      <trkpt lat="46.47941" lon="6.04675">
        <ele>1052</ele>
        <time>2018-09-03T22:01:35Z</time>
      </trkpt>
      <trkpt lat="46.47946" lon="6.04681">
        <ele>1053</ele>
        <time>2018-09-03T22:01:45Z</time>
      </trkpt>
      <trkpt lat="46.47948" lon="6.04683">
        <ele>1054</ele>
        <time>2018-09-03T22:01:50Z</time>
      </trkpt>
      <trkpt lat="46.47951" lon="6.04688">
        <ele>1054</ele>
        <time>2018-09-03T22:02:00Z</time>
      </trkpt>
      <trkpt lat="46.47954" lon="6.04692">
        <ele>1054</ele>
        <time>2018-09-03T22:02:05Z</time>
      </trkpt>
      <trkpt lat="46.4796" lon="6.04703">
        <ele>1055</ele>
        <time>2018-09-03T22:02:15Z</time>
      </trkpt>
      <trkpt lat="46.47963" lon="6.0471">
        <ele>1056</ele>
        <time>2018-09-03T22:02:20Z</time>
      </trkpt>
      <trkpt lat="46.47964" lon="6.04716">
        <ele>1056</ele>
        <time>2018-09-03T22:02:25Z</time>
      </trkpt>
      <trkpt lat="46.47966" lon="6.0473">
        <ele>1057</ele>
        <time>2018-09-03T22:02:35Z</time>
      </trkpt>
      <trkpt lat="46.4797" lon="6.04738">
        <ele>1058</ele>
        <time>2018-09-03T22:02:40Z</time>
      </trkpt>
      <trkpt lat="46.47974" lon="6.04751">
        <ele>1060</ele>
        <time>2018-09-03T22:02:50Z</time>
      </trkpt>
      <trkpt lat="46.47978" lon="6.04758">
        <ele>1060</ele>
        <time>2018-09-03T22:02:55Z</time>
      </trkpt>
      <trkpt lat="46.47984" lon="6.04769">
        <ele>1061</ele>
        <time>2018-09-03T22:03:05Z</time>
      </trkpt>
      <trkpt lat="46.47987" lon="6.04773">
        <ele>1062</ele>
        <time>2018-09-03T22:03:10Z</time>
      </trkpt>
      <trkpt lat="46.4799" lon="6.04779">
        <ele>1063</ele>
        <time>2018-09-03T22:03:15Z</time>
      </trkpt>
      <trkpt lat="46.47996" lon="6.04788">
        <ele>1064</ele>
        <time>2018-09-03T22:03:25Z</time>
      </trkpt>
      <trkpt lat="46.47999" lon="6.0479">
        <ele>1064</ele>
        <time>2018-09-03T22:03:30Z</time>
      </trkpt>
      <trkpt lat="46.48008" lon="6.04805">
        <ele>1065</ele>
        <time>2018-09-03T22:03:40Z</time>
      </trkpt>
      <trkpt lat="46.48011" lon="6.04812">
        <ele>1066</ele>
        <time>2018-09-03T22:03:45Z</time>
      </trkpt>
      <trkpt lat="46.48013" lon="6.04818">
        <ele>1066</ele>
        <time>2018-09-03T22:03:55Z</time>
      </trkpt>
      <trkpt lat="46.48013" lon="6.04818">
        <ele>1066</ele>
        <time>2018-09-03T22:04:00Z</time>
      </trkpt>
      <trkpt lat="46.48013" lon="6.04818">
        <ele>1066</ele>
        <time>2018-09-03T22:04:05Z</time>
      </trkpt>
      <trkpt lat="46.48015" lon="6.04821">
        <ele>1067</ele>
        <time>2018-09-03T22:04:15Z</time>
      </trkpt>
      <trkpt lat="46.48019" lon="6.04825">
        <ele>1067</ele>
        <time>2018-09-03T22:04:20Z</time>
      </trkpt>
      <trkpt lat="46.48028" lon="6.04833">
        <ele>1067</ele>
        <time>2018-09-03T22:04:30Z</time>
      </trkpt>
      <trkpt lat="46.48034" lon="6.04838">
        <ele>1067</ele>
        <time>2018-09-03T22:04:35Z</time>
      </trkpt>
      <trkpt lat="46.48045" lon="6.04846">
        <ele>1067</ele>
        <time>2018-09-03T22:04:45Z</time>
      </trkpt>
      <trkpt lat="46.4805" lon="6.04848">
        <ele>1067</ele>
        <time>2018-09-03T22:04:50Z</time>
      </trkpt>
      <trkpt lat="46.48056" lon="6.04854">
        <ele>1067</ele>
        <time>2018-09-03T22:05:00Z</time>
      </trkpt>
      <trkpt lat="46.48062" lon="6.04857">
        <ele>1067</ele>
        <time>2018-09-03T22:05:05Z</time>
      </trkpt>
      <trkpt lat="46.48066" lon="6.04862">
        <ele>1068</ele>
        <time>2018-09-03T22:05:10Z</time>
      </trkpt>
      <trkpt lat="46.48077" lon="6.0487">
        <ele>1068</ele>
        <time>2018-09-03T22:05:20Z</time>
      </trkpt>
      <trkpt lat="46.48082" lon="6.04871">
        <ele>1068</ele>
        <time>2018-09-03T22:05:25Z</time>
      </trkpt>
      <trkpt lat="46.48089" lon="6.04878">
        <ele>1068</ele>
        <time>2018-09-03T22:05:35Z</time>
      </trkpt>
      <trkpt lat="46.48093" lon="6.04884">
        <ele>1069</ele>
        <time>2018-09-03T22:05:40Z</time>
      </trkpt>
      <trkpt lat="46.48101" lon="6.04894">
        <ele>1070</ele>
        <time>2018-09-03T22:05:50Z</time>
      </trkpt>
      <trkpt lat="46.48103" lon="6.04898">
        <ele>1070</ele>
        <time>2018-09-03T22:05:55Z</time>
      </trkpt>
      <trkpt lat="46.48107" lon="6.04903">
        <ele>1070</ele>
        <time>2018-09-03T22:06:00Z</time>
      </trkpt>
      <trkpt lat="46.48117" lon="6.04914">
        <ele>1071</ele>
        <time>2018-09-03T22:06:10Z</time>
      </trkpt>
      <trkpt lat="46.48123" lon="6.04919">
        <ele>1071</ele>
        <time>2018-09-03T22:06:15Z</time>
      </trkpt>
      <trkpt lat="46.48132" lon="6.04927">
        <ele>1072</ele>
        <time>2018-09-03T22:06:25Z</time>
      </trkpt>
      <trkpt lat="46.48135" lon="6.0493">
        <ele>1072</ele>
        <time>2018-09-03T22:06:30Z</time>
      </trkpt>
      <trkpt lat="46.48144" lon="6.04943">
        <ele>1073</ele>
        <time>2018-09-03T22:06:40Z</time>
      </trkpt>
      <trkpt lat="46.48147" lon="6.04947">
        <ele>1074</ele>
        <time>2018-09-03T22:06:45Z</time>
      </trkpt>
      <trkpt lat="46.48149" lon="6.04953">
        <ele>1074</ele>
        <time>2018-09-03T22:06:50Z</time>
      </trkpt>
      <trkpt lat="46.48156" lon="6.04963">
        <ele>1075</ele>
        <time>2018-09-03T22:07:00Z</time>
      </trkpt>
      <trkpt lat="46.4816" lon="6.04968">
        <ele>1075</ele>
        <time>2018-09-03T22:07:05Z</time>
      </trkpt>
      <trkpt lat="46.48169" lon="6.04975">
        <ele>1076</ele>
        <time>2018-09-03T22:07:15Z</time>
      </trkpt>
      <trkpt lat="46.48171" lon="6.04978">
        <ele>1076</ele>
        <time>2018-09-03T22:07:20Z</time>
      </trkpt>
      <trkpt lat="46.48177" lon="6.04986">
        <ele>1076</ele>
        <time>2018-09-03T22:07:30Z</time>
      </trkpt>
      <trkpt lat="46.48181" lon="6.04988">
        <ele>1076</ele>
        <time>2018-09-03T22:07:35Z</time>
      </trkpt>
      <trkpt lat="46.48185" lon="6.04988">
        <ele>1076</ele>
        <time>2018-09-03T22:07:40Z</time>
      </trkpt>
      <trkpt lat="46.4819" lon="6.04997">
        <ele>1076</ele>
        <time>2018-09-03T22:07:50Z</time>
      </trkpt>
      <trkpt lat="46.48192" lon="6.05001">
        <ele>1077</ele>
        <time>2018-09-03T22:07:55Z</time>
      </trkpt>
      <trkpt lat="46.48195" lon="6.05006">
        <ele>1077</ele>
        <time>2018-09-03T22:08:05Z</time>
      </trkpt>
      <trkpt lat="46.48198" lon="6.05008">
        <ele>1077</ele>
        <time>2018-09-03T22:08:10Z</time>
      </trkpt>
      <trkpt lat="46.48206" lon="6.05011">
        <ele>1077</ele>
        <time>2018-09-03T22:08:20Z</time>
      </trkpt>
      <trkpt lat="46.48212" lon="6.05015">
        <ele>1077</ele>
        <time>2018-09-03T22:08:25Z</time>
      </trkpt>
      <trkpt lat="46.48216" lon="6.0502">
        <ele>1077</ele>
        <time>2018-09-03T22:08:30Z</time>
      </trkpt>
      <trkpt lat="46.48219" lon="6.05031">
        <ele>1079</ele>
        <time>2018-09-03T22:08:40Z</time>
      </trkpt>
      <trkpt lat="46.48221" lon="6.05038">
        <ele>1080</ele>
        <time>2018-09-03T22:08:45Z</time>
      </trkpt>
      <trkpt lat="46.48228" lon="6.05046">
        <ele>1081</ele>
        <time>2018-09-03T22:08:55Z</time>
      </trkpt>
      <trkpt lat="46.48231" lon="6.05048">
        <ele>1080</ele>
        <time>2018-09-03T22:09:00Z</time>
      </trkpt>
      <trkpt lat="46.48237" lon="6.05059">
        <ele>1082</ele>
        <time>2018-09-03T22:09:10Z</time>
      </trkpt>
      <trkpt lat="46.48239" lon="6.05066">
        <ele>1082</ele>
        <time>2018-09-03T22:09:15Z</time>
      </trkpt>
      <trkpt lat="46.48244" lon="6.05075">
        <ele>1083</ele>
        <time>2018-09-03T22:09:25Z</time>
      </trkpt>
      <trkpt lat="46.48246" lon="6.0508">
        <ele>1083</ele>
        <time>2018-09-03T22:09:30Z</time>
      </trkpt>
      <trkpt lat="46.48249" lon="6.05082">
        <ele>1083</ele>
        <time>2018-09-03T22:09:35Z</time>
      </trkpt>
      <trkpt lat="46.48249" lon="6.05087">
        <ele>1084</ele>
        <time>2018-09-03T22:09:45Z</time>
      </trkpt>
      <trkpt lat="46.48251" lon="6.05091">
        <ele>1084</ele>
        <time>2018-09-03T22:09:50Z</time>
      </trkpt>
      <trkpt lat="46.48254" lon="6.05097">
        <ele>1084</ele>
        <time>2018-09-03T22:10:00Z</time>
      </trkpt>
      <trkpt lat="46.48256" lon="6.05101">
        <ele>1085</ele>
        <time>2018-09-03T22:10:05Z</time>
      </trkpt>
      <trkpt lat="46.48261" lon="6.05109">
        <ele>1085</ele>
        <time>2018-09-03T22:10:15Z</time>
      </trkpt>
      <trkpt lat="46.48263" lon="6.05114">
        <ele>1085</ele>
        <time>2018-09-03T22:10:20Z</time>
      </trkpt>
      <trkpt lat="46.48265" lon="6.05119">
        <ele>1086</ele>
        <time>2018-09-03T22:10:25Z</time>
      </trkpt>
      <trkpt lat="46.48272" lon="6.05133">
        <ele>1086</ele>
        <time>2018-09-03T22:10:35Z</time>
      </trkpt>
      <trkpt lat="46.48275" lon="6.0514">
        <ele>1087</ele>
        <time>2018-09-03T22:10:40Z</time>
      </trkpt>
      <trkpt lat="46.48281" lon="6.05153">
        <ele>1087</ele>
        <time>2018-09-03T22:10:50Z</time>
      </trkpt>
      <trkpt lat="46.48283" lon="6.05157">
        <ele>1088</ele>
        <time>2018-09-03T22:10:55Z</time>
      </trkpt>
      <trkpt lat="46.48284" lon="6.05168">
        <ele>1089</ele>
        <time>2018-09-03T22:11:05Z</time>
      </trkpt>
      <trkpt lat="46.48285" lon="6.05173">
        <ele>1089</ele>
        <time>2018-09-03T22:11:10Z</time>
      </trkpt>
      <trkpt lat="46.48286" lon="6.05177">
        <ele>1090</ele>
        <time>2018-09-03T22:11:15Z</time>
      </trkpt>
      <trkpt lat="46.48287" lon="6.05188">
        <ele>1091</ele>
        <time>2018-09-03T22:11:25Z</time>
      </trkpt>
      <trkpt lat="46.48287" lon="6.05194">
        <ele>1091</ele>
        <time>2018-09-03T22:11:30Z</time>
      </trkpt>
      <trkpt lat="46.4829" lon="6.05203">
        <ele>1092</ele>
        <time>2018-09-03T22:11:40Z</time>
      </trkpt>
      <trkpt lat="46.48292" lon="6.05208">
        <ele>1092</ele>
        <time>2018-09-03T22:11:45Z</time>
      </trkpt>
      <trkpt lat="46.48296" lon="6.0522">
        <ele>1093</ele>
        <time>2018-09-03T22:11:55Z</time>
      </trkpt>
      <trkpt lat="46.48296" lon="6.05229">
        <ele>1094</ele>
        <time>2018-09-03T22:12:00Z</time>
      </trkpt>
      <trkpt lat="46.48294" lon="6.05236">
        <ele>1095</ele>
        <time>2018-09-03T22:12:05Z</time>
      </trkpt>
      <trkpt lat="46.48292" lon="6.05246">
        <ele>1096</ele>
        <time>2018-09-03T22:12:15Z</time>
      </trkpt>
      <trkpt lat="46.48292" lon="6.05252">
        <ele>1097</ele>
        <time>2018-09-03T22:12:20Z</time>
      </trkpt>
      <trkpt lat="46.48291" lon="6.05264">
        <ele>1097</ele>
        <time>2018-09-03T22:12:30Z</time>
      </trkpt>
      <trkpt lat="46.48291" lon="6.0527">
        <ele>1098</ele>
        <time>2018-09-03T22:12:35Z</time>
      </trkpt>
      <trkpt lat="46.48286" lon="6.05279">
        <ele>1100</ele>
        <time>2018-09-03T22:12:45Z</time>
      </trkpt>
      <trkpt lat="46.48285" lon="6.05285">
        <ele>1101</ele>
        <time>2018-09-03T22:12:50Z</time>
      </trkpt>
      <trkpt lat="46.48283" lon="6.05292">
        <ele>1102</ele>
        <time>2018-09-03T22:12:55Z</time>
      </trkpt>
      <trkpt lat="46.4828" lon="6.05307">
        <ele>1104</ele>
        <time>2018-09-03T22:13:05Z</time>
      </trkpt>
      <trkpt lat="46.4828" lon="6.05314">
        <ele>1105</ele>
        <time>2018-09-03T22:13:10Z</time>
      </trkpt>
      <trkpt lat="46.4828" lon="6.05325">
        <ele>1106</ele>
        <time>2018-09-03T22:13:20Z</time>
      </trkpt>
      <trkpt lat="46.4828" lon="6.05328">
        <ele>1106</ele>
        <time>2018-09-03T22:13:25Z</time>
      </trkpt>
      <trkpt lat="46.48281" lon="6.05338">
        <ele>1107</ele>
        <time>2018-09-03T22:13:35Z</time>
      </trkpt>
      <trkpt lat="46.48281" lon="6.05344">
        <ele>1107</ele>
        <time>2018-09-03T22:13:40Z</time>
      </trkpt>
      <trkpt lat="46.4828" lon="6.05352">
        <ele>1108</ele>
        <time>2018-09-03T22:13:50Z</time>
      </trkpt>
      <trkpt lat="46.48279" lon="6.05355">
        <ele>1108</ele>
        <time>2018-09-03T22:13:55Z</time>
      </trkpt>
      <trkpt lat="46.48278" lon="6.05357">
        <ele>1109</ele>
        <time>2018-09-03T22:14:00Z</time>
      </trkpt>
      <trkpt lat="46.48276" lon="6.05364">
        <ele>1109</ele>
        <time>2018-09-03T22:14:10Z</time>
      </trkpt>
      <trkpt lat="46.48274" lon="6.05369">
        <ele>1110</ele>
        <time>2018-09-03T22:14:15Z</time>
      </trkpt>
      <trkpt lat="46.48268" lon="6.05381">
        <ele>1112</ele>
        <time>2018-09-03T22:14:25Z</time>
      </trkpt>
      <trkpt lat="46.48267" lon="6.05387">
        <ele>1112</ele>
        <time>2018-09-03T22:14:30Z</time>
      </trkpt>
      <trkpt lat="46.48266" lon="6.05394">
        <ele>1112</ele>
        <time>2018-09-03T22:14:40Z</time>
      </trkpt>
      <trkpt lat="46.48266" lon="6.05394">
        <ele>1112</ele>
        <time>2018-09-03T22:14:45Z</time>
      </trkpt>
      <trkpt lat="46.48266" lon="6.05393">
        <ele>1112</ele>
        <time>2018-09-03T22:14:50Z</time>
      </trkpt>
      <trkpt lat="46.48266" lon="6.05393">
        <ele>1112</ele>
        <time>2018-09-03T22:15:00Z</time>
      </trkpt>
      <trkpt lat="46.48266" lon="6.05393">
        <ele>1112</ele>
        <time>2018-09-03T22:15:05Z</time>
      </trkpt>
      <trkpt lat="46.48265" lon="6.05393">
        <ele>1112</ele>
        <time>2018-09-03T22:15:15Z</time>
      </trkpt>
      <trkpt lat="46.48265" lon="6.05392">
        <ele>1112</ele>
        <time>2018-09-03T22:15:20Z</time>
      </trkpt>
      <trkpt lat="46.48264" lon="6.05393">
        <ele>1113</ele>
        <time>2018-09-03T22:15:30Z</time>
      </trkpt>
      <trkpt lat="46.48263" lon="6.05394">
        <ele>1113</ele>
        <time>2018-09-03T22:15:35Z</time>
      </trkpt>
      <trkpt lat="46.48264" lon="6.05394">
        <ele>1113</ele>
        <time>2018-09-03T22:15:40Z</time>
      </trkpt>
      <trkpt lat="46.48264" lon="6.05394">
        <ele>1113</ele>
        <time>2018-09-03T22:15:50Z</time>
      </trkpt>
      <trkpt lat="46.48264" lon="6.05394">
        <ele>1113</ele>
        <time>2018-09-03T22:15:55Z</time>
      </trkpt>
      <trkpt lat="46.48264" lon="6.05394">
        <ele>1112</ele>
        <time>2018-09-03T22:16:05Z</time>
      </trkpt>
      <trkpt lat="46.48265" lon="6.05394">
        <ele>1112</ele>
        <time>2018-09-03T22:16:10Z</time>
      </trkpt>
      <trkpt lat="46.48268" lon="6.05392">
        <ele>1111</ele>
        <time>2018-09-03T22:16:20Z</time>
      </trkpt>
      <trkpt lat="46.48268" lon="6.05392">
        <ele>1111</ele>
        <time>2018-09-03T22:16:25Z</time>
      </trkpt>
      <trkpt lat="46.48268" lon="6.05392">
        <ele>1111</ele>
        <time>2018-09-03T22:16:30Z</time>
      </trkpt>
      <trkpt lat="46.48268" lon="6.05392">
        <ele>1111</ele>
        <time>2018-09-03T22:16:40Z</time>
      </trkpt>
      <trkpt lat="46.48268" lon="6.05392">
        <ele>1111</ele>
        <time>2018-09-03T22:16:45Z</time>
      </trkpt>
      <trkpt lat="46.48268" lon="6.05392">
        <ele>1111</ele>
        <time>2018-09-03T22:16:55Z</time>
      </trkpt>
      <trkpt lat="46.48268" lon="6.05392">
        <ele>1111</ele>
        <time>2018-09-03T22:17:00Z</time>
      </trkpt>
      <trkpt lat="46.48268" lon="6.05392">
        <ele>1111</ele>
        <time>2018-09-03T22:17:10Z</time>
      </trkpt>
      <trkpt lat="46.48268" lon="6.05392">
        <ele>1111</ele>
        <time>2018-09-03T22:17:15Z</time>
      </trkpt>
      <trkpt lat="46.48268" lon="6.05391">
        <ele>1111</ele>
        <time>2018-09-03T22:17:20Z</time>
      </trkpt>
      <trkpt lat="46.48268" lon="6.05391">
        <ele>1111</ele>
        <time>2018-09-03T22:17:30Z</time>
      </trkpt>
      <trkpt lat="46.48269" lon="6.05391">
        <ele>1111</ele>
        <time>2018-09-03T22:17:35Z</time>
      </trkpt>
      <trkpt lat="46.48268" lon="6.05391">
        <ele>1111</ele>
        <time>2018-09-03T22:17:45Z</time>
      </trkpt>
      <trkpt lat="46.48268" lon="6.05391">
        <ele>1111</ele>
        <time>2018-09-03T22:17:50Z</time>
      </trkpt>
      <trkpt lat="46.48268" lon="6.05392">
        <ele>1111</ele>
        <time>2018-09-03T22:18:00Z</time>
      </trkpt>
      <trkpt lat="46.48267" lon="6.05392">
        <ele>1112</ele>
        <time>2018-09-03T22:18:05Z</time>
      </trkpt>
      <trkpt lat="46.48267" lon="6.05392">
        <ele>1112</ele>
        <time>2018-09-03T22:18:15Z</time>
      </trkpt>
      <trkpt lat="46.48268" lon="6.05392">
        <ele>1111</ele>
        <time>2018-09-03T22:18:20Z</time>
      </trkpt>
      <trkpt lat="46.48268" lon="6.05392">
        <ele>1111</ele>
        <time>2018-09-03T22:18:25Z</time>
      </trkpt>
      <trkpt lat="46.48269" lon="6.05393">
        <ele>1111</ele>
        <time>2018-09-03T22:18:35Z</time>
      </trkpt>
      <trkpt lat="46.48269" lon="6.05393">
        <ele>1111</ele>
        <time>2018-09-03T22:18:40Z</time>
      </trkpt>
      <trkpt lat="46.48269" lon="6.05393">
        <ele>1111</ele>
        <time>2018-09-03T22:18:50Z</time>
      </trkpt>
      <trkpt lat="46.48269" lon="6.05393">
        <ele>1111</ele>
        <time>2018-09-03T22:18:55Z</time>
      </trkpt>
      <trkpt lat="46.48269" lon="6.05393">
        <ele>1111</ele>
        <time>2018-09-03T22:19:05Z</time>
      </trkpt>
      <trkpt lat="46.48269" lon="6.05393">
        <ele>1111</ele>
        <time>2018-09-03T22:19:10Z</time>
      </trkpt>
      <trkpt lat="46.48269" lon="6.05393">
        <ele>1111</ele>
        <time>2018-09-03T22:19:15Z</time>
      </trkpt>
      <trkpt lat="46.48269" lon="6.05393">
        <ele>1111</ele>
        <time>2018-09-03T22:19:25Z</time>
      </trkpt>
      <trkpt lat="46.48269" lon="6.05393">
        <ele>1111</ele>
        <time>2018-09-03T22:19:30Z</time>
      </trkpt>
      <trkpt lat="46.48269" lon="6.05393">
        <ele>1111</ele>
        <time>2018-09-03T22:19:40Z</time>
      </trkpt>
      <trkpt lat="46.48269" lon="6.05393">
        <ele>1111</ele>
        <time>2018-09-03T22:19:45Z</time>
      </trkpt>
      <trkpt lat="46.48269" lon="6.05394">
        <ele>1111</ele>
        <time>2018-09-03T22:19:55Z</time>
      </trkpt>
      <trkpt lat="46.48269" lon="6.05394">
        <ele>1111</ele>
        <time>2018-09-03T22:20:00Z</time>
      </trkpt>
      <trkpt lat="46.48269" lon="6.05394">
        <ele>1111</ele>
        <time>2018-09-03T22:20:05Z</time>
      </trkpt>
      <trkpt lat="46.4827" lon="6.05394">
        <ele>1110</ele>
        <time>2018-09-03T22:20:15Z</time>
      </trkpt>
      <trkpt lat="46.4827" lon="6.05394">
        <ele>1110</ele>
        <time>2018-09-03T22:20:20Z</time>
      </trkpt>
      <trkpt lat="46.48273" lon="6.05396">
        <ele>1109</ele>
        <time>2018-09-03T22:20:30Z</time>
      </trkpt>
      <trkpt lat="46.48273" lon="6.05396">
        <ele>1109</ele>
        <time>2018-09-03T22:20:35Z</time>
      </trkpt>
      <trkpt lat="46.48273" lon="6.05397">
        <ele>1109</ele>
        <time>2018-09-03T22:20:45Z</time>
      </trkpt>
      <trkpt lat="46.48273" lon="6.05397">
        <ele>1109</ele>
        <time>2018-09-03T22:20:50Z</time>
      </trkpt>
      <trkpt lat="46.48273" lon="6.05397">
        <ele>1109</ele>
        <time>2018-09-03T22:20:55Z</time>
      </trkpt>
      <trkpt lat="46.48272" lon="6.05397">
        <ele>1110</ele>
        <time>2018-09-03T22:21:05Z</time>
      </trkpt>
      <trkpt lat="46.48272" lon="6.05397">
        <ele>1110</ele>
        <time>2018-09-03T22:21:10Z</time>
      </trkpt>
      <trkpt lat="46.48272" lon="6.05397">
        <ele>1110</ele>
        <time>2018-09-03T22:21:20Z</time>
      </trkpt>
      <trkpt lat="46.48271" lon="6.05396">
        <ele>1110</ele>
        <time>2018-09-03T22:21:25Z</time>
      </trkpt>
      <trkpt lat="46.48271" lon="6.05396">
        <ele>1110</ele>
        <time>2018-09-03T22:21:35Z</time>
      </trkpt>
      <trkpt lat="46.48271" lon="6.05396">
        <ele>1110</ele>
        <time>2018-09-03T22:21:40Z</time>
      </trkpt>
      <trkpt lat="46.48271" lon="6.05396">
        <ele>1110</ele>
        <time>2018-09-03T22:21:45Z</time>
      </trkpt>
      <trkpt lat="46.48271" lon="6.05396">
        <ele>1110</ele>
        <time>2018-09-03T22:21:55Z</time>
      </trkpt>
      <trkpt lat="46.48271" lon="6.05397">
        <ele>1110</ele>
        <time>2018-09-03T22:22:00Z</time>
      </trkpt>
      <trkpt lat="46.48271" lon="6.05397">
        <ele>1110</ele>
        <time>2018-09-03T22:22:10Z</time>
      </trkpt>
      <trkpt lat="46.48271" lon="6.05398">
        <ele>1110</ele>
        <time>2018-09-03T22:22:15Z</time>
      </trkpt>
      <trkpt lat="46.48271" lon="6.054">
        <ele>1110</ele>
        <time>2018-09-03T22:22:25Z</time>
      </trkpt>
      <trkpt lat="46.48271" lon="6.054">
        <ele>1110</ele>
        <time>2018-09-03T22:22:30Z</time>
      </trkpt>
      <trkpt lat="46.48271" lon="6.054">
        <ele>1110</ele>
        <time>2018-09-03T22:22:40Z</time>
      </trkpt>
      <trkpt lat="46.48271" lon="6.054">
        <ele>1110</ele>
        <time>2018-09-03T22:22:45Z</time>
      </trkpt>
      <trkpt lat="46.48271" lon="6.054">
        <ele>1110</ele>
        <time>2018-09-03T22:22:50Z</time>
      </trkpt>
      <trkpt lat="46.48271" lon="6.054">
        <ele>1110</ele>
        <time>2018-09-03T22:23:00Z</time>
      </trkpt>
      <trkpt lat="46.48272" lon="6.054">
        <ele>1110</ele>
        <time>2018-09-03T22:23:05Z</time>
      </trkpt>
      <trkpt lat="46.48276" lon="6.05415">
        <ele>1110</ele>
        <time>2018-09-03T22:23:15Z</time>
      </trkpt>
      <trkpt lat="46.4828" lon="6.05425">
        <ele>1111</ele>
        <time>2018-09-03T22:23:20Z</time>
      </trkpt>
      <trkpt lat="46.4829" lon="6.05441">
        <ele>1111</ele>
        <time>2018-09-03T22:23:30Z</time>
      </trkpt>
      <trkpt lat="46.48295" lon="6.05448">
        <ele>1111</ele>
        <time>2018-09-03T22:23:35Z</time>
      </trkpt>
      <trkpt lat="46.483" lon="6.05455">
        <ele>1110</ele>
        <time>2018-09-03T22:23:40Z</time>
      </trkpt>
      <trkpt lat="46.48306" lon="6.05472">
        <ele>1110</ele>
        <time>2018-09-03T22:23:50Z</time>
      </trkpt>
      <trkpt lat="46.48309" lon="6.05479">
        <ele>1110</ele>
        <time>2018-09-03T22:23:55Z</time>
      </trkpt>
      <trkpt lat="46.48315" lon="6.05493">
        <ele>1110</ele>
        <time>2018-09-03T22:24:05Z</time>
      </trkpt>
      <trkpt lat="46.48316" lon="6.05501">
        <ele>1111</ele>
        <time>2018-09-03T22:24:10Z</time>
      </trkpt>
      <trkpt lat="46.4832" lon="6.05517">
        <ele>1115</ele>
        <time>2018-09-03T22:24:20Z</time>
      </trkpt>
      <trkpt lat="46.48321" lon="6.05524">
        <ele>1116</ele>
        <time>2018-09-03T22:24:25Z</time>
      </trkpt>
      <trkpt lat="46.4832" lon="6.05531">
        <ele>1116</ele>
        <time>2018-09-03T22:24:30Z</time>
      </trkpt>
      <trkpt lat="46.48318" lon="6.05541">
        <ele>1119</ele>
        <time>2018-09-03T22:24:40Z</time>
      </trkpt>
      <trkpt lat="46.4832" lon="6.05545">
        <ele>1119</ele>
        <time>2018-09-03T22:24:45Z</time>
      </trkpt>
      <trkpt lat="46.48327" lon="6.05553">
        <ele>1119</ele>
        <time>2018-09-03T22:24:55Z</time>
      </trkpt>
      <trkpt lat="46.48332" lon="6.05557">
        <ele>1119</ele>
        <time>2018-09-03T22:25:00Z</time>
      </trkpt>
      <trkpt lat="46.48341" lon="6.05569">
        <ele>1117</ele>
        <time>2018-09-03T22:25:10Z</time>
      </trkpt>
      <trkpt lat="46.48346" lon="6.05574">
        <ele>1117</ele>
        <time>2018-09-03T22:25:15Z</time>
      </trkpt>
      <trkpt lat="46.48351" lon="6.05579">
        <ele>1118</ele>
        <time>2018-09-03T22:25:20Z</time>
      </trkpt>
      <trkpt lat="46.48357" lon="6.05587">
        <ele>1119</ele>
        <time>2018-09-03T22:25:30Z</time>
      </trkpt>
      <trkpt lat="46.4836" lon="6.05592">
        <ele>1119</ele>
        <time>2018-09-03T22:25:35Z</time>
      </trkpt>
      <trkpt lat="46.48366" lon="6.05603">
        <ele>1119</ele>
        <time>2018-09-03T22:25:45Z</time>
      </trkpt>
      <trkpt lat="46.48367" lon="6.0561">
        <ele>1118</ele>
        <time>2018-09-03T22:25:50Z</time>
      </trkpt>
      <trkpt lat="46.4836" lon="6.05613">
        <ele>1119</ele>
        <time>2018-09-03T22:26:00Z</time>
      </trkpt>
      <trkpt lat="46.48356" lon="6.0561">
        <ele>1120</ele>
        <time>2018-09-03T22:26:05Z</time>
      </trkpt>
      <trkpt lat="46.4835" lon="6.05606">
        <ele>1121</ele>
        <time>2018-09-03T22:26:10Z</time>
      </trkpt>
      <trkpt lat="46.48345" lon="6.05603">
        <ele>1121</ele>
        <time>2018-09-03T22:26:20Z</time>
      </trkpt>
      <trkpt lat="46.48345" lon="6.05603">
        <ele>1121</ele>
        <time>2018-09-03T22:26:25Z</time>
      </trkpt>
      <trkpt lat="46.48345" lon="6.05603">
        <ele>1121</ele>
        <time>2018-09-03T22:26:35Z</time>
      </trkpt>
      <trkpt lat="46.48345" lon="6.05602">
        <ele>1121</ele>
        <time>2018-09-03T22:26:40Z</time>
      </trkpt>
      <trkpt lat="46.48345" lon="6.05601">
        <ele>1121</ele>
        <time>2018-09-03T22:26:50Z</time>
      </trkpt>
      <trkpt lat="46.48344" lon="6.056">
        <ele>1121</ele>
        <time>2018-09-03T22:26:55Z</time>
      </trkpt>
      <trkpt lat="46.4834" lon="6.056">
        <ele>1122</ele>
        <time>2018-09-03T22:27:05Z</time>
      </trkpt>
      <trkpt lat="46.48338" lon="6.05599">
        <ele>1122</ele>
        <time>2018-09-03T22:27:10Z</time>
      </trkpt>
      <trkpt lat="46.48338" lon="6.05598">
        <ele>1122</ele>
        <time>2018-09-03T22:27:15Z</time>
      </trkpt>
      <trkpt lat="46.48339" lon="6.05599">
        <ele>1122</ele>
        <time>2018-09-03T22:27:25Z</time>
      </trkpt>
      <trkpt lat="46.48339" lon="6.05599">
        <ele>1122</ele>
        <time>2018-09-03T22:27:30Z</time>
      </trkpt>
      <trkpt lat="46.48339" lon="6.05599">
        <ele>1122</ele>
        <time>2018-09-03T22:27:40Z</time>
      </trkpt>
      <trkpt lat="46.48339" lon="6.056">
        <ele>1122</ele>
        <time>2018-09-03T22:27:45Z</time>
      </trkpt>
      <trkpt lat="46.48339" lon="6.056">
        <ele>1122</ele>
        <time>2018-09-03T22:27:55Z</time>
      </trkpt>
      <trkpt lat="46.48339" lon="6.056">
        <ele>1122</ele>
        <time>2018-09-03T22:28:00Z</time>
      </trkpt>
      <trkpt lat="46.48339" lon="6.056">
        <ele>1122</ele>
        <time>2018-09-03T22:28:05Z</time>
      </trkpt>
      <trkpt lat="46.48338" lon="6.05599">
        <ele>1122</ele>
        <time>2018-09-03T22:28:15Z</time>
      </trkpt>
      <trkpt lat="46.48336" lon="6.056">
        <ele>1122</ele>
        <time>2018-09-03T22:28:20Z</time>
      </trkpt>
      <trkpt lat="46.48335" lon="6.05603">
        <ele>1122</ele>
        <time>2018-09-03T22:28:30Z</time>
      </trkpt>
      <trkpt lat="46.48333" lon="6.05605">
        <ele>1123</ele>
        <time>2018-09-03T22:28:35Z</time>
      </trkpt>
      <trkpt lat="46.48329" lon="6.05607">
        <ele>1123</ele>
        <time>2018-09-03T22:28:45Z</time>
      </trkpt>
      <trkpt lat="46.48328" lon="6.0561">
        <ele>1124</ele>
        <time>2018-09-03T22:28:50Z</time>
      </trkpt>
      <trkpt lat="46.48326" lon="6.05614">
        <ele>1125</ele>
        <time>2018-09-03T22:28:55Z</time>
      </trkpt>
      <trkpt lat="46.48325" lon="6.05626">
        <ele>1126</ele>
        <time>2018-09-03T22:29:05Z</time>
      </trkpt>
      <trkpt lat="46.48324" lon="6.05632">
        <ele>1126</ele>
        <time>2018-09-03T22:29:10Z</time>
      </trkpt>
      <trkpt lat="46.48318" lon="6.05642">
        <ele>1126</ele>
        <time>2018-09-03T22:29:20Z</time>
      </trkpt>
      <trkpt lat="46.48315" lon="6.05647">
        <ele>1126</ele>
        <time>2018-09-03T22:29:25Z</time>
      </trkpt>
      <trkpt lat="46.4831" lon="6.05654">
        <ele>1126</ele>
        <time>2018-09-03T22:29:35Z</time>
      </trkpt>
      <trkpt lat="46.48307" lon="6.05657">
        <ele>1126</ele>
        <time>2018-09-03T22:29:40Z</time>
      </trkpt>
      <trkpt lat="46.48304" lon="6.05661">
        <ele>1126</ele>
        <time>2018-09-03T22:29:45Z</time>
      </trkpt>
      <trkpt lat="46.48299" lon="6.05673">
        <ele>1126</ele>
        <time>2018-09-03T22:29:55Z</time>
      </trkpt>
      <trkpt lat="46.48296" lon="6.05677">
        <ele>1126</ele>
        <time>2018-09-03T22:30:00Z</time>
      </trkpt>
      <trkpt lat="46.48292" lon="6.05676">
        <ele>1126</ele>
        <time>2018-09-03T22:30:10Z</time>
      </trkpt>
      <trkpt lat="46.48289" lon="6.05672">
        <ele>1126</ele>
        <time>2018-09-03T22:30:15Z</time>
      </trkpt>
      <trkpt lat="46.48285" lon="6.05667">
        <ele>1127</ele>
        <time>2018-09-03T22:30:25Z</time>
      </trkpt>
      <trkpt lat="46.48284" lon="6.05666">
        <ele>1127</ele>
        <time>2018-09-03T22:30:30Z</time>
      </trkpt>
      <trkpt lat="46.48284" lon="6.05666">
        <ele>1127</ele>
        <time>2018-09-03T22:30:35Z</time>
      </trkpt>
      <trkpt lat="46.48284" lon="6.05666">
        <ele>1127</ele>
        <time>2018-09-03T22:30:45Z</time>
      </trkpt>
      <trkpt lat="46.48284" lon="6.05666">
        <ele>1127</ele>
        <time>2018-09-03T22:30:50Z</time>
      </trkpt>
      <trkpt lat="46.48282" lon="6.05671">
        <ele>1127</ele>
        <time>2018-09-03T22:31:00Z</time>
      </trkpt>
      <trkpt lat="46.4828" lon="6.05677">
        <ele>1127</ele>
        <time>2018-09-03T22:31:05Z</time>
      </trkpt>
      <trkpt lat="46.48277" lon="6.05685">
        <ele>1127</ele>
        <time>2018-09-03T22:31:15Z</time>
      </trkpt>
      <trkpt lat="46.48277" lon="6.05686">
        <ele>1127</ele>
        <time>2018-09-03T22:31:20Z</time>
      </trkpt>
      <trkpt lat="46.48274" lon="6.05691">
        <ele>1127</ele>
        <time>2018-09-03T22:31:30Z</time>
      </trkpt>
      <trkpt lat="46.48272" lon="6.05698">
        <ele>1127</ele>
        <time>2018-09-03T22:31:35Z</time>
      </trkpt>
      <trkpt lat="46.48268" lon="6.05702">
        <ele>1127</ele>
        <time>2018-09-03T22:31:40Z</time>
      </trkpt>
      <trkpt lat="46.48264" lon="6.0571">
        <ele>1126</ele>
        <time>2018-09-03T22:31:50Z</time>
      </trkpt>
      <trkpt lat="46.48263" lon="6.05711">
        <ele>1126</ele>
        <time>2018-09-03T22:31:55Z</time>
      </trkpt>
      <trkpt lat="46.48263" lon="6.05711">
        <ele>1126</ele>
        <time>2018-09-03T22:32:05Z</time>
      </trkpt>
      <trkpt lat="46.48263" lon="6.05711">
        <ele>1126</ele>
        <time>2018-09-03T22:32:10Z</time>
      </trkpt>
      <trkpt lat="46.48263" lon="6.05711">
        <ele>1126</ele>
        <time>2018-09-03T22:32:20Z</time>
      </trkpt>
      <trkpt lat="46.48263" lon="6.05711">
        <ele>1126</ele>
        <time>2018-09-03T22:32:25Z</time>
      </trkpt>
      <trkpt lat="46.48263" lon="6.05711">
        <ele>1126</ele>
        <time>2018-09-03T22:32:30Z</time>
      </trkpt>
      <trkpt lat="46.48262" lon="6.05711">
        <ele>1126</ele>
        <time>2018-09-03T22:32:40Z</time>
      </trkpt>
      <trkpt lat="46.48263" lon="6.05712">
        <ele>1126</ele>
        <time>2018-09-03T22:32:45Z</time>
      </trkpt>
      <trkpt lat="46.48263" lon="6.05713">
        <ele>1126</ele>
        <time>2018-09-03T22:32:55Z</time>
      </trkpt>
      <trkpt lat="46.48264" lon="6.05713">
        <ele>1126</ele>
        <time>2018-09-03T22:33:00Z</time>
      </trkpt>
      <trkpt lat="46.48263" lon="6.05722">
        <ele>1126</ele>
        <time>2018-09-03T22:33:10Z</time>
      </trkpt>
      <trkpt lat="46.48264" lon="6.05727">
        <ele>1126</ele>
        <time>2018-09-03T22:33:15Z</time>
      </trkpt>
      <trkpt lat="46.48264" lon="6.05733">
        <ele>1126</ele>
        <time>2018-09-03T22:33:20Z</time>
      </trkpt>
      <trkpt lat="46.48264" lon="6.05746">
        <ele>1125</ele>
        <time>2018-09-03T22:33:30Z</time>
      </trkpt>
      <trkpt lat="46.48264" lon="6.0575">
        <ele>1125</ele>
        <time>2018-09-03T22:33:35Z</time>
      </trkpt>
      <trkpt lat="46.48265" lon="6.05752">
        <ele>1125</ele>
        <time>2018-09-03T22:33:45Z</time>
      </trkpt>
      <trkpt lat="46.48266" lon="6.05759">
        <ele>1125</ele>
        <time>2018-09-03T22:33:50Z</time>
      </trkpt>
      <trkpt lat="46.48266" lon="6.05772">
        <ele>1124</ele>
        <time>2018-09-03T22:34:00Z</time>
      </trkpt>
      <trkpt lat="46.48267" lon="6.05776">
        <ele>1124</ele>
        <time>2018-09-03T22:34:05Z</time>
      </trkpt>
      <trkpt lat="46.48267" lon="6.05783">
        <ele>1124</ele>
        <time>2018-09-03T22:34:10Z</time>
      </trkpt>
      <trkpt lat="46.48267" lon="6.05789">
        <ele>1124</ele>
        <time>2018-09-03T22:34:20Z</time>
      </trkpt>
      <trkpt lat="46.48268" lon="6.05793">
        <ele>1124</ele>
        <time>2018-09-03T22:34:25Z</time>
      </trkpt>
      <trkpt lat="46.48268" lon="6.05806">
        <ele>1123</ele>
        <time>2018-09-03T22:34:35Z</time>
      </trkpt>
      <trkpt lat="46.48269" lon="6.05812">
        <ele>1123</ele>
        <time>2018-09-03T22:34:40Z</time>
      </trkpt>
      <trkpt lat="46.48269" lon="6.05825">
        <ele>1123</ele>
        <time>2018-09-03T22:34:50Z</time>
      </trkpt>
      <trkpt lat="46.4827" lon="6.05833">
        <ele>1124</ele>
        <time>2018-09-03T22:34:55Z</time>
      </trkpt>
      <trkpt lat="46.48271" lon="6.0584">
        <ele>1124</ele>
        <time>2018-09-03T22:35:00Z</time>
      </trkpt>
      <trkpt lat="46.48271" lon="6.05847">
        <ele>1125</ele>
        <time>2018-09-03T22:35:10Z</time>
      </trkpt>
      <trkpt lat="46.48271" lon="6.05847">
        <ele>1125</ele>
        <time>2018-09-03T22:35:15Z</time>
      </trkpt>
      <trkpt lat="46.48271" lon="6.05847">
        <ele>1125</ele>
        <time>2018-09-03T22:35:25Z</time>
      </trkpt>
      <trkpt lat="46.48271" lon="6.05847">
        <ele>1125</ele>
        <time>2018-09-03T22:35:30Z</time>
      </trkpt>
      <trkpt lat="46.48272" lon="6.05847">
        <ele>1124</ele>
        <time>2018-09-03T22:35:40Z</time>
      </trkpt>
      <trkpt lat="46.48272" lon="6.05847">
        <ele>1124</ele>
        <time>2018-09-03T22:35:45Z</time>
      </trkpt>
      <trkpt lat="46.48272" lon="6.05853">
        <ele>1125</ele>
        <time>2018-09-03T22:35:55Z</time>
      </trkpt>
      <trkpt lat="46.48272" lon="6.05858">
        <ele>1125</ele>
        <time>2018-09-03T22:36:00Z</time>
      </trkpt>
      <trkpt lat="46.48272" lon="6.0586">
        <ele>1125</ele>
        <time>2018-09-03T22:36:05Z</time>
      </trkpt>
      <trkpt lat="46.48273" lon="6.05863">
        <ele>1125</ele>
        <time>2018-09-03T22:36:15Z</time>
      </trkpt>
      <trkpt lat="46.48273" lon="6.05863">
        <ele>1125</ele>
        <time>2018-09-03T22:36:20Z</time>
      </trkpt>
      <trkpt lat="46.48273" lon="6.05865">
        <ele>1125</ele>
        <time>2018-09-03T22:36:30Z</time>
      </trkpt>
      <trkpt lat="46.48274" lon="6.05872">
        <ele>1125</ele>
        <time>2018-09-03T22:36:35Z</time>
      </trkpt>
      <trkpt lat="46.48275" lon="6.05886">
        <ele>1126</ele>
        <time>2018-09-03T22:36:45Z</time>
      </trkpt>
      <trkpt lat="46.48275" lon="6.05892">
        <ele>1126</ele>
        <time>2018-09-03T22:36:50Z</time>
      </trkpt>
      <trkpt lat="46.48276" lon="6.05898">
        <ele>1127</ele>
        <time>2018-09-03T22:36:55Z</time>
      </trkpt>
      <trkpt lat="46.48275" lon="6.05908">
        <ele>1127</ele>
        <time>2018-09-03T22:37:05Z</time>
      </trkpt>
      <trkpt lat="46.48275" lon="6.0591">
        <ele>1127</ele>
        <time>2018-09-03T22:37:10Z</time>
      </trkpt>
      <trkpt lat="46.48276" lon="6.0591">
        <ele>1127</ele>
        <time>2018-09-03T22:37:20Z</time>
      </trkpt>
      <trkpt lat="46.48275" lon="6.05911">
        <ele>1127</ele>
        <time>2018-09-03T22:37:25Z</time>
      </trkpt>
      <trkpt lat="46.48276" lon="6.05909">
        <ele>1127</ele>
        <time>2018-09-03T22:37:35Z</time>
      </trkpt>
      <trkpt lat="46.48276" lon="6.05908">
        <ele>1127</ele>
        <time>2018-09-03T22:37:40Z</time>
      </trkpt>
      <trkpt lat="46.48276" lon="6.05908">
        <ele>1127</ele>
        <time>2018-09-03T22:37:45Z</time>
      </trkpt>
      <trkpt lat="46.48276" lon="6.05908">
        <ele>1127</ele>
        <time>2018-09-03T22:37:55Z</time>
      </trkpt>
      <trkpt lat="46.48276" lon="6.05908">
        <ele>1127</ele>
        <time>2018-09-03T22:38:00Z</time>
      </trkpt>
      <trkpt lat="46.48276" lon="6.05908">
        <ele>1127</ele>
        <time>2018-09-03T22:38:10Z</time>
      </trkpt>
      <trkpt lat="46.48276" lon="6.05908">
        <ele>1127</ele>
        <time>2018-09-03T22:38:15Z</time>
      </trkpt>
      <trkpt lat="46.48276" lon="6.05908">
        <ele>1127</ele>
        <time>2018-09-03T22:38:25Z</time>
      </trkpt>
      <trkpt lat="46.48276" lon="6.05908">
        <ele>1127</ele>
        <time>2018-09-03T22:38:30Z</time>
      </trkpt>
      <trkpt lat="46.48276" lon="6.0591">
        <ele>1127</ele>
        <time>2018-09-03T22:38:35Z</time>
      </trkpt>
      <trkpt lat="46.48277" lon="6.0591">
        <ele>1127</ele>
        <time>2018-09-03T22:38:45Z</time>
      </trkpt>
      <trkpt lat="46.48277" lon="6.05911">
        <ele>1127</ele>
        <time>2018-09-03T22:38:50Z</time>
      </trkpt>
      <trkpt lat="46.48272" lon="6.05915">
        <ele>1128</ele>
        <time>2018-09-03T22:39:00Z</time>
      </trkpt>
      <trkpt lat="46.48269" lon="6.05919">
        <ele>1127</ele>
        <time>2018-09-03T22:39:05Z</time>
      </trkpt>
      <trkpt lat="46.48264" lon="6.05918">
        <ele>1127</ele>
        <time>2018-09-03T22:39:15Z</time>
      </trkpt>
      <trkpt lat="46.48262" lon="6.05917">
        <ele>1127</ele>
        <time>2018-09-03T22:39:20Z</time>
      </trkpt>
      <trkpt lat="46.48261" lon="6.05916">
        <ele>1127</ele>
        <time>2018-09-03T22:39:25Z</time>
      </trkpt>
      <trkpt lat="46.48255" lon="6.05913">
        <ele>1127</ele>
        <time>2018-09-03T22:39:35Z</time>
      </trkpt>
      <trkpt lat="46.48252" lon="6.05912">
        <ele>1127</ele>
        <time>2018-09-03T22:39:40Z</time>
      </trkpt>
      <trkpt lat="46.48245" lon="6.05908">
        <ele>1126</ele>
        <time>2018-09-03T22:39:50Z</time>
      </trkpt>
      <trkpt lat="46.48242" lon="6.05907">
        <ele>1126</ele>
        <time>2018-09-03T22:39:55Z</time>
      </trkpt>
      <trkpt lat="46.48235" lon="6.05904">
        <ele>1126</ele>
        <time>2018-09-03T22:40:05Z</time>
      </trkpt>
      <trkpt lat="46.48233" lon="6.05903">
        <ele>1126</ele>
        <time>2018-09-03T22:40:10Z</time>
      </trkpt>
      <trkpt lat="46.48233" lon="6.05903">
        <ele>1126</ele>
        <time>2018-09-03T22:40:20Z</time>
      </trkpt>
      <trkpt lat="46.48233" lon="6.05904">
        <ele>1126</ele>
        <time>2018-09-03T22:40:25Z</time>
      </trkpt>
      <trkpt lat="46.48233" lon="6.05904">
        <ele>1126</ele>
        <time>2018-09-03T22:40:30Z</time>
      </trkpt>
      <trkpt lat="46.48233" lon="6.05903">
        <ele>1126</ele>
        <time>2018-09-03T22:40:40Z</time>
      </trkpt>
      <trkpt lat="46.48234" lon="6.05903">
        <ele>1126</ele>
        <time>2018-09-03T22:40:45Z</time>
      </trkpt>
      <trkpt lat="46.48233" lon="6.05903">
        <ele>1126</ele>
        <time>2018-09-03T22:40:55Z</time>
      </trkpt>
      <trkpt lat="46.48233" lon="6.05903">
        <ele>1126</ele>
        <time>2018-09-03T22:41:00Z</time>
      </trkpt>
      <trkpt lat="46.48232" lon="6.05901">
        <ele>1126</ele>
        <time>2018-09-03T22:41:10Z</time>
      </trkpt>
      <trkpt lat="46.48229" lon="6.05901">
        <ele>1126</ele>
        <time>2018-09-03T22:41:15Z</time>
      </trkpt>
      <trkpt lat="46.48226" lon="6.05899">
        <ele>1126</ele>
        <time>2018-09-03T22:41:20Z</time>
      </trkpt>
      <trkpt lat="46.48219" lon="6.05898">
        <ele>1126</ele>
        <time>2018-09-03T22:41:30Z</time>
      </trkpt>
      <trkpt lat="46.48217" lon="6.05896">
        <ele>1126</ele>
        <time>2018-09-03T22:41:35Z</time>
      </trkpt>
      <trkpt lat="46.4821" lon="6.05891">
        <ele>1125</ele>
        <time>2018-09-03T22:41:45Z</time>
      </trkpt>
      <trkpt lat="46.48205" lon="6.05889">
        <ele>1125</ele>
        <time>2018-09-03T22:41:50Z</time>
      </trkpt>
      <trkpt lat="46.48198" lon="6.05885">
        <ele>1125</ele>
        <time>2018-09-03T22:42:00Z</time>
      </trkpt>
      <trkpt lat="46.48194" lon="6.05883">
        <ele>1125</ele>
        <time>2018-09-03T22:42:05Z</time>
      </trkpt>
      <trkpt lat="46.4819" lon="6.0588">
        <ele>1125</ele>
        <time>2018-09-03T22:42:10Z</time>
      </trkpt>
      <trkpt lat="46.48183" lon="6.05877">
        <ele>1126</ele>
        <time>2018-09-03T22:42:20Z</time>
      </trkpt>
      <trkpt lat="46.48183" lon="6.05877">
        <ele>1126</ele>
        <time>2018-09-03T22:42:25Z</time>
      </trkpt>
      <trkpt lat="46.48175" lon="6.05873">
        <ele>1126</ele>
        <time>2018-09-03T22:42:35Z</time>
      </trkpt>
      <trkpt lat="46.48171" lon="6.05871">
        <ele>1126</ele>
        <time>2018-09-03T22:42:40Z</time>
      </trkpt>
      <trkpt lat="46.48163" lon="6.05865">
        <ele>1127</ele>
        <time>2018-09-03T22:42:50Z</time>
      </trkpt>
      <trkpt lat="46.48159" lon="6.05861">
        <ele>1127</ele>
        <time>2018-09-03T22:42:55Z</time>
      </trkpt>
      <trkpt lat="46.48159" lon="6.05861">
        <ele>1127</ele>
        <time>2018-09-03T22:43:00Z</time>
      </trkpt>
      <trkpt lat="46.48158" lon="6.0586">
        <ele>1127</ele>
        <time>2018-09-03T22:43:10Z</time>
      </trkpt>
      <trkpt lat="46.48158" lon="6.0586">
        <ele>1127</ele>
        <time>2018-09-03T22:43:15Z</time>
      </trkpt>
      <trkpt lat="46.48158" lon="6.0586">
        <ele>1127</ele>
        <time>2018-09-03T22:43:25Z</time>
      </trkpt>
      <trkpt lat="46.48159" lon="6.0586">
        <ele>1127</ele>
        <time>2018-09-03T22:43:30Z</time>
      </trkpt>
      <trkpt lat="46.48158" lon="6.0586">
        <ele>1127</ele>
        <time>2018-09-03T22:43:40Z</time>
      </trkpt>
      <trkpt lat="46.48156" lon="6.0586">
        <ele>1127</ele>
        <time>2018-09-03T22:43:45Z</time>
      </trkpt>
      <trkpt lat="46.48153" lon="6.05858">
        <ele>1127</ele>
        <time>2018-09-03T22:43:50Z</time>
      </trkpt>
      <trkpt lat="46.48146" lon="6.05853">
        <ele>1128</ele>
        <time>2018-09-03T22:44:00Z</time>
      </trkpt>
      <trkpt lat="46.48143" lon="6.05854">
        <ele>1128</ele>
        <time>2018-09-03T22:44:05Z</time>
      </trkpt>
      <trkpt lat="46.48134" lon="6.05856">
        <ele>1128</ele>
        <time>2018-09-03T22:44:15Z</time>
      </trkpt>
      <trkpt lat="46.4813" lon="6.05859">
        <ele>1128</ele>
        <time>2018-09-03T22:44:20Z</time>
      </trkpt>
      <trkpt lat="46.48122" lon="6.05861">
        <ele>1129</ele>
        <time>2018-09-03T22:44:30Z</time>
      </trkpt>
      <trkpt lat="46.48119" lon="6.05861">
        <ele>1129</ele>
        <time>2018-09-03T22:44:35Z</time>
      </trkpt>
      <trkpt lat="46.48113" lon="6.0586">
        <ele>1129</ele>
        <time>2018-09-03T22:44:45Z</time>
      </trkpt>
      <trkpt lat="46.48109" lon="6.05859">
        <ele>1129</ele>
        <time>2018-09-03T22:44:50Z</time>
      </trkpt>
      <trkpt lat="46.48104" lon="6.05858">
        <ele>1128</ele>
        <time>2018-09-03T22:44:55Z</time>
      </trkpt>
      <trkpt lat="46.48098" lon="6.05861">
        <ele>1128</ele>
        <time>2018-09-03T22:45:05Z</time>
      </trkpt>
      <trkpt lat="46.48094" lon="6.0586">
        <ele>1128</ele>
        <time>2018-09-03T22:45:10Z</time>
      </trkpt>
      <trkpt lat="46.48085" lon="6.05859">
        <ele>1128</ele>
        <time>2018-09-03T22:45:20Z</time>
      </trkpt>
      <trkpt lat="46.48081" lon="6.05856">
        <ele>1128</ele>
        <time>2018-09-03T22:45:25Z</time>
      </trkpt>
      <trkpt lat="46.48075" lon="6.05854">
        <ele>1128</ele>
        <time>2018-09-03T22:45:35Z</time>
      </trkpt>
      <trkpt lat="46.48072" lon="6.05852">
        <ele>1127</ele>
        <time>2018-09-03T22:45:40Z</time>
      </trkpt>
      <trkpt lat="46.48069" lon="6.05851">
        <ele>1127</ele>
        <time>2018-09-03T22:45:45Z</time>
      </trkpt>
      <trkpt lat="46.48063" lon="6.05852">
        <ele>1127</ele>
        <time>2018-09-03T22:45:55Z</time>
      </trkpt>
      <trkpt lat="46.48059" lon="6.05852">
        <ele>1127</ele>
        <time>2018-09-03T22:46:00Z</time>
      </trkpt>
      <trkpt lat="46.4805" lon="6.05854">
        <ele>1127</ele>
        <time>2018-09-03T22:46:10Z</time>
      </trkpt>
      <trkpt lat="46.48045" lon="6.05853">
        <ele>1127</ele>
        <time>2018-09-03T22:46:15Z</time>
      </trkpt>
      <trkpt lat="46.48036" lon="6.05854">
        <ele>1127</ele>
        <time>2018-09-03T22:46:25Z</time>
      </trkpt>
      <trkpt lat="46.48031" lon="6.05854">
        <ele>1127</ele>
        <time>2018-09-03T22:46:30Z</time>
      </trkpt>
      <trkpt lat="46.48027" lon="6.05853">
        <ele>1127</ele>
        <time>2018-09-03T22:46:35Z</time>
      </trkpt>
      <trkpt lat="46.48019" lon="6.05851">
        <ele>1127</ele>
        <time>2018-09-03T22:46:45Z</time>
      </trkpt>
      <trkpt lat="46.48015" lon="6.0585">
        <ele>1127</ele>
        <time>2018-09-03T22:46:50Z</time>
      </trkpt>
      <trkpt lat="46.48008" lon="6.05845">
        <ele>1127</ele>
        <time>2018-09-03T22:47:00Z</time>
      </trkpt>
      <trkpt lat="46.48004" lon="6.05842">
        <ele>1127</ele>
        <time>2018-09-03T22:47:05Z</time>
      </trkpt>
      <trkpt lat="46.47996" lon="6.05837">
        <ele>1127</ele>
        <time>2018-09-03T22:47:15Z</time>
      </trkpt>
      <trkpt lat="46.47992" lon="6.05834">
        <ele>1127</ele>
        <time>2018-09-03T22:47:20Z</time>
      </trkpt>
      <trkpt lat="46.47989" lon="6.05832">
        <ele>1127</ele>
        <time>2018-09-03T22:47:25Z</time>
      </trkpt>
      <trkpt lat="46.47984" lon="6.05829">
        <ele>1127</ele>
        <time>2018-09-03T22:47:35Z</time>
      </trkpt>
      <trkpt lat="46.47981" lon="6.05826">
        <ele>1127</ele>
        <time>2018-09-03T22:47:40Z</time>
      </trkpt>
      <trkpt lat="46.47974" lon="6.05819">
        <ele>1127</ele>
        <time>2018-09-03T22:47:50Z</time>
      </trkpt>
      <trkpt lat="46.47971" lon="6.05814">
        <ele>1127</ele>
        <time>2018-09-03T22:47:55Z</time>
      </trkpt>
      <trkpt lat="46.47964" lon="6.05803">
        <ele>1126</ele>
        <time>2018-09-03T22:48:05Z</time>
      </trkpt>
      <trkpt lat="46.47961" lon="6.05797">
        <ele>1126</ele>
        <time>2018-09-03T22:48:10Z</time>
      </trkpt>
      <trkpt lat="46.4796" lon="6.05795">
        <ele>1126</ele>
        <time>2018-09-03T22:48:20Z</time>
      </trkpt>
      <trkpt lat="46.47959" lon="6.05794">
        <ele>1127</ele>
        <time>2018-09-03T22:48:25Z</time>
      </trkpt>
      <trkpt lat="46.47956" lon="6.05791">
        <ele>1127</ele>
        <time>2018-09-03T22:48:30Z</time>
      </trkpt>
      <trkpt lat="46.47948" lon="6.0579">
        <ele>1127</ele>
        <time>2018-09-03T22:48:40Z</time>
      </trkpt>
      <trkpt lat="46.47944" lon="6.05794">
        <ele>1127</ele>
        <time>2018-09-03T22:48:45Z</time>
      </trkpt>
      <trkpt lat="46.47945" lon="6.058">
        <ele>1127</ele>
        <time>2018-09-03T22:48:55Z</time>
      </trkpt>
      <trkpt lat="46.47945" lon="6.058">
        <ele>1127</ele>
        <time>2018-09-03T22:49:00Z</time>
      </trkpt>
      <trkpt lat="46.47945" lon="6.058">
        <ele>1127</ele>
        <time>2018-09-03T22:49:10Z</time>
      </trkpt>
      <trkpt lat="46.47945" lon="6.05799">
        <ele>1127</ele>
        <time>2018-09-03T22:49:15Z</time>
      </trkpt>
      <trkpt lat="46.47944" lon="6.05798">
        <ele>1127</ele>
        <time>2018-09-03T22:49:20Z</time>
      </trkpt>
      <trkpt lat="46.47941" lon="6.05788">
        <ele>1127</ele>
        <time>2018-09-03T22:49:30Z</time>
      </trkpt>
      <trkpt lat="46.47937" lon="6.05783">
        <ele>1127</ele>
        <time>2018-09-03T22:49:35Z</time>
      </trkpt>
      <trkpt lat="46.47929" lon="6.05775">
        <ele>1128</ele>
        <time>2018-09-03T22:49:45Z</time>
      </trkpt>
      <trkpt lat="46.47925" lon="6.05772">
        <ele>1128</ele>
        <time>2018-09-03T22:49:50Z</time>
      </trkpt>
      <trkpt lat="46.47916" lon="6.05768">
        <ele>1129</ele>
        <time>2018-09-03T22:50:00Z</time>
      </trkpt>
      <trkpt lat="46.47912" lon="6.05765">
        <ele>1129</ele>
        <time>2018-09-03T22:50:05Z</time>
      </trkpt>
      <trkpt lat="46.47908" lon="6.05761">
        <ele>1129</ele>
        <time>2018-09-03T22:50:10Z</time>
      </trkpt>
      <trkpt lat="46.47899" lon="6.05751">
        <ele>1128</ele>
        <time>2018-09-03T22:50:20Z</time>
      </trkpt>
      <trkpt lat="46.47896" lon="6.05747">
        <ele>1128</ele>
        <time>2018-09-03T22:50:25Z</time>
      </trkpt>
      <trkpt lat="46.47892" lon="6.05743">
        <ele>1128</ele>
        <time>2018-09-03T22:50:35Z</time>
      </trkpt>
      <trkpt lat="46.47889" lon="6.05741">
        <ele>1128</ele>
        <time>2018-09-03T22:50:40Z</time>
      </trkpt>
      <trkpt lat="46.47887" lon="6.05733">
        <ele>1128</ele>
        <time>2018-09-03T22:50:50Z</time>
      </trkpt>
      <trkpt lat="46.47887" lon="6.05732">
        <ele>1128</ele>
        <time>2018-09-03T22:50:55Z</time>
      </trkpt>
      <trkpt lat="46.47887" lon="6.05732">
        <ele>1128</ele>
        <time>2018-09-03T22:51:00Z</time>
      </trkpt>
      <trkpt lat="46.47887" lon="6.05732">
        <ele>1128</ele>
        <time>2018-09-03T22:51:10Z</time>
      </trkpt>
      <trkpt lat="46.47887" lon="6.05732">
        <ele>1128</ele>
        <time>2018-09-03T22:51:15Z</time>
      </trkpt>
      <trkpt lat="46.47887" lon="6.05732">
        <ele>1128</ele>
        <time>2018-09-03T22:51:25Z</time>
      </trkpt>
      <trkpt lat="46.47887" lon="6.0573">
        <ele>1128</ele>
        <time>2018-09-03T22:51:30Z</time>
      </trkpt>
      <trkpt lat="46.4789" lon="6.05717">
        <ele>1129</ele>
        <time>2018-09-03T22:51:40Z</time>
      </trkpt>
      <trkpt lat="46.47891" lon="6.05711">
        <ele>1130</ele>
        <time>2018-09-03T22:51:45Z</time>
      </trkpt>
      <trkpt lat="46.47892" lon="6.05705">
        <ele>1131</ele>
        <time>2018-09-03T22:51:50Z</time>
      </trkpt>
      <trkpt lat="46.47894" lon="6.05694">
        <ele>1134</ele>
        <time>2018-09-03T22:52:00Z</time>
      </trkpt>
      <trkpt lat="46.47896" lon="6.05688">
        <ele>1135</ele>
        <time>2018-09-03T22:52:05Z</time>
      </trkpt>
      <trkpt lat="46.47897" lon="6.05678">
        <ele>1137</ele>
        <time>2018-09-03T22:52:15Z</time>
      </trkpt>
      <trkpt lat="46.47892" lon="6.05668">
        <ele>1137</ele>
        <time>2018-09-03T22:52:20Z</time>
      </trkpt>
      <trkpt lat="46.47885" lon="6.05646">
        <ele>1136</ele>
        <time>2018-09-03T22:52:30Z</time>
      </trkpt>
      <trkpt lat="46.47912" lon="6.05651">
        <ele>1138</ele>
        <time>2018-09-03T22:52:35Z</time>
      </trkpt>
      <trkpt lat="46.47915" lon="6.05631">
        <ele>1134</ele>
        <time>2018-09-03T22:52:45Z</time>
      </trkpt>
      <trkpt lat="46.47915" lon="6.05621">
        <ele>1133</ele>
        <time>2018-09-03T22:52:50Z</time>
      </trkpt>
      <trkpt lat="46.47917" lon="6.05617">
        <ele>1133</ele>
        <time>2018-09-03T22:52:55Z</time>
      </trkpt>
      <trkpt lat="46.47922" lon="6.05618">
        <ele>1133</ele>
        <time>2018-09-03T22:53:05Z</time>
      </trkpt>
      <trkpt lat="46.47922" lon="6.05618">
        <ele>1133</ele>
        <time>2018-09-03T22:53:10Z</time>
      </trkpt>
      <trkpt lat="46.47922" lon="6.05618">
        <ele>1133</ele>
        <time>2018-09-03T22:53:20Z</time>
      </trkpt>
      <trkpt lat="46.47918" lon="6.05617">
        <ele>1133</ele>
        <time>2018-09-03T22:53:25Z</time>
      </trkpt>
      <trkpt lat="46.4791" lon="6.05614">
        <ele>1132</ele>
        <time>2018-09-03T22:53:35Z</time>
      </trkpt>
      <trkpt lat="46.4791" lon="6.05614">
        <ele>1132</ele>
        <time>2018-09-03T22:53:40Z</time>
      </trkpt>
      <trkpt lat="46.4791" lon="6.05614">
        <ele>1132</ele>
        <time>2018-09-03T22:53:45Z</time>
      </trkpt>
      <trkpt lat="46.47912" lon="6.05613">
        <ele>1132</ele>
        <time>2018-09-03T22:53:55Z</time>
      </trkpt>
      <trkpt lat="46.47916" lon="6.05611">
        <ele>1132</ele>
        <time>2018-09-03T22:54:00Z</time>
      </trkpt>
      <trkpt lat="46.47925" lon="6.0561">
        <ele>1132</ele>
        <time>2018-09-03T22:54:10Z</time>
      </trkpt>
      <trkpt lat="46.47928" lon="6.0561">
        <ele>1132</ele>
        <time>2018-09-03T22:54:15Z</time>
      </trkpt>
      <trkpt lat="46.47935" lon="6.05612">
        <ele>1132</ele>
        <time>2018-09-03T22:54:25Z</time>
      </trkpt>
      <trkpt lat="46.4794" lon="6.05611">
        <ele>1132</ele>
        <time>2018-09-03T22:54:30Z</time>
      </trkpt>
      <trkpt lat="46.47945" lon="6.0561">
        <ele>1132</ele>
        <time>2018-09-03T22:54:35Z</time>
      </trkpt>
      <trkpt lat="46.47953" lon="6.05603">
        <ele>1133</ele>
        <time>2018-09-03T22:54:45Z</time>
      </trkpt>
      <trkpt lat="46.47956" lon="6.05596">
        <ele>1134</ele>
        <time>2018-09-03T22:54:50Z</time>
      </trkpt>
      <trkpt lat="46.47962" lon="6.05592">
        <ele>1134</ele>
        <time>2018-09-03T22:55:00Z</time>
      </trkpt>
      <trkpt lat="46.47964" lon="6.05595">
        <ele>1134</ele>
        <time>2018-09-03T22:55:05Z</time>
      </trkpt>
      <trkpt lat="46.47969" lon="6.05595">
        <ele>1135</ele>
        <time>2018-09-03T22:55:15Z</time>
      </trkpt>
      <trkpt lat="46.47971" lon="6.05595">
        <ele>1135</ele>
        <time>2018-09-03T22:55:20Z</time>
      </trkpt>
      <trkpt lat="46.47965" lon="6.05592">
        <ele>1134</ele>
        <time>2018-09-03T22:55:25Z</time>
      </trkpt>
      <trkpt lat="46.47969" lon="6.05577">
        <ele>1135</ele>
        <time>2018-09-03T22:55:35Z</time>
      </trkpt>
      <trkpt lat="46.47972" lon="6.05571">
        <ele>1135</ele>
        <time>2018-09-03T22:55:40Z</time>
      </trkpt>
      <trkpt lat="46.47976" lon="6.05557">
        <ele>1135</ele>
        <time>2018-09-03T22:55:50Z</time>
      </trkpt>
      <trkpt lat="46.47977" lon="6.0555">
        <ele>1135</ele>
        <time>2018-09-03T22:55:55Z</time>
      </trkpt>
      <trkpt lat="46.47982" lon="6.05536">
        <ele>1135</ele>
        <time>2018-09-03T22:56:05Z</time>
      </trkpt>
      <trkpt lat="46.47984" lon="6.05529">
        <ele>1135</ele>
        <time>2018-09-03T22:56:10Z</time>
      </trkpt>
      <trkpt lat="46.47986" lon="6.05522">
        <ele>1136</ele>
        <time>2018-09-03T22:56:15Z</time>
      </trkpt>
      <trkpt lat="46.47985" lon="6.05506">
        <ele>1135</ele>
        <time>2018-09-03T22:56:25Z</time>
      </trkpt>
      <trkpt lat="46.47984" lon="6.05497">
        <ele>1135</ele>
        <time>2018-09-03T22:56:30Z</time>
      </trkpt>
      <trkpt lat="46.47985" lon="6.05479">
        <ele>1135</ele>
        <time>2018-09-03T22:56:40Z</time>
      </trkpt>
      <trkpt lat="46.47986" lon="6.05473">
        <ele>1135</ele>
        <time>2018-09-03T22:56:45Z</time>
      </trkpt>
      <trkpt lat="46.47989" lon="6.05456">
        <ele>1135</ele>
        <time>2018-09-03T22:56:55Z</time>
      </trkpt>
      <trkpt lat="46.47991" lon="6.05448">
        <ele>1135</ele>
        <time>2018-09-03T22:57:00Z</time>
      </trkpt>
      <trkpt lat="46.47996" lon="6.05431">
        <ele>1135</ele>
        <time>2018-09-03T22:57:10Z</time>
      </trkpt>
      <trkpt lat="46.47998" lon="6.05426">
        <ele>1135</ele>
        <time>2018-09-03T22:57:15Z</time>
      </trkpt>
      <trkpt lat="46.47993" lon="6.05419">
        <ele>1135</ele>
        <time>2018-09-03T22:57:20Z</time>
      </trkpt>
      <trkpt lat="46.4798" lon="6.05401">
        <ele>1134</ele>
        <time>2018-09-03T22:57:30Z</time>
      </trkpt>
      <trkpt lat="46.47978" lon="6.05399">
        <ele>1134</ele>
        <time>2018-09-03T22:57:35Z</time>
      </trkpt>
      <trkpt lat="46.47968" lon="6.05392">
        <ele>1134</ele>
        <time>2018-09-03T22:57:45Z</time>
      </trkpt>
      <trkpt lat="46.47964" lon="6.05386">
        <ele>1134</ele>
        <time>2018-09-03T22:57:50Z</time>
      </trkpt>
      <trkpt lat="46.47959" lon="6.05378">
        <ele>1134</ele>
        <time>2018-09-03T22:58:00Z</time>
      </trkpt>
      <trkpt lat="46.47955" lon="6.05375">
        <ele>1134</ele>
        <time>2018-09-03T22:58:05Z</time>
      </trkpt>
      <trkpt lat="46.4795" lon="6.05373">
        <ele>1134</ele>
        <time>2018-09-03T22:58:10Z</time>
      </trkpt>
      <trkpt lat="46.4794" lon="6.05368">
        <ele>1134</ele>
        <time>2018-09-03T22:58:20Z</time>
      </trkpt>
      <trkpt lat="46.47936" lon="6.05365">
        <ele>1134</ele>
        <time>2018-09-03T22:58:25Z</time>
      </trkpt>
      <trkpt lat="46.47929" lon="6.0536">
        <ele>1134</ele>
        <time>2018-09-03T22:58:35Z</time>
      </trkpt>
      <trkpt lat="46.47925" lon="6.0536">
        <ele>1134</ele>
        <time>2018-09-03T22:58:40Z</time>
      </trkpt>
      <trkpt lat="46.47922" lon="6.05359">
        <ele>1134</ele>
        <time>2018-09-03T22:58:50Z</time>
      </trkpt>
      <trkpt lat="46.47919" lon="6.05359">
        <ele>1134</ele>
        <time>2018-09-03T22:58:55Z</time>
      </trkpt>
      <trkpt lat="46.47915" lon="6.05356">
        <ele>1134</ele>
        <time>2018-09-03T22:59:00Z</time>
      </trkpt>
      <trkpt lat="46.47906" lon="6.05351">
        <ele>1135</ele>
        <time>2018-09-03T22:59:10Z</time>
      </trkpt>
      <trkpt lat="46.47901" lon="6.05347">
        <ele>1135</ele>
        <time>2018-09-03T22:59:15Z</time>
      </trkpt>
      <trkpt lat="46.47894" lon="6.05344">
        <ele>1136</ele>
        <time>2018-09-03T22:59:25Z</time>
      </trkpt>
      <trkpt lat="46.47892" lon="6.05338">
        <ele>1135</ele>
        <time>2018-09-03T22:59:30Z</time>
      </trkpt>
      <trkpt lat="46.47893" lon="6.05327">
        <ele>1135</ele>
        <time>2018-09-03T22:59:40Z</time>
      </trkpt>
      <trkpt lat="46.47895" lon="6.05321">
        <ele>1135</ele>
        <time>2018-09-03T22:59:45Z</time>
      </trkpt>
      <trkpt lat="46.47898" lon="6.05316">
        <ele>1135</ele>
        <time>2018-09-03T22:59:50Z</time>
      </trkpt>
      <trkpt lat="46.47899" lon="6.05309">
        <ele>1134</ele>
        <time>2018-09-03T23:00:00Z</time>
      </trkpt>
      <trkpt lat="46.47901" lon="6.05305">
        <ele>1134</ele>
        <time>2018-09-03T23:00:05Z</time>
      </trkpt>
      <trkpt lat="46.479" lon="6.05296">
        <ele>1134</ele>
        <time>2018-09-03T23:00:15Z</time>
      </trkpt>
      <trkpt lat="46.47901" lon="6.0529">
        <ele>1134</ele>
        <time>2018-09-03T23:00:20Z</time>
      </trkpt>
      <trkpt lat="46.47896" lon="6.05275">
        <ele>1135</ele>
        <time>2018-09-03T23:00:30Z</time>
      </trkpt>
      <trkpt lat="46.47894" lon="6.05269">
        <ele>1135</ele>
        <time>2018-09-03T23:00:35Z</time>
      </trkpt>
      <trkpt lat="46.47892" lon="6.05263">
        <ele>1135</ele>
        <time>2018-09-03T23:00:40Z</time>
      </trkpt>
      <trkpt lat="46.47887" lon="6.05252">
        <ele>1134</ele>
        <time>2018-09-03T23:00:50Z</time>
      </trkpt>
      <trkpt lat="46.47886" lon="6.0525">
        <ele>1134</ele>
        <time>2018-09-03T23:00:55Z</time>
      </trkpt>
      <trkpt lat="46.47882" lon="6.05251">
        <ele>1134</ele>
        <time>2018-09-03T23:01:05Z</time>
      </trkpt>
      <trkpt lat="46.47879" lon="6.05253">
        <ele>1133</ele>
        <time>2018-09-03T23:01:10Z</time>
      </trkpt>
      <trkpt lat="46.47878" lon="6.05263">
        <ele>1134</ele>
        <time>2018-09-03T23:01:20Z</time>
      </trkpt>
      <trkpt lat="46.47877" lon="6.05269">
        <ele>1134</ele>
        <time>2018-09-03T23:01:25Z</time>
      </trkpt>
      <trkpt lat="46.47876" lon="6.05275">
        <ele>1134</ele>
        <time>2018-09-03T23:01:35Z</time>
      </trkpt>
      <trkpt lat="46.47876" lon="6.05274">
        <ele>1134</ele>
        <time>2018-09-03T23:01:40Z</time>
      </trkpt>
      <trkpt lat="46.47875" lon="6.05272">
        <ele>1134</ele>
        <time>2018-09-03T23:01:45Z</time>
      </trkpt>
      <trkpt lat="46.47877" lon="6.05281">
        <ele>1135</ele>
        <time>2018-09-03T23:01:55Z</time>
      </trkpt>
      <trkpt lat="46.4788" lon="6.05288">
        <ele>1135</ele>
        <time>2018-09-03T23:02:00Z</time>
      </trkpt>
      <trkpt lat="46.47886" lon="6.05301">
        <ele>1135</ele>
        <time>2018-09-03T23:02:10Z</time>
      </trkpt>
      <trkpt lat="46.47888" lon="6.05307">
        <ele>1135</ele>
        <time>2018-09-03T23:02:15Z</time>
      </trkpt>
      <trkpt lat="46.47892" lon="6.05316">
        <ele>1135</ele>
        <time>2018-09-03T23:02:25Z</time>
      </trkpt>
      <trkpt lat="46.47891" lon="6.05314">
        <ele>1135</ele>
        <time>2018-09-03T23:02:30Z</time>
      </trkpt>
      <trkpt lat="46.47891" lon="6.05315">
        <ele>1135</ele>
        <time>2018-09-03T23:02:35Z</time>
      </trkpt>
      <trkpt lat="46.47892" lon="6.0532">
        <ele>1135</ele>
        <time>2018-09-03T23:02:45Z</time>
      </trkpt>
      <trkpt lat="46.47893" lon="6.05323">
        <ele>1135</ele>
        <time>2018-09-03T23:02:50Z</time>
      </trkpt>
      <trkpt lat="46.47895" lon="6.05325">
        <ele>1135</ele>
        <time>2018-09-03T23:03:00Z</time>
      </trkpt>
      <trkpt lat="46.47895" lon="6.05325">
        <ele>1135</ele>
        <time>2018-09-03T23:03:05Z</time>
      </trkpt>
      <trkpt lat="46.47894" lon="6.05333">
        <ele>1135</ele>
        <time>2018-09-03T23:03:15Z</time>
      </trkpt>
      <trkpt lat="46.47892" lon="6.05337">
        <ele>1135</ele>
        <time>2018-09-03T23:03:20Z</time>
      </trkpt>
      <trkpt lat="46.47892" lon="6.05341">
        <ele>1135</ele>
        <time>2018-09-03T23:03:25Z</time>
      </trkpt>
      <trkpt lat="46.47894" lon="6.05349">
        <ele>1136</ele>
        <time>2018-09-03T23:03:35Z</time>
      </trkpt>
      <trkpt lat="46.47898" lon="6.05352">
        <ele>1135</ele>
        <time>2018-09-03T23:03:40Z</time>
      </trkpt>
      <trkpt lat="46.47905" lon="6.05359">
        <ele>1135</ele>
        <time>2018-09-03T23:03:50Z</time>
      </trkpt>
      <trkpt lat="46.4791" lon="6.05363">
        <ele>1135</ele>
        <time>2018-09-03T23:03:55Z</time>
      </trkpt>
      <trkpt lat="46.47915" lon="6.05375">
        <ele>1134</ele>
        <time>2018-09-03T23:04:05Z</time>
      </trkpt>
      <trkpt lat="46.47914" lon="6.05382">
        <ele>1134</ele>
        <time>2018-09-03T23:04:10Z</time>
      </trkpt>
      <trkpt lat="46.47914" lon="6.05388">
        <ele>1134</ele>
        <time>2018-09-03T23:04:15Z</time>
      </trkpt>
      <trkpt lat="46.47913" lon="6.05399">
        <ele>1133</ele>
        <time>2018-09-03T23:04:25Z</time>
      </trkpt>
      <trkpt lat="46.47912" lon="6.05403">
        <ele>1133</ele>
        <time>2018-09-03T23:04:30Z</time>
      </trkpt>
      <trkpt lat="46.47909" lon="6.05416">
        <ele>1133</ele>
        <time>2018-09-03T23:04:40Z</time>
      </trkpt>
      <trkpt lat="46.47908" lon="6.05422">
        <ele>1133</ele>
        <time>2018-09-03T23:04:45Z</time>
      </trkpt>
      <trkpt lat="46.47906" lon="6.05435">
        <ele>1133</ele>
        <time>2018-09-03T23:04:55Z</time>
      </trkpt>
      <trkpt lat="46.47905" lon="6.05441">
        <ele>1133</ele>
        <time>2018-09-03T23:05:00Z</time>
      </trkpt>
      <trkpt lat="46.47903" lon="6.05447">
        <ele>1133</ele>
        <time>2018-09-03T23:05:05Z</time>
      </trkpt>
      <trkpt lat="46.479" lon="6.05457">
        <ele>1133</ele>
        <time>2018-09-03T23:05:15Z</time>
      </trkpt>
      <trkpt lat="46.47898" lon="6.05463">
        <ele>1133</ele>
        <time>2018-09-03T23:05:20Z</time>
      </trkpt>
      <trkpt lat="46.47896" lon="6.05473">
        <ele>1133</ele>
        <time>2018-09-03T23:05:30Z</time>
      </trkpt>
      <trkpt lat="46.47895" lon="6.05476">
        <ele>1133</ele>
        <time>2018-09-03T23:05:35Z</time>
      </trkpt>
      <trkpt lat="46.47895" lon="6.05476">
        <ele>1133</ele>
        <time>2018-09-03T23:05:45Z</time>
      </trkpt>
      <trkpt lat="46.47895" lon="6.05476">
        <ele>1133</ele>
        <time>2018-09-03T23:05:50Z</time>
      </trkpt>
      <trkpt lat="46.47894" lon="6.05485">
        <ele>1133</ele>
        <time>2018-09-03T23:06:00Z</time>
      </trkpt>
      <trkpt lat="46.47894" lon="6.05485">
        <ele>1133</ele>
        <time>2018-09-03T23:06:05Z</time>
      </trkpt>
      <trkpt lat="46.47894" lon="6.05486">
        <ele>1133</ele>
        <time>2018-09-03T23:06:10Z</time>
      </trkpt>
      <trkpt lat="46.47893" lon="6.05495">
        <ele>1133</ele>
        <time>2018-09-03T23:06:20Z</time>
      </trkpt>
      <trkpt lat="46.47892" lon="6.05501">
        <ele>1133</ele>
        <time>2018-09-03T23:06:25Z</time>
      </trkpt>
      <trkpt lat="46.4789" lon="6.05513">
        <ele>1135</ele>
        <time>2018-09-03T23:06:35Z</time>
      </trkpt>
      <trkpt lat="46.47889" lon="6.0552">
        <ele>1136</ele>
        <time>2018-09-03T23:06:40Z</time>
      </trkpt>
      <trkpt lat="46.47887" lon="6.05533">
        <ele>1136</ele>
        <time>2018-09-03T23:06:50Z</time>
      </trkpt>
      <trkpt lat="46.47886" lon="6.0554">
        <ele>1134</ele>
        <time>2018-09-03T23:06:55Z</time>
      </trkpt>
      <trkpt lat="46.47885" lon="6.05547">
        <ele>1134</ele>
        <time>2018-09-03T23:07:00Z</time>
      </trkpt>
      <trkpt lat="46.47883" lon="6.05559">
        <ele>1133</ele>
        <time>2018-09-03T23:07:10Z</time>
      </trkpt>
      <trkpt lat="46.47881" lon="6.05567">
        <ele>1133</ele>
        <time>2018-09-03T23:07:15Z</time>
      </trkpt>
      <trkpt lat="46.47881" lon="6.05578">
        <ele>1132</ele>
        <time>2018-09-03T23:07:25Z</time>
      </trkpt>
      <trkpt lat="46.47881" lon="6.05578">
        <ele>1132</ele>
        <time>2018-09-03T23:07:30Z</time>
      </trkpt>
      <trkpt lat="46.47887" lon="6.05589">
        <ele>1132</ele>
        <time>2018-09-03T23:07:40Z</time>
      </trkpt>
      <trkpt lat="46.47892" lon="6.05593">
        <ele>1132</ele>
        <time>2018-09-03T23:07:45Z</time>
      </trkpt>
      <trkpt lat="46.47897" lon="6.05598">
        <ele>1132</ele>
        <time>2018-09-03T23:07:50Z</time>
      </trkpt>
      <trkpt lat="46.47905" lon="6.05608">
        <ele>1132</ele>
        <time>2018-09-03T23:08:00Z</time>
      </trkpt>
      <trkpt lat="46.47907" lon="6.0561">
        <ele>1132</ele>
        <time>2018-09-03T23:08:05Z</time>
      </trkpt>
      <trkpt lat="46.47911" lon="6.05618">
        <ele>1133</ele>
        <time>2018-09-03T23:08:15Z</time>
      </trkpt>
      <trkpt lat="46.4791" lon="6.05623">
        <ele>1133</ele>
        <time>2018-09-03T23:08:20Z</time>
      </trkpt>
      <trkpt lat="46.4791" lon="6.05622">
        <ele>1133</ele>
        <time>2018-09-03T23:08:30Z</time>
      </trkpt>
      <trkpt lat="46.47908" lon="6.05622">
        <ele>1133</ele>
        <time>2018-09-03T23:08:35Z</time>
      </trkpt>
      <trkpt lat="46.47907" lon="6.05622">
        <ele>1133</ele>
        <time>2018-09-03T23:08:40Z</time>
      </trkpt>
      <trkpt lat="46.4791" lon="6.05627">
        <ele>1134</ele>
        <time>2018-09-03T23:08:50Z</time>
      </trkpt>
      <trkpt lat="46.4791" lon="6.05627">
        <ele>1134</ele>
        <time>2018-09-03T23:08:55Z</time>
      </trkpt>
      <trkpt lat="46.47908" lon="6.0563">
        <ele>1134</ele>
        <time>2018-09-03T23:09:05Z</time>
      </trkpt>
      <trkpt lat="46.47908" lon="6.05636">
        <ele>1136</ele>
        <time>2018-09-03T23:09:10Z</time>
      </trkpt>
      <trkpt lat="46.47905" lon="6.05647">
        <ele>1138</ele>
        <time>2018-09-03T23:09:20Z</time>
      </trkpt>
      <trkpt lat="46.47903" lon="6.05654">
        <ele>1138</ele>
        <time>2018-09-03T23:09:25Z</time>
      </trkpt>
      <trkpt lat="46.47901" lon="6.05659">
        <ele>1138</ele>
        <time>2018-09-03T23:09:30Z</time>
      </trkpt>
      <trkpt lat="46.47899" lon="6.05672">
        <ele>1138</ele>
        <time>2018-09-03T23:09:40Z</time>
      </trkpt>
      <trkpt lat="46.47894" lon="6.0569">
        <ele>1135</ele>
        <time>2018-09-03T23:09:45Z</time>
      </trkpt>
      <trkpt lat="46.47884" lon="6.05729">
        <ele>1128</ele>
        <time>2018-09-03T23:10:15Z</time>
      </trkpt>
      <trkpt lat="46.47885" lon="6.05729">
        <ele>1128</ele>
        <time>2018-09-03T23:10:20Z</time>
      </trkpt>
      <trkpt lat="46.47893" lon="6.05743">
        <ele>1128</ele>
        <time>2018-09-03T23:10:30Z</time>
      </trkpt>
      <trkpt lat="46.47897" lon="6.05748">
        <ele>1128</ele>
        <time>2018-09-03T23:10:35Z</time>
      </trkpt>
      <trkpt lat="46.47905" lon="6.05758">
        <ele>1129</ele>
        <time>2018-09-03T23:10:45Z</time>
      </trkpt>
      <trkpt lat="46.47911" lon="6.05762">
        <ele>1128</ele>
        <time>2018-09-03T23:10:50Z</time>
      </trkpt>
      <trkpt lat="46.47916" lon="6.05767">
        <ele>1128</ele>
        <time>2018-09-03T23:10:55Z</time>
      </trkpt>
      <trkpt lat="46.47925" lon="6.05773">
        <ele>1128</ele>
        <time>2018-09-03T23:11:05Z</time>
      </trkpt>
      <trkpt lat="46.47931" lon="6.05776">
        <ele>1128</ele>
        <time>2018-09-03T23:11:10Z</time>
      </trkpt>
      <trkpt lat="46.47941" lon="6.05784">
        <ele>1127</ele>
        <time>2018-09-03T23:11:20Z</time>
      </trkpt>
      <trkpt lat="46.47944" lon="6.05788">
        <ele>1127</ele>
        <time>2018-09-03T23:11:25Z</time>
      </trkpt>
      <trkpt lat="46.47953" lon="6.058">
        <ele>1127</ele>
        <time>2018-09-03T23:11:35Z</time>
      </trkpt>
      <trkpt lat="46.47956" lon="6.05807">
        <ele>1127</ele>
        <time>2018-09-03T23:11:40Z</time>
      </trkpt>
      <trkpt lat="46.4796" lon="6.05814">
        <ele>1127</ele>
        <time>2018-09-03T23:11:45Z</time>
      </trkpt>
      <trkpt lat="46.47966" lon="6.0583">
        <ele>1127</ele>
        <time>2018-09-03T23:11:55Z</time>
      </trkpt>
      <trkpt lat="46.47969" lon="6.05836">
        <ele>1127</ele>
        <time>2018-09-03T23:12:00Z</time>
      </trkpt>
      <trkpt lat="46.47973" lon="6.05849">
        <ele>1126</ele>
        <time>2018-09-03T23:12:10Z</time>
      </trkpt>
      <trkpt lat="46.47976" lon="6.05855">
        <ele>1126</ele>
        <time>2018-09-03T23:12:15Z</time>
      </trkpt>
      <trkpt lat="46.47983" lon="6.05865">
        <ele>1126</ele>
        <time>2018-09-03T23:12:25Z</time>
      </trkpt>
      <trkpt lat="46.47987" lon="6.05872">
        <ele>1126</ele>
        <time>2018-09-03T23:12:30Z</time>
      </trkpt>
      <trkpt lat="46.47992" lon="6.05878">
        <ele>1127</ele>
        <time>2018-09-03T23:12:35Z</time>
      </trkpt>
      <trkpt lat="46.48001" lon="6.05889">
        <ele>1129</ele>
        <time>2018-09-03T23:12:45Z</time>
      </trkpt>
      <trkpt lat="46.48005" lon="6.05896">
        <ele>1130</ele>
        <time>2018-09-03T23:12:50Z</time>
      </trkpt>
      <trkpt lat="46.48012" lon="6.05908">
        <ele>1131</ele>
        <time>2018-09-03T23:13:00Z</time>
      </trkpt>
      <trkpt lat="46.48016" lon="6.05913">
        <ele>1132</ele>
        <time>2018-09-03T23:13:05Z</time>
      </trkpt>
      <trkpt lat="46.48027" lon="6.05924">
        <ele>1133</ele>
        <time>2018-09-03T23:13:15Z</time>
      </trkpt>
      <trkpt lat="46.48032" lon="6.05929">
        <ele>1133</ele>
        <time>2018-09-03T23:13:20Z</time>
      </trkpt>
      <trkpt lat="46.48036" lon="6.05935">
        <ele>1133</ele>
        <time>2018-09-03T23:13:25Z</time>
      </trkpt>
      <trkpt lat="46.48044" lon="6.05943">
        <ele>1134</ele>
        <time>2018-09-03T23:13:35Z</time>
      </trkpt>
      <trkpt lat="46.48047" lon="6.05948">
        <ele>1134</ele>
        <time>2018-09-03T23:13:40Z</time>
      </trkpt>
      <trkpt lat="46.48054" lon="6.05956">
        <ele>1135</ele>
        <time>2018-09-03T23:13:50Z</time>
      </trkpt>
      <trkpt lat="46.48058" lon="6.05961">
        <ele>1135</ele>
        <time>2018-09-03T23:13:55Z</time>
      </trkpt>
      <trkpt lat="46.48067" lon="6.05973">
        <ele>1132</ele>
        <time>2018-09-03T23:14:05Z</time>
      </trkpt>
      <trkpt lat="46.48071" lon="6.05978">
        <ele>1130</ele>
        <time>2018-09-03T23:14:10Z</time>
      </trkpt>
      <trkpt lat="46.48074" lon="6.05984">
        <ele>1129</ele>
        <time>2018-09-03T23:14:15Z</time>
      </trkpt>
      <trkpt lat="46.48079" lon="6.05995">
        <ele>1126</ele>
        <time>2018-09-03T23:14:25Z</time>
      </trkpt>
      <trkpt lat="46.4808" lon="6.05999">
        <ele>1125</ele>
        <time>2018-09-03T23:14:30Z</time>
      </trkpt>
      <trkpt lat="46.48083" lon="6.06007">
        <ele>1123</ele>
        <time>2018-09-03T23:14:40Z</time>
      </trkpt>
      <trkpt lat="46.48085" lon="6.06011">
        <ele>1123</ele>
        <time>2018-09-03T23:14:45Z</time>
      </trkpt>
      <trkpt lat="46.48092" lon="6.06026">
        <ele>1125</ele>
        <time>2018-09-03T23:14:55Z</time>
      </trkpt>
      <trkpt lat="46.48094" lon="6.06034">
        <ele>1126</ele>
        <time>2018-09-03T23:15:00Z</time>
      </trkpt>
      <trkpt lat="46.48099" lon="6.06051">
        <ele>1127</ele>
        <time>2018-09-03T23:15:10Z</time>
      </trkpt>
      <trkpt lat="46.481" lon="6.06059">
        <ele>1128</ele>
        <time>2018-09-03T23:15:15Z</time>
      </trkpt>
      <trkpt lat="46.48102" lon="6.06065">
        <ele>1128</ele>
        <time>2018-09-03T23:15:20Z</time>
      </trkpt>
      <trkpt lat="46.48107" lon="6.06076">
        <ele>1128</ele>
        <time>2018-09-03T23:15:30Z</time>
      </trkpt>
      <trkpt lat="46.48111" lon="6.06084">
        <ele>1127</ele>
        <time>2018-09-03T23:15:35Z</time>
      </trkpt>
      <trkpt lat="46.48117" lon="6.06099">
        <ele>1125</ele>
        <time>2018-09-03T23:15:45Z</time>
      </trkpt>
      <trkpt lat="46.48119" lon="6.06106">
        <ele>1124</ele>
        <time>2018-09-03T23:15:50Z</time>
      </trkpt>
      <trkpt lat="46.48125" lon="6.06123">
        <ele>1121</ele>
        <time>2018-09-03T23:16:00Z</time>
      </trkpt>
      <trkpt lat="46.48128" lon="6.06131">
        <ele>1120</ele>
        <time>2018-09-03T23:16:05Z</time>
      </trkpt>
      <trkpt lat="46.4813" lon="6.0614">
        <ele>1119</ele>
        <time>2018-09-03T23:16:10Z</time>
      </trkpt>
      <trkpt lat="46.48135" lon="6.06159">
        <ele>1117</ele>
        <time>2018-09-03T23:16:20Z</time>
      </trkpt>
      <trkpt lat="46.48138" lon="6.06167">
        <ele>1116</ele>
        <time>2018-09-03T23:16:25Z</time>
      </trkpt>
      <trkpt lat="46.48143" lon="6.06182">
        <ele>1116</ele>
        <time>2018-09-03T23:16:35Z</time>
      </trkpt>
      <trkpt lat="46.48145" lon="6.06189">
        <ele>1116</ele>
        <time>2018-09-03T23:16:40Z</time>
      </trkpt>
      <trkpt lat="46.4815" lon="6.06203">
        <ele>1115</ele>
        <time>2018-09-03T23:16:50Z</time>
      </trkpt>
      <trkpt lat="46.48153" lon="6.06209">
        <ele>1115</ele>
        <time>2018-09-03T23:16:55Z</time>
      </trkpt>
      <trkpt lat="46.48155" lon="6.06215">
        <ele>1115</ele>
        <time>2018-09-03T23:17:00Z</time>
      </trkpt>
      <trkpt lat="46.48161" lon="6.06222">
        <ele>1115</ele>
        <time>2018-09-03T23:17:10Z</time>
      </trkpt>
      <trkpt lat="46.48166" lon="6.0622">
        <ele>1114</ele>
        <time>2018-09-03T23:17:15Z</time>
      </trkpt>
      <trkpt lat="46.48177" lon="6.06213">
        <ele>1114</ele>
        <time>2018-09-03T23:17:25Z</time>
      </trkpt>
      <trkpt lat="46.48182" lon="6.0621">
        <ele>1114</ele>
        <time>2018-09-03T23:17:30Z</time>
      </trkpt>
      <trkpt lat="46.48193" lon="6.06203">
        <ele>1113</ele>
        <time>2018-09-03T23:17:40Z</time>
      </trkpt>
      <trkpt lat="46.48198" lon="6.06199">
        <ele>1113</ele>
        <time>2018-09-03T23:17:45Z</time>
      </trkpt>
      <trkpt lat="46.48203" lon="6.06195">
        <ele>1113</ele>
        <time>2018-09-03T23:17:50Z</time>
      </trkpt>
      <trkpt lat="46.48213" lon="6.06188">
        <ele>1113</ele>
        <time>2018-09-03T23:18:00Z</time>
      </trkpt>
      <trkpt lat="46.48218" lon="6.06185">
        <ele>1113</ele>
        <time>2018-09-03T23:18:05Z</time>
      </trkpt>
      <trkpt lat="46.48228" lon="6.06176">
        <ele>1113</ele>
        <time>2018-09-03T23:18:15Z</time>
      </trkpt>
      <trkpt lat="46.48233" lon="6.06171">
        <ele>1113</ele>
        <time>2018-09-03T23:18:20Z</time>
      </trkpt>
      <trkpt lat="46.48241" lon="6.06163">
        <ele>1113</ele>
        <time>2018-09-03T23:18:30Z</time>
      </trkpt>
      <trkpt lat="46.48246" lon="6.06159">
        <ele>1113</ele>
        <time>2018-09-03T23:18:35Z</time>
      </trkpt>
      <trkpt lat="46.48251" lon="6.06154">
        <ele>1112</ele>
        <time>2018-09-03T23:18:40Z</time>
      </trkpt>
      <trkpt lat="46.48262" lon="6.06143">
        <ele>1112</ele>
        <time>2018-09-03T23:18:50Z</time>
      </trkpt>
      <trkpt lat="46.48266" lon="6.06138">
        <ele>1112</ele>
        <time>2018-09-03T23:18:55Z</time>
      </trkpt>
      <trkpt lat="46.48277" lon="6.06129">
        <ele>1112</ele>
        <time>2018-09-03T23:19:05Z</time>
      </trkpt>
      <trkpt lat="46.48282" lon="6.06124">
        <ele>1112</ele>
        <time>2018-09-03T23:19:10Z</time>
      </trkpt>
      <trkpt lat="46.48292" lon="6.06114">
        <ele>1112</ele>
        <time>2018-09-03T23:19:20Z</time>
      </trkpt>
      <trkpt lat="46.48296" lon="6.06109">
        <ele>1112</ele>
        <time>2018-09-03T23:19:25Z</time>
      </trkpt>
      <trkpt lat="46.483" lon="6.06106">
        <ele>1112</ele>
        <time>2018-09-03T23:19:35Z</time>
      </trkpt>
      <trkpt lat="46.48301" lon="6.0611">
        <ele>1112</ele>
        <time>2018-09-03T23:19:40Z</time>
      </trkpt>
      <trkpt lat="46.48304" lon="6.06118">
        <ele>1112</ele>
        <time>2018-09-03T23:19:45Z</time>
      </trkpt>
      <trkpt lat="46.48309" lon="6.06124">
        <ele>1112</ele>
        <time>2018-09-03T23:19:55Z</time>
      </trkpt>
      <trkpt lat="46.48309" lon="6.06126">
        <ele>1112</ele>
        <time>2018-09-03T23:20:00Z</time>
      </trkpt>
      <trkpt lat="46.48309" lon="6.06125">
        <ele>1112</ele>
        <time>2018-09-03T23:20:10Z</time>
      </trkpt>
      <trkpt lat="46.48309" lon="6.06124">
        <ele>1112</ele>
        <time>2018-09-03T23:20:15Z</time>
      </trkpt>
      <trkpt lat="46.48309" lon="6.06124">
        <ele>1112</ele>
        <time>2018-09-03T23:20:25Z</time>
      </trkpt>
      <trkpt lat="46.4831" lon="6.06124">
        <ele>1112</ele>
        <time>2018-09-03T23:20:30Z</time>
      </trkpt>
      <trkpt lat="46.4831" lon="6.06124">
        <ele>1112</ele>
        <time>2018-09-03T23:20:35Z</time>
      </trkpt>
      <trkpt lat="46.4831" lon="6.06124">
        <ele>1112</ele>
        <time>2018-09-03T23:20:45Z</time>
      </trkpt>
      <trkpt lat="46.4831" lon="6.06123">
        <ele>1112</ele>
        <time>2018-09-03T23:20:50Z</time>
      </trkpt>
      <trkpt lat="46.4831" lon="6.06123">
        <ele>1112</ele>
        <time>2018-09-03T23:21:00Z</time>
      </trkpt>
      <trkpt lat="46.4831" lon="6.06123">
        <ele>1112</ele>
        <time>2018-09-03T23:21:05Z</time>
      </trkpt>
      <trkpt lat="46.4831" lon="6.06123">
        <ele>1112</ele>
        <time>2018-09-03T23:21:15Z</time>
      </trkpt>
      <trkpt lat="46.4831" lon="6.06123">
        <ele>1112</ele>
        <time>2018-09-03T23:21:20Z</time>
      </trkpt>
      <trkpt lat="46.4831" lon="6.06123">
        <ele>1112</ele>
        <time>2018-09-03T23:21:25Z</time>
      </trkpt>
      <trkpt lat="46.48312" lon="6.06124">
        <ele>1112</ele>
        <time>2018-09-03T23:21:35Z</time>
      </trkpt>
      <trkpt lat="46.48317" lon="6.06121">
        <ele>1112</ele>
        <time>2018-09-03T23:21:40Z</time>
      </trkpt>
      <trkpt lat="46.4833" lon="6.06118">
        <ele>1112</ele>
        <time>2018-09-03T23:21:50Z</time>
      </trkpt>
      <trkpt lat="46.48337" lon="6.06115">
        <ele>1112</ele>
        <time>2018-09-03T23:21:55Z</time>
      </trkpt>
      <trkpt lat="46.48349" lon="6.06107">
        <ele>1112</ele>
        <time>2018-09-03T23:22:05Z</time>
      </trkpt>
      <trkpt lat="46.48354" lon="6.06101">
        <ele>1111</ele>
        <time>2018-09-03T23:22:10Z</time>
      </trkpt>
      <trkpt lat="46.48358" lon="6.06096">
        <ele>1111</ele>
        <time>2018-09-03T23:22:15Z</time>
      </trkpt>
      <trkpt lat="46.48367" lon="6.06084">
        <ele>1112</ele>
        <time>2018-09-03T23:22:25Z</time>
      </trkpt>
      <trkpt lat="46.48372" lon="6.06079">
        <ele>1112</ele>
        <time>2018-09-03T23:22:30Z</time>
      </trkpt>
      <trkpt lat="46.48379" lon="6.06066">
        <ele>1111</ele>
        <time>2018-09-03T23:22:40Z</time>
      </trkpt>
      <trkpt lat="46.48383" lon="6.06061">
        <ele>1111</ele>
        <time>2018-09-03T23:22:45Z</time>
      </trkpt>
      <trkpt lat="46.48393" lon="6.06052">
        <ele>1111</ele>
        <time>2018-09-03T23:22:55Z</time>
      </trkpt>
      <trkpt lat="46.48399" lon="6.0605">
        <ele>1111</ele>
        <time>2018-09-03T23:23:00Z</time>
      </trkpt>
      <trkpt lat="46.48401" lon="6.06046">
        <ele>1111</ele>
        <time>2018-09-03T23:23:05Z</time>
      </trkpt>
      <trkpt lat="46.48409" lon="6.06046">
        <ele>1112</ele>
        <time>2018-09-03T23:23:15Z</time>
      </trkpt>
      <trkpt lat="46.48415" lon="6.06044">
        <ele>1111</ele>
        <time>2018-09-03T23:23:20Z</time>
      </trkpt>
      <trkpt lat="46.48425" lon="6.06038">
        <ele>1111</ele>
        <time>2018-09-03T23:23:30Z</time>
      </trkpt>
      <trkpt lat="46.48429" lon="6.06036">
        <ele>1111</ele>
        <time>2018-09-03T23:23:35Z</time>
      </trkpt>
      <trkpt lat="46.48437" lon="6.06037">
        <ele>1111</ele>
        <time>2018-09-03T23:23:45Z</time>
      </trkpt>
      <trkpt lat="46.48441" lon="6.06036">
        <ele>1111</ele>
        <time>2018-09-03T23:23:50Z</time>
      </trkpt>
      <trkpt lat="46.48449" lon="6.06033">
        <ele>1111</ele>
        <time>2018-09-03T23:24:00Z</time>
      </trkpt>
      <trkpt lat="46.48453" lon="6.06031">
        <ele>1111</ele>
        <time>2018-09-03T23:24:05Z</time>
      </trkpt>
      <trkpt lat="46.48458" lon="6.06029">
        <ele>1111</ele>
        <time>2018-09-03T23:24:10Z</time>
      </trkpt>
      <trkpt lat="46.48466" lon="6.06027">
        <ele>1111</ele>
        <time>2018-09-03T23:24:20Z</time>
      </trkpt>
      <trkpt lat="46.48471" lon="6.06028">
        <ele>1110</ele>
        <time>2018-09-03T23:24:25Z</time>
      </trkpt>
      <trkpt lat="46.48482" lon="6.0602">
        <ele>1108</ele>
        <time>2018-09-03T23:24:35Z</time>
      </trkpt>
      <trkpt lat="46.48484" lon="6.0601">
        <ele>1108</ele>
        <time>2018-09-03T23:24:40Z</time>
      </trkpt>
      <trkpt lat="46.4849" lon="6.05999">
        <ele>1108</ele>
        <time>2018-09-03T23:24:50Z</time>
      </trkpt>
      <trkpt lat="46.4849" lon="6.06">
        <ele>1108</ele>
        <time>2018-09-03T23:24:55Z</time>
      </trkpt>
      <trkpt lat="46.48491" lon="6.06005">
        <ele>1108</ele>
        <time>2018-09-03T23:25:00Z</time>
      </trkpt>
      <trkpt lat="46.48493" lon="6.06016">
        <ele>1108</ele>
        <time>2018-09-03T23:25:10Z</time>
      </trkpt>
      <trkpt lat="46.48497" lon="6.06021">
        <ele>1108</ele>
        <time>2018-09-03T23:25:15Z</time>
      </trkpt>
      <trkpt lat="46.48509" lon="6.06021">
        <ele>1109</ele>
        <time>2018-09-03T23:25:25Z</time>
      </trkpt>
      <trkpt lat="46.48515" lon="6.06021">
        <ele>1109</ele>
        <time>2018-09-03T23:25:30Z</time>
      </trkpt>
      <trkpt lat="46.48527" lon="6.0602">
        <ele>1110</ele>
        <time>2018-09-03T23:25:40Z</time>
      </trkpt>
      <trkpt lat="46.48531" lon="6.0602">
        <ele>1110</ele>
        <time>2018-09-03T23:25:45Z</time>
      </trkpt>
      <trkpt lat="46.48535" lon="6.06018">
        <ele>1110</ele>
        <time>2018-09-03T23:25:50Z</time>
      </trkpt>
      <trkpt lat="46.48544" lon="6.06023">
        <ele>1110</ele>
        <time>2018-09-03T23:26:00Z</time>
      </trkpt>
      <trkpt lat="46.48548" lon="6.06027">
        <ele>1110</ele>
        <time>2018-09-03T23:26:05Z</time>
      </trkpt>
      <trkpt lat="46.48559" lon="6.06032">
        <ele>1111</ele>
        <time>2018-09-03T23:26:15Z</time>
      </trkpt>
      <trkpt lat="46.48565" lon="6.06034">
        <ele>1111</ele>
        <time>2018-09-03T23:26:20Z</time>
      </trkpt>
      <trkpt lat="46.48568" lon="6.0602">
        <ele>1111</ele>
        <time>2018-09-03T23:26:30Z</time>
      </trkpt>
      <trkpt lat="46.48568" lon="6.0601">
        <ele>1112</ele>
        <time>2018-09-03T23:26:35Z</time>
      </trkpt>
      <trkpt lat="46.4857" lon="6.06005">
        <ele>1112</ele>
        <time>2018-09-03T23:26:40Z</time>
      </trkpt>
      <trkpt lat="46.4857" lon="6.05996">
        <ele>1112</ele>
        <time>2018-09-03T23:26:50Z</time>
      </trkpt>
      <trkpt lat="46.48569" lon="6.05987">
        <ele>1112</ele>
        <time>2018-09-03T23:26:55Z</time>
      </trkpt>
      <trkpt lat="46.48564" lon="6.05971">
        <ele>1113</ele>
        <time>2018-09-03T23:27:05Z</time>
      </trkpt>
      <trkpt lat="46.48561" lon="6.05959">
        <ele>1113</ele>
        <time>2018-09-03T23:27:10Z</time>
      </trkpt>
      <trkpt lat="46.48559" lon="6.05944">
        <ele>1112</ele>
        <time>2018-09-03T23:27:20Z</time>
      </trkpt>
      <trkpt lat="46.48557" lon="6.05941">
        <ele>1112</ele>
        <time>2018-09-03T23:27:25Z</time>
      </trkpt>
      <trkpt lat="46.48555" lon="6.05935">
        <ele>1111</ele>
        <time>2018-09-03T23:27:30Z</time>
      </trkpt>
      <trkpt lat="46.48553" lon="6.0592">
        <ele>1110</ele>
        <time>2018-09-03T23:27:40Z</time>
      </trkpt>
      <trkpt lat="46.48553" lon="6.05912">
        <ele>1110</ele>
        <time>2018-09-03T23:27:45Z</time>
      </trkpt>
      <trkpt lat="46.48557" lon="6.05896">
        <ele>1108</ele>
        <time>2018-09-03T23:27:55Z</time>
      </trkpt>
      <trkpt lat="46.48561" lon="6.05889">
        <ele>1108</ele>
        <time>2018-09-03T23:28:00Z</time>
      </trkpt>
      <trkpt lat="46.48569" lon="6.05882">
        <ele>1108</ele>
        <time>2018-09-03T23:28:10Z</time>
      </trkpt>
      <trkpt lat="46.48569" lon="6.05884">
        <ele>1108</ele>
        <time>2018-09-03T23:28:15Z</time>
      </trkpt>
      <trkpt lat="46.48575" lon="6.05877">
        <ele>1108</ele>
        <time>2018-09-03T23:28:25Z</time>
      </trkpt>
      <trkpt lat="46.48579" lon="6.05876">
        <ele>1107</ele>
        <time>2018-09-03T23:28:30Z</time>
      </trkpt>
      <trkpt lat="46.48581" lon="6.05876">
        <ele>1107</ele>
        <time>2018-09-03T23:28:35Z</time>
      </trkpt>
      <trkpt lat="46.48581" lon="6.05887">
        <ele>1108</ele>
        <time>2018-09-03T23:28:45Z</time>
      </trkpt>
      <trkpt lat="46.48582" lon="6.0589">
        <ele>1108</ele>
        <time>2018-09-03T23:28:50Z</time>
      </trkpt>
      <trkpt lat="46.48583" lon="6.05893">
        <ele>1108</ele>
        <time>2018-09-03T23:29:00Z</time>
      </trkpt>
      <trkpt lat="46.4858" lon="6.05893">
        <ele>1108</ele>
        <time>2018-09-03T23:29:05Z</time>
      </trkpt>
      <trkpt lat="46.48576" lon="6.05893">
        <ele>1108</ele>
        <time>2018-09-03T23:29:15Z</time>
      </trkpt>
      <trkpt lat="46.48578" lon="6.05884">
        <ele>1108</ele>
        <time>2018-09-03T23:29:20Z</time>
      </trkpt>
      <trkpt lat="46.48577" lon="6.05884">
        <ele>1108</ele>
        <time>2018-09-03T23:29:25Z</time>
      </trkpt>
      <trkpt lat="46.48574" lon="6.05871">
        <ele>1107</ele>
        <time>2018-09-03T23:29:35Z</time>
      </trkpt>
      <trkpt lat="46.48574" lon="6.05872">
        <ele>1107</ele>
        <time>2018-09-03T23:29:40Z</time>
      </trkpt>
      <trkpt lat="46.4858" lon="6.05863">
        <ele>1106</ele>
        <time>2018-09-03T23:29:50Z</time>
      </trkpt>
      <trkpt lat="46.48578" lon="6.05859">
        <ele>1106</ele>
        <time>2018-09-03T23:29:55Z</time>
      </trkpt>
      <trkpt lat="46.4858" lon="6.05869">
        <ele>1107</ele>
        <time>2018-09-03T23:30:05Z</time>
      </trkpt>
      <trkpt lat="46.48581" lon="6.05882">
        <ele>1108</ele>
        <time>2018-09-03T23:30:10Z</time>
      </trkpt>
      <trkpt lat="46.4858" lon="6.05886">
        <ele>1108</ele>
        <time>2018-09-03T23:30:15Z</time>
      </trkpt>
      <trkpt lat="46.48578" lon="6.05894">
        <ele>1108</ele>
        <time>2018-09-03T23:30:25Z</time>
      </trkpt>
      <trkpt lat="46.48577" lon="6.05892">
        <ele>1108</ele>
        <time>2018-09-03T23:30:30Z</time>
      </trkpt>
      <trkpt lat="46.48575" lon="6.05897">
        <ele>1109</ele>
        <time>2018-09-03T23:30:40Z</time>
      </trkpt>
      <trkpt lat="46.48577" lon="6.05901">
        <ele>1109</ele>
        <time>2018-09-03T23:30:45Z</time>
      </trkpt>
      <trkpt lat="46.48588" lon="6.05902">
        <ele>1109</ele>
        <time>2018-09-03T23:30:55Z</time>
      </trkpt>
      <trkpt lat="46.48588" lon="6.05896">
        <ele>1108</ele>
        <time>2018-09-03T23:31:00Z</time>
      </trkpt>
      <trkpt lat="46.48587" lon="6.05895">
        <ele>1108</ele>
        <time>2018-09-03T23:31:05Z</time>
      </trkpt>
      <trkpt lat="46.48591" lon="6.059">
        <ele>1109</ele>
        <time>2018-09-03T23:31:15Z</time>
      </trkpt>
      <trkpt lat="46.48587" lon="6.05902">
        <ele>1109</ele>
        <time>2018-09-03T23:31:20Z</time>
      </trkpt>
      <trkpt lat="46.48587" lon="6.05903">
        <ele>1109</ele>
        <time>2018-09-03T23:31:30Z</time>
      </trkpt>
      <trkpt lat="46.48584" lon="6.05905">
        <ele>1109</ele>
        <time>2018-09-03T23:31:35Z</time>
      </trkpt>
      <trkpt lat="46.48594" lon="6.0591">
        <ele>1109</ele>
        <time>2018-09-03T23:31:45Z</time>
      </trkpt>
      <trkpt lat="46.48597" lon="6.05913">
        <ele>1109</ele>
        <time>2018-09-03T23:31:50Z</time>
      </trkpt>
      <trkpt lat="46.48597" lon="6.05913">
        <ele>1109</ele>
        <time>2018-09-03T23:31:52Z</time>
      </trkpt>
    </trkseg>
  </trk>
</gpx>